<?xml version="1.0" encoding="utf-8"?>
<gpx xmlns:xsi="http://www.w3.org/2001/XMLSchema-instance" xmlns:xsd="http://www.w3.org/2001/XMLSchema" version="1.1" creator="Shapelink.com" xmlns="http://www.topografix.com/GPX/1/1" xmlns:gpxtpx="http://www.garmin.com/xmlschemas/TrackPointExtension/v1">
  <metadata>
    <name>Cykling 60.88 km, 2013-08-20</name>
    <desc></desc>
    <author><name>Alexander Engvall</name></author> 
    <time>2013-08-20T18:14:56Z</time>
  </metadata>
  <trk>
    <name>Cykling 60.88 km, 2013-08-20</name>
    <trkseg>
      <trkpt lat="59.325280643265" lon="17.900301150448">
        <ele>0</ele>
        <time>2013-08-20T18:14:56Z</time>
      </trkpt>
      <trkpt lat="59.325207217821" lon="17.900183300934">
        <ele>0</ele>
        <time>2013-08-20T18:14:58Z</time>
      </trkpt>
      <trkpt lat="59.325168074348" lon="17.900116329553">
        <ele>0</ele>
        <time>2013-08-20T18:14:59Z</time>
      </trkpt>
      <trkpt lat="59.325138653879" lon="17.900028235784">
        <ele>0</ele>
        <time>2013-08-20T18:15:00Z</time>
      </trkpt>
      <trkpt lat="59.325051733576" lon="17.899729672506">
        <ele>0</ele>
        <time>2013-08-20T18:15:03Z</time>
      </trkpt>
      <trkpt lat="59.325030108274" lon="17.899620121073">
        <ele>0</ele>
        <time>2013-08-20T18:15:04Z</time>
      </trkpt>
      <trkpt lat="59.32492231704" lon="17.899206222851">
        <ele>0</ele>
        <time>2013-08-20T18:15:08Z</time>
      </trkpt>
      <trkpt lat="59.324767084252" lon="17.898678833703">
        <ele>0</ele>
        <time>2013-08-20T18:15:13Z</time>
      </trkpt>
      <trkpt lat="59.324589723248" lon="17.89801775325">
        <ele>0</ele>
        <time>2013-08-20T18:15:19Z</time>
      </trkpt>
      <trkpt lat="59.324401633412" lon="17.897322307007">
        <ele>0</ele>
        <time>2013-08-20T18:15:25Z</time>
      </trkpt>
      <trkpt lat="59.324340026447" lon="17.897091637119">
        <ele>0</ele>
        <time>2013-08-20T18:15:27Z</time>
      </trkpt>
      <trkpt lat="59.324306079752" lon="17.896965489524">
        <ele>0</ele>
        <time>2013-08-20T18:15:28Z</time>
      </trkpt>
      <trkpt lat="59.324270540496" lon="17.896825930889">
        <ele>0</ele>
        <time>2013-08-20T18:15:29Z</time>
      </trkpt>
      <trkpt lat="59.324244724244" lon="17.896709422479">
        <ele>0</ele>
        <time>2013-08-20T18:15:30Z</time>
      </trkpt>
      <trkpt lat="59.324215387594" lon="17.89658612473">
        <ele>0</ele>
        <time>2013-08-20T18:15:31Z</time>
      </trkpt>
      <trkpt lat="59.32410005265" lon="17.895919093128">
        <ele>0</ele>
        <time>2013-08-20T18:15:36Z</time>
      </trkpt>
      <trkpt lat="59.323988489561" lon="17.894993647549">
        <ele>0</ele>
        <time>2013-08-20T18:15:43Z</time>
      </trkpt>
      <trkpt lat="59.323863515432" lon="17.893933421018">
        <ele>0</ele>
        <time>2013-08-20T18:15:51Z</time>
      </trkpt>
      <trkpt lat="59.323847254546" lon="17.893795874039">
        <ele>0</ele>
        <time>2013-08-20T18:15:52Z</time>
      </trkpt>
      <trkpt lat="59.323720436399" lon="17.892753417136">
        <ele>0</ele>
        <time>2013-08-20T18:16:00Z</time>
      </trkpt>
      <trkpt lat="59.323617925762" lon="17.89184113114">
        <ele>0</ele>
        <time>2013-08-20T18:16:07Z</time>
      </trkpt>
      <trkpt lat="59.323617171391" lon="17.891451456609">
        <ele>0</ele>
        <time>2013-08-20T18:16:10Z</time>
      </trkpt>
      <trkpt lat="59.323627062033" lon="17.891171584968">
        <ele>0</ele>
        <time>2013-08-20T18:16:12Z</time>
      </trkpt>
      <trkpt lat="59.323718005648" lon="17.890557359336">
        <ele>0</ele>
        <time>2013-08-20T18:16:17Z</time>
      </trkpt>
      <trkpt lat="59.323823617588" lon="17.890115046473">
        <ele>0</ele>
        <time>2013-08-20T18:16:21Z</time>
      </trkpt>
      <trkpt lat="59.323878183757" lon="17.889895105417">
        <ele>0</ele>
        <time>2013-08-20T18:16:23Z</time>
      </trkpt>
      <trkpt lat="59.323937276152" lon="17.889557566304">
        <ele>0</ele>
        <time>2013-08-20T18:16:26Z</time>
      </trkpt>
      <trkpt lat="59.323944316948" lon="17.889452624916">
        <ele>0</ele>
        <time>2013-08-20T18:16:27Z</time>
      </trkpt>
      <trkpt lat="59.323952447391" lon="17.889368219183">
        <ele>0</ele>
        <time>2013-08-20T18:16:28Z</time>
      </trkpt>
      <trkpt lat="59.323966948078" lon="17.889258583931">
        <ele>0</ele>
        <time>2013-08-20T18:16:29Z</time>
      </trkpt>
      <trkpt lat="59.323991674683" lon="17.889152971991">
        <ele>0.2</ele>
        <time>2013-08-20T18:16:30Z</time>
      </trkpt>
      <trkpt lat="59.324087731257" lon="17.888676544795">
        <ele>0.2</ele>
        <time>2013-08-20T18:16:34Z</time>
      </trkpt>
      <trkpt lat="59.324194516663" lon="17.88808184899">
        <ele>0.2</ele>
        <time>2013-08-20T18:16:39Z</time>
      </trkpt>
      <trkpt lat="59.324223350399" lon="17.887964753847">
        <ele>0.2</ele>
        <time>2013-08-20T18:16:40Z</time>
      </trkpt>
      <trkpt lat="59.324270624315" lon="17.887727797534">
        <ele>0.6</ele>
        <time>2013-08-20T18:16:42Z</time>
      </trkpt>
      <trkpt lat="59.324295602377" lon="17.88760072793">
        <ele>1</ele>
        <time>2013-08-20T18:16:43Z</time>
      </trkpt>
      <trkpt lat="59.324324855208" lon="17.887479358018">
        <ele>1.4</ele>
        <time>2013-08-20T18:16:44Z</time>
      </trkpt>
      <trkpt lat="59.324354778591" lon="17.887354886803">
        <ele>1.8</ele>
        <time>2013-08-20T18:16:45Z</time>
      </trkpt>
      <trkpt lat="59.324381013938" lon="17.887229242122">
        <ele>2.2</ele>
        <time>2013-08-20T18:16:46Z</time>
      </trkpt>
      <trkpt lat="59.324479836539" lon="17.886695231273">
        <ele>2.2</ele>
        <time>2013-08-20T18:16:50Z</time>
      </trkpt>
      <trkpt lat="59.324626352151" lon="17.886066169678">
        <ele>2.2</ele>
        <time>2013-08-20T18:16:55Z</time>
      </trkpt>
      <trkpt lat="59.324671446773" lon="17.885960641557">
        <ele>2.2</ele>
        <time>2013-08-20T18:16:56Z</time>
      </trkpt>
      <trkpt lat="59.324864565749" lon="17.885550263733">
        <ele>2.2</ele>
        <time>2013-08-20T18:17:00Z</time>
      </trkpt>
      <trkpt lat="59.324925837438" lon="17.885445992897">
        <ele>2.2</ele>
        <time>2013-08-20T18:17:01Z</time>
      </trkpt>
      <trkpt lat="59.32515114291" lon="17.885053636158">
        <ele>2.2</ele>
        <time>2013-08-20T18:17:05Z</time>
      </trkpt>
      <trkpt lat="59.325249043502" lon="17.88484475921">
        <ele>2.2</ele>
        <time>2013-08-20T18:17:07Z</time>
      </trkpt>
      <trkpt lat="59.325477115001" lon="17.884224414791">
        <ele>2.2</ele>
        <time>2013-08-20T18:17:12Z</time>
      </trkpt>
      <trkpt lat="59.32573200858" lon="17.8834122925">
        <ele>2.2</ele>
        <time>2013-08-20T18:17:18Z</time>
      </trkpt>
      <trkpt lat="59.325992769489" lon="17.882532444457">
        <ele>1.8</ele>
        <time>2013-08-20T18:17:24Z</time>
      </trkpt>
      <trkpt lat="59.326035684817" lon="17.882373104538">
        <ele>1.4</ele>
        <time>2013-08-20T18:17:25Z</time>
      </trkpt>
      <trkpt lat="59.326078264869" lon="17.88221954813">
        <ele>1</ele>
        <time>2013-08-20T18:17:26Z</time>
      </trkpt>
      <trkpt lat="59.326121850749" lon="17.882076301459">
        <ele>0.6</ele>
        <time>2013-08-20T18:17:27Z</time>
      </trkpt>
      <trkpt lat="59.326164179344" lon="17.881928109467">
        <ele>0.2</ele>
        <time>2013-08-20T18:17:28Z</time>
      </trkpt>
      <trkpt lat="59.326375319405" lon="17.881003837354">
        <ele>0.2</ele>
        <time>2013-08-20T18:17:34Z</time>
      </trkpt>
      <trkpt lat="59.326472800902" lon="17.880252651476">
        <ele>0.2</ele>
        <time>2013-08-20T18:17:39Z</time>
      </trkpt>
      <trkpt lat="59.326478919689" lon="17.880094485023">
        <ele>0.2</ele>
        <time>2013-08-20T18:17:40Z</time>
      </trkpt>
      <trkpt lat="59.326483697372" lon="17.879658458585">
        <ele>0</ele>
        <time>2013-08-20T18:17:43Z</time>
      </trkpt>
      <trkpt lat="59.326478332956" lon="17.879500543589">
        <ele>0</ele>
        <time>2013-08-20T18:17:44Z</time>
      </trkpt>
      <trkpt lat="59.326474142006" lon="17.879350172303">
        <ele>0</ele>
        <time>2013-08-20T18:17:45Z</time>
      </trkpt>
      <trkpt lat="59.326465592468" lon="17.879202818501">
        <ele>0</ele>
        <time>2013-08-20T18:17:46Z</time>
      </trkpt>
      <trkpt lat="59.326416725991" lon="17.878680793769">
        <ele>0</ele>
        <time>2013-08-20T18:17:50Z</time>
      </trkpt>
      <trkpt lat="59.326411864489" lon="17.878563950083">
        <ele>0</ele>
        <time>2013-08-20T18:17:51Z</time>
      </trkpt>
      <trkpt lat="59.326411445394" lon="17.878250299385">
        <ele>0</ele>
        <time>2013-08-20T18:17:54Z</time>
      </trkpt>
      <trkpt lat="59.326566929639" lon="17.87813672464">
        <ele>0</ele>
        <time>2013-08-20T18:17:57Z</time>
      </trkpt>
      <trkpt lat="59.32670933812" lon="17.87805374383">
        <ele>0</ele>
        <time>2013-08-20T18:17:59Z</time>
      </trkpt>
      <trkpt lat="59.326845711633" lon="17.877978893463">
        <ele>0</ele>
        <time>2013-08-20T18:18:01Z</time>
      </trkpt>
      <trkpt lat="59.326918298887" lon="17.877928602063">
        <ele>0</ele>
        <time>2013-08-20T18:18:02Z</time>
      </trkpt>
      <trkpt lat="59.32698174987" lon="17.877870599315">
        <ele>0</ele>
        <time>2013-08-20T18:18:03Z</time>
      </trkpt>
      <trkpt lat="59.327042853921" lon="17.877806729237">
        <ele>0</ele>
        <time>2013-08-20T18:18:04Z</time>
      </trkpt>
      <trkpt lat="59.327103119782" lon="17.877731124499">
        <ele>0.4</ele>
        <time>2013-08-20T18:18:05Z</time>
      </trkpt>
      <trkpt lat="59.327160032883" lon="17.877653340467">
        <ele>0.4</ele>
        <time>2013-08-20T18:18:06Z</time>
      </trkpt>
      <trkpt lat="59.327210156645" lon="17.87756759363">
        <ele>0.4</ele>
        <time>2013-08-20T18:18:07Z</time>
      </trkpt>
      <trkpt lat="59.327255586543" lon="17.877478494033">
        <ele>0.8</ele>
        <time>2013-08-20T18:18:08Z</time>
      </trkpt>
      <trkpt lat="59.32729607112" lon="17.877385454943">
        <ele>1.2</ele>
        <time>2013-08-20T18:18:09Z</time>
      </trkpt>
      <trkpt lat="59.327335717507" lon="17.877276574062">
        <ele>1.6</ele>
        <time>2013-08-20T18:18:10Z</time>
      </trkpt>
      <trkpt lat="59.327375112437" lon="17.877173476692">
        <ele>2.4</ele>
        <time>2013-08-20T18:18:11Z</time>
      </trkpt>
      <trkpt lat="59.327409142951" lon="17.877058225567">
        <ele>2.4</ele>
        <time>2013-08-20T18:18:12Z</time>
      </trkpt>
      <trkpt lat="59.327506037715" lon="17.876714232391">
        <ele>2.4</ele>
        <time>2013-08-20T18:18:15Z</time>
      </trkpt>
      <trkpt lat="59.327710053161" lon="17.87599514919">
        <ele>2.4</ele>
        <time>2013-08-20T18:18:21Z</time>
      </trkpt>
      <trkpt lat="59.327915661168" lon="17.875289141753">
        <ele>2.8</ele>
        <time>2013-08-20T18:18:27Z</time>
      </trkpt>
      <trkpt lat="59.327951870976" lon="17.875174309723">
        <ele>3.4</ele>
        <time>2013-08-20T18:18:28Z</time>
      </trkpt>
      <trkpt lat="59.327986152947" lon="17.875056963123">
        <ele>3.8</ele>
        <time>2013-08-20T18:18:29Z</time>
      </trkpt>
      <trkpt lat="59.32802026728" lon="17.874930480252">
        <ele>4.2</ele>
        <time>2013-08-20T18:18:30Z</time>
      </trkpt>
      <trkpt lat="59.328053878699" lon="17.874810451444">
        <ele>4.6</ele>
        <time>2013-08-20T18:18:31Z</time>
      </trkpt>
      <trkpt lat="59.328218163939" lon="17.874231345973">
        <ele>4.6</ele>
        <time>2013-08-20T18:18:36Z</time>
      </trkpt>
      <trkpt lat="59.328378342048" lon="17.873673698166">
        <ele>5.2</ele>
        <time>2013-08-20T18:18:41Z</time>
      </trkpt>
      <trkpt lat="59.328408181612" lon="17.87356104543">
        <ele>5.6</ele>
        <time>2013-08-20T18:18:42Z</time>
      </trkpt>
      <trkpt lat="59.328440032832" lon="17.873448979427">
        <ele>6</ele>
        <time>2013-08-20T18:18:43Z</time>
      </trkpt>
      <trkpt lat="59.328474650079" lon="17.873342026383">
        <ele>6.4</ele>
        <time>2013-08-20T18:18:44Z</time>
      </trkpt>
      <trkpt lat="59.328507004213" lon="17.873231385303">
        <ele>6.8</ele>
        <time>2013-08-20T18:18:45Z</time>
      </trkpt>
      <trkpt lat="59.328645976115" lon="17.872758813781">
        <ele>6.8</ele>
        <time>2013-08-20T18:18:49Z</time>
      </trkpt>
      <trkpt lat="59.328788468415" lon="17.872283308594">
        <ele>7.2</ele>
        <time>2013-08-20T18:18:53Z</time>
      </trkpt>
      <trkpt lat="59.328822750386" lon="17.872164285614">
        <ele>7.6</ele>
        <time>2013-08-20T18:18:54Z</time>
      </trkpt>
      <trkpt lat="59.328858708737" lon="17.872049369765">
        <ele>8</ele>
        <time>2013-08-20T18:18:55Z</time>
      </trkpt>
      <trkpt lat="59.32889701402" lon="17.871931268794">
        <ele>8.4</ele>
        <time>2013-08-20T18:18:56Z</time>
      </trkpt>
      <trkpt lat="59.32894227628" lon="17.871833954935">
        <ele>9</ele>
        <time>2013-08-20T18:18:57Z</time>
      </trkpt>
      <trkpt lat="59.329193146547" lon="17.871348810563">
        <ele>9</ele>
        <time>2013-08-20T18:19:02Z</time>
      </trkpt>
      <trkpt lat="59.329241593929" lon="17.871253675998">
        <ele>9</ele>
        <time>2013-08-20T18:19:03Z</time>
      </trkpt>
      <trkpt lat="59.329574606816" lon="17.87069275925">
        <ele>9</ele>
        <time>2013-08-20T18:19:09Z</time>
      </trkpt>
      <trkpt lat="59.330017171136" lon="17.869884073538">
        <ele>9</ele>
        <time>2013-08-20T18:19:17Z</time>
      </trkpt>
      <trkpt lat="59.330061679025" lon="17.869756333382">
        <ele>9.4</ele>
        <time>2013-08-20T18:19:18Z</time>
      </trkpt>
      <trkpt lat="59.330104259077" lon="17.869630018149">
        <ele>9.8</ele>
        <time>2013-08-20T18:19:19Z</time>
      </trkpt>
      <trkpt lat="59.330139714514" lon="17.869499679604">
        <ele>10.2</ele>
        <time>2013-08-20T18:19:20Z</time>
      </trkpt>
      <trkpt lat="59.330171481915" lon="17.86937177181">
        <ele>10.6</ele>
        <time>2013-08-20T18:19:21Z</time>
      </trkpt>
      <trkpt lat="59.330198639271" lon="17.869236655582">
        <ele>11</ele>
        <time>2013-08-20T18:19:22Z</time>
      </trkpt>
      <trkpt lat="59.330221689496" lon="17.86908511083">
        <ele>11</ele>
        <time>2013-08-20T18:19:23Z</time>
      </trkpt>
      <trkpt lat="59.330255300915" lon="17.868781350774">
        <ele>11</ele>
        <time>2013-08-20T18:19:25Z</time>
      </trkpt>
      <trkpt lat="59.330344484331" lon="17.86769371543">
        <ele>11</ele>
        <time>2013-08-20T18:19:32Z</time>
      </trkpt>
      <trkpt lat="59.330359068837" lon="17.86753529752">
        <ele>11</ele>
        <time>2013-08-20T18:19:33Z</time>
      </trkpt>
      <trkpt lat="59.330459819275" lon="17.866455792619">
        <ele>11</ele>
        <time>2013-08-20T18:19:40Z</time>
      </trkpt>
      <trkpt lat="59.33047281122" lon="17.866297626166">
        <ele>11</ele>
        <time>2013-08-20T18:19:41Z</time>
      </trkpt>
      <trkpt lat="59.330575740952" lon="17.865286601388">
        <ele>11</ele>
        <time>2013-08-20T18:19:48Z</time>
      </trkpt>
      <trkpt lat="59.330588565259" lon="17.86513807412">
        <ele>11</ele>
        <time>2013-08-20T18:19:49Z</time>
      </trkpt>
      <trkpt lat="59.330726279876" lon="17.863954382202">
        <ele>11</ele>
        <time>2013-08-20T18:19:57Z</time>
      </trkpt>
      <trkpt lat="59.330849493806" lon="17.862869429066">
        <ele>11</ele>
        <time>2013-08-20T18:20:04Z</time>
      </trkpt>
      <trkpt lat="59.330867850167" lon="17.862716375572">
        <ele>11</ele>
        <time>2013-08-20T18:20:05Z</time>
      </trkpt>
      <trkpt lat="59.330997937255" lon="17.861671990832">
        <ele>11</ele>
        <time>2013-08-20T18:20:12Z</time>
      </trkpt>
      <trkpt lat="59.331012521761" lon="17.861522709193">
        <ele>11</ele>
        <time>2013-08-20T18:20:13Z</time>
      </trkpt>
      <trkpt lat="59.331134729863" lon="17.860511349139">
        <ele>11</ele>
        <time>2013-08-20T18:20:20Z</time>
      </trkpt>
      <trkpt lat="59.331260206906" lon="17.859443243622">
        <ele>11</ele>
        <time>2013-08-20T18:20:27Z</time>
      </trkpt>
      <trkpt lat="59.331281748389" lon="17.859293878164">
        <ele>11</ele>
        <time>2013-08-20T18:20:28Z</time>
      </trkpt>
      <trkpt lat="59.331403705034" lon="17.858233148719">
        <ele>11.4</ele>
        <time>2013-08-20T18:20:35Z</time>
      </trkpt>
      <trkpt lat="59.331420720291" lon="17.858085459641">
        <ele>11.8</ele>
        <time>2013-08-20T18:20:36Z</time>
      </trkpt>
      <trkpt lat="59.331439831023" lon="17.857941039504">
        <ele>12.2</ele>
        <time>2013-08-20T18:20:37Z</time>
      </trkpt>
      <trkpt lat="59.331457768289" lon="17.857795445901">
        <ele>12.6</ele>
        <time>2013-08-20T18:20:38Z</time>
      </trkpt>
      <trkpt lat="59.331468916216" lon="17.857649600841">
        <ele>13</ele>
        <time>2013-08-20T18:20:39Z</time>
      </trkpt>
      <trkpt lat="59.331536977244" lon="17.857092707405">
        <ele>13.4</ele>
        <time>2013-08-20T18:20:43Z</time>
      </trkpt>
      <trkpt lat="59.331554243958" lon="17.85693806135">
        <ele>13.8</ele>
        <time>2013-08-20T18:20:44Z</time>
      </trkpt>
      <trkpt lat="59.33157084012" lon="17.856790959005">
        <ele>14.2</ele>
        <time>2013-08-20T18:20:45Z</time>
      </trkpt>
      <trkpt lat="59.331587855377" lon="17.856640839176">
        <ele>14.6</ele>
        <time>2013-08-20T18:20:46Z</time>
      </trkpt>
      <trkpt lat="59.331603697168" lon="17.856491054623">
        <ele>15</ele>
        <time>2013-08-20T18:20:47Z</time>
      </trkpt>
      <trkpt lat="59.331687516168" lon="17.855743472962">
        <ele>15</ele>
        <time>2013-08-20T18:20:52Z</time>
      </trkpt>
      <trkpt lat="59.331794133936" lon="17.854557434112">
        <ele>15</ele>
        <time>2013-08-20T18:21:00Z</time>
      </trkpt>
      <trkpt lat="59.331783321285" lon="17.854249399287">
        <ele>15</ele>
        <time>2013-08-20T18:21:02Z</time>
      </trkpt>
      <trkpt lat="59.331747949667" lon="17.853938849892">
        <ele>15</ele>
        <time>2013-08-20T18:21:04Z</time>
      </trkpt>
      <trkpt lat="59.331596991648" lon="17.852901757405">
        <ele>15</ele>
        <time>2013-08-20T18:21:11Z</time>
      </trkpt>
      <trkpt lat="59.331514429933" lon="17.852337068802">
        <ele>15.6</ele>
        <time>2013-08-20T18:21:15Z</time>
      </trkpt>
      <trkpt lat="59.331490290061" lon="17.852186529878">
        <ele>16</ele>
        <time>2013-08-20T18:21:16Z</time>
      </trkpt>
      <trkpt lat="59.331474112994" lon="17.852040684818">
        <ele>16.4</ele>
        <time>2013-08-20T18:21:17Z</time>
      </trkpt>
      <trkpt lat="59.331464222352" lon="17.851892325188">
        <ele>16.8</ele>
        <time>2013-08-20T18:21:18Z</time>
      </trkpt>
      <trkpt lat="59.331451733321" lon="17.851751928363">
        <ele>17.2</ele>
        <time>2013-08-20T18:21:19Z</time>
      </trkpt>
      <trkpt lat="59.331396831876" lon="17.851331492259">
        <ele>17.2</ele>
        <time>2013-08-20T18:21:22Z</time>
      </trkpt>
      <trkpt lat="59.331264649313" lon="17.850265901312">
        <ele>17.2</ele>
        <time>2013-08-20T18:21:29Z</time>
      </trkpt>
      <trkpt lat="59.331160378477" lon="17.849547069568">
        <ele>17.2</ele>
        <time>2013-08-20T18:21:34Z</time>
      </trkpt>
      <trkpt lat="59.33114587779" lon="17.849417066299">
        <ele>17.8</ele>
        <time>2013-08-20T18:21:35Z</time>
      </trkpt>
      <trkpt lat="59.331135484234" lon="17.849293014179">
        <ele>18.2</ele>
        <time>2013-08-20T18:21:36Z</time>
      </trkpt>
      <trkpt lat="59.331123079022" lon="17.849181031995">
        <ele>18.6</ele>
        <time>2013-08-20T18:21:37Z</time>
      </trkpt>
      <trkpt lat="59.33110815924" lon="17.849066451422">
        <ele>19.2</ele>
        <time>2013-08-20T18:21:38Z</time>
      </trkpt>
      <trkpt lat="59.331099190607" lon="17.848953966324">
        <ele>19.8</ele>
        <time>2013-08-20T18:21:39Z</time>
      </trkpt>
      <trkpt lat="59.331091227802" lon="17.848852461515">
        <ele>20.4</ele>
        <time>2013-08-20T18:21:40Z</time>
      </trkpt>
      <trkpt lat="59.33108301354" lon="17.848724972816">
        <ele>20.8</ele>
        <time>2013-08-20T18:21:41Z</time>
      </trkpt>
      <trkpt lat="59.331080666608" lon="17.848593125529">
        <ele>21.4</ele>
        <time>2013-08-20T18:21:42Z</time>
      </trkpt>
      <trkpt lat="59.331086701576" lon="17.848450717048">
        <ele>22</ele>
        <time>2013-08-20T18:21:43Z</time>
      </trkpt>
      <trkpt lat="59.331097849503" lon="17.848295232803">
        <ele>22</ele>
        <time>2013-08-20T18:21:44Z</time>
      </trkpt>
      <trkpt lat="59.331139088451" lon="17.84796356102">
        <ele>22</ele>
        <time>2013-08-20T18:21:46Z</time>
      </trkpt>
      <trkpt lat="59.33120538928" lon="17.84767354728">
        <ele>22</ele>
        <time>2013-08-20T18:21:48Z</time>
      </trkpt>
      <trkpt lat="59.3312456224" lon="17.847547986418">
        <ele>22</ele>
        <time>2013-08-20T18:21:49Z</time>
      </trkpt>
      <trkpt lat="59.331365567389" lon="17.847178596085">
        <ele>22</ele>
        <time>2013-08-20T18:21:52Z</time>
      </trkpt>
      <trkpt lat="59.33139817298" lon="17.847032751025">
        <ele>22</ele>
        <time>2013-08-20T18:21:53Z</time>
      </trkpt>
      <trkpt lat="59.331403872672" lon="17.846711975712">
        <ele>22</ele>
        <time>2013-08-20T18:21:55Z</time>
      </trkpt>
      <trkpt lat="59.331325753364" lon="17.846277038921">
        <ele>22</ele>
        <time>2013-08-20T18:21:58Z</time>
      </trkpt>
      <trkpt lat="59.331248304608" lon="17.846004962447">
        <ele>22</ele>
        <time>2013-08-20T18:22:00Z</time>
      </trkpt>
      <trkpt lat="59.331217207759" lon="17.845851741315">
        <ele>22</ele>
        <time>2013-08-20T18:22:01Z</time>
      </trkpt>
      <trkpt lat="59.331180411218" lon="17.84552191355">
        <ele>22</ele>
        <time>2013-08-20T18:22:03Z</time>
      </trkpt>
      <trkpt lat="59.33104529499" lon="17.844748767094">
        <ele>22</ele>
        <time>2013-08-20T18:22:08Z</time>
      </trkpt>
      <trkpt lat="59.330789144126" lon="17.84396288015">
        <ele>22</ele>
        <time>2013-08-20T18:22:14Z</time>
      </trkpt>
      <trkpt lat="59.330741954029" lon="17.843858776952">
        <ele>22.4</ele>
        <time>2013-08-20T18:22:15Z</time>
      </trkpt>
      <trkpt lat="59.330680514702" lon="17.843768084794">
        <ele>22.8</ele>
        <time>2013-08-20T18:22:16Z</time>
      </trkpt>
      <trkpt lat="59.33062619999" lon="17.843675632437">
        <ele>23.4</ele>
        <time>2013-08-20T18:22:17Z</time>
      </trkpt>
      <trkpt lat="59.330563168102" lon="17.84358318008">
        <ele>24.2</ele>
        <time>2013-08-20T18:22:18Z</time>
      </trkpt>
      <trkpt lat="59.330360829036" lon="17.843319653144">
        <ele>24.2</ele>
        <time>2013-08-20T18:22:21Z</time>
      </trkpt>
      <trkpt lat="59.330291678361" lon="17.843237761981">
        <ele>24.2</ele>
        <time>2013-08-20T18:22:22Z</time>
      </trkpt>
      <trkpt lat="59.329890688265" lon="17.842873484607">
        <ele>24.2</ele>
        <time>2013-08-20T18:22:27Z</time>
      </trkpt>
      <trkpt lat="59.329807958912" lon="17.842793856557">
        <ele>23.8</ele>
        <time>2013-08-20T18:22:28Z</time>
      </trkpt>
      <trkpt lat="59.329726067749" lon="17.842722694226">
        <ele>23.4</ele>
        <time>2013-08-20T18:22:29Z</time>
      </trkpt>
      <trkpt lat="59.32964132674" lon="17.842675085034">
        <ele>23</ele>
        <time>2013-08-20T18:22:30Z</time>
      </trkpt>
      <trkpt lat="59.329549042021" lon="17.842668211876">
        <ele>22.6</ele>
        <time>2013-08-20T18:22:31Z</time>
      </trkpt>
      <trkpt lat="59.329452147257" lon="17.842675168853">
        <ele>22.2</ele>
        <time>2013-08-20T18:22:32Z</time>
      </trkpt>
      <trkpt lat="59.329272606959" lon="17.842696458879">
        <ele>22.2</ele>
        <time>2013-08-20T18:22:34Z</time>
      </trkpt>
      <trkpt lat="59.329184429371" lon="17.842705008417">
        <ele>22.2</ele>
        <time>2013-08-20T18:22:35Z</time>
      </trkpt>
      <trkpt lat="59.328603982796" lon="17.842741553501">
        <ele>22.2</ele>
        <time>2013-08-20T18:22:41Z</time>
      </trkpt>
      <trkpt lat="59.328403739205" lon="17.842748175202">
        <ele>21.2</ele>
        <time>2013-08-20T18:22:43Z</time>
      </trkpt>
      <trkpt lat="59.328310113382" lon="17.842729651203">
        <ele>20.8</ele>
        <time>2013-08-20T18:22:44Z</time>
      </trkpt>
      <trkpt lat="59.328219672681" lon="17.842668630971">
        <ele>20.4</ele>
        <time>2013-08-20T18:22:45Z</time>
      </trkpt>
      <trkpt lat="59.328137446242" lon="17.842575088967">
        <ele>19.8</ele>
        <time>2013-08-20T18:22:46Z</time>
      </trkpt>
      <trkpt lat="59.327939549583" lon="17.842132776104">
        <ele>19.8</ele>
        <time>2013-08-20T18:22:49Z</time>
      </trkpt>
      <trkpt lat="59.327801583509" lon="17.841838822871">
        <ele>19.4</ele>
        <time>2013-08-20T18:22:51Z</time>
      </trkpt>
      <trkpt lat="59.32771935707" lon="17.841710831258">
        <ele>19</ele>
        <time>2013-08-20T18:22:52Z</time>
      </trkpt>
      <trkpt lat="59.327625815066" lon="17.841613517399">
        <ele>18.6</ele>
        <time>2013-08-20T18:22:53Z</time>
      </trkpt>
      <trkpt lat="59.327522633877" lon="17.841558364497">
        <ele>18.2</ele>
        <time>2013-08-20T18:22:54Z</time>
      </trkpt>
      <trkpt lat="59.327416351385" lon="17.841526932372">
        <ele>17.6</ele>
        <time>2013-08-20T18:22:55Z</time>
      </trkpt>
      <trkpt lat="59.327314595119" lon="17.841521819413">
        <ele>17</ele>
        <time>2013-08-20T18:22:56Z</time>
      </trkpt>
      <trkpt lat="59.32721057574" lon="17.841510503848">
        <ele>16.4</ele>
        <time>2013-08-20T18:22:57Z</time>
      </trkpt>
      <trkpt lat="59.327110244397" lon="17.841496673713">
        <ele>16</ele>
        <time>2013-08-20T18:22:58Z</time>
      </trkpt>
      <trkpt lat="59.327006644113" lon="17.841483178854">
        <ele>15.4</ele>
        <time>2013-08-20T18:22:59Z</time>
      </trkpt>
      <trkpt lat="59.326685282067" lon="17.841417883853">
        <ele>15.4</ele>
        <time>2013-08-20T18:23:02Z</time>
      </trkpt>
      <trkpt lat="59.326116234876" lon="17.84133431631">
        <ele>15</ele>
        <time>2013-08-20T18:23:07Z</time>
      </trkpt>
      <trkpt lat="59.326006599624" lon="17.841313613017">
        <ele>14</ele>
        <time>2013-08-20T18:23:08Z</time>
      </trkpt>
      <trkpt lat="59.325899562761" lon="17.84129575957">
        <ele>13.6</ele>
        <time>2013-08-20T18:23:09Z</time>
      </trkpt>
      <trkpt lat="59.325786323292" lon="17.841280085417">
        <ele>13.2</ele>
        <time>2013-08-20T18:23:10Z</time>
      </trkpt>
      <trkpt lat="59.325568896806" lon="17.841250664948">
        <ele>12.6</ele>
        <time>2013-08-20T18:23:12Z</time>
      </trkpt>
      <trkpt lat="59.325463368685" lon="17.841236750994">
        <ele>12</ele>
        <time>2013-08-20T18:23:13Z</time>
      </trkpt>
      <trkpt lat="59.325356667098" lon="17.841219819556">
        <ele>11.6</ele>
        <time>2013-08-20T18:23:14Z</time>
      </trkpt>
      <trkpt lat="59.325246445113" lon="17.841203474851">
        <ele>11</ele>
        <time>2013-08-20T18:23:15Z</time>
      </trkpt>
      <trkpt lat="59.325137228956" lon="17.841182939196">
        <ele>10.4</ele>
        <time>2013-08-20T18:23:16Z</time>
      </trkpt>
      <trkpt lat="59.324591986361" lon="17.841097695273">
        <ele>10.4</ele>
        <time>2013-08-20T18:23:21Z</time>
      </trkpt>
      <trkpt lat="59.32427020522" lon="17.841045643674">
        <ele>10</ele>
        <time>2013-08-20T18:23:24Z</time>
      </trkpt>
      <trkpt lat="59.324168448954" lon="17.84103424429">
        <ele>9.6</ele>
        <time>2013-08-20T18:23:25Z</time>
      </trkpt>
      <trkpt lat="59.324058729883" lon="17.84101328954">
        <ele>9.2</ele>
        <time>2013-08-20T18:23:26Z</time>
      </trkpt>
      <trkpt lat="59.323955213418" lon="17.840990406953">
        <ele>8.8</ele>
        <time>2013-08-20T18:23:27Z</time>
      </trkpt>
      <trkpt lat="59.323854379161" lon="17.840970374212">
        <ele>8.4</ele>
        <time>2013-08-20T18:23:28Z</time>
      </trkpt>
      <trkpt lat="59.323339981958" lon="17.84088420828">
        <ele>7.8</ele>
        <time>2013-08-20T18:23:33Z</time>
      </trkpt>
      <trkpt lat="59.323231101077" lon="17.840868953222">
        <ele>7.4</ele>
        <time>2013-08-20T18:23:34Z</time>
      </trkpt>
      <trkpt lat="59.323121130549" lon="17.840854368716">
        <ele>7</ele>
        <time>2013-08-20T18:23:35Z</time>
      </trkpt>
      <trkpt lat="59.323009232184" lon="17.840837521097">
        <ele>6.4</ele>
        <time>2013-08-20T18:23:36Z</time>
      </trkpt>
      <trkpt lat="59.322902111502" lon="17.840822433677">
        <ele>6</ele>
        <time>2013-08-20T18:23:37Z</time>
      </trkpt>
      <trkpt lat="59.322580917094" lon="17.840764430929">
        <ele>6</ele>
        <time>2013-08-20T18:23:40Z</time>
      </trkpt>
      <trkpt lat="59.321973983715" lon="17.840661333559">
        <ele>6</ele>
        <time>2013-08-20T18:23:46Z</time>
      </trkpt>
      <trkpt lat="59.321677851188" lon="17.840680947205">
        <ele>6</ele>
        <time>2013-08-20T18:23:49Z</time>
      </trkpt>
      <trkpt lat="59.32158296808" lon="17.840746661301">
        <ele>6</ele>
        <time>2013-08-20T18:23:50Z</time>
      </trkpt>
      <trkpt lat="59.321331343442" lon="17.841059222352">
        <ele>6</ele>
        <time>2013-08-20T18:23:53Z</time>
      </trkpt>
      <trkpt lat="59.32117812231" lon="17.841354265232">
        <ele>6</ele>
        <time>2013-08-20T18:23:55Z</time>
      </trkpt>
      <trkpt lat="59.321138475923" lon="17.841559035049">
        <ele>6</ele>
        <time>2013-08-20T18:23:56Z</time>
      </trkpt>
      <trkpt lat="59.321123472322" lon="17.84199481003">
        <ele>6</ele>
        <time>2013-08-20T18:23:58Z</time>
      </trkpt>
      <trkpt lat="59.321113833137" lon="17.842200334218">
        <ele>6</ele>
        <time>2013-08-20T18:23:59Z</time>
      </trkpt>
      <trkpt lat="59.321059518425" lon="17.843454601734">
        <ele>6</ele>
        <time>2013-08-20T18:24:05Z</time>
      </trkpt>
      <trkpt lat="59.321049627783" lon="17.843657276076">
        <ele>6</ele>
        <time>2013-08-20T18:24:06Z</time>
      </trkpt>
      <trkpt lat="59.320992714682" lon="17.844891929946">
        <ele>6</ele>
        <time>2013-08-20T18:24:12Z</time>
      </trkpt>
      <trkpt lat="59.320941249816" lon="17.846131864413">
        <ele>6</ele>
        <time>2013-08-20T18:24:18Z</time>
      </trkpt>
      <trkpt lat="59.320918367229" lon="17.846536542545">
        <ele>6</ele>
        <time>2013-08-20T18:24:20Z</time>
      </trkpt>
      <trkpt lat="59.320858436644" lon="17.847718893359">
        <ele>6</ele>
        <time>2013-08-20T18:24:26Z</time>
      </trkpt>
      <trkpt lat="59.320807139416" lon="17.848826980539">
        <ele>6</ele>
        <time>2013-08-20T18:24:32Z</time>
      </trkpt>
      <trkpt lat="59.32079758405" lon="17.849005682647">
        <ele>6</ele>
        <time>2013-08-20T18:24:33Z</time>
      </trkpt>
      <trkpt lat="59.320743856071" lon="17.85009088724">
        <ele>6</ele>
        <time>2013-08-20T18:24:39Z</time>
      </trkpt>
      <trkpt lat="59.320726924633" lon="17.850440580108">
        <ele>6</ele>
        <time>2013-08-20T18:24:41Z</time>
      </trkpt>
      <trkpt lat="59.320685015133" lon="17.851269550018">
        <ele>6.4</ele>
        <time>2013-08-20T18:24:46Z</time>
      </trkpt>
      <trkpt lat="59.320673699568" lon="17.851434086715">
        <ele>7.4</ele>
        <time>2013-08-20T18:24:47Z</time>
      </trkpt>
      <trkpt lat="59.320668083695" lon="17.851584206544">
        <ele>7.8</ele>
        <time>2013-08-20T18:24:48Z</time>
      </trkpt>
      <trkpt lat="59.320662970736" lon="17.851747066861">
        <ele>8.4</ele>
        <time>2013-08-20T18:24:49Z</time>
      </trkpt>
      <trkpt lat="59.320643860004" lon="17.852237994744">
        <ele>8.8</ele>
        <time>2013-08-20T18:24:52Z</time>
      </trkpt>
      <trkpt lat="59.320637573579" lon="17.852388449849">
        <ele>9.2</ele>
        <time>2013-08-20T18:24:53Z</time>
      </trkpt>
      <trkpt lat="59.320630281326" lon="17.852552735089">
        <ele>9.8</ele>
        <time>2013-08-20T18:24:54Z</time>
      </trkpt>
      <trkpt lat="59.320622569978" lon="17.852717271786">
        <ele>10.2</ele>
        <time>2013-08-20T18:24:55Z</time>
      </trkpt>
      <trkpt lat="59.320618462847" lon="17.852878036628">
        <ele>10.6</ele>
        <time>2013-08-20T18:24:56Z</time>
      </trkpt>
      <trkpt lat="59.3205838456" lon="17.853692757308">
        <ele>10.6</ele>
        <time>2013-08-20T18:25:01Z</time>
      </trkpt>
      <trkpt lat="59.320557358796" lon="17.854334391753">
        <ele>11</ele>
        <time>2013-08-20T18:25:05Z</time>
      </trkpt>
      <trkpt lat="59.320554341312" lon="17.854484343944">
        <ele>11.4</ele>
        <time>2013-08-20T18:25:06Z</time>
      </trkpt>
      <trkpt lat="59.320546210869" lon="17.854634799049">
        <ele>11.8</ele>
        <time>2013-08-20T18:25:07Z</time>
      </trkpt>
      <trkpt lat="59.320540930272" lon="17.854791959674">
        <ele>12.2</ele>
        <time>2013-08-20T18:25:08Z</time>
      </trkpt>
      <trkpt lat="59.320533386562" lon="17.85495155105">
        <ele>12.6</ele>
        <time>2013-08-20T18:25:09Z</time>
      </trkpt>
      <trkpt lat="59.320514946382" lon="17.855621432498">
        <ele>12.6</ele>
        <time>2013-08-20T18:25:13Z</time>
      </trkpt>
      <trkpt lat="59.320511258346" lon="17.855786975023">
        <ele>12.6</ele>
        <time>2013-08-20T18:25:14Z</time>
      </trkpt>
      <trkpt lat="59.320498936953" lon="17.856117640978">
        <ele>12.6</ele>
        <time>2013-08-20T18:25:16Z</time>
      </trkpt>
      <trkpt lat="59.320463397697" lon="17.856672271301">
        <ele>12.6</ele>
        <time>2013-08-20T18:25:19Z</time>
      </trkpt>
      <trkpt lat="59.320432636124" lon="17.857029926974">
        <ele>12.6</ele>
        <time>2013-08-20T18:25:21Z</time>
      </trkpt>
      <trkpt lat="59.320414950315" lon="17.857383559335">
        <ele>12.6</ele>
        <time>2013-08-20T18:25:23Z</time>
      </trkpt>
      <trkpt lat="59.320364742734" lon="17.858454598517">
        <ele>12.6</ele>
        <time>2013-08-20T18:25:29Z</time>
      </trkpt>
      <trkpt lat="59.32030389014" lon="17.859617838599">
        <ele>12.6</ele>
        <time>2013-08-20T18:25:35Z</time>
      </trkpt>
      <trkpt lat="59.320295340602" lon="17.859807520996">
        <ele>11.8</ele>
        <time>2013-08-20T18:25:36Z</time>
      </trkpt>
      <trkpt lat="59.320287545435" lon="17.859995610832">
        <ele>11.4</ele>
        <time>2013-08-20T18:25:37Z</time>
      </trkpt>
      <trkpt lat="59.320276816603" lon="17.860185460867">
        <ele>11</ele>
        <time>2013-08-20T18:25:38Z</time>
      </trkpt>
      <trkpt lat="59.320269189074" lon="17.860376819644">
        <ele>10.6</ele>
        <time>2013-08-20T18:25:39Z</time>
      </trkpt>
      <trkpt lat="59.32023348218" lon="17.861149798462">
        <ele>10.6</ele>
        <time>2013-08-20T18:25:43Z</time>
      </trkpt>
      <trkpt lat="59.320184196608" lon="17.862107262899">
        <ele>10.6</ele>
        <time>2013-08-20T18:25:49Z</time>
      </trkpt>
      <trkpt lat="59.320181179124" lon="17.862634903504">
        <ele>10.6</ele>
        <time>2013-08-20T18:25:54Z</time>
      </trkpt>
      <trkpt lat="59.320263070287" lon="17.862699863229">
        <ele>10.6</ele>
        <time>2013-08-20T18:25:57Z</time>
      </trkpt>
      <trkpt lat="59.320316379171" lon="17.862717046124">
        <ele>10.6</ele>
        <time>2013-08-20T18:26:00Z</time>
      </trkpt>
      <trkpt lat="59.320229877963" lon="17.862128636744">
        <ele>10.6</ele>
        <time>2013-08-20T18:36:09Z</time>
      </trkpt>
      <trkpt lat="59.320233398361" lon="17.862049008694">
        <ele>10.6</ele>
        <time>2013-08-20T18:36:10Z</time>
      </trkpt>
      <trkpt lat="59.320253850197" lon="17.861594793533">
        <ele>10.6</ele>
        <time>2013-08-20T18:36:14Z</time>
      </trkpt>
      <trkpt lat="59.320293580403" lon="17.860637161458">
        <ele>10.6</ele>
        <time>2013-08-20T18:36:22Z</time>
      </trkpt>
      <trkpt lat="59.320330041668" lon="17.859734011733">
        <ele>10.6</ele>
        <time>2013-08-20T18:36:30Z</time>
      </trkpt>
      <trkpt lat="59.320370693883" lon="17.858835136777">
        <ele>10.6</ele>
        <time>2013-08-20T18:36:38Z</time>
      </trkpt>
      <trkpt lat="59.320427439346" lon="17.857784800888">
        <ele>10.6</ele>
        <time>2013-08-20T18:36:47Z</time>
      </trkpt>
      <trkpt lat="59.320477730746" lon="17.856850805771">
        <ele>10.6</ele>
        <time>2013-08-20T18:36:55Z</time>
      </trkpt>
      <trkpt lat="59.320494829822" lon="17.856471440977">
        <ele>10.6</ele>
        <time>2013-08-20T18:36:59Z</time>
      </trkpt>
      <trkpt lat="59.32049835022" lon="17.856387286701">
        <ele>10.6</ele>
        <time>2013-08-20T18:37:00Z</time>
      </trkpt>
      <trkpt lat="59.320508240862" lon="17.856240854908">
        <ele>11</ele>
        <time>2013-08-20T18:37:02Z</time>
      </trkpt>
      <trkpt lat="59.320510587794" lon="17.85617530845">
        <ele>11.4</ele>
        <time>2013-08-20T18:37:03Z</time>
      </trkpt>
      <trkpt lat="59.320511677441" lon="17.856114288218">
        <ele>11.8</ele>
        <time>2013-08-20T18:37:04Z</time>
      </trkpt>
      <trkpt lat="59.320513102364" lon="17.856055614918">
        <ele>12.2</ele>
        <time>2013-08-20T18:37:05Z</time>
      </trkpt>
      <trkpt lat="59.32053103963" lon="17.855626042543">
        <ele>12.6</ele>
        <time>2013-08-20T18:37:54Z</time>
      </trkpt>
      <trkpt lat="59.32055367076" lon="17.855165708595">
        <ele>12.6</ele>
        <time>2013-08-20T18:37:59Z</time>
      </trkpt>
      <trkpt lat="59.320580409021" lon="17.854465484669">
        <ele>12.6</ele>
        <time>2013-08-20T18:38:05Z</time>
      </trkpt>
      <trkpt lat="59.320622150883" lon="17.853592509784">
        <ele>12.6</ele>
        <time>2013-08-20T18:38:12Z</time>
      </trkpt>
      <trkpt lat="59.320632292982" lon="17.853336023644">
        <ele>12.2</ele>
        <time>2013-08-20T18:38:14Z</time>
      </trkpt>
      <trkpt lat="59.320636735389" lon="17.85320811585">
        <ele>11.6</ele>
        <time>2013-08-20T18:38:15Z</time>
      </trkpt>
      <trkpt lat="59.32064084252" lon="17.853082806445">
        <ele>11.2</ele>
        <time>2013-08-20T18:38:16Z</time>
      </trkpt>
      <trkpt lat="59.320645620203" lon="17.852957832316">
        <ele>10.8</ele>
        <time>2013-08-20T18:38:17Z</time>
      </trkpt>
      <trkpt lat="59.32065257718" lon="17.85283679768">
        <ele>10.2</ele>
        <time>2013-08-20T18:38:18Z</time>
      </trkpt>
      <trkpt lat="59.32068778116" lon="17.852115786642">
        <ele>10.2</ele>
        <time>2013-08-20T18:38:24Z</time>
      </trkpt>
      <trkpt lat="59.32071963238" lon="17.851434673448">
        <ele>10.2</ele>
        <time>2013-08-20T18:38:30Z</time>
      </trkpt>
      <trkpt lat="59.320728181918" lon="17.851307603844">
        <ele>9.8</ele>
        <time>2013-08-20T18:38:31Z</time>
      </trkpt>
      <trkpt lat="59.32073304342" lon="17.851188245588">
        <ele>9.4</ele>
        <time>2013-08-20T18:38:32Z</time>
      </trkpt>
      <trkpt lat="59.320736563818" lon="17.851068384418">
        <ele>9</ele>
        <time>2013-08-20T18:38:33Z</time>
      </trkpt>
      <trkpt lat="59.320741341501" lon="17.850942069185">
        <ele>8.6</ele>
        <time>2013-08-20T18:38:34Z</time>
      </trkpt>
      <trkpt lat="59.320746203003" lon="17.850815167219">
        <ele>8.2</ele>
        <time>2013-08-20T18:38:35Z</time>
      </trkpt>
      <trkpt lat="59.320759530224" lon="17.850439322823">
        <ele>7.8</ele>
        <time>2013-08-20T18:38:38Z</time>
      </trkpt>
      <trkpt lat="59.320767325391" lon="17.850312085581">
        <ele>7.2</ele>
        <time>2013-08-20T18:38:39Z</time>
      </trkpt>
      <trkpt lat="59.320777048395" lon="17.850191134764">
        <ele>6.8</ele>
        <time>2013-08-20T18:38:40Z</time>
      </trkpt>
      <trkpt lat="59.320784424467" lon="17.850063310789">
        <ele>6.4</ele>
        <time>2013-08-20T18:38:41Z</time>
      </trkpt>
      <trkpt lat="59.320792135815" lon="17.849932804606">
        <ele>6</ele>
        <time>2013-08-20T18:38:42Z</time>
      </trkpt>
      <trkpt lat="59.320824909044" lon="17.849198298709">
        <ele>6</ele>
        <time>2013-08-20T18:38:48Z</time>
      </trkpt>
      <trkpt lat="59.320837733351" lon="17.848978860567">
        <ele>5.6</ele>
        <time>2013-08-20T18:38:50Z</time>
      </trkpt>
      <trkpt lat="59.320843433043" lon="17.848866459288">
        <ele>5.2</ele>
        <time>2013-08-20T18:38:51Z</time>
      </trkpt>
      <trkpt lat="59.320848210726" lon="17.848752549267">
        <ele>4.6</ele>
        <time>2013-08-20T18:38:52Z</time>
      </trkpt>
      <trkpt lat="59.320853658961" lon="17.848634196839">
        <ele>4.2</ele>
        <time>2013-08-20T18:38:53Z</time>
      </trkpt>
      <trkpt lat="59.320858269006" lon="17.848512743108">
        <ele>3.8</ele>
        <time>2013-08-20T18:38:54Z</time>
      </trkpt>
      <trkpt lat="59.32086799201" lon="17.848282827591">
        <ele>3.8</ele>
        <time>2013-08-20T18:38:56Z</time>
      </trkpt>
      <trkpt lat="59.3209191216" lon="17.847228216933">
        <ele>3.8</ele>
        <time>2013-08-20T18:39:05Z</time>
      </trkpt>
      <trkpt lat="59.32097276576" lon="17.84613043949">
        <ele>3.8</ele>
        <time>2013-08-20T18:39:14Z</time>
      </trkpt>
      <trkpt lat="59.321020039676" lon="17.845030566572">
        <ele>3.8</ele>
        <time>2013-08-20T18:39:23Z</time>
      </trkpt>
      <trkpt lat="59.32102557173" lon="17.844902155864">
        <ele>3.8</ele>
        <time>2013-08-20T18:39:24Z</time>
      </trkpt>
      <trkpt lat="59.321069828162" lon="17.843793817227">
        <ele>3.8</ele>
        <time>2013-08-20T18:39:33Z</time>
      </trkpt>
      <trkpt lat="59.321074522026" lon="17.843670100383">
        <ele>3.8</ele>
        <time>2013-08-20T18:39:34Z</time>
      </trkpt>
      <trkpt lat="59.321123723779" lon="17.842540304082">
        <ele>3.8</ele>
        <time>2013-08-20T18:39:43Z</time>
      </trkpt>
      <trkpt lat="59.321168231668" lon="17.841616953978">
        <ele>3.8</ele>
        <time>2013-08-20T18:39:51Z</time>
      </trkpt>
      <trkpt lat="59.321195389024" lon="17.841402796433">
        <ele>3.8</ele>
        <time>2013-08-20T18:39:53Z</time>
      </trkpt>
      <trkpt lat="59.321265880803" lon="17.841223842868">
        <ele>3.8</ele>
        <time>2013-08-20T18:39:55Z</time>
      </trkpt>
      <trkpt lat="59.321356070047" lon="17.841092666133">
        <ele>3.8</ele>
        <time>2013-08-20T18:39:57Z</time>
      </trkpt>
      <trkpt lat="59.321402505773" lon="17.841034663385">
        <ele>4.6</ele>
        <time>2013-08-20T18:39:58Z</time>
      </trkpt>
      <trkpt lat="59.321449192956" lon="17.840974481343">
        <ele>5</ele>
        <time>2013-08-20T18:39:59Z</time>
      </trkpt>
      <trkpt lat="59.321495544863" lon="17.84091689769">
        <ele>5.6</ele>
        <time>2013-08-20T18:40:00Z</time>
      </trkpt>
      <trkpt lat="59.32154441134" lon="17.840860487503">
        <ele>6</ele>
        <time>2013-08-20T18:40:01Z</time>
      </trkpt>
      <trkpt lat="59.321704337992" lon="17.840718330479">
        <ele>6</ele>
        <time>2013-08-20T18:40:04Z</time>
      </trkpt>
      <trkpt lat="59.321816152538" lon="17.8406729844">
        <ele>6</ele>
        <time>2013-08-20T18:40:06Z</time>
      </trkpt>
      <trkpt lat="59.321955794992" lon="17.840677762083">
        <ele>6</ele>
        <time>2013-08-20T18:40:08Z</time>
      </trkpt>
      <trkpt lat="59.322042463838" lon="17.840699890299">
        <ele>6</ele>
        <time>2013-08-20T18:40:09Z</time>
      </trkpt>
      <trkpt lat="59.322467677625" lon="17.840770968811">
        <ele>6</ele>
        <time>2013-08-20T18:40:13Z</time>
      </trkpt>
      <trkpt lat="59.322930442324" lon="17.840835844717">
        <ele>5.6</ele>
        <time>2013-08-20T18:40:17Z</time>
      </trkpt>
      <trkpt lat="59.323054745901" lon="17.840857134743">
        <ele>5.2</ele>
        <time>2013-08-20T18:40:18Z</time>
      </trkpt>
      <trkpt lat="59.323174942347" lon="17.840875323466">
        <ele>4.8</ele>
        <time>2013-08-20T18:40:19Z</time>
      </trkpt>
      <trkpt lat="59.323293965327" lon="17.840893344551">
        <ele>4.4</ele>
        <time>2013-08-20T18:40:20Z</time>
      </trkpt>
      <trkpt lat="59.323412317755" lon="17.840907593781">
        <ele>4</ele>
        <time>2013-08-20T18:40:21Z</time>
      </trkpt>
      <trkpt lat="59.323878686671" lon="17.840965345072">
        <ele>4</ele>
        <time>2013-08-20T18:40:25Z</time>
      </trkpt>
      <trkpt lat="59.324481345281" lon="17.841088391364">
        <ele>4</ele>
        <time>2013-08-20T18:40:30Z</time>
      </trkpt>
      <trkpt lat="59.324588633601" lon="17.84111638691">
        <ele>4</ele>
        <time>2013-08-20T18:40:31Z</time>
      </trkpt>
      <trkpt lat="59.324683181433" lon="17.841140442963">
        <ele>4.4</ele>
        <time>2013-08-20T18:40:32Z</time>
      </trkpt>
      <trkpt lat="59.324772113392" lon="17.841157290582">
        <ele>4.8</ele>
        <time>2013-08-20T18:40:33Z</time>
      </trkpt>
      <trkpt lat="59.324845455017" lon="17.841169444337">
        <ele>5.2</ele>
        <time>2013-08-20T18:40:34Z</time>
      </trkpt>
      <trkpt lat="59.324911001475" lon="17.841180843721">
        <ele>5.6</ele>
        <time>2013-08-20T18:40:35Z</time>
      </trkpt>
      <trkpt lat="59.324970429146" lon="17.841191740191">
        <ele>6.2</ele>
        <time>2013-08-20T18:40:36Z</time>
      </trkpt>
      <trkpt lat="59.325028180437" lon="17.841199283901">
        <ele>6.8</ele>
        <time>2013-08-20T18:40:37Z</time>
      </trkpt>
      <trkpt lat="59.325081656959" lon="17.841206240878">
        <ele>7.4</ele>
        <time>2013-08-20T18:40:38Z</time>
      </trkpt>
      <trkpt lat="59.32513270273" lon="17.841213533131">
        <ele>8</ele>
        <time>2013-08-20T18:40:39Z</time>
      </trkpt>
      <trkpt lat="59.325182910311" lon="17.84122116066">
        <ele>8.4</ele>
        <time>2013-08-20T18:40:40Z</time>
      </trkpt>
      <trkpt lat="59.325283409292" lon="17.841237002451">
        <ele>9</ele>
        <time>2013-08-20T18:40:42Z</time>
      </trkpt>
      <trkpt lat="59.325329006828" lon="17.841242450686">
        <ele>9.4</ele>
        <time>2013-08-20T18:40:43Z</time>
      </trkpt>
      <trkpt lat="59.325371838337" lon="17.841253598613">
        <ele>9.8</ele>
        <time>2013-08-20T18:40:44Z</time>
      </trkpt>
      <trkpt lat="59.325416094769" lon="17.841260471771">
        <ele>10.2</ele>
        <time>2013-08-20T18:40:45Z</time>
      </trkpt>
      <trkpt lat="59.325458926278" lon="17.841266003825">
        <ele>10.6</ele>
        <time>2013-08-20T18:40:46Z</time>
      </trkpt>
      <trkpt lat="59.325790178966" lon="17.84131755251">
        <ele>10.6</ele>
        <time>2013-08-20T18:40:53Z</time>
      </trkpt>
      <trkpt lat="59.326003498321" lon="17.841360635476">
        <ele>11</ele>
        <time>2013-08-20T18:40:57Z</time>
      </trkpt>
      <trkpt lat="59.326058232128" lon="17.841366418987">
        <ele>11.4</ele>
        <time>2013-08-20T18:40:58Z</time>
      </trkpt>
      <trkpt lat="59.32611338503" lon="17.841372537774">
        <ele>11.8</ele>
        <time>2013-08-20T18:40:59Z</time>
      </trkpt>
      <trkpt lat="59.326168035018" lon="17.841381925502">
        <ele>12.2</ele>
        <time>2013-08-20T18:41:00Z</time>
      </trkpt>
      <trkpt lat="59.326222014454" lon="17.841390055945">
        <ele>12.6</ele>
        <time>2013-08-20T18:41:01Z</time>
      </trkpt>
      <trkpt lat="59.326657454159" lon="17.841468929624">
        <ele>12.6</ele>
        <time>2013-08-20T18:41:09Z</time>
      </trkpt>
      <trkpt lat="59.32680740635" lon="17.841485693424">
        <ele>13.4</ele>
        <time>2013-08-20T18:41:12Z</time>
      </trkpt>
      <trkpt lat="59.326857781569" lon="17.841495667885">
        <ele>14</ele>
        <time>2013-08-20T18:41:13Z</time>
      </trkpt>
      <trkpt lat="59.326913605023" lon="17.841508827468">
        <ele>14.4</ele>
        <time>2013-08-20T18:41:14Z</time>
      </trkpt>
      <trkpt lat="59.326974709074" lon="17.841522406146">
        <ele>14.8</ele>
        <time>2013-08-20T18:41:15Z</time>
      </trkpt>
      <trkpt lat="59.327416099928" lon="17.841586360043">
        <ele>14.8</ele>
        <time>2013-08-20T18:41:22Z</time>
      </trkpt>
      <trkpt lat="59.327537805116" lon="17.84162349186">
        <ele>14.8</ele>
        <time>2013-08-20T18:41:24Z</time>
      </trkpt>
      <trkpt lat="59.327699575786" lon="17.841785933082">
        <ele>14.8</ele>
        <time>2013-08-20T18:41:27Z</time>
      </trkpt>
      <trkpt lat="59.327864699216" lon="17.842088435853">
        <ele>15.2</ele>
        <time>2013-08-20T18:41:31Z</time>
      </trkpt>
      <trkpt lat="59.327902669223" lon="17.842169488826">
        <ele>15.8</ele>
        <time>2013-08-20T18:41:32Z</time>
      </trkpt>
      <trkpt lat="59.32793812466" lon="17.842246350849">
        <ele>16.2</ele>
        <time>2013-08-20T18:41:33Z</time>
      </trkpt>
      <trkpt lat="59.327971736079" lon="17.842320614483">
        <ele>16.6</ele>
        <time>2013-08-20T18:41:34Z</time>
      </trkpt>
      <trkpt lat="59.328006185688" lon="17.842397560325">
        <ele>17.2</ele>
        <time>2013-08-20T18:41:35Z</time>
      </trkpt>
      <trkpt lat="59.328078521485" lon="17.842543405385">
        <ele>17.2</ele>
        <time>2013-08-20T18:41:37Z</time>
      </trkpt>
      <trkpt lat="59.328116994406" lon="17.84260417416">
        <ele>17.2</ele>
        <time>2013-08-20T18:41:38Z</time>
      </trkpt>
      <trkpt lat="59.328157898078" lon="17.842658572691">
        <ele>17.6</ele>
        <time>2013-08-20T18:41:39Z</time>
      </trkpt>
      <trkpt lat="59.328199472302" lon="17.842703248218">
        <ele>18</ele>
        <time>2013-08-20T18:41:40Z</time>
      </trkpt>
      <trkpt lat="59.328243980191" lon="17.842737362551">
        <ele>18.4</ele>
        <time>2013-08-20T18:41:41Z</time>
      </trkpt>
      <trkpt lat="59.328293349582" lon="17.84276510664">
        <ele>18.8</ele>
        <time>2013-08-20T18:41:42Z</time>
      </trkpt>
      <trkpt lat="59.328340707317" lon="17.842783630639">
        <ele>19.2</ele>
        <time>2013-08-20T18:41:43Z</time>
      </trkpt>
      <trkpt lat="59.328388987061" lon="17.842797460774">
        <ele>19.2</ele>
        <time>2013-08-20T18:41:44Z</time>
      </trkpt>
      <trkpt lat="59.328438356452" lon="17.842799807706">
        <ele>19.2</ele>
        <time>2013-08-20T18:41:45Z</time>
      </trkpt>
      <trkpt lat="59.328631810704" lon="17.842799053335">
        <ele>19.2</ele>
        <time>2013-08-20T18:41:49Z</time>
      </trkpt>
      <trkpt lat="59.328850997389" lon="17.842783965915">
        <ele>19.2</ele>
        <time>2013-08-20T18:41:54Z</time>
      </trkpt>
      <trkpt lat="59.328939845529" lon="17.842788743598">
        <ele>19.2</ele>
        <time>2013-08-20T18:41:56Z</time>
      </trkpt>
      <trkpt lat="59.328984269599" lon="17.842784636467">
        <ele>19.6</ele>
        <time>2013-08-20T18:41:57Z</time>
      </trkpt>
      <trkpt lat="59.329030872963" lon="17.842780529336">
        <ele>20</ele>
        <time>2013-08-20T18:41:58Z</time>
      </trkpt>
      <trkpt lat="59.329077476327" lon="17.842778936775">
        <ele>20.6</ele>
        <time>2013-08-20T18:41:59Z</time>
      </trkpt>
      <trkpt lat="59.329122654768" lon="17.84277432673">
        <ele>21</ele>
        <time>2013-08-20T18:42:00Z</time>
      </trkpt>
      <trkpt lat="59.329168336123" lon="17.842769549047">
        <ele>21.4</ele>
        <time>2013-08-20T18:42:01Z</time>
      </trkpt>
      <trkpt lat="59.329217956971" lon="17.842764016993">
        <ele>21.4</ele>
        <time>2013-08-20T18:42:02Z</time>
      </trkpt>
      <trkpt lat="59.32955499317" lon="17.842729735022">
        <ele>21.4</ele>
        <time>2013-08-20T18:42:08Z</time>
      </trkpt>
      <trkpt lat="59.329670244295" lon="17.84274918103">
        <ele>21.4</ele>
        <time>2013-08-20T18:42:10Z</time>
      </trkpt>
      <trkpt lat="59.329780969194" lon="17.842816152411">
        <ele>21.4</ele>
        <time>2013-08-20T18:42:12Z</time>
      </trkpt>
      <trkpt lat="59.330093530245" lon="17.843097700432">
        <ele>21.4</ele>
        <time>2013-08-20T18:42:18Z</time>
      </trkpt>
      <trkpt lat="59.330372982791" lon="17.843399281194">
        <ele>21.8</ele>
        <time>2013-08-20T18:42:24Z</time>
      </trkpt>
      <trkpt lat="59.330417909775" lon="17.84345242244">
        <ele>22.2</ele>
        <time>2013-08-20T18:42:25Z</time>
      </trkpt>
      <trkpt lat="59.330454873954" lon="17.843510425188">
        <ele>23</ele>
        <time>2013-08-20T18:42:26Z</time>
      </trkpt>
      <trkpt lat="59.330488988287" lon="17.843575552551">
        <ele>23.6</ele>
        <time>2013-08-20T18:42:27Z</time>
      </trkpt>
      <trkpt lat="59.330525784828" lon="17.84364436795">
        <ele>23.6</ele>
        <time>2013-08-20T18:42:28Z</time>
      </trkpt>
      <trkpt lat="59.330576579142" lon="17.843719469774">
        <ele>23.6</ele>
        <time>2013-08-20T18:42:29Z</time>
      </trkpt>
      <trkpt lat="59.330668863861" lon="17.843864309006">
        <ele>23.6</ele>
        <time>2013-08-20T18:42:31Z</time>
      </trkpt>
      <trkpt lat="59.330746312617" lon="17.844024319477">
        <ele>23.6</ele>
        <time>2013-08-20T18:42:33Z</time>
      </trkpt>
      <trkpt lat="59.330871705841" lon="17.844311902466">
        <ele>23.6</ele>
        <time>2013-08-20T18:42:36Z</time>
      </trkpt>
      <trkpt lat="59.330911352228" lon="17.844419358424">
        <ele>23.6</ele>
        <time>2013-08-20T18:42:37Z</time>
      </trkpt>
      <trkpt lat="59.331049402121" lon="17.844899557475">
        <ele>23</ele>
        <time>2013-08-20T18:42:41Z</time>
      </trkpt>
      <trkpt lat="59.331078990228" lon="17.845028303459">
        <ele>22.6</ele>
        <time>2013-08-20T18:42:42Z</time>
      </trkpt>
      <trkpt lat="59.331104303566" lon="17.845158390547">
        <ele>22</ele>
        <time>2013-08-20T18:42:43Z</time>
      </trkpt>
      <trkpt lat="59.33112240847" lon="17.845296272802">
        <ele>21.6</ele>
        <time>2013-08-20T18:42:44Z</time>
      </trkpt>
      <trkpt lat="59.331134897501" lon="17.845424096777">
        <ele>21</ele>
        <time>2013-08-20T18:42:45Z</time>
      </trkpt>
      <trkpt lat="59.331142441211" lon="17.845545215232">
        <ele>21</ele>
        <time>2013-08-20T18:42:46Z</time>
      </trkpt>
      <trkpt lat="59.331203377624" lon="17.846005297723">
        <ele>21</ele>
        <time>2013-08-20T18:42:50Z</time>
      </trkpt>
      <trkpt lat="59.331230451161" lon="17.846113591871">
        <ele>21</ele>
        <time>2013-08-20T18:42:51Z</time>
      </trkpt>
      <trkpt lat="59.331284598235" lon="17.846328000873">
        <ele>21</ele>
        <time>2013-08-20T18:42:53Z</time>
      </trkpt>
      <trkpt lat="59.331354419462" lon="17.846709964056">
        <ele>21</ele>
        <time>2013-08-20T18:42:56Z</time>
      </trkpt>
      <trkpt lat="59.331369925977" lon="17.846865867396">
        <ele>21</ele>
        <time>2013-08-20T18:42:57Z</time>
      </trkpt>
      <trkpt lat="59.33135291072" lon="17.847186894166">
        <ele>21</ele>
        <time>2013-08-20T18:42:59Z</time>
      </trkpt>
      <trkpt lat="59.331274456136" lon="17.847494258439">
        <ele>21</ele>
        <time>2013-08-20T18:43:01Z</time>
      </trkpt>
      <trkpt lat="59.33113581951" lon="17.848144945336">
        <ele>20.6</ele>
        <time>2013-08-20T18:43:04Z</time>
      </trkpt>
      <trkpt lat="59.331131293284" lon="17.848376201957">
        <ele>20</ele>
        <time>2013-08-20T18:43:05Z</time>
      </trkpt>
      <trkpt lat="59.331135735691" lon="17.848618774143">
        <ele>19.6</ele>
        <time>2013-08-20T18:43:06Z</time>
      </trkpt>
      <trkpt lat="59.331140178098" lon="17.848853215886">
        <ele>19</ele>
        <time>2013-08-20T18:43:07Z</time>
      </trkpt>
      <trkpt lat="59.331156355165" lon="17.849093692597">
        <ele>18.6</ele>
        <time>2013-08-20T18:43:08Z</time>
      </trkpt>
      <trkpt lat="59.331209244954" lon="17.849633486957">
        <ele>18.6</ele>
        <time>2013-08-20T18:43:10Z</time>
      </trkpt>
      <trkpt lat="59.331246879685" lon="17.84991235277">
        <ele>18.2</ele>
        <time>2013-08-20T18:43:11Z</time>
      </trkpt>
      <trkpt lat="59.331282838036" lon="17.850196582999">
        <ele>17.6</ele>
        <time>2013-08-20T18:43:12Z</time>
      </trkpt>
      <trkpt lat="59.331321227138" lon="17.850490033318">
        <ele>16.8</ele>
        <time>2013-08-20T18:43:13Z</time>
      </trkpt>
      <trkpt lat="59.331351318159" lon="17.850766636018">
        <ele>16</ele>
        <time>2013-08-20T18:43:14Z</time>
      </trkpt>
      <trkpt lat="59.331379565162" lon="17.851040221234">
        <ele>14.4</ele>
        <time>2013-08-20T18:43:15Z</time>
      </trkpt>
      <trkpt lat="59.331405968147" lon="17.851308609672">
        <ele>13.6</ele>
        <time>2013-08-20T18:43:16Z</time>
      </trkpt>
      <trkpt lat="59.331456343366" lon="17.851889140066">
        <ele>14.2</ele>
        <time>2013-08-20T18:43:19Z</time>
      </trkpt>
      <trkpt lat="59.331468664759" lon="17.852019646249">
        <ele>14.8</ele>
        <time>2013-08-20T18:43:20Z</time>
      </trkpt>
      <trkpt lat="59.331485009464" lon="17.852156355038">
        <ele>15.4</ele>
        <time>2013-08-20T18:43:21Z</time>
      </trkpt>
      <trkpt lat="59.331499929246" lon="17.852276802941">
        <ele>16</ele>
        <time>2013-08-20T18:43:22Z</time>
      </trkpt>
      <trkpt lat="59.331514513752" lon="17.852395406826">
        <ele>16.4</ele>
        <time>2013-08-20T18:43:23Z</time>
      </trkpt>
      <trkpt lat="59.331529936448" lon="17.852513675435">
        <ele>16.4</ele>
        <time>2013-08-20T18:43:24Z</time>
      </trkpt>
      <trkpt lat="59.331623478452" lon="17.85324751078">
        <ele>16.4</ele>
        <time>2013-08-20T18:43:30Z</time>
      </trkpt>
      <trkpt lat="59.331640828985" lon="17.853375334755">
        <ele>16.4</ele>
        <time>2013-08-20T18:43:31Z</time>
      </trkpt>
      <trkpt lat="59.331753816997" lon="17.854432879078">
        <ele>16.4</ele>
        <time>2013-08-20T18:43:39Z</time>
      </trkpt>
      <trkpt lat="59.331751637703" lon="17.854704285">
        <ele>16.4</ele>
        <time>2013-08-20T18:43:41Z</time>
      </trkpt>
      <trkpt lat="59.331728838935" lon="17.855078201559">
        <ele>16.4</ele>
        <time>2013-08-20T18:43:44Z</time>
      </trkpt>
      <trkpt lat="59.331624065185" lon="17.856029714847">
        <ele>16.4</ele>
        <time>2013-08-20T18:43:52Z</time>
      </trkpt>
      <trkpt lat="59.331515100485" lon="17.856967146543">
        <ele>16</ele>
        <time>2013-08-20T18:44:00Z</time>
      </trkpt>
      <trkpt lat="59.331501773264" lon="17.857080972745">
        <ele>15.6</ele>
        <time>2013-08-20T18:44:01Z</time>
      </trkpt>
      <trkpt lat="59.331486685844" lon="17.857196894422">
        <ele>15.2</ele>
        <time>2013-08-20T18:44:02Z</time>
      </trkpt>
      <trkpt lat="59.331473107166" lon="17.857314241022">
        <ele>14.8</ele>
        <time>2013-08-20T18:44:03Z</time>
      </trkpt>
      <trkpt lat="59.331459444669" lon="17.857431671441">
        <ele>14.4</ele>
        <time>2013-08-20T18:44:04Z</time>
      </trkpt>
      <trkpt lat="59.331411500201" lon="17.857891418656">
        <ele>14.4</ele>
        <time>2013-08-20T18:44:08Z</time>
      </trkpt>
      <trkpt lat="59.331326759192" lon="17.858615363359">
        <ele>14</ele>
        <time>2013-08-20T18:44:14Z</time>
      </trkpt>
      <trkpt lat="59.331312426143" lon="17.858751401596">
        <ele>13.6</ele>
        <time>2013-08-20T18:44:15Z</time>
      </trkpt>
      <trkpt lat="59.331298344551" lon="17.858878052105">
        <ele>13.2</ele>
        <time>2013-08-20T18:44:16Z</time>
      </trkpt>
      <trkpt lat="59.331283508588" lon="17.859006127537">
        <ele>12.8</ele>
        <time>2013-08-20T18:44:17Z</time>
      </trkpt>
      <trkpt lat="59.331268588806" lon="17.859133532417">
        <ele>12.4</ele>
        <time>2013-08-20T18:44:18Z</time>
      </trkpt>
      <trkpt lat="59.331216118112" lon="17.859516501428">
        <ele>12.4</ele>
        <time>2013-08-20T18:44:21Z</time>
      </trkpt>
      <trkpt lat="59.331126180325" lon="17.860283612916">
        <ele>12.4</ele>
        <time>2013-08-20T18:44:27Z</time>
      </trkpt>
      <trkpt lat="59.33102517843" lon="17.861159689104">
        <ele>12.4</ele>
        <time>2013-08-20T18:44:34Z</time>
      </trkpt>
      <trkpt lat="59.330997769617" lon="17.861404524403">
        <ele>12</ele>
        <time>2013-08-20T18:44:36Z</time>
      </trkpt>
      <trkpt lat="59.330984693853" lon="17.861526816324">
        <ele>11.4</ele>
        <time>2013-08-20T18:44:37Z</time>
      </trkpt>
      <trkpt lat="59.330972540098" lon="17.861657154869">
        <ele>11</ele>
        <time>2013-08-20T18:44:38Z</time>
      </trkpt>
      <trkpt lat="59.330961056895" lon="17.861783386283">
        <ele>10.4</ele>
        <time>2013-08-20T18:44:39Z</time>
      </trkpt>
      <trkpt lat="59.330946807665" lon="17.861904001824">
        <ele>10</ele>
        <time>2013-08-20T18:44:40Z</time>
      </trkpt>
      <trkpt lat="59.330932726073" lon="17.862018247121">
        <ele>10</ele>
        <time>2013-08-20T18:44:41Z</time>
      </trkpt>
      <trkpt lat="59.330854103851" lon="17.862652254037">
        <ele>10</ele>
        <time>2013-08-20T18:44:47Z</time>
      </trkpt>
      <trkpt lat="59.330771458317" lon="17.863341246217">
        <ele>10</ele>
        <time>2013-08-20T18:44:54Z</time>
      </trkpt>
      <trkpt lat="59.330680263245" lon="17.864163007693">
        <ele>10</ele>
        <time>2013-08-20T18:45:02Z</time>
      </trkpt>
      <trkpt lat="59.330586553603" lon="17.864958366184">
        <ele>10</ele>
        <time>2013-08-20T18:45:10Z</time>
      </trkpt>
      <trkpt lat="59.330514133987" lon="17.86565188459">
        <ele>10</ele>
        <time>2013-08-20T18:45:17Z</time>
      </trkpt>
      <trkpt lat="59.330503740431" lon="17.865755401055">
        <ele>10</ele>
        <time>2013-08-20T18:45:18Z</time>
      </trkpt>
      <trkpt lat="59.330454119583" lon="17.866282790203">
        <ele>10</ele>
        <time>2013-08-20T18:45:23Z</time>
      </trkpt>
      <trkpt lat="59.33038731584" lon="17.866991815124">
        <ele>10</ele>
        <time>2013-08-20T18:45:30Z</time>
      </trkpt>
      <trkpt lat="59.330327469074" lon="17.867604196738">
        <ele>10</ele>
        <time>2013-08-20T18:45:36Z</time>
      </trkpt>
      <trkpt lat="59.330266029747" lon="17.868320346274">
        <ele>10</ele>
        <time>2013-08-20T18:45:43Z</time>
      </trkpt>
      <trkpt lat="59.330196711434" lon="17.868948402041">
        <ele>10</ele>
        <time>2013-08-20T18:45:48Z</time>
      </trkpt>
      <trkpt lat="59.330113479167" lon="17.869493812274">
        <ele>9.6</ele>
        <time>2013-08-20T18:45:51Z</time>
      </trkpt>
      <trkpt lat="59.330068133088" lon="17.869678968445">
        <ele>9.2</ele>
        <time>2013-08-20T18:45:52Z</time>
      </trkpt>
      <trkpt lat="59.330007112856" lon="17.869854485431">
        <ele>8.8</ele>
        <time>2013-08-20T18:45:53Z</time>
      </trkpt>
      <trkpt lat="59.329934190326" lon="17.870014747359">
        <ele>8.4</ele>
        <time>2013-08-20T18:45:54Z</time>
      </trkpt>
      <trkpt lat="59.329847437661" lon="17.870175093106">
        <ele>7.8</ele>
        <time>2013-08-20T18:45:55Z</time>
      </trkpt>
      <trkpt lat="59.329758589521" lon="17.870324710021">
        <ele>7.8</ele>
        <time>2013-08-20T18:45:56Z</time>
      </trkpt>
      <trkpt lat="59.329667645906" lon="17.870476170954">
        <ele>7.4</ele>
        <time>2013-08-20T18:45:57Z</time>
      </trkpt>
      <trkpt lat="59.329575780282" lon="17.870629308267">
        <ele>7</ele>
        <time>2013-08-20T18:45:58Z</time>
      </trkpt>
      <trkpt lat="59.329481651545" lon="17.870788564367">
        <ele>6.6</ele>
        <time>2013-08-20T18:45:59Z</time>
      </trkpt>
      <trkpt lat="59.329387103713" lon="17.870957375833">
        <ele>6.2</ele>
        <time>2013-08-20T18:46:00Z</time>
      </trkpt>
      <trkpt lat="59.329293394071" lon="17.871122499263">
        <ele>5.8</ele>
        <time>2013-08-20T18:46:01Z</time>
      </trkpt>
      <trkpt lat="59.328912604354" lon="17.871840911912">
        <ele>5.8</ele>
        <time>2013-08-20T18:46:05Z</time>
      </trkpt>
      <trkpt lat="59.328831467562" lon="17.872052890163">
        <ele>5.8</ele>
        <time>2013-08-20T18:46:06Z</time>
      </trkpt>
      <trkpt lat="59.32863549874" lon="17.87274716294">
        <ele>5</ele>
        <time>2013-08-20T18:46:09Z</time>
      </trkpt>
      <trkpt lat="59.3285634144" lon="17.872994177533">
        <ele>4.4</ele>
        <time>2013-08-20T18:46:10Z</time>
      </trkpt>
      <trkpt lat="59.328495437191" lon="17.873226942896">
        <ele>3.8</ele>
        <time>2013-08-20T18:46:11Z</time>
      </trkpt>
      <trkpt lat="59.328427292344" lon="17.873460127354">
        <ele>3.2</ele>
        <time>2013-08-20T18:46:12Z</time>
      </trkpt>
      <trkpt lat="59.328357303479" lon="17.873698592409">
        <ele>2.6</ele>
        <time>2013-08-20T18:46:13Z</time>
      </trkpt>
      <trkpt lat="59.328211458419" lon="17.874187089541">
        <ele>2.2</ele>
        <time>2013-08-20T18:46:15Z</time>
      </trkpt>
      <trkpt lat="59.328137781518" lon="17.874430164641">
        <ele>1.8</ele>
        <time>2013-08-20T18:46:16Z</time>
      </trkpt>
      <trkpt lat="59.328063936979" lon="17.874676341044">
        <ele>1.4</ele>
        <time>2013-08-20T18:46:17Z</time>
      </trkpt>
      <trkpt lat="59.327992858467" lon="17.874916901574">
        <ele>0.6</ele>
        <time>2013-08-20T18:46:18Z</time>
      </trkpt>
      <trkpt lat="59.327920271213" lon="17.875163497072">
        <ele>0</ele>
        <time>2013-08-20T18:46:19Z</time>
      </trkpt>
      <trkpt lat="59.327852713099" lon="17.875399447557">
        <ele>0</ele>
        <time>2013-08-20T18:46:20Z</time>
      </trkpt>
      <trkpt lat="59.327785657899" lon="17.875635733318">
        <ele>0</ele>
        <time>2013-08-20T18:46:21Z</time>
      </trkpt>
      <trkpt lat="59.327719859984" lon="17.875860535876">
        <ele>0</ele>
        <time>2013-08-20T18:46:22Z</time>
      </trkpt>
      <trkpt lat="59.327654564983" lon="17.876089110289">
        <ele>0</ele>
        <time>2013-08-20T18:46:23Z</time>
      </trkpt>
      <trkpt lat="59.327402185974" lon="17.87698672796">
        <ele>0</ele>
        <time>2013-08-20T18:46:27Z</time>
      </trkpt>
      <trkpt lat="59.327331358919" lon="17.877193677071">
        <ele>0</ele>
        <time>2013-08-20T18:46:28Z</time>
      </trkpt>
      <trkpt lat="59.327167325136" lon="17.877541777378">
        <ele>0</ele>
        <time>2013-08-20T18:46:30Z</time>
      </trkpt>
      <trkpt lat="59.326885106563" lon="17.877838580457">
        <ele>0</ele>
        <time>2013-08-20T18:46:33Z</time>
      </trkpt>
      <trkpt lat="59.326803969771" lon="17.877897672852">
        <ele>0</ele>
        <time>2013-08-20T18:46:34Z</time>
      </trkpt>
      <trkpt lat="59.326659130539" lon="17.877982413861">
        <ele>0</ele>
        <time>2013-08-20T18:46:36Z</time>
      </trkpt>
      <trkpt lat="59.32640675153" lon="17.87809397695">
        <ele>0</ele>
        <time>2013-08-20T18:46:40Z</time>
      </trkpt>
      <trkpt lat="59.326321423788" lon="17.877975624522">
        <ele>0</ele>
        <time>2013-08-20T18:46:43Z</time>
      </trkpt>
      <trkpt lat="59.326271048569" lon="17.877668595525">
        <ele>0</ele>
        <time>2013-08-20T18:46:47Z</time>
      </trkpt>
      <trkpt lat="59.326258308081" lon="17.877583100145">
        <ele>0</ele>
        <time>2013-08-20T18:46:48Z</time>
      </trkpt>
      <trkpt lat="59.326250512914" lon="17.877491737435">
        <ele>0</ele>
        <time>2013-08-20T18:46:49Z</time>
      </trkpt>
      <trkpt lat="59.326212794364" lon="17.877147408983">
        <ele>0</ele>
        <time>2013-08-20T18:46:53Z</time>
      </trkpt>
      <trkpt lat="59.326194521822" lon="17.877056130092">
        <ele>0</ele>
        <time>2013-08-20T18:46:54Z</time>
      </trkpt>
      <trkpt lat="59.326113636487" lon="17.876716663142">
        <ele>0</ele>
        <time>2013-08-20T18:46:58Z</time>
      </trkpt>
      <trkpt lat="59.326050856056" lon="17.876455734595">
        <ele>0</ele>
        <time>2013-08-20T18:47:01Z</time>
      </trkpt>
      <trkpt lat="59.326029901306" lon="17.876298154875">
        <ele>0</ele>
        <time>2013-08-20T18:47:03Z</time>
      </trkpt>
      <trkpt lat="59.325957062595" lon="17.875803119861">
        <ele>0</ele>
        <time>2013-08-20T18:47:09Z</time>
      </trkpt>
      <trkpt lat="59.325918170579" lon="17.875539509106">
        <ele>0</ele>
        <time>2013-08-20T18:47:12Z</time>
      </trkpt>
      <trkpt lat="59.32590299934" lon="17.875452924079">
        <ele>0</ele>
        <time>2013-08-20T18:47:13Z</time>
      </trkpt>
      <trkpt lat="59.325889001567" lon="17.875363656844">
        <ele>0</ele>
        <time>2013-08-20T18:47:14Z</time>
      </trkpt>
      <trkpt lat="59.32587533907" lon="17.875273551419">
        <ele>0</ele>
        <time>2013-08-20T18:47:15Z</time>
      </trkpt>
      <trkpt lat="59.32586108984" lon="17.8751812667">
        <ele>0.4</ele>
        <time>2013-08-20T18:47:16Z</time>
      </trkpt>
      <trkpt lat="59.325821527272" lon="17.874896030643">
        <ele>0.4</ele>
        <time>2013-08-20T18:47:19Z</time>
      </trkpt>
      <trkpt lat="59.325697391333" lon="17.874112155355">
        <ele>0.4</ele>
        <time>2013-08-20T18:47:27Z</time>
      </trkpt>
      <trkpt lat="59.325617763283" lon="17.873559704326">
        <ele>0.4</ele>
        <time>2013-08-20T18:47:33Z</time>
      </trkpt>
      <trkpt lat="59.325586414977" lon="17.873359796011">
        <ele>0.4</ele>
        <time>2013-08-20T18:47:35Z</time>
      </trkpt>
      <trkpt lat="59.325530340066" lon="17.872994848085">
        <ele>0.4</ele>
        <time>2013-08-20T18:47:39Z</time>
      </trkpt>
      <trkpt lat="59.325421626823" lon="17.872287248087">
        <ele>0.4</ele>
        <time>2013-08-20T18:47:47Z</time>
      </trkpt>
      <trkpt lat="59.325320205833" lon="17.87163404662">
        <ele>0.4</ele>
        <time>2013-08-20T18:47:54Z</time>
      </trkpt>
      <trkpt lat="59.325223478707" lon="17.871093497889">
        <ele>0.4</ele>
        <time>2013-08-20T18:48:00Z</time>
      </trkpt>
      <trkpt lat="59.325080399674" lon="17.870517912816">
        <ele>0.4</ele>
        <time>2013-08-20T18:48:06Z</time>
      </trkpt>
      <trkpt lat="59.32488040754" lon="17.869969568918">
        <ele>0.4</ele>
        <time>2013-08-20T18:48:12Z</time>
      </trkpt>
      <trkpt lat="59.32476473732" lon="17.869723895429">
        <ele>0.4</ele>
        <time>2013-08-20T18:48:15Z</time>
      </trkpt>
      <trkpt lat="59.324680834501" lon="17.869579559111">
        <ele>0.4</ele>
        <time>2013-08-20T18:48:17Z</time>
      </trkpt>
      <trkpt lat="59.32435905336" lon="17.869131378918">
        <ele>0.4</ele>
        <time>2013-08-20T18:48:24Z</time>
      </trkpt>
      <trkpt lat="59.324060825358" lon="17.868883861411">
        <ele>0.4</ele>
        <time>2013-08-20T18:48:30Z</time>
      </trkpt>
      <trkpt lat="59.323680454736" lon="17.868737681075">
        <ele>0.4</ele>
        <time>2013-08-20T18:48:37Z</time>
      </trkpt>
      <trkpt lat="59.32317636727" lon="17.868623184321">
        <ele>0.8</ele>
        <time>2013-08-20T18:48:46Z</time>
      </trkpt>
      <trkpt lat="59.32312104673" lon="17.868614718602">
        <ele>1.4</ele>
        <time>2013-08-20T18:48:47Z</time>
      </trkpt>
      <trkpt lat="59.323065390914" lon="17.868606169064">
        <ele>1.8</ele>
        <time>2013-08-20T18:48:48Z</time>
      </trkpt>
      <trkpt lat="59.323010489469" lon="17.868594182947">
        <ele>2.2</ele>
        <time>2013-08-20T18:48:49Z</time>
      </trkpt>
      <trkpt lat="59.322952067626" lon="17.868581777735">
        <ele>2.8</ele>
        <time>2013-08-20T18:48:50Z</time>
      </trkpt>
      <trkpt lat="59.322668759406" lon="17.868512878517">
        <ele>2.8</ele>
        <time>2013-08-20T18:48:55Z</time>
      </trkpt>
      <trkpt lat="59.322274642468" lon="17.86841958797">
        <ele>3.2</ele>
        <time>2013-08-20T18:49:02Z</time>
      </trkpt>
      <trkpt lat="59.322216807358" lon="17.868408607681">
        <ele>3.6</ele>
        <time>2013-08-20T18:49:03Z</time>
      </trkpt>
      <trkpt lat="59.322156792954" lon="17.868396873021">
        <ele>4</ele>
        <time>2013-08-20T18:49:04Z</time>
      </trkpt>
      <trkpt lat="59.322099796034" lon="17.868383881076">
        <ele>4.4</ele>
        <time>2013-08-20T18:49:05Z</time>
      </trkpt>
      <trkpt lat="59.322044224037" lon="17.868371224407">
        <ele>4.8</ele>
        <time>2013-08-20T18:49:06Z</time>
      </trkpt>
      <trkpt lat="59.321692268056" lon="17.868300313533">
        <ele>4.8</ele>
        <time>2013-08-20T18:49:12Z</time>
      </trkpt>
      <trkpt lat="59.321323632094" lon="17.868180620001">
        <ele>4.8</ele>
        <time>2013-08-20T18:49:18Z</time>
      </trkpt>
      <trkpt lat="59.320941501273" lon="17.867947100267">
        <ele>4.2</ele>
        <time>2013-08-20T18:49:24Z</time>
      </trkpt>
      <trkpt lat="59.320878720842" lon="17.867895132487">
        <ele>3.2</ele>
        <time>2013-08-20T18:49:25Z</time>
      </trkpt>
      <trkpt lat="59.320816108049" lon="17.86783536954">
        <ele>2.6</ele>
        <time>2013-08-20T18:49:26Z</time>
      </trkpt>
      <trkpt lat="59.320755255455" lon="17.867765296856">
        <ele>2.2</ele>
        <time>2013-08-20T18:49:27Z</time>
      </trkpt>
      <trkpt lat="59.320644446737" lon="17.86758977987">
        <ele>2.2</ele>
        <time>2013-08-20T18:49:29Z</time>
      </trkpt>
      <trkpt lat="59.320555263321" lon="17.86738777608">
        <ele>2.2</ele>
        <time>2013-08-20T18:49:31Z</time>
      </trkpt>
      <trkpt lat="59.320459709661" lon="17.867205385936">
        <ele>2.2</ele>
        <time>2013-08-20T18:49:33Z</time>
      </trkpt>
      <trkpt lat="59.320404305302" lon="17.86713296632">
        <ele>2.2</ele>
        <time>2013-08-20T18:49:34Z</time>
      </trkpt>
      <trkpt lat="59.320219903502" lon="17.867008998019">
        <ele>2.2</ele>
        <time>2013-08-20T18:49:37Z</time>
      </trkpt>
      <trkpt lat="59.320163996229" lon="17.866956443506">
        <ele>2.2</ele>
        <time>2013-08-20T18:49:38Z</time>
      </trkpt>
      <trkpt lat="59.320018570264" lon="17.86678008833">
        <ele>2.2</ele>
        <time>2013-08-20T18:49:41Z</time>
      </trkpt>
      <trkpt lat="59.319958304403" lon="17.866648995414">
        <ele>2.2</ele>
        <time>2013-08-20T18:49:43Z</time>
      </trkpt>
      <trkpt lat="59.319968278864" lon="17.866569954097">
        <ele>2.2</ele>
        <time>2013-08-20T18:49:44Z</time>
      </trkpt>
      <trkpt lat="59.320015049866" lon="17.866292010293">
        <ele>2.2</ele>
        <time>2013-08-20T18:49:47Z</time>
      </trkpt>
      <trkpt lat="59.320022761214" lon="17.866185560163">
        <ele>2.2</ele>
        <time>2013-08-20T18:49:48Z</time>
      </trkpt>
      <trkpt lat="59.320052684597" lon="17.865569406694">
        <ele>2.2</ele>
        <time>2013-08-20T18:49:54Z</time>
      </trkpt>
      <trkpt lat="59.320066263275" lon="17.86525374434">
        <ele>2.6</ele>
        <time>2013-08-20T18:49:57Z</time>
      </trkpt>
      <trkpt lat="59.320071879148" lon="17.865150898427">
        <ele>3</ele>
        <time>2013-08-20T18:49:58Z</time>
      </trkpt>
      <trkpt lat="59.320078333211" lon="17.865042604279">
        <ele>3.4</ele>
        <time>2013-08-20T18:49:59Z</time>
      </trkpt>
      <trkpt lat="59.320082943256" lon="17.864938081986">
        <ele>3.8</ele>
        <time>2013-08-20T18:50:00Z</time>
      </trkpt>
      <trkpt lat="59.320087972396" lon="17.864835990444">
        <ele>4.2</ele>
        <time>2013-08-20T18:50:01Z</time>
      </trkpt>
      <trkpt lat="59.320100796703" lon="17.864519154624">
        <ele>4.2</ele>
        <time>2013-08-20T18:50:04Z</time>
      </trkpt>
      <trkpt lat="59.32011529739" lon="17.864182705158">
        <ele>4.6</ele>
        <time>2013-08-20T18:50:07Z</time>
      </trkpt>
      <trkpt lat="59.320121835272" lon="17.864072650811">
        <ele>5</ele>
        <time>2013-08-20T18:50:08Z</time>
      </trkpt>
      <trkpt lat="59.320128373154" lon="17.8639662845">
        <ele>5.4</ele>
        <time>2013-08-20T18:50:09Z</time>
      </trkpt>
      <trkpt lat="59.320134156665" lon="17.863860504922">
        <ele>5.8</ele>
        <time>2013-08-20T18:50:10Z</time>
      </trkpt>
      <trkpt lat="59.320138934348" lon="17.863755312077">
        <ele>6.2</ele>
        <time>2013-08-20T18:50:11Z</time>
      </trkpt>
      <trkpt lat="59.320151591017" lon="17.863418778792">
        <ele>6.2</ele>
        <time>2013-08-20T18:50:14Z</time>
      </trkpt>
      <trkpt lat="59.320173719233" lon="17.862851659438">
        <ele>6.2</ele>
        <time>2013-08-20T18:50:20Z</time>
      </trkpt>
      <trkpt lat="59.320203726435" lon="17.862279259487">
        <ele>8.8</ele>
        <time>2013-08-20T18:53:53Z</time>
      </trkpt>
      <trkpt lat="59.320211856878" lon="17.862145484363">
        <ele>8.8</ele>
        <time>2013-08-20T18:53:55Z</time>
      </trkpt>
      <trkpt lat="59.320228117764" lon="17.861824122317">
        <ele>8.8</ele>
        <time>2013-08-20T18:53:59Z</time>
      </trkpt>
      <trkpt lat="59.320266590685" lon="17.861119120708">
        <ele>8.8</ele>
        <time>2013-08-20T18:54:06Z</time>
      </trkpt>
      <trkpt lat="59.320302129941" lon="17.860289899341">
        <ele>8.8</ele>
        <time>2013-08-20T18:54:13Z</time>
      </trkpt>
      <trkpt lat="59.320337501559" lon="17.859579617135">
        <ele>8.8</ele>
        <time>2013-08-20T18:54:19Z</time>
      </trkpt>
      <trkpt lat="59.32036256344" lon="17.859043929906">
        <ele>8.8</ele>
        <time>2013-08-20T18:54:24Z</time>
      </trkpt>
      <trkpt lat="59.320395839583" lon="17.858361475608">
        <ele>9.2</ele>
        <time>2013-08-20T18:54:30Z</time>
      </trkpt>
      <trkpt lat="59.320400617266" lon="17.858251924175">
        <ele>9.6</ele>
        <time>2013-08-20T18:54:31Z</time>
      </trkpt>
      <trkpt lat="59.320405814044" lon="17.858143462389">
        <ele>10</ele>
        <time>2013-08-20T18:54:32Z</time>
      </trkpt>
      <trkpt lat="59.320412100469" lon="17.858035000603">
        <ele>10.4</ele>
        <time>2013-08-20T18:54:33Z</time>
      </trkpt>
      <trkpt lat="59.320417381066" lon="17.857927377007">
        <ele>10.8</ele>
        <time>2013-08-20T18:54:34Z</time>
      </trkpt>
      <trkpt lat="59.320441101843" lon="17.857471401647">
        <ele>10.8</ele>
        <time>2013-08-20T18:54:38Z</time>
      </trkpt>
      <trkpt lat="59.320459625842" lon="17.856893050547">
        <ele>10.8</ele>
        <time>2013-08-20T18:54:43Z</time>
      </trkpt>
      <trkpt lat="59.320489800682" lon="17.856336408568">
        <ele>10.8</ele>
        <time>2013-08-20T18:54:48Z</time>
      </trkpt>
      <trkpt lat="59.320523244463" lon="17.855663090541">
        <ele>11.2</ele>
        <time>2013-08-20T18:54:54Z</time>
      </trkpt>
      <trkpt lat="59.320527267775" lon="17.855538619326">
        <ele>11.8</ele>
        <time>2013-08-20T18:54:55Z</time>
      </trkpt>
      <trkpt lat="59.320530117621" lon="17.855402245813">
        <ele>12.2</ele>
        <time>2013-08-20T18:54:56Z</time>
      </trkpt>
      <trkpt lat="59.320536990779" lon="17.855272913096">
        <ele>12.6</ele>
        <time>2013-08-20T18:54:57Z</time>
      </trkpt>
      <trkpt lat="59.320544283032" lon="17.855147436053">
        <ele>13</ele>
        <time>2013-08-20T18:54:58Z</time>
      </trkpt>
      <trkpt lat="59.32054947981" lon="17.855026736693">
        <ele>13</ele>
        <time>2013-08-20T18:54:59Z</time>
      </trkpt>
      <trkpt lat="59.320563561402" lon="17.854544023072">
        <ele>13</ele>
        <time>2013-08-20T18:55:03Z</time>
      </trkpt>
      <trkpt lat="59.320571775664" lon="17.854218805352">
        <ele>13</ele>
        <time>2013-08-20T18:55:05Z</time>
      </trkpt>
      <trkpt lat="59.320588204188" lon="17.854027278937">
        <ele>12.4</ele>
        <time>2013-08-20T18:55:06Z</time>
      </trkpt>
      <trkpt lat="59.320597172821" lon="17.853821335654">
        <ele>12</ele>
        <time>2013-08-20T18:55:07Z</time>
      </trkpt>
      <trkpt lat="59.320611170594" lon="17.853588402653">
        <ele>11.2</ele>
        <time>2013-08-20T18:55:08Z</time>
      </trkpt>
      <trkpt lat="59.320625503643" lon="17.853357648946">
        <ele>10.4</ele>
        <time>2013-08-20T18:55:09Z</time>
      </trkpt>
      <trkpt lat="59.320639082321" lon="17.853119602986">
        <ele>8.6</ele>
        <time>2013-08-20T18:55:10Z</time>
      </trkpt>
      <trkpt lat="59.320652744818" lon="17.852867475434">
        <ele>7.6</ele>
        <time>2013-08-20T18:55:11Z</time>
      </trkpt>
      <trkpt lat="59.320666910229" lon="17.852619203556">
        <ele>6.8</ele>
        <time>2013-08-20T18:55:12Z</time>
      </trkpt>
      <trkpt lat="59.320676549414" lon="17.852367914194">
        <ele>5.8</ele>
        <time>2013-08-20T18:55:13Z</time>
      </trkpt>
      <trkpt lat="59.320697168888" lon="17.851863910547">
        <ele>5.8</ele>
        <time>2013-08-20T18:55:15Z</time>
      </trkpt>
      <trkpt lat="59.320710077014" lon="17.851613459375">
        <ele>5.2</ele>
        <time>2013-08-20T18:55:16Z</time>
      </trkpt>
      <trkpt lat="59.320723152778" lon="17.851352195552">
        <ele>4.6</ele>
        <time>2013-08-20T18:55:17Z</time>
      </trkpt>
      <trkpt lat="59.320735474171" lon="17.851092189014">
        <ele>4</ele>
        <time>2013-08-20T18:55:18Z</time>
      </trkpt>
      <trkpt lat="59.320746035365" lon="17.850809635165">
        <ele>3.4</ele>
        <time>2013-08-20T18:55:19Z</time>
      </trkpt>
      <trkpt lat="59.320757183292" lon="17.850544683306">
        <ele>2.8</ele>
        <time>2013-08-20T18:55:20Z</time>
      </trkpt>
      <trkpt lat="59.32077243835" lon="17.850283000388">
        <ele>2</ele>
        <time>2013-08-20T18:55:21Z</time>
      </trkpt>
      <trkpt lat="59.320790794711" lon="17.850025173144">
        <ele>1.4</ele>
        <time>2013-08-20T18:55:22Z</time>
      </trkpt>
      <trkpt lat="59.320805630674" lon="17.849764747511">
        <ele>0.6</ele>
        <time>2013-08-20T18:55:23Z</time>
      </trkpt>
      <trkpt lat="59.3208185388" lon="17.84950163967">
        <ele>0</ele>
        <time>2013-08-20T18:55:24Z</time>
      </trkpt>
      <trkpt lat="59.32083027346" lon="17.849247249005">
        <ele>0</ele>
        <time>2013-08-20T18:55:25Z</time>
      </trkpt>
      <trkpt lat="59.320842091939" lon="17.848997300747">
        <ele>0</ele>
        <time>2013-08-20T18:55:26Z</time>
      </trkpt>
      <trkpt lat="59.320853407504" lon="17.848731845974">
        <ele>0</ele>
        <time>2013-08-20T18:55:27Z</time>
      </trkpt>
      <trkpt lat="59.320901016696" lon="17.847532815179">
        <ele>0</ele>
        <time>2013-08-20T18:55:32Z</time>
      </trkpt>
      <trkpt lat="59.320909230958" lon="17.847304659861">
        <ele>0</ele>
        <time>2013-08-20T18:55:33Z</time>
      </trkpt>
      <trkpt lat="59.320950889001" lon="17.846271674505">
        <ele>0</ele>
        <time>2013-08-20T18:55:38Z</time>
      </trkpt>
      <trkpt lat="59.320958600349" lon="17.846096744252">
        <ele>0</ele>
        <time>2013-08-20T18:55:39Z</time>
      </trkpt>
      <trkpt lat="59.320967317525" lon="17.845960957472">
        <ele>0</ele>
        <time>2013-08-20T18:55:40Z</time>
      </trkpt>
      <trkpt lat="59.320976286158" lon="17.845834474601">
        <ele>0</ele>
        <time>2013-08-20T18:55:41Z</time>
      </trkpt>
      <trkpt lat="59.320982404945" lon="17.845710673938">
        <ele>0.4</ele>
        <time>2013-08-20T18:55:42Z</time>
      </trkpt>
      <trkpt lat="59.321022554246" lon="17.845020340654">
        <ele>0.4</ele>
        <time>2013-08-20T18:55:47Z</time>
      </trkpt>
      <trkpt lat="59.321051136525" lon="17.844315087588">
        <ele>0.8</ele>
        <time>2013-08-20T18:55:54Z</time>
      </trkpt>
      <trkpt lat="59.321055998027" lon="17.844198662997">
        <ele>1.4</ele>
        <time>2013-08-20T18:55:55Z</time>
      </trkpt>
      <trkpt lat="59.321060272796" lon="17.844082908958">
        <ele>1.8</ele>
        <time>2013-08-20T18:55:56Z</time>
      </trkpt>
      <trkpt lat="59.321066056307" lon="17.843966819643">
        <ele>2.2</ele>
        <time>2013-08-20T18:55:57Z</time>
      </trkpt>
      <trkpt lat="59.321072845646" lon="17.843850981785">
        <ele>2.8</ele>
        <time>2013-08-20T18:55:58Z</time>
      </trkpt>
      <trkpt lat="59.321094387129" lon="17.843294088349">
        <ele>2.8</ele>
        <time>2013-08-20T18:56:03Z</time>
      </trkpt>
      <trkpt lat="59.321132692412" lon="17.842470566674">
        <ele>2.8</ele>
        <time>2013-08-20T18:56:10Z</time>
      </trkpt>
      <trkpt lat="59.321170494781" lon="17.841591389183">
        <ele>2.8</ele>
        <time>2013-08-20T18:56:17Z</time>
      </trkpt>
      <trkpt lat="59.321187426219" lon="17.841469683995">
        <ele>2.8</ele>
        <time>2013-08-20T18:56:18Z</time>
      </trkpt>
      <trkpt lat="59.32125188303" lon="17.841254101527">
        <ele>2.8</ele>
        <time>2013-08-20T18:56:20Z</time>
      </trkpt>
      <trkpt lat="59.321348945432" lon="17.841116973643">
        <ele>2.8</ele>
        <time>2013-08-20T18:56:22Z</time>
      </trkpt>
      <trkpt lat="59.321393956235" lon="17.841055701954">
        <ele>3.2</ele>
        <time>2013-08-20T18:56:23Z</time>
      </trkpt>
      <trkpt lat="59.321436117192" lon="17.84099568755">
        <ele>4</ele>
        <time>2013-08-20T18:56:24Z</time>
      </trkpt>
      <trkpt lat="59.32147903252" lon="17.840937265707">
        <ele>4.4</ele>
        <time>2013-08-20T18:56:25Z</time>
      </trkpt>
      <trkpt lat="59.321523205133" lon="17.840879849692">
        <ele>4.8</ele>
        <time>2013-08-20T18:56:26Z</time>
      </trkpt>
      <trkpt lat="59.32166091975" lon="17.840744314369">
        <ele>4.8</ele>
        <time>2013-08-20T18:56:29Z</time>
      </trkpt>
      <trkpt lat="59.321710708236" lon="17.840707685466">
        <ele>4.8</ele>
        <time>2013-08-20T18:56:30Z</time>
      </trkpt>
      <trkpt lat="59.321758652704" lon="17.840687149811">
        <ele>4.8</ele>
        <time>2013-08-20T18:56:31Z</time>
      </trkpt>
      <trkpt lat="59.321862588264" lon="17.840670218373">
        <ele>4.8</ele>
        <time>2013-08-20T18:56:33Z</time>
      </trkpt>
      <trkpt lat="59.32197105005" lon="17.840679354644">
        <ele>4.8</ele>
        <time>2013-08-20T18:56:35Z</time>
      </trkpt>
      <trkpt lat="59.32245217111" lon="17.840765855852">
        <ele>4.8</ele>
        <time>2013-08-20T18:56:44Z</time>
      </trkpt>
      <trkpt lat="59.32278157978" lon="17.840825618799">
        <ele>4.8</ele>
        <time>2013-08-20T18:56:50Z</time>
      </trkpt>
      <trkpt lat="59.323223557367" lon="17.840898122234">
        <ele>4.8</ele>
        <time>2013-08-20T18:56:58Z</time>
      </trkpt>
      <trkpt lat="59.323320033036" lon="17.84091857407">
        <ele>5.2</ele>
        <time>2013-08-20T18:57:00Z</time>
      </trkpt>
      <trkpt lat="59.323366468762" lon="17.840925950142">
        <ele>5.6</ele>
        <time>2013-08-20T18:57:01Z</time>
      </trkpt>
      <trkpt lat="59.323410473737" lon="17.840929889635">
        <ele>6</ele>
        <time>2013-08-20T18:57:02Z</time>
      </trkpt>
      <trkpt lat="59.323452718513" lon="17.840936762793">
        <ele>6.6</ele>
        <time>2013-08-20T18:57:03Z</time>
      </trkpt>
      <trkpt lat="59.323500160067" lon="17.840945982883">
        <ele>7</ele>
        <time>2013-08-20T18:57:04Z</time>
      </trkpt>
      <trkpt lat="59.323635192476" lon="17.840972134411">
        <ele>7</ele>
        <time>2013-08-20T18:57:07Z</time>
      </trkpt>
      <trkpt lat="59.323809452177" lon="17.841008763314">
        <ele>7</ele>
        <time>2013-08-20T18:57:11Z</time>
      </trkpt>
      <trkpt lat="59.323856306998" lon="17.841014882101">
        <ele>7.4</ele>
        <time>2013-08-20T18:57:12Z</time>
      </trkpt>
      <trkpt lat="59.323901736896" lon="17.84101328954">
        <ele>8.2</ele>
        <time>2013-08-20T18:57:13Z</time>
      </trkpt>
      <trkpt lat="59.323947334432" lon="17.841015636472">
        <ele>8.6</ele>
        <time>2013-08-20T18:57:14Z</time>
      </trkpt>
      <trkpt lat="59.323995781814" lon="17.841021252345">
        <ele>9</ele>
        <time>2013-08-20T18:57:15Z</time>
      </trkpt>
      <trkpt lat="59.324134083164" lon="17.841048577339">
        <ele>9</ele>
        <time>2013-08-20T18:57:18Z</time>
      </trkpt>
      <trkpt lat="59.324473214838" lon="17.841104233155">
        <ele>9</ele>
        <time>2013-08-20T18:57:25Z</time>
      </trkpt>
      <trkpt lat="59.324903625403" lon="17.841184950852">
        <ele>9</ele>
        <time>2013-08-20T18:57:32Z</time>
      </trkpt>
      <trkpt lat="59.325363456437" lon="17.841254352984">
        <ele>9</ele>
        <time>2013-08-20T18:57:40Z</time>
      </trkpt>
      <trkpt lat="59.32575380152" lon="17.841317720148">
        <ele>9</ele>
        <time>2013-08-20T18:57:47Z</time>
      </trkpt>
      <trkpt lat="59.325811385173" lon="17.841328868075">
        <ele>9.4</ele>
        <time>2013-08-20T18:57:48Z</time>
      </trkpt>
      <trkpt lat="59.325867879179" lon="17.841339093993">
        <ele>9.8</ele>
        <time>2013-08-20T18:57:49Z</time>
      </trkpt>
      <trkpt lat="59.325927390669" lon="17.841350325739">
        <ele>10.2</ele>
        <time>2013-08-20T18:57:50Z</time>
      </trkpt>
      <trkpt lat="59.325987488892" lon="17.841362479494">
        <ele>10.8</ele>
        <time>2013-08-20T18:57:51Z</time>
      </trkpt>
      <trkpt lat="59.326046162192" lon="17.841367592453">
        <ele>11.2</ele>
        <time>2013-08-20T18:57:52Z</time>
      </trkpt>
      <trkpt lat="59.326285633075" lon="17.841404388994">
        <ele>11.2</ele>
        <time>2013-08-20T18:57:56Z</time>
      </trkpt>
      <trkpt lat="59.326596517746" lon="17.841444370657">
        <ele>11.6</ele>
        <time>2013-08-20T18:58:01Z</time>
      </trkpt>
      <trkpt lat="59.326656280693" lon="17.841459290439">
        <ele>12.4</ele>
        <time>2013-08-20T18:58:02Z</time>
      </trkpt>
      <trkpt lat="59.326711265957" lon="17.841469516357">
        <ele>12.8</ele>
        <time>2013-08-20T18:58:03Z</time>
      </trkpt>
      <trkpt lat="59.326761808814" lon="17.841479742275">
        <ele>13.2</ele>
        <time>2013-08-20T18:58:04Z</time>
      </trkpt>
      <trkpt lat="59.326816374983" lon="17.841490387288">
        <ele>13.6</ele>
        <time>2013-08-20T18:58:05Z</time>
      </trkpt>
      <trkpt lat="59.326873707179" lon="17.841498517731">
        <ele>14</ele>
        <time>2013-08-20T18:58:06Z</time>
      </trkpt>
      <trkpt lat="59.326937577257" lon="17.841508240735">
        <ele>14.6</ele>
        <time>2013-08-20T18:58:07Z</time>
      </trkpt>
      <trkpt lat="59.327004716276" lon="17.841516706454">
        <ele>15</ele>
        <time>2013-08-20T18:58:08Z</time>
      </trkpt>
      <trkpt lat="59.327071687657" lon="17.841520645947">
        <ele>15.4</ele>
        <time>2013-08-20T18:58:09Z</time>
      </trkpt>
      <trkpt lat="59.327140838332" lon="17.841529698399">
        <ele>15.4</ele>
        <time>2013-08-20T18:58:10Z</time>
      </trkpt>
      <trkpt lat="59.327514251977" lon="17.841597424151">
        <ele>15.4</ele>
        <time>2013-08-20T18:58:16Z</time>
      </trkpt>
      <trkpt lat="59.327573176734" lon="17.841629023914">
        <ele>15.4</ele>
        <time>2013-08-20T18:58:17Z</time>
      </trkpt>
      <trkpt lat="59.327732097558" lon="17.84179951176">
        <ele>15.4</ele>
        <time>2013-08-20T18:58:20Z</time>
      </trkpt>
      <trkpt lat="59.327861178818" lon="17.842037809177">
        <ele>15.4</ele>
        <time>2013-08-20T18:58:23Z</time>
      </trkpt>
      <trkpt lat="59.327919265385" lon="17.842133027561">
        <ele>15.4</ele>
        <time>2013-08-20T18:58:24Z</time>
      </trkpt>
      <trkpt lat="59.328169213643" lon="17.842623620168">
        <ele>15.4</ele>
        <time>2013-08-20T18:58:28Z</time>
      </trkpt>
      <trkpt lat="59.328435087511" lon="17.842777260395">
        <ele>15.4</ele>
        <time>2013-08-20T18:58:31Z</time>
      </trkpt>
      <trkpt lat="59.328745217811" lon="17.842758317301">
        <ele>15.4</ele>
        <time>2013-08-20T18:58:34Z</time>
      </trkpt>
      <trkpt lat="59.328855020701" lon="17.84275588655">
        <ele>15.4</ele>
        <time>2013-08-20T18:58:35Z</time>
      </trkpt>
      <trkpt lat="59.329059287604" lon="17.842751527962">
        <ele>15.8</ele>
        <time>2013-08-20T18:58:37Z</time>
      </trkpt>
      <trkpt lat="59.329159535128" lon="17.842745325356">
        <ele>16.4</ele>
        <time>2013-08-20T18:58:38Z</time>
      </trkpt>
      <trkpt lat="59.329258106272" lon="17.842746415003">
        <ele>16.8</ele>
        <time>2013-08-20T18:58:39Z</time>
      </trkpt>
      <trkpt lat="59.329358940529" lon="17.842739290388">
        <ele>17.2</ele>
        <time>2013-08-20T18:58:40Z</time>
      </trkpt>
      <trkpt lat="59.329462876089" lon="17.8427265499">
        <ele>17.8</ele>
        <time>2013-08-20T18:58:41Z</time>
      </trkpt>
      <trkpt lat="59.329569661495" lon="17.842720598751">
        <ele>17.8</ele>
        <time>2013-08-20T18:58:42Z</time>
      </trkpt>
      <trkpt lat="59.329779795728" lon="17.842801819362">
        <ele>17.8</ele>
        <time>2013-08-20T18:58:44Z</time>
      </trkpt>
      <trkpt lat="59.329878618329" lon="17.842871640589">
        <ele>17.8</ele>
        <time>2013-08-20T18:58:45Z</time>
      </trkpt>
      <trkpt lat="59.330227305369" lon="17.843154529714">
        <ele>17.8</ele>
        <time>2013-08-20T18:58:49Z</time>
      </trkpt>
      <trkpt lat="59.330289415248" lon="17.843223093656">
        <ele>17.8</ele>
        <time>2013-08-20T18:58:50Z</time>
      </trkpt>
      <trkpt lat="59.330348423824" lon="17.843287885743">
        <ele>18.2</ele>
        <time>2013-08-20T18:58:51Z</time>
      </trkpt>
      <trkpt lat="59.330407935314" lon="17.843350833812">
        <ele>19.4</ele>
        <time>2013-08-20T18:58:52Z</time>
      </trkpt>
      <trkpt lat="59.33045940018" lon="17.843396179891">
        <ele>20</ele>
        <time>2013-08-20T18:58:53Z</time>
      </trkpt>
      <trkpt lat="59.330505584449" lon="17.843451500431">
        <ele>20.4</ele>
        <time>2013-08-20T18:58:54Z</time>
      </trkpt>
      <trkpt lat="59.330582949386" lon="17.843607906685">
        <ele>20.4</ele>
        <time>2013-08-20T18:58:57Z</time>
      </trkpt>
      <trkpt lat="59.330623182506" lon="17.843661215569">
        <ele>20.8</ele>
        <time>2013-08-20T18:58:58Z</time>
      </trkpt>
      <trkpt lat="59.330661571608" lon="17.843724079819">
        <ele>21.2</ele>
        <time>2013-08-20T18:58:59Z</time>
      </trkpt>
      <trkpt lat="59.330688812783" lon="17.843789123363">
        <ele>21.6</ele>
        <time>2013-08-20T18:59:00Z</time>
      </trkpt>
      <trkpt lat="59.330711527732" lon="17.843850143595">
        <ele>22</ele>
        <time>2013-08-20T18:59:01Z</time>
      </trkpt>
      <trkpt lat="59.3307427084" lon="17.843922730849">
        <ele>22.4</ele>
        <time>2013-08-20T18:59:02Z</time>
      </trkpt>
      <trkpt lat="59.330894085514" lon="17.844281895264">
        <ele>22.4</ele>
        <time>2013-08-20T18:59:06Z</time>
      </trkpt>
      <trkpt lat="59.331073039079" lon="17.844927888297">
        <ele>22.4</ele>
        <time>2013-08-20T18:59:12Z</time>
      </trkpt>
      <trkpt lat="59.331094412924" lon="17.845055125539">
        <ele>22</ele>
        <time>2013-08-20T18:59:13Z</time>
      </trkpt>
      <trkpt lat="59.33111570295" lon="17.845178926202">
        <ele>21.6</ele>
        <time>2013-08-20T18:59:14Z</time>
      </trkpt>
      <trkpt lat="59.331138417899" lon="17.845293674413">
        <ele>21.2</ele>
        <time>2013-08-20T18:59:15Z</time>
      </trkpt>
      <trkpt lat="59.331153170043" lon="17.845406075692">
        <ele>20.2</ele>
        <time>2013-08-20T18:59:16Z</time>
      </trkpt>
      <trkpt lat="59.331158869735" lon="17.845509508338">
        <ele>20.2</ele>
        <time>2013-08-20T18:59:17Z</time>
      </trkpt>
      <trkpt lat="59.33117353806" lon="17.84570715354">
        <ele>20.2</ele>
        <time>2013-08-20T18:59:19Z</time>
      </trkpt>
      <trkpt lat="59.331222236899" lon="17.846000017126">
        <ele>20.2</ele>
        <time>2013-08-20T18:59:22Z</time>
      </trkpt>
      <trkpt lat="59.331244532753" lon="17.846084758135">
        <ele>20.2</ele>
        <time>2013-08-20T18:59:23Z</time>
      </trkpt>
      <trkpt lat="59.331324328441" lon="17.846391703313">
        <ele>20.2</ele>
        <time>2013-08-20T18:59:26Z</time>
      </trkpt>
      <trkpt lat="59.331381073904" lon="17.846757070334">
        <ele>20.2</ele>
        <time>2013-08-20T18:59:29Z</time>
      </trkpt>
      <trkpt lat="59.331380068076" lon="17.846999558701">
        <ele>20.2</ele>
        <time>2013-08-20T18:59:31Z</time>
      </trkpt>
      <trkpt lat="59.331302535501" lon="17.847315221055">
        <ele>20.2</ele>
        <time>2013-08-20T18:59:34Z</time>
      </trkpt>
      <trkpt lat="59.331241012355" lon="17.847517895397">
        <ele>20.2</ele>
        <time>2013-08-20T18:59:36Z</time>
      </trkpt>
      <trkpt lat="59.331189128394" lon="17.847734651331">
        <ele>20.2</ele>
        <time>2013-08-20T18:59:38Z</time>
      </trkpt>
      <trkpt lat="59.331162054857" lon="17.84784286166">
        <ele>20.2</ele>
        <time>2013-08-20T18:59:39Z</time>
      </trkpt>
      <trkpt lat="59.331100196435" lon="17.848212419631">
        <ele>20.2</ele>
        <time>2013-08-20T18:59:42Z</time>
      </trkpt>
      <trkpt lat="59.331089299965" lon="17.848346697669">
        <ele>20.2</ele>
        <time>2013-08-20T18:59:43Z</time>
      </trkpt>
      <trkpt lat="59.331085192834" lon="17.848801415744">
        <ele>20.2</ele>
        <time>2013-08-20T18:59:47Z</time>
      </trkpt>
      <trkpt lat="59.331091982173" lon="17.84890149563">
        <ele>20.6</ele>
        <time>2013-08-20T18:59:48Z</time>
      </trkpt>
      <trkpt lat="59.331102794824" lon="17.849006604656">
        <ele>21</ele>
        <time>2013-08-20T18:59:49Z</time>
      </trkpt>
      <trkpt lat="59.331118385158" lon="17.849137110839">
        <ele>21.4</ele>
        <time>2013-08-20T18:59:50Z</time>
      </trkpt>
      <trkpt lat="59.331133975492" lon="17.8492728138">
        <ele>21.8</ele>
        <time>2013-08-20T18:59:51Z</time>
      </trkpt>
      <trkpt lat="59.3311534215" lon="17.849437769592">
        <ele>22.4</ele>
        <time>2013-08-20T18:59:52Z</time>
      </trkpt>
      <trkpt lat="59.331165491436" lon="17.849602641565">
        <ele>21.8</ele>
        <time>2013-08-20T18:59:53Z</time>
      </trkpt>
      <trkpt lat="59.331184099254" lon="17.849768938461">
        <ele>21.2</ele>
        <time>2013-08-20T18:59:54Z</time>
      </trkpt>
      <trkpt lat="59.331202958529" lon="17.849934900081">
        <ele>20.6</ele>
        <time>2013-08-20T18:59:55Z</time>
      </trkpt>
      <trkpt lat="59.331225338202" lon="17.850097508941">
        <ele>20</ele>
        <time>2013-08-20T18:59:56Z</time>
      </trkpt>
      <trkpt lat="59.331248556065" lon="17.850262129457">
        <ele>19.4</ele>
        <time>2013-08-20T18:59:57Z</time>
      </trkpt>
      <trkpt lat="59.331308235193" lon="17.850832853028">
        <ele>19.4</ele>
        <time>2013-08-20T19:00:01Z</time>
      </trkpt>
      <trkpt lat="59.331321813871" lon="17.8509575757">
        <ele>19</ele>
        <time>2013-08-20T19:00:02Z</time>
      </trkpt>
      <trkpt lat="59.331335644006" lon="17.851080202897">
        <ele>18.6</ele>
        <time>2013-08-20T19:00:03Z</time>
      </trkpt>
      <trkpt lat="59.331349474141" lon="17.851196292212">
        <ele>18.2</ele>
        <time>2013-08-20T19:00:04Z</time>
      </trkpt>
      <trkpt lat="59.331362214629" lon="17.85131213007">
        <ele>17.8</ele>
        <time>2013-08-20T19:00:05Z</time>
      </trkpt>
      <trkpt lat="59.331375038936" lon="17.851420843313">
        <ele>17.4</ele>
        <time>2013-08-20T19:00:06Z</time>
      </trkpt>
      <trkpt lat="59.331389623442" lon="17.851533328411">
        <ele>17.4</ele>
        <time>2013-08-20T19:00:07Z</time>
      </trkpt>
      <trkpt lat="59.331500180703" lon="17.852417535042">
        <ele>17.4</ele>
        <time>2013-08-20T19:00:15Z</time>
      </trkpt>
      <trkpt lat="59.331557512899" lon="17.852841407725">
        <ele>17.4</ele>
        <time>2013-08-20T19:00:19Z</time>
      </trkpt>
      <trkpt lat="59.331568577007" lon="17.852925813458">
        <ele>17.4</ele>
        <time>2013-08-20T19:00:20Z</time>
      </trkpt>
      <trkpt lat="59.331631608895" lon="17.853450436579">
        <ele>17.4</ele>
        <time>2013-08-20T19:00:25Z</time>
      </trkpt>
      <trkpt lat="59.331687599987" lon="17.853959217909">
        <ele>17.4</ele>
        <time>2013-08-20T19:00:29Z</time>
      </trkpt>
      <trkpt lat="59.331734035713" lon="17.854709733235">
        <ele>17.4</ele>
        <time>2013-08-20T19:00:35Z</time>
      </trkpt>
      <trkpt lat="59.331694640783" lon="17.855291018">
        <ele>17.4</ele>
        <time>2013-08-20T19:00:40Z</time>
      </trkpt>
      <trkpt lat="59.331639906976" lon="17.855770797956">
        <ele>17</ele>
        <time>2013-08-20T19:00:44Z</time>
      </trkpt>
      <trkpt lat="59.33162616066" lon="17.855889988574">
        <ele>16.6</ele>
        <time>2013-08-20T19:00:45Z</time>
      </trkpt>
      <trkpt lat="59.331613420172" lon="17.85600431769">
        <ele>16.2</ele>
        <time>2013-08-20T19:00:46Z</time>
      </trkpt>
      <trkpt lat="59.33160017677" lon="17.856120155548">
        <ele>15.6</ele>
        <time>2013-08-20T19:00:47Z</time>
      </trkpt>
      <trkpt lat="59.331584754074" lon="17.856242782745">
        <ele>15.2</ele>
        <time>2013-08-20T19:00:48Z</time>
      </trkpt>
      <trkpt lat="59.331473526261" lon="17.857190943273">
        <ele>15.2</ele>
        <time>2013-08-20T19:00:56Z</time>
      </trkpt>
      <trkpt lat="59.331415272056" lon="17.857778682101">
        <ele>15.2</ele>
        <time>2013-08-20T19:01:01Z</time>
      </trkpt>
      <trkpt lat="59.331358107498" lon="17.858262653007">
        <ele>14.8</ele>
        <time>2013-08-20T19:01:05Z</time>
      </trkpt>
      <trkpt lat="59.331341343698" lon="17.858387962412">
        <ele>14.4</ele>
        <time>2013-08-20T19:01:06Z</time>
      </trkpt>
      <trkpt lat="59.331324244622" lon="17.858526515219">
        <ele>14</ele>
        <time>2013-08-20T19:01:07Z</time>
      </trkpt>
      <trkpt lat="59.331306977908" lon="17.858666828225">
        <ele>13.6</ele>
        <time>2013-08-20T19:01:08Z</time>
      </trkpt>
      <trkpt lat="59.331289040642" lon="17.858805297213">
        <ele>13.2</ele>
        <time>2013-08-20T19:01:09Z</time>
      </trkpt>
      <trkpt lat="59.331189798946" lon="17.859748093325">
        <ele>13.2</ele>
        <time>2013-08-20T19:01:16Z</time>
      </trkpt>
      <trkpt lat="59.331179321571" lon="17.859884969752">
        <ele>12.8</ele>
        <time>2013-08-20T19:01:17Z</time>
      </trkpt>
      <trkpt lat="59.331167000178" lon="17.860046153689">
        <ele>12.2</ele>
        <time>2013-08-20T19:01:18Z</time>
      </trkpt>
      <trkpt lat="59.331146213066" lon="17.860238183018">
        <ele>11.6</ele>
        <time>2013-08-20T19:01:19Z</time>
      </trkpt>
      <trkpt lat="59.331125258316" lon="17.860435241487">
        <ele>10.6</ele>
        <time>2013-08-20T19:01:20Z</time>
      </trkpt>
      <trkpt lat="59.331100364073" lon="17.860645124263">
        <ele>10.2</ele>
        <time>2013-08-20T19:01:21Z</time>
      </trkpt>
      <trkpt lat="59.331068596672" lon="17.860882918766">
        <ele>9.6</ele>
        <time>2013-08-20T19:01:22Z</time>
      </trkpt>
      <trkpt lat="59.331036326357" lon="17.861140410734">
        <ele>9.2</ele>
        <time>2013-08-20T19:01:23Z</time>
      </trkpt>
      <trkpt lat="59.331006822069" lon="17.861397399788">
        <ele>8.6</ele>
        <time>2013-08-20T19:01:24Z</time>
      </trkpt>
      <trkpt lat="59.330976898686" lon="17.861657825421">
        <ele>8.2</ele>
        <time>2013-08-20T19:01:25Z</time>
      </trkpt>
      <trkpt lat="59.330944293095" lon="17.861922022909">
        <ele>7.6</ele>
        <time>2013-08-20T19:01:26Z</time>
      </trkpt>
      <trkpt lat="59.330911855142" lon="17.862177335583">
        <ele>7.2</ele>
        <time>2013-08-20T19:01:27Z</time>
      </trkpt>
      <trkpt lat="59.33088017156" lon="17.86243994051">
        <ele>6.4</ele>
        <time>2013-08-20T19:01:28Z</time>
      </trkpt>
      <trkpt lat="59.330847398331" lon="17.862705060007">
        <ele>5.8</ele>
        <time>2013-08-20T19:01:29Z</time>
      </trkpt>
      <trkpt lat="59.330814876559" lon="17.862984177277">
        <ele>5.2</ele>
        <time>2013-08-20T19:01:30Z</time>
      </trkpt>
      <trkpt lat="59.330780594588" lon="17.863249045317">
        <ele>4.6</ele>
        <time>2013-08-20T19:01:31Z</time>
      </trkpt>
      <trkpt lat="59.330747821359" lon="17.863519864506">
        <ele>3.8</ele>
        <time>2013-08-20T19:01:32Z</time>
      </trkpt>
      <trkpt lat="59.330628463103" lon="17.8645446356">
        <ele>3.8</ele>
        <time>2013-08-20T19:01:36Z</time>
      </trkpt>
      <trkpt lat="59.330600970471" lon="17.864784106483">
        <ele>3.8</ele>
        <time>2013-08-20T19:01:37Z</time>
      </trkpt>
      <trkpt lat="59.330516648557" lon="17.865513834697">
        <ele>4.4</ele>
        <time>2013-08-20T19:01:40Z</time>
      </trkpt>
      <trkpt lat="59.330499465662" lon="17.865763447679">
        <ele>4.8</ele>
        <time>2013-08-20T19:01:41Z</time>
      </trkpt>
      <trkpt lat="59.330472056849" lon="17.86601314448">
        <ele>5.2</ele>
        <time>2013-08-20T19:01:42Z</time>
      </trkpt>
      <trkpt lat="59.330448252253" lon="17.866264517661">
        <ele>5.6</ele>
        <time>2013-08-20T19:01:43Z</time>
      </trkpt>
      <trkpt lat="59.330425369666" lon="17.866513124815">
        <ele>6.2</ele>
        <time>2013-08-20T19:01:44Z</time>
      </trkpt>
      <trkpt lat="59.330376084094" lon="17.867016877005">
        <ele>5.8</ele>
        <time>2013-08-20T19:01:46Z</time>
      </trkpt>
      <trkpt lat="59.330351692765" lon="17.867257186078">
        <ele>5.2</ele>
        <time>2013-08-20T19:01:47Z</time>
      </trkpt>
      <trkpt lat="59.330325708875" lon="17.867489699984">
        <ele>4.8</ele>
        <time>2013-08-20T19:01:48Z</time>
      </trkpt>
      <trkpt lat="59.330305424677" lon="17.8677213757">
        <ele>4.4</ele>
        <time>2013-08-20T19:01:49Z</time>
      </trkpt>
      <trkpt lat="59.330283631737" lon="17.867956655633">
        <ele>4</ele>
        <time>2013-08-20T19:01:50Z</time>
      </trkpt>
      <trkpt lat="59.33026410191" lon="17.868185816779">
        <ele>4</ele>
        <time>2013-08-20T19:01:51Z</time>
      </trkpt>
      <trkpt lat="59.330141809989" lon="17.869314355795">
        <ele>4</ele>
        <time>2013-08-20T19:01:56Z</time>
      </trkpt>
      <trkpt lat="59.330096799186" lon="17.86951761687">
        <ele>4.4</ele>
        <time>2013-08-20T19:01:57Z</time>
      </trkpt>
      <trkpt lat="59.330040137542" lon="17.869713082778">
        <ele>5</ele>
        <time>2013-08-20T19:01:58Z</time>
      </trkpt>
      <trkpt lat="59.329978949672" lon="17.86988977323">
        <ele>5.4</ele>
        <time>2013-08-20T19:01:59Z</time>
      </trkpt>
      <trkpt lat="59.329915163413" lon="17.8700515439">
        <ele>5.8</ele>
        <time>2013-08-20T19:02:00Z</time>
      </trkpt>
      <trkpt lat="59.329835116268" lon="17.870192192182">
        <ele>6.4</ele>
        <time>2013-08-20T19:02:01Z</time>
      </trkpt>
      <trkpt lat="59.329691450502" lon="17.870398303103">
        <ele>6.4</ele>
        <time>2013-08-20T19:02:03Z</time>
      </trkpt>
      <trkpt lat="59.329638979808" lon="17.870484552854">
        <ele>6.4</ele>
        <time>2013-08-20T19:02:04Z</time>
      </trkpt>
      <trkpt lat="59.329495900775" lon="17.870755288224">
        <ele>6.8</ele>
        <time>2013-08-20T19:02:07Z</time>
      </trkpt>
      <trkpt lat="59.329443262443" lon="17.870843381993">
        <ele>7.2</ele>
        <time>2013-08-20T19:02:08Z</time>
      </trkpt>
      <trkpt lat="59.329393809233" lon="17.870927536269">
        <ele>7.6</ele>
        <time>2013-08-20T19:02:09Z</time>
      </trkpt>
      <trkpt lat="59.32934544567" lon="17.871014959486">
        <ele>8.6</ele>
        <time>2013-08-20T19:02:10Z</time>
      </trkpt>
      <trkpt lat="59.329173951996" lon="17.871315450601">
        <ele>8.6</ele>
        <time>2013-08-20T19:02:14Z</time>
      </trkpt>
      <trkpt lat="59.328919896607" lon="17.871775365454">
        <ele>8.6</ele>
        <time>2013-08-20T19:02:20Z</time>
      </trkpt>
      <trkpt lat="59.328848985733" lon="17.871962952376">
        <ele>8.6</ele>
        <time>2013-08-20T19:02:22Z</time>
      </trkpt>
      <trkpt lat="59.328751839512" lon="17.872288924467">
        <ele>8.6</ele>
        <time>2013-08-20T19:02:25Z</time>
      </trkpt>
      <trkpt lat="59.328598283104" lon="17.872829640836">
        <ele>8.2</ele>
        <time>2013-08-20T19:02:30Z</time>
      </trkpt>
      <trkpt lat="59.328565845151" lon="17.872939024631">
        <ele>7.8</ele>
        <time>2013-08-20T19:02:31Z</time>
      </trkpt>
      <trkpt lat="59.328536173225" lon="17.873042289639">
        <ele>7.4</ele>
        <time>2013-08-20T19:02:32Z</time>
      </trkpt>
      <trkpt lat="59.328506668937" lon="17.873145806104">
        <ele>7</ele>
        <time>2013-08-20T19:02:33Z</time>
      </trkpt>
      <trkpt lat="59.328477416106" lon="17.873250160759">
        <ele>6.4</ele>
        <time>2013-08-20T19:02:34Z</time>
      </trkpt>
      <trkpt lat="59.328252026815" lon="17.874060019937">
        <ele>6</ele>
        <time>2013-08-20T19:02:41Z</time>
      </trkpt>
      <trkpt lat="59.328211709876" lon="17.874184491152">
        <ele>5.6</ele>
        <time>2013-08-20T19:02:42Z</time>
      </trkpt>
      <trkpt lat="59.328174661878" lon="17.874313488593">
        <ele>5.2</ele>
        <time>2013-08-20T19:02:43Z</time>
      </trkpt>
      <trkpt lat="59.328135686043" lon="17.874443072767">
        <ele>4.6</ele>
        <time>2013-08-20T19:02:44Z</time>
      </trkpt>
      <trkpt lat="59.328098135131" lon="17.874571148199">
        <ele>4.2</ele>
        <time>2013-08-20T19:02:45Z</time>
      </trkpt>
      <trkpt lat="59.328020602556" lon="17.874833585488">
        <ele>3.8</ele>
        <time>2013-08-20T19:02:47Z</time>
      </trkpt>
      <trkpt lat="59.327983722196" lon="17.87495830816">
        <ele>3.4</ele>
        <time>2013-08-20T19:02:48Z</time>
      </trkpt>
      <trkpt lat="59.327947428569" lon="17.875084371936">
        <ele>2.8</ele>
        <time>2013-08-20T19:02:49Z</time>
      </trkpt>
      <trkpt lat="59.327911554037" lon="17.875210435712">
        <ele>2.4</ele>
        <time>2013-08-20T19:02:50Z</time>
      </trkpt>
      <trkpt lat="59.327875092772" lon="17.875332476176">
        <ele>2</ele>
        <time>2013-08-20T19:02:51Z</time>
      </trkpt>
      <trkpt lat="59.327683985452" lon="17.875979055942">
        <ele>2</ele>
        <time>2013-08-20T19:02:56Z</time>
      </trkpt>
      <trkpt lat="59.327436970859" lon="17.876821772168">
        <ele>2</ele>
        <time>2013-08-20T19:03:02Z</time>
      </trkpt>
      <trkpt lat="59.327143604359" lon="17.877563989413">
        <ele>2</ele>
        <time>2013-08-20T19:03:08Z</time>
      </trkpt>
      <trkpt lat="59.326948138451" lon="17.877794156387">
        <ele>1.6</ele>
        <time>2013-08-20T19:03:11Z</time>
      </trkpt>
      <trkpt lat="59.326891979721" lon="17.877837406991">
        <ele>1.2</ele>
        <time>2013-08-20T19:03:12Z</time>
      </trkpt>
      <trkpt lat="59.326840431036" lon="17.877877556292">
        <ele>0.6</ele>
        <time>2013-08-20T19:03:13Z</time>
      </trkpt>
      <trkpt lat="59.326785948686" lon="17.877906641485">
        <ele>0.2</ele>
        <time>2013-08-20T19:03:14Z</time>
      </trkpt>
      <trkpt lat="59.326728700309" lon="17.877938744162">
        <ele>0</ele>
        <time>2013-08-20T19:03:15Z</time>
      </trkpt>
      <trkpt lat="59.326626273491" lon="17.877993058874">
        <ele>0</ele>
        <time>2013-08-20T19:03:17Z</time>
      </trkpt>
      <trkpt lat="59.326493839471" lon="17.878058689151">
        <ele>0</ele>
        <time>2013-08-20T19:03:20Z</time>
      </trkpt>
      <trkpt lat="59.326419575837" lon="17.878088025801">
        <ele>0</ele>
        <time>2013-08-20T19:03:22Z</time>
      </trkpt>
      <trkpt lat="59.326322345797" lon="17.877976378893">
        <ele>0</ele>
        <time>2013-08-20T19:03:25Z</time>
      </trkpt>
      <trkpt lat="59.326304995264" lon="17.877900103603">
        <ele>0</ele>
        <time>2013-08-20T19:03:26Z</time>
      </trkpt>
      <trkpt lat="59.326296697183" lon="17.877824666503">
        <ele>0</ele>
        <time>2013-08-20T19:03:27Z</time>
      </trkpt>
      <trkpt lat="59.32629108131" lon="17.877737830019">
        <ele>0</ele>
        <time>2013-08-20T19:03:28Z</time>
      </trkpt>
      <trkpt lat="59.326281442125" lon="17.877662392919">
        <ele>0</ele>
        <time>2013-08-20T19:03:29Z</time>
      </trkpt>
      <trkpt lat="59.326268282542" lon="17.877590140941">
        <ele>0</ele>
        <time>2013-08-20T19:03:30Z</time>
      </trkpt>
      <trkpt lat="59.32622318792" lon="17.877182696782">
        <ele>0</ele>
        <time>2013-08-20T19:03:35Z</time>
      </trkpt>
      <trkpt lat="59.326197874582" lon="17.877025787614">
        <ele>0</ele>
        <time>2013-08-20T19:03:37Z</time>
      </trkpt>
      <trkpt lat="59.326145320069" lon="17.876788328387">
        <ele>0</ele>
        <time>2013-08-20T19:03:40Z</time>
      </trkpt>
      <trkpt lat="59.326062674535" lon="17.876457997708">
        <ele>0</ele>
        <time>2013-08-20T19:03:44Z</time>
      </trkpt>
      <trkpt lat="59.326044821088" lon="17.876334951416">
        <ele>0</ele>
        <time>2013-08-20T19:03:46Z</time>
      </trkpt>
      <trkpt lat="59.326032583514" lon="17.876221879585">
        <ele>0</ele>
        <time>2013-08-20T19:03:48Z</time>
      </trkpt>
      <trkpt lat="59.3260236987" lon="17.876163457742">
        <ele>0</ele>
        <time>2013-08-20T19:03:49Z</time>
      </trkpt>
      <trkpt lat="59.326017747551" lon="17.876102521329">
        <ele>0</ele>
        <time>2013-08-20T19:03:50Z</time>
      </trkpt>
      <trkpt lat="59.326008695099" lon="17.876029934075">
        <ele>0</ele>
        <time>2013-08-20T19:03:51Z</time>
      </trkpt>
      <trkpt lat="59.325995954611" lon="17.875967824196">
        <ele>0</ele>
        <time>2013-08-20T19:03:52Z</time>
      </trkpt>
      <trkpt lat="59.325950440894" lon="17.875678061913">
        <ele>0</ele>
        <time>2013-08-20T19:03:56Z</time>
      </trkpt>
      <trkpt lat="59.325876428717" lon="17.875176489017">
        <ele>0</ele>
        <time>2013-08-20T19:04:03Z</time>
      </trkpt>
      <trkpt lat="59.325807697137" lon="17.8746783527">
        <ele>0</ele>
        <time>2013-08-20T19:04:10Z</time>
      </trkpt>
      <trkpt lat="59.325712394934" lon="17.87413772015">
        <ele>0</ele>
        <time>2013-08-20T19:04:17Z</time>
      </trkpt>
      <trkpt lat="59.325641232603" lon="17.873689037043">
        <ele>0</ele>
        <time>2013-08-20T19:04:23Z</time>
      </trkpt>
      <trkpt lat="59.325582475484" lon="17.873290896793">
        <ele>0</ele>
        <time>2013-08-20T19:04:28Z</time>
      </trkpt>
      <trkpt lat="59.325528747505" lon="17.872918321338">
        <ele>0</ele>
        <time>2013-08-20T19:04:33Z</time>
      </trkpt>
      <trkpt lat="59.325461105572" lon="17.872507608238">
        <ele>0</ele>
        <time>2013-08-20T19:04:39Z</time>
      </trkpt>
      <trkpt lat="59.325443000668" lon="17.87227610016">
        <ele>0</ele>
        <time>2013-08-20T19:04:42Z</time>
      </trkpt>
      <trkpt lat="59.32543193656" lon="17.872193873721">
        <ele>0</ele>
        <time>2013-08-20T19:04:43Z</time>
      </trkpt>
      <trkpt lat="59.325360606591" lon="17.871799086231">
        <ele>0</ele>
        <time>2013-08-20T19:04:48Z</time>
      </trkpt>
      <trkpt lat="59.325304866956" lon="17.871416284858">
        <ele>0</ele>
        <time>2013-08-20T19:04:53Z</time>
      </trkpt>
      <trkpt lat="59.325190286383" lon="17.870900378913">
        <ele>0</ele>
        <time>2013-08-20T19:04:59Z</time>
      </trkpt>
      <trkpt lat="59.32505223649" lon="17.870381874579">
        <ele>0</ele>
        <time>2013-08-20T19:05:04Z</time>
      </trkpt>
      <trkpt lat="59.324834055633" lon="17.869844762427">
        <ele>0</ele>
        <time>2013-08-20T19:05:10Z</time>
      </trkpt>
      <trkpt lat="59.324589723248" lon="17.869419381002">
        <ele>0</ele>
        <time>2013-08-20T19:05:16Z</time>
      </trkpt>
      <trkpt lat="59.324298536042" lon="17.869071448333">
        <ele>0</ele>
        <time>2013-08-20T19:05:22Z</time>
      </trkpt>
      <trkpt lat="59.324252687049" lon="17.86903146667">
        <ele>0</ele>
        <time>2013-08-20T19:05:23Z</time>
      </trkpt>
      <trkpt lat="59.324109859473" lon="17.868927279653">
        <ele>0.2</ele>
        <time>2013-08-20T19:05:26Z</time>
      </trkpt>
      <trkpt lat="59.324063591385" lon="17.868897859184">
        <ele>1</ele>
        <time>2013-08-20T19:05:27Z</time>
      </trkpt>
      <trkpt lat="59.324017407116" lon="17.868869863638">
        <ele>1.4</ele>
        <time>2013-08-20T19:05:28Z</time>
      </trkpt>
      <trkpt lat="59.323967283354" lon="17.868848070698">
        <ele>1.8</ele>
        <time>2013-08-20T19:05:29Z</time>
      </trkpt>
      <trkpt lat="59.323695039242" lon="17.868744554233">
        <ele>1.8</ele>
        <time>2013-08-20T19:05:34Z</time>
      </trkpt>
      <trkpt lat="59.323367809866" lon="17.868682360535">
        <ele>1.8</ele>
        <time>2013-08-20T19:05:40Z</time>
      </trkpt>
      <trkpt lat="59.323021972672" lon="17.868599463544">
        <ele>1.8</ele>
        <time>2013-08-20T19:05:47Z</time>
      </trkpt>
      <trkpt lat="59.322918540026" lon="17.86857549131">
        <ele>2.4</ele>
        <time>2013-08-20T19:05:49Z</time>
      </trkpt>
      <trkpt lat="59.322868416264" lon="17.868566857953">
        <ele>2.8</ele>
        <time>2013-08-20T19:05:50Z</time>
      </trkpt>
      <trkpt lat="59.32281175462" lon="17.868553949827">
        <ele>3.2</ele>
        <time>2013-08-20T19:05:51Z</time>
      </trkpt>
      <trkpt lat="59.322753332777" lon="17.86854112552">
        <ele>4</ele>
        <time>2013-08-20T19:05:52Z</time>
      </trkpt>
      <trkpt lat="59.322695665305" lon="17.868521260417">
        <ele>4</ele>
        <time>2013-08-20T19:05:53Z</time>
      </trkpt>
      <trkpt lat="59.322324430954" lon="17.86843635177">
        <ele>4</ele>
        <time>2013-08-20T19:06:00Z</time>
      </trkpt>
      <trkpt lat="59.321984544909" lon="17.86836091467">
        <ele>4</ele>
        <time>2013-08-20T19:06:06Z</time>
      </trkpt>
      <trkpt lat="59.321573580352" lon="17.868290841986">
        <ele>4</ele>
        <time>2013-08-20T19:06:13Z</time>
      </trkpt>
      <trkpt lat="59.32120997353" lon="17.868143320546">
        <ele>4</ele>
        <time>2013-08-20T19:06:19Z</time>
      </trkpt>
      <trkpt lat="59.320811078909" lon="17.867860263783">
        <ele>4</ele>
        <time>2013-08-20T19:06:26Z</time>
      </trkpt>
      <trkpt lat="59.320715273792" lon="17.867729589962">
        <ele>4</ele>
        <time>2013-08-20T19:06:28Z</time>
      </trkpt>
      <trkpt lat="59.320583091229" lon="17.86748416793">
        <ele>4</ele>
        <time>2013-08-20T19:06:31Z</time>
      </trkpt>
      <trkpt lat="59.320545875593" lon="17.867401103301">
        <ele>4</ele>
        <time>2013-08-20T19:06:32Z</time>
      </trkpt>
      <trkpt lat="59.320438251997" lon="17.867194489466">
        <ele>3.6</ele>
        <time>2013-08-20T19:06:35Z</time>
      </trkpt>
      <trkpt lat="59.320393492651" lon="17.867151657957">
        <ele>3.2</ele>
        <time>2013-08-20T19:06:36Z</time>
      </trkpt>
      <trkpt lat="59.320347224563" lon="17.867112095389">
        <ele>2.8</ele>
        <time>2013-08-20T19:06:37Z</time>
      </trkpt>
      <trkpt lat="59.320300118285" lon="17.867072951916">
        <ele>2.4</ele>
        <time>2013-08-20T19:06:38Z</time>
      </trkpt>
      <trkpt lat="59.320259046975" lon="17.867046800388">
        <ele>2</ele>
        <time>2013-08-20T19:06:39Z</time>
      </trkpt>
      <trkpt lat="59.320184448065" lon="17.866978320265">
        <ele>2</ele>
        <time>2013-08-20T19:06:41Z</time>
      </trkpt>
      <trkpt lat="59.320077830297" lon="17.866859800199">
        <ele>2</ele>
        <time>2013-08-20T19:06:44Z</time>
      </trkpt>
      <trkpt lat="59.319986635225" lon="17.866744297617">
        <ele>2</ele>
        <time>2013-08-20T19:06:47Z</time>
      </trkpt>
      <trkpt lat="59.319957298575" lon="17.866603565516">
        <ele>2</ele>
        <time>2013-08-20T19:06:49Z</time>
      </trkpt>
      <trkpt lat="59.320014211676" lon="17.866378679139">
        <ele>2</ele>
        <time>2013-08-20T19:06:52Z</time>
      </trkpt>
      <trkpt lat="59.320023180309" lon="17.866284215126">
        <ele>2</ele>
        <time>2013-08-20T19:06:53Z</time>
      </trkpt>
      <trkpt lat="59.320032148942" lon="17.866026220244">
        <ele>2.4</ele>
        <time>2013-08-20T19:06:56Z</time>
      </trkpt>
      <trkpt lat="59.320032484218" lon="17.865941563054">
        <ele>2.8</ele>
        <time>2013-08-20T19:06:57Z</time>
      </trkpt>
      <trkpt lat="59.320039525014" lon="17.865847685774">
        <ele>3.2</ele>
        <time>2013-08-20T19:06:58Z</time>
      </trkpt>
      <trkpt lat="59.320046817267" lon="17.865743498757">
        <ele>3.6</ele>
        <time>2013-08-20T19:06:59Z</time>
      </trkpt>
      <trkpt lat="59.320055702081" lon="17.865633360591">
        <ele>4.2</ele>
        <time>2013-08-20T19:07:00Z</time>
      </trkpt>
      <trkpt lat="59.320059557755" lon="17.865517690371">
        <ele>4.2</ele>
        <time>2013-08-20T19:07:01Z</time>
      </trkpt>
      <trkpt lat="59.320068023474" lon="17.865156262843">
        <ele>4.2</ele>
        <time>2013-08-20T19:07:04Z</time>
      </trkpt>
      <trkpt lat="59.320080512505" lon="17.864826770354">
        <ele>4.2</ele>
        <time>2013-08-20T19:07:06Z</time>
      </trkpt>
      <trkpt lat="59.320118901607" lon="17.864053707717">
        <ele>3.6</ele>
        <time>2013-08-20T19:07:10Z</time>
      </trkpt>
      <trkpt lat="59.320130468629" lon="17.863861091655">
        <ele>3.2</ele>
        <time>2013-08-20T19:07:11Z</time>
      </trkpt>
      <trkpt lat="59.320133653751" lon="17.863659423141">
        <ele>2.4</ele>
        <time>2013-08-20T19:07:12Z</time>
      </trkpt>
      <trkpt lat="59.320140275452" lon="17.863476362445">
        <ele>1.6</ele>
        <time>2013-08-20T19:07:13Z</time>
      </trkpt>
      <trkpt lat="59.320146980972" lon="17.863284584573">
        <ele>0.8</ele>
        <time>2013-08-20T19:07:14Z</time>
      </trkpt>
      <trkpt lat="59.320154189406" lon="17.863095572728">
        <ele>1</ele>
        <time>2013-08-20T19:07:15Z</time>
      </trkpt>
      <trkpt lat="59.320160978745" lon="17.862903208123">
        <ele>1.2</ele>
        <time>2013-08-20T19:07:16Z</time>
      </trkpt>
      <trkpt lat="59.320171204663" lon="17.862712855174">
        <ele>1.4</ele>
        <time>2013-08-20T19:07:17Z</time>
      </trkpt>
      <trkpt lat="59.320184196608" lon="17.862516383438">
        <ele>2</ele>
        <time>2013-08-20T19:07:18Z</time>
      </trkpt>
      <trkpt lat="59.320199200209" lon="17.862329802344">
        <ele>2.8</ele>
        <time>2013-08-20T19:07:19Z</time>
      </trkpt>
      <trkpt lat="59.320206324824" lon="17.862140287585">
        <ele>3.4</ele>
        <time>2013-08-20T19:07:20Z</time>
      </trkpt>
      <trkpt lat="59.320214874362" lon="17.861951108102">
        <ele>4</ele>
        <time>2013-08-20T19:07:21Z</time>
      </trkpt>
      <trkpt lat="59.320224932642" lon="17.861758408221">
        <ele>4.6</ele>
        <time>2013-08-20T19:07:22Z</time>
      </trkpt>
      <trkpt lat="59.320287042521" lon="17.860582427651">
        <ele>4.6</ele>
        <time>2013-08-20T19:07:28Z</time>
      </trkpt>
      <trkpt lat="59.320296094973" lon="17.860383357526">
        <ele>4.6</ele>
        <time>2013-08-20T19:07:29Z</time>
      </trkpt>
      <trkpt lat="59.320349236219" lon="17.859267139903">
        <ele>4.6</ele>
        <time>2013-08-20T19:07:35Z</time>
      </trkpt>
      <trkpt lat="59.320361892888" lon="17.859044684277">
        <ele>5.4</ele>
        <time>2013-08-20T19:07:37Z</time>
      </trkpt>
      <trkpt lat="59.320367844037" lon="17.858941503088">
        <ele>6</ele>
        <time>2013-08-20T19:07:38Z</time>
      </trkpt>
      <trkpt lat="59.320372034987" lon="17.858837483709">
        <ele>6.6</ele>
        <time>2013-08-20T19:07:39Z</time>
      </trkpt>
      <trkpt lat="59.320376896489" lon="17.858730195389">
        <ele>7.2</ele>
        <time>2013-08-20T19:07:40Z</time>
      </trkpt>
      <trkpt lat="59.320385529846" lon="17.858625421639">
        <ele>7.8</ele>
        <time>2013-08-20T19:07:41Z</time>
      </trkpt>
      <trkpt lat="59.320402461284" lon="17.858212780702">
        <ele>7.8</ele>
        <time>2013-08-20T19:07:45Z</time>
      </trkpt>
      <trkpt lat="59.320429367183" lon="17.8576882414">
        <ele>7.8</ele>
        <time>2013-08-20T19:07:50Z</time>
      </trkpt>
      <trkpt lat="59.320446969173" lon="17.857257579378">
        <ele>8.2</ele>
        <time>2013-08-20T19:07:54Z</time>
      </trkpt>
      <trkpt lat="59.320457027453" lon="17.857149620506">
        <ele>8.8</ele>
        <time>2013-08-20T19:07:55Z</time>
      </trkpt>
      <trkpt lat="59.320462475688" lon="17.85703361501">
        <ele>9.6</ele>
        <time>2013-08-20T19:07:56Z</time>
      </trkpt>
      <trkpt lat="59.320468426837" lon="17.856917860971">
        <ele>10</ele>
        <time>2013-08-20T19:07:57Z</time>
      </trkpt>
      <trkpt lat="59.320502205894" lon="17.856260720011">
        <ele>10</ele>
        <time>2013-08-20T19:08:03Z</time>
      </trkpt>
      <trkpt lat="59.320514108192" lon="17.855936843395">
        <ele>10</ele>
        <time>2013-08-20T19:08:06Z</time>
      </trkpt>
      <trkpt lat="59.320534895304" lon="17.855609781657">
        <ele>10</ele>
        <time>2013-08-20T19:08:09Z</time>
      </trkpt>
      <trkpt lat="59.32055283257" lon="17.855138970334">
        <ele>10</ele>
        <time>2013-08-20T19:08:13Z</time>
      </trkpt>
      <trkpt lat="59.320561465927" lon="17.854924309875">
        <ele>10.6</ele>
        <time>2013-08-20T19:08:15Z</time>
      </trkpt>
      <trkpt lat="59.320568255266" lon="17.854821044867">
        <ele>11</ele>
        <time>2013-08-20T19:08:16Z</time>
      </trkpt>
      <trkpt lat="59.320571440388" lon="17.85472356337">
        <ele>11.4</ele>
        <time>2013-08-20T19:08:17Z</time>
      </trkpt>
      <trkpt lat="59.320576385709" lon="17.854628261167">
        <ele>11.8</ele>
        <time>2013-08-20T19:08:18Z</time>
      </trkpt>
      <trkpt lat="59.32057714008" lon="17.854525079978">
        <ele>12.2</ele>
        <time>2013-08-20T19:08:19Z</time>
      </trkpt>
      <trkpt lat="59.320594574432" lon="17.854182763182">
        <ele>12.2</ele>
        <time>2013-08-20T19:08:22Z</time>
      </trkpt>
      <trkpt lat="59.320629694593" lon="17.85330786046">
        <ele>12.2</ele>
        <time>2013-08-20T19:08:29Z</time>
      </trkpt>
      <trkpt lat="59.320642099805" lon="17.85303712509">
        <ele>11.8</ele>
        <time>2013-08-20T19:08:31Z</time>
      </trkpt>
      <trkpt lat="59.320650733162" lon="17.852897314998">
        <ele>11.4</ele>
        <time>2013-08-20T19:08:32Z</time>
      </trkpt>
      <trkpt lat="59.320660037071" lon="17.852765467711">
        <ele>10.8</ele>
        <time>2013-08-20T19:08:33Z</time>
      </trkpt>
      <trkpt lat="59.320666239677" lon="17.852633201329">
        <ele>10.4</ele>
        <time>2013-08-20T19:08:34Z</time>
      </trkpt>
      <trkpt lat="59.320673196654" lon="17.852498336558">
        <ele>10</ele>
        <time>2013-08-20T19:08:35Z</time>
      </trkpt>
      <trkpt lat="59.320711166661" lon="17.851711862881">
        <ele>10</ele>
        <time>2013-08-20T19:08:41Z</time>
      </trkpt>
      <trkpt lat="59.320717956" lon="17.851573980626">
        <ele>9.6</ele>
        <time>2013-08-20T19:08:42Z</time>
      </trkpt>
      <trkpt lat="59.320724074787" lon="17.851466776125">
        <ele>9</ele>
        <time>2013-08-20T19:08:43Z</time>
      </trkpt>
      <trkpt lat="59.320726756995" lon="17.851332749544">
        <ele>8.6</ele>
        <time>2013-08-20T19:08:44Z</time>
      </trkpt>
      <trkpt lat="59.320730612669" lon="17.851207691596">
        <ele>7.8</ele>
        <time>2013-08-20T19:08:45Z</time>
      </trkpt>
      <trkpt lat="59.320767828305" lon="17.850251316806">
        <ele>7.4</ele>
        <time>2013-08-20T19:08:52Z</time>
      </trkpt>
      <trkpt lat="59.320778054223" lon="17.850120894442">
        <ele>6.8</ele>
        <time>2013-08-20T19:08:53Z</time>
      </trkpt>
      <trkpt lat="59.320788866874" lon="17.849987706051">
        <ele>6.2</ele>
        <time>2013-08-20T19:08:54Z</time>
      </trkpt>
      <trkpt lat="59.320800014801" lon="17.849853344194">
        <ele>5.8</ele>
        <time>2013-08-20T19:08:55Z</time>
      </trkpt>
      <trkpt lat="59.32080680414" lon="17.849727196599">
        <ele>5.2</ele>
        <time>2013-08-20T19:08:56Z</time>
      </trkpt>
      <trkpt lat="59.32082356794" lon="17.849345065778">
        <ele>5.2</ele>
        <time>2013-08-20T19:08:59Z</time>
      </trkpt>
      <trkpt lat="59.320828094166" lon="17.849237442182">
        <ele>4.8</ele>
        <time>2013-08-20T19:09:00Z</time>
      </trkpt>
      <trkpt lat="59.320832620392" lon="17.849134596269">
        <ele>4.4</ele>
        <time>2013-08-20T19:09:01Z</time>
      </trkpt>
      <trkpt lat="59.320835721695" lon="17.849032085632">
        <ele>4</ele>
        <time>2013-08-20T19:09:02Z</time>
      </trkpt>
      <trkpt lat="59.320836727523" lon="17.848935358506">
        <ele>3.6</ele>
        <time>2013-08-20T19:09:03Z</time>
      </trkpt>
      <trkpt lat="59.320843600681" lon="17.848829914204">
        <ele>3.2</ele>
        <time>2013-08-20T19:09:04Z</time>
      </trkpt>
      <trkpt lat="59.320872518236" lon="17.848127343346">
        <ele>3.2</ele>
        <time>2013-08-20T19:09:10Z</time>
      </trkpt>
      <trkpt lat="59.320912667537" lon="17.847180859198">
        <ele>3.2</ele>
        <time>2013-08-20T19:09:18Z</time>
      </trkpt>
      <trkpt lat="59.320942842377" lon="17.846533273604">
        <ele>3.2</ele>
        <time>2013-08-20T19:09:24Z</time>
      </trkpt>
      <trkpt lat="59.320955918141" lon="17.846230603195">
        <ele>3.2</ele>
        <time>2013-08-20T19:09:27Z</time>
      </trkpt>
      <trkpt lat="59.320976034701" lon="17.845917455411">
        <ele>3.2</ele>
        <time>2013-08-20T19:09:30Z</time>
      </trkpt>
      <trkpt lat="59.321000761306" lon="17.845333991352">
        <ele>3.2</ele>
        <time>2013-08-20T19:09:35Z</time>
      </trkpt>
      <trkpt lat="59.321031019965" lon="17.844699481522">
        <ele>3.2</ele>
        <time>2013-08-20T19:09:41Z</time>
      </trkpt>
      <trkpt lat="59.321065721031" lon="17.843955168802">
        <ele>3.2</ele>
        <time>2013-08-20T19:09:48Z</time>
      </trkpt>
      <trkpt lat="59.321070666352" lon="17.843823992067">
        <ele>3.2</ele>
        <time>2013-08-20T19:09:49Z</time>
      </trkpt>
      <trkpt lat="59.321067984144" lon="17.843667921089">
        <ele>3.2</ele>
        <time>2013-08-20T19:09:50Z</time>
      </trkpt>
      <trkpt lat="59.321086256686" lon="17.843293333978">
        <ele>3.2</ele>
        <time>2013-08-20T19:09:52Z</time>
      </trkpt>
      <trkpt lat="59.321096901699" lon="17.843090994912">
        <ele>2.8</ele>
        <time>2013-08-20T19:09:53Z</time>
      </trkpt>
      <trkpt lat="59.321102517572" lon="17.842886728009">
        <ele>2.2</ele>
        <time>2013-08-20T19:09:54Z</time>
      </trkpt>
      <trkpt lat="59.321117437354" lon="17.842656477216">
        <ele>1.8</ele>
        <time>2013-08-20T19:09:55Z</time>
      </trkpt>
      <trkpt lat="59.321127327996" lon="17.842445420974">
        <ele>1.2</ele>
        <time>2013-08-20T19:09:56Z</time>
      </trkpt>
      <trkpt lat="59.321137470095" lon="17.842234364732">
        <ele>0.8</ele>
        <time>2013-08-20T19:09:57Z</time>
      </trkpt>
      <trkpt lat="59.321187007124" lon="17.84137790219">
        <ele>0.8</ele>
        <time>2013-08-20T19:10:01Z</time>
      </trkpt>
      <trkpt lat="59.321256409256" lon="17.841215209511">
        <ele>0.8</ele>
        <time>2013-08-20T19:10:02Z</time>
      </trkpt>
      <trkpt lat="59.32143460845" lon="17.840979678121">
        <ele>0.8</ele>
        <time>2013-08-20T19:10:04Z</time>
      </trkpt>
      <trkpt lat="59.321521277296" lon="17.840867025385">
        <ele>0.8</ele>
        <time>2013-08-20T19:10:05Z</time>
      </trkpt>
      <trkpt lat="59.321713055168" lon="17.840694022969">
        <ele>0.8</ele>
        <time>2013-08-20T19:10:07Z</time>
      </trkpt>
      <trkpt lat="59.321817577461" lon="17.840649934175">
        <ele>0.8</ele>
        <time>2013-08-20T19:10:08Z</time>
      </trkpt>
      <trkpt lat="59.321924530505" lon="17.840656974971">
        <ele>1.2</ele>
        <time>2013-08-20T19:10:09Z</time>
      </trkpt>
      <trkpt lat="59.322029220436" lon="17.840682707404">
        <ele>1.6</ele>
        <time>2013-08-20T19:10:10Z</time>
      </trkpt>
      <trkpt lat="59.322133826548" lon="17.840704332706">
        <ele>2</ele>
        <time>2013-08-20T19:10:11Z</time>
      </trkpt>
      <trkpt lat="59.322239438488" lon="17.840716151185">
        <ele>2.4</ele>
        <time>2013-08-20T19:10:12Z</time>
      </trkpt>
      <trkpt lat="59.322342871134" lon="17.840737189754">
        <ele>2.8</ele>
        <time>2013-08-20T19:10:13Z</time>
      </trkpt>
      <trkpt lat="59.322860285821" lon="17.840828384826">
        <ele>2.8</ele>
        <time>2013-08-20T19:10:18Z</time>
      </trkpt>
      <trkpt lat="59.323296815173" lon="17.840891416714">
        <ele>3.4</ele>
        <time>2013-08-20T19:10:23Z</time>
      </trkpt>
      <trkpt lat="59.323364038011" lon="17.840898960424">
        <ele>4.2</ele>
        <time>2013-08-20T19:10:24Z</time>
      </trkpt>
      <trkpt lat="59.323426231709" lon="17.840910443627">
        <ele>4.8</ele>
        <time>2013-08-20T19:10:25Z</time>
      </trkpt>
      <trkpt lat="59.323484737371" lon="17.840921507735">
        <ele>5.2</ele>
        <time>2013-08-20T19:10:26Z</time>
      </trkpt>
      <trkpt lat="59.323595629908" lon="17.840938271535">
        <ele>5.6</ele>
        <time>2013-08-20T19:10:28Z</time>
      </trkpt>
      <trkpt lat="59.323648352059" lon="17.840955705887">
        <ele>6</ele>
        <time>2013-08-20T19:10:29Z</time>
      </trkpt>
      <trkpt lat="59.323698308183" lon="17.840953526593">
        <ele>6.4</ele>
        <time>2013-08-20T19:10:30Z</time>
      </trkpt>
      <trkpt lat="59.323752958171" lon="17.840970206574">
        <ele>6.8</ele>
        <time>2013-08-20T19:10:31Z</time>
      </trkpt>
      <trkpt lat="59.323805931779" lon="17.840982611786">
        <ele>7.2</ele>
        <time>2013-08-20T19:10:32Z</time>
      </trkpt>
      <trkpt lat="59.323859073025" lon="17.840993256799">
        <ele>7.2</ele>
        <time>2013-08-20T19:10:33Z</time>
      </trkpt>
      <trkpt lat="59.324313288186" lon="17.841070370279">
        <ele>7.2</ele>
        <time>2013-08-20T19:10:41Z</time>
      </trkpt>
      <trkpt lat="59.324839755325" lon="17.841165085749">
        <ele>7.2</ele>
        <time>2013-08-20T19:10:50Z</time>
      </trkpt>
      <trkpt lat="59.325333784511" lon="17.841240103754">
        <ele>7.2</ele>
        <time>2013-08-20T19:10:59Z</time>
      </trkpt>
      <trkpt lat="59.325385919929" lon="17.841250916405">
        <ele>7.6</ele>
        <time>2013-08-20T19:11:00Z</time>
      </trkpt>
      <trkpt lat="59.325437552433" lon="17.841260807047">
        <ele>8</ele>
        <time>2013-08-20T19:11:01Z</time>
      </trkpt>
      <trkpt lat="59.325490945136" lon="17.841269356585">
        <ele>8.4</ele>
        <time>2013-08-20T19:11:02Z</time>
      </trkpt>
      <trkpt lat="59.325538973423" lon="17.84127899577">
        <ele>8.8</ele>
        <time>2013-08-20T19:11:03Z</time>
      </trkpt>
      <trkpt lat="59.325588594271" lon="17.841282180892">
        <ele>9.2</ele>
        <time>2013-08-20T19:11:04Z</time>
      </trkpt>
      <trkpt lat="59.325730416019" lon="17.841303973832">
        <ele>9.2</ele>
        <time>2013-08-20T19:11:07Z</time>
      </trkpt>
      <trkpt lat="59.325859664917" lon="17.841324006573">
        <ele>9.8</ele>
        <time>2013-08-20T19:11:10Z</time>
      </trkpt>
      <trkpt lat="59.32590383753" lon="17.841333729577">
        <ele>10.2</ele>
        <time>2013-08-20T19:11:11Z</time>
      </trkpt>
      <trkpt lat="59.325950189437" lon="17.841339177812">
        <ele>10.6</ele>
        <time>2013-08-20T19:11:12Z</time>
      </trkpt>
      <trkpt lat="59.32599603843" lon="17.841344961323">
        <ele>11.4</ele>
        <time>2013-08-20T19:11:13Z</time>
      </trkpt>
      <trkpt lat="59.326132411943" lon="17.841369268833">
        <ele>11.4</ele>
        <time>2013-08-20T19:11:16Z</time>
      </trkpt>
      <trkpt lat="59.326589393131" lon="17.841453255471">
        <ele>11.4</ele>
        <time>2013-08-20T19:11:26Z</time>
      </trkpt>
      <trkpt lat="59.326715373088" lon="17.841466917968">
        <ele>12</ele>
        <time>2013-08-20T19:11:29Z</time>
      </trkpt>
      <trkpt lat="59.326753259276" lon="17.841472701479">
        <ele>12.4</ele>
        <time>2013-08-20T19:11:30Z</time>
      </trkpt>
      <trkpt lat="59.32679567169" lon="17.841482256845">
        <ele>12.8</ele>
        <time>2013-08-20T19:11:31Z</time>
      </trkpt>
      <trkpt lat="59.326836743" lon="17.841489632917">
        <ele>13.4</ele>
        <time>2013-08-20T19:11:32Z</time>
      </trkpt>
      <trkpt lat="59.326878903957" lon="17.841494913514">
        <ele>13.8</ele>
        <time>2013-08-20T19:11:33Z</time>
      </trkpt>
      <trkpt lat="59.327131702061" lon="17.84151536535">
        <ele>13.8</ele>
        <time>2013-08-20T19:11:38Z</time>
      </trkpt>
      <trkpt lat="59.327483490404" lon="17.841571943175">
        <ele>13.8</ele>
        <time>2013-08-20T19:11:45Z</time>
      </trkpt>
      <trkpt lat="59.327584659937" lon="17.841619636186">
        <ele>13.8</ele>
        <time>2013-08-20T19:11:47Z</time>
      </trkpt>
      <trkpt lat="59.327711561903" lon="17.841750310007">
        <ele>13.8</ele>
        <time>2013-08-20T19:11:50Z</time>
      </trkpt>
      <trkpt lat="59.327747184978" lon="17.841806301099">
        <ele>14.2</ele>
        <time>2013-08-20T19:11:51Z</time>
      </trkpt>
      <trkpt lat="59.327783143329" lon="17.841864806761">
        <ele>14.6</ele>
        <time>2013-08-20T19:11:52Z</time>
      </trkpt>
      <trkpt lat="59.327816335653" lon="17.84192775483">
        <ele>15.2</ele>
        <time>2013-08-20T19:11:53Z</time>
      </trkpt>
      <trkpt lat="59.327852713099" lon="17.841989361795">
        <ele>15.6</ele>
        <time>2013-08-20T19:11:54Z</time>
      </trkpt>
      <trkpt lat="59.327885067233" lon="17.842060021212">
        <ele>16</ele>
        <time>2013-08-20T19:11:55Z</time>
      </trkpt>
      <trkpt lat="59.328057482916" lon="17.842447181173">
        <ele>16</ele>
        <time>2013-08-20T19:12:00Z</time>
      </trkpt>
      <trkpt lat="59.328099140959" lon="17.842523121187">
        <ele>16</ele>
        <time>2013-08-20T19:12:01Z</time>
      </trkpt>
      <trkpt lat="59.3281946108" lon="17.842660416709">
        <ele>16.4</ele>
        <time>2013-08-20T19:12:03Z</time>
      </trkpt>
      <trkpt lat="59.328245405114" lon="17.842717497448">
        <ele>16.8</ele>
        <time>2013-08-20T19:12:04Z</time>
      </trkpt>
      <trkpt lat="59.328302402034" lon="17.842755467455">
        <ele>17.2</ele>
        <time>2013-08-20T19:12:05Z</time>
      </trkpt>
      <trkpt lat="59.328352525796" lon="17.842778852956">
        <ele>17.6</ele>
        <time>2013-08-20T19:12:06Z</time>
      </trkpt>
      <trkpt lat="59.328404074481" lon="17.842794862385">
        <ele>18</ele>
        <time>2013-08-20T19:12:07Z</time>
      </trkpt>
      <trkpt lat="59.328519241787" lon="17.842802154638">
        <ele>18</ele>
        <time>2013-08-20T19:12:09Z</time>
      </trkpt>
      <trkpt lat="59.328959542994" lon="17.842783127725">
        <ele>18.4</ele>
        <time>2013-08-20T19:12:17Z</time>
      </trkpt>
      <trkpt lat="59.329009582937" lon="17.84277097397">
        <ele>19</ele>
        <time>2013-08-20T19:12:18Z</time>
      </trkpt>
      <trkpt lat="59.329060209613" lon="17.842764603726">
        <ele>19.4</ele>
        <time>2013-08-20T19:12:19Z</time>
      </trkpt>
      <trkpt lat="59.3291166198" lon="17.8427600775">
        <ele>19.8</ele>
        <time>2013-08-20T19:12:20Z</time>
      </trkpt>
      <trkpt lat="59.329174203453" lon="17.842754293989">
        <ele>20.2</ele>
        <time>2013-08-20T19:12:21Z</time>
      </trkpt>
      <trkpt lat="59.329294064623" lon="17.842749348668">
        <ele>20.2</ele>
        <time>2013-08-20T19:12:23Z</time>
      </trkpt>
      <trkpt lat="59.329682230412" lon="17.842733842153">
        <ele>20.2</ele>
        <time>2013-08-20T19:12:29Z</time>
      </trkpt>
      <trkpt lat="59.329748028327" lon="17.842766280106">
        <ele>20.2</ele>
        <time>2013-08-20T19:12:30Z</time>
      </trkpt>
      <trkpt lat="59.329925137874" lon="17.84290173161">
        <ele>20.2</ele>
        <time>2013-08-20T19:12:33Z</time>
      </trkpt>
      <trkpt lat="59.330039131714" lon="17.843006924455">
        <ele>20.2</ele>
        <time>2013-08-20T19:12:35Z</time>
      </trkpt>
      <trkpt lat="59.330200650927" lon="17.843172802256">
        <ele>20.2</ele>
        <time>2013-08-20T19:12:39Z</time>
      </trkpt>
      <trkpt lat="59.330230741948" lon="17.843210688444">
        <ele>20.6</ele>
        <time>2013-08-20T19:12:40Z</time>
      </trkpt>
      <trkpt lat="59.330262760806" lon="17.843249245184">
        <ele>21</ele>
        <time>2013-08-20T19:12:41Z</time>
      </trkpt>
      <trkpt lat="59.330294360569" lon="17.843300877688">
        <ele>21.4</ele>
        <time>2013-08-20T19:12:42Z</time>
      </trkpt>
      <trkpt lat="59.330337192078" lon="17.843349241251">
        <ele>21.8</ele>
        <time>2013-08-20T19:12:43Z</time>
      </trkpt>
      <trkpt lat="59.330381867605" lon="17.843398107728">
        <ele>22.2</ele>
        <time>2013-08-20T19:12:44Z</time>
      </trkpt>
      <trkpt lat="59.330481109301" lon="17.843588544496">
        <ele>22.2</ele>
        <time>2013-08-20T19:12:47Z</time>
      </trkpt>
      <trkpt lat="59.33051974986" lon="17.843637243335">
        <ele>22.2</ele>
        <time>2013-08-20T19:12:48Z</time>
      </trkpt>
      <trkpt lat="59.330598204444" lon="17.843777723979">
        <ele>22.2</ele>
        <time>2013-08-20T19:12:50Z</time>
      </trkpt>
      <trkpt lat="59.330709767533" lon="17.843991797705">
        <ele>22.2</ele>
        <time>2013-08-20T19:12:52Z</time>
      </trkpt>
      <trkpt lat="59.330851421643" lon="17.844302766195">
        <ele>21.8</ele>
        <time>2013-08-20T19:12:54Z</time>
      </trkpt>
      <trkpt lat="59.330913363884" lon="17.844481803579">
        <ele>21.2</ele>
        <time>2013-08-20T19:12:55Z</time>
      </trkpt>
      <trkpt lat="59.330959380515" lon="17.844702079911">
        <ele>20.8</ele>
        <time>2013-08-20T19:12:56Z</time>
      </trkpt>
      <trkpt lat="59.331016461254" lon="17.844925289908">
        <ele>20</ele>
        <time>2013-08-20T19:12:57Z</time>
      </trkpt>
      <trkpt lat="59.331069770138" lon="17.845156881805">
        <ele>19.4</ele>
        <time>2013-08-20T19:12:58Z</time>
      </trkpt>
      <trkpt lat="59.331113858932" lon="17.845396855602">
        <ele>18.8</ele>
        <time>2013-08-20T19:12:59Z</time>
      </trkpt>
      <trkpt lat="59.331143530858" lon="17.845629118051">
        <ele>18.2</ele>
        <time>2013-08-20T19:13:00Z</time>
      </trkpt>
      <trkpt lat="59.331177309915" lon="17.845847298908">
        <ele>17.6</ele>
        <time>2013-08-20T19:13:01Z</time>
      </trkpt>
      <trkpt lat="59.3312204767" lon="17.846079812814">
        <ele>17.6</ele>
        <time>2013-08-20T19:13:02Z</time>
      </trkpt>
      <trkpt lat="59.331285520244" lon="17.846302687535">
        <ele>17.6</ele>
        <time>2013-08-20T19:13:03Z</time>
      </trkpt>
      <trkpt lat="59.331360202973" lon="17.846800656214">
        <ele>17.6</ele>
        <time>2013-08-20T19:13:05Z</time>
      </trkpt>
      <trkpt lat="59.331354922376" lon="17.847045072418">
        <ele>17</ele>
        <time>2013-08-20T19:13:06Z</time>
      </trkpt>
      <trkpt lat="59.331285352606" lon="17.847242885258">
        <ele>16.6</ele>
        <time>2013-08-20T19:13:07Z</time>
      </trkpt>
      <trkpt lat="59.331218716501" lon="17.84743214856">
        <ele>16.2</ele>
        <time>2013-08-20T19:13:08Z</time>
      </trkpt>
      <trkpt lat="59.331164066513" lon="17.847645216458">
        <ele>15.8</ele>
        <time>2013-08-20T19:13:09Z</time>
      </trkpt>
      <trkpt lat="59.331097178951" lon="17.847834312122">
        <ele>15.4</ele>
        <time>2013-08-20T19:13:10Z</time>
      </trkpt>
      <trkpt lat="59.331055688546" lon="17.848039752491">
        <ele>15.4</ele>
        <time>2013-08-20T19:13:11Z</time>
      </trkpt>
      <trkpt lat="59.331037416004" lon="17.848493548557">
        <ele>15.4</ele>
        <time>2013-08-20T19:13:13Z</time>
      </trkpt>
      <trkpt lat="59.331062813161" lon="17.848913397928">
        <ele>15.4</ele>
        <time>2013-08-20T19:13:15Z</time>
      </trkpt>
      <trkpt lat="59.331083935549" lon="17.849114144433">
        <ele>16.4</ele>
        <time>2013-08-20T19:13:16Z</time>
      </trkpt>
      <trkpt lat="59.33112911399" lon="17.849358057723">
        <ele>17</ele>
        <time>2013-08-20T19:13:17Z</time>
      </trkpt>
      <trkpt lat="59.331156522803" lon="17.84961060437">
        <ele>17.4</ele>
        <time>2013-08-20T19:13:18Z</time>
      </trkpt>
      <trkpt lat="59.331182003779" lon="17.849863905388">
        <ele>17.2</ele>
        <time>2013-08-20T19:13:19Z</time>
      </trkpt>
      <trkpt lat="59.331212765352" lon="17.850112847818">
        <ele>16.8</ele>
        <time>2013-08-20T19:13:20Z</time>
      </trkpt>
      <trkpt lat="59.331248723703" lon="17.850365897379">
        <ele>16</ele>
        <time>2013-08-20T19:13:21Z</time>
      </trkpt>
      <trkpt lat="59.33127663543" lon="17.850608553384">
        <ele>15.2</ele>
        <time>2013-08-20T19:13:22Z</time>
      </trkpt>
      <trkpt lat="59.33129759018" lon="17.850835283779">
        <ele>14.4</ele>
        <time>2013-08-20T19:13:23Z</time>
      </trkpt>
      <trkpt lat="59.331320808043" lon="17.851076850137">
        <ele>13.8</ele>
        <time>2013-08-20T19:13:24Z</time>
      </trkpt>
      <trkpt lat="59.331344445001" lon="17.851278770108">
        <ele>13</ele>
        <time>2013-08-20T19:13:25Z</time>
      </trkpt>
      <trkpt lat="59.33137805642" lon="17.851565682545">
        <ele>13.4</ele>
        <time>2013-08-20T19:13:27Z</time>
      </trkpt>
      <trkpt lat="59.331390796908" lon="17.851684537887">
        <ele>14</ele>
        <time>2013-08-20T19:13:28Z</time>
      </trkpt>
      <trkpt lat="59.33140320212" lon="17.851798615546">
        <ele>14.4</ele>
        <time>2013-08-20T19:13:29Z</time>
      </trkpt>
      <trkpt lat="59.331412757486" lon="17.851898695432">
        <ele>15</ele>
        <time>2013-08-20T19:13:30Z</time>
      </trkpt>
      <trkpt lat="59.331423653956" lon="17.851989219952">
        <ele>15.6</ele>
        <time>2013-08-20T19:13:31Z</time>
      </trkpt>
      <trkpt lat="59.33143672972" lon="17.852075637341">
        <ele>15.6</ele>
        <time>2013-08-20T19:13:32Z</time>
      </trkpt>
      <trkpt lat="59.331518453245" lon="17.85261635371">
        <ele>15.6</ele>
        <time>2013-08-20T19:13:37Z</time>
      </trkpt>
      <trkpt lat="59.331625071013" lon="17.853484550912">
        <ele>15.6</ele>
        <time>2013-08-20T19:13:44Z</time>
      </trkpt>
      <trkpt lat="59.331696903896" lon="17.854149822315">
        <ele>15.6</ele>
        <time>2013-08-20T19:13:50Z</time>
      </trkpt>
      <trkpt lat="59.331730682953" lon="17.854701602792">
        <ele>15.6</ele>
        <time>2013-08-20T19:13:56Z</time>
      </trkpt>
      <trkpt lat="59.33171752337" lon="17.855035537688">
        <ele>15.6</ele>
        <time>2013-08-20T19:13:59Z</time>
      </trkpt>
      <trkpt lat="59.331685504512" lon="17.855365197815">
        <ele>15.6</ele>
        <time>2013-08-20T19:14:02Z</time>
      </trkpt>
      <trkpt lat="59.331586598092" lon="17.856248566256">
        <ele>15</ele>
        <time>2013-08-20T19:14:09Z</time>
      </trkpt>
      <trkpt lat="59.331573773785" lon="17.856381084095">
        <ele>14.6</ele>
        <time>2013-08-20T19:14:10Z</time>
      </trkpt>
      <trkpt lat="59.33156245822" lon="17.85651226083">
        <ele>14.2</ele>
        <time>2013-08-20T19:14:11Z</time>
      </trkpt>
      <trkpt lat="59.33154653261" lon="17.856639246615">
        <ele>13.8</ele>
        <time>2013-08-20T19:14:12Z</time>
      </trkpt>
      <trkpt lat="59.331532115742" lon="17.856764388382">
        <ele>13.2</ele>
        <time>2013-08-20T19:14:13Z</time>
      </trkpt>
      <trkpt lat="59.331469922044" lon="17.857262524699">
        <ele>13.2</ele>
        <time>2013-08-20T19:14:17Z</time>
      </trkpt>
      <trkpt lat="59.331410075278" lon="17.857871218277">
        <ele>13.2</ele>
        <time>2013-08-20T19:14:22Z</time>
      </trkpt>
      <trkpt lat="59.331283760045" lon="17.858829604723">
        <ele>13.2</ele>
        <time>2013-08-20T19:14:30Z</time>
      </trkpt>
      <trkpt lat="59.331241347631" lon="17.859208550422">
        <ele>12.8</ele>
        <time>2013-08-20T19:14:33Z</time>
      </trkpt>
      <trkpt lat="59.331225254383" lon="17.859344840116">
        <ele>12.4</ele>
        <time>2013-08-20T19:14:34Z</time>
      </trkpt>
      <trkpt lat="59.33120790385" lon="17.859473418462">
        <ele>11.8</ele>
        <time>2013-08-20T19:14:35Z</time>
      </trkpt>
      <trkpt lat="59.331190385679" lon="17.859604762835">
        <ele>11.4</ele>
        <time>2013-08-20T19:14:36Z</time>
      </trkpt>
      <trkpt lat="59.331170520576" lon="17.859725126919">
        <ele>10.8</ele>
        <time>2013-08-20T19:14:37Z</time>
      </trkpt>
      <trkpt lat="59.331152834767" lon="17.859855130188">
        <ele>10.8</ele>
        <time>2013-08-20T19:14:38Z</time>
      </trkpt>
      <trkpt lat="59.331032470683" lon="17.860896581263">
        <ele>10.8</ele>
        <time>2013-08-20T19:14:46Z</time>
      </trkpt>
      <trkpt lat="59.330960051067" lon="17.861510890714">
        <ele>10.8</ele>
        <time>2013-08-20T19:14:51Z</time>
      </trkpt>
      <trkpt lat="59.330943622543" lon="17.861632847359">
        <ele>10.4</ele>
        <time>2013-08-20T19:14:52Z</time>
      </trkpt>
      <trkpt lat="59.330926942562" lon="17.861765029922">
        <ele>10</ele>
        <time>2013-08-20T19:14:53Z</time>
      </trkpt>
      <trkpt lat="59.3309103464" lon="17.86190517529">
        <ele>9.6</ele>
        <time>2013-08-20T19:14:54Z</time>
      </trkpt>
      <trkpt lat="59.330893666419" lon="17.862047248495">
        <ele>8.8</ele>
        <time>2013-08-20T19:14:55Z</time>
      </trkpt>
      <trkpt lat="59.330841363363" lon="17.86245167517">
        <ele>8.8</ele>
        <time>2013-08-20T19:14:58Z</time>
      </trkpt>
      <trkpt lat="59.330773889068" lon="17.863034384858">
        <ele>8.8</ele>
        <time>2013-08-20T19:15:03Z</time>
      </trkpt>
      <trkpt lat="59.330662074522" lon="17.86393778604">
        <ele>8.8</ele>
        <time>2013-08-20T19:15:11Z</time>
      </trkpt>
      <trkpt lat="59.330553696555" lon="17.864871278243">
        <ele>8.8</ele>
        <time>2013-08-20T19:15:19Z</time>
      </trkpt>
      <trkpt lat="59.330494101246" lon="17.865417442847">
        <ele>8.8</ele>
        <time>2013-08-20T19:15:24Z</time>
      </trkpt>
      <trkpt lat="59.33047784036" lon="17.865643837966">
        <ele>8.8</ele>
        <time>2013-08-20T19:15:26Z</time>
      </trkpt>
      <trkpt lat="59.330410533703" lon="17.866368117945">
        <ele>8.8</ele>
        <time>2013-08-20T19:15:32Z</time>
      </trkpt>
      <trkpt lat="59.330344819607" lon="17.867181665159">
        <ele>8.8</ele>
        <time>2013-08-20T19:15:39Z</time>
      </trkpt>
      <trkpt lat="59.330270053059" lon="17.867978867668">
        <ele>8.8</ele>
        <time>2013-08-20T19:15:46Z</time>
      </trkpt>
      <trkpt lat="59.330180450548" lon="17.868869863638">
        <ele>8.8</ele>
        <time>2013-08-20T19:15:53Z</time>
      </trkpt>
      <trkpt lat="59.330142480541" lon="17.86930220204">
        <ele>8.8</ele>
        <time>2013-08-20T19:15:56Z</time>
      </trkpt>
      <trkpt lat="59.330104929629" lon="17.86946732547">
        <ele>8.8</ele>
        <time>2013-08-20T19:15:57Z</time>
      </trkpt>
      <trkpt lat="59.329984900821" lon="17.869802350013">
        <ele>8.2</ele>
        <time>2013-08-20T19:15:59Z</time>
      </trkpt>
      <trkpt lat="59.329905608047" lon="17.869970658565">
        <ele>7.8</ele>
        <time>2013-08-20T19:16:00Z</time>
      </trkpt>
      <trkpt lat="59.329824471255" lon="17.870130417579">
        <ele>7.2</ele>
        <time>2013-08-20T19:16:01Z</time>
      </trkpt>
      <trkpt lat="59.329729504328" lon="17.870294451362">
        <ele>6.8</ele>
        <time>2013-08-20T19:16:02Z</time>
      </trkpt>
      <trkpt lat="59.329640572369" lon="17.870447588675">
        <ele>6.2</ele>
        <time>2013-08-20T19:16:03Z</time>
      </trkpt>
      <trkpt lat="59.329373608854" lon="17.8709232615">
        <ele>5.8</ele>
        <time>2013-08-20T19:16:06Z</time>
      </trkpt>
      <trkpt lat="59.329283587248" lon="17.87108084122">
        <ele>5.2</ele>
        <time>2013-08-20T19:16:07Z</time>
      </trkpt>
      <trkpt lat="59.329191889262" lon="17.871243533899">
        <ele>4.8</ele>
        <time>2013-08-20T19:16:08Z</time>
      </trkpt>
      <trkpt lat="59.32909650324" lon="17.871414357021">
        <ele>3.8</ele>
        <time>2013-08-20T19:16:09Z</time>
      </trkpt>
      <trkpt lat="59.328847309353" lon="17.871966305136">
        <ele>3.8</ele>
        <time>2013-08-20T19:16:12Z</time>
      </trkpt>
      <trkpt lat="59.328540699451" lon="17.873013874998">
        <ele>3.8</ele>
        <time>2013-08-20T19:16:17Z</time>
      </trkpt>
      <trkpt lat="59.328422011747" lon="17.873438921147">
        <ele>3.4</ele>
        <time>2013-08-20T19:16:19Z</time>
      </trkpt>
      <trkpt lat="59.328360740058" lon="17.87364654081">
        <ele>3</ele>
        <time>2013-08-20T19:16:20Z</time>
      </trkpt>
      <trkpt lat="59.328297289075" lon="17.873854998663">
        <ele>2.6</ele>
        <time>2013-08-20T19:16:21Z</time>
      </trkpt>
      <trkpt lat="59.328234089549" lon="17.874067144552">
        <ele>2</ele>
        <time>2013-08-20T19:16:22Z</time>
      </trkpt>
      <trkpt lat="59.328172650222" lon="17.874279960993">
        <ele>1.6</ele>
        <time>2013-08-20T19:16:23Z</time>
      </trkpt>
      <trkpt lat="59.328112635818" lon="17.874495124366">
        <ele>1.2</ele>
        <time>2013-08-20T19:16:24Z</time>
      </trkpt>
      <trkpt lat="59.328054800708" lon="17.874704085133">
        <ele>0.8</ele>
        <time>2013-08-20T19:16:25Z</time>
      </trkpt>
      <trkpt lat="59.327996127408" lon="17.874905921285">
        <ele>0.2</ele>
        <time>2013-08-20T19:16:26Z</time>
      </trkpt>
      <trkpt lat="59.327943656714" lon="17.875076995864">
        <ele>0</ele>
        <time>2013-08-20T19:16:27Z</time>
      </trkpt>
      <trkpt lat="59.327887497984" lon="17.875257625809">
        <ele>0</ele>
        <time>2013-08-20T19:16:28Z</time>
      </trkpt>
      <trkpt lat="59.327751124471" lon="17.875745200932">
        <ele>0</ele>
        <time>2013-08-20T19:16:32Z</time>
      </trkpt>
      <trkpt lat="59.327595137312" lon="17.876297316685">
        <ele>0</ele>
        <time>2013-08-20T19:16:37Z</time>
      </trkpt>
      <trkpt lat="59.327367904003" lon="17.877044479251">
        <ele>0</ele>
        <time>2013-08-20T19:16:44Z</time>
      </trkpt>
      <trkpt lat="59.327184088936" lon="17.877490899245">
        <ele>0</ele>
        <time>2013-08-20T19:16:49Z</time>
      </trkpt>
      <trkpt lat="59.327081326842" lon="17.877636995762">
        <ele>0</ele>
        <time>2013-08-20T19:16:51Z</time>
      </trkpt>
      <trkpt lat="59.32696414788" lon="17.877759958235">
        <ele>0</ele>
        <time>2013-08-20T19:16:53Z</time>
      </trkpt>
      <trkpt lat="59.326777063872" lon="17.877903540182">
        <ele>0</ele>
        <time>2013-08-20T19:16:56Z</time>
      </trkpt>
      <trkpt lat="59.326591404787" lon="17.878000518765">
        <ele>0</ele>
        <time>2013-08-20T19:16:59Z</time>
      </trkpt>
      <trkpt lat="59.326530300736" lon="17.878036477116">
        <ele>0</ele>
        <time>2013-08-20T19:17:00Z</time>
      </trkpt>
      <trkpt lat="59.326474225825" lon="17.878057767142">
        <ele>0</ele>
        <time>2013-08-20T19:17:01Z</time>
      </trkpt>
      <trkpt lat="59.326422509502" lon="17.878066819594">
        <ele>0</ele>
        <time>2013-08-20T19:17:02Z</time>
      </trkpt>
      <trkpt lat="59.326374229758" lon="17.87805793478">
        <ele>0</ele>
        <time>2013-08-20T19:17:03Z</time>
      </trkpt>
      <trkpt lat="59.32633718176" lon="17.878011247597">
        <ele>0</ele>
        <time>2013-08-20T19:17:04Z</time>
      </trkpt>
      <trkpt lat="59.326305749635" lon="17.87785593099">
        <ele>0</ele>
        <time>2013-08-20T19:17:06Z</time>
      </trkpt>
      <trkpt lat="59.326298373563" lon="17.877781080623">
        <ele>0</ele>
        <time>2013-08-20T19:17:07Z</time>
      </trkpt>
      <trkpt lat="59.32623827534" lon="17.877275568234">
        <ele>0</ele>
        <time>2013-08-20T19:17:13Z</time>
      </trkpt>
      <trkpt lat="59.326153031417" lon="17.876782963971">
        <ele>0</ele>
        <time>2013-08-20T19:17:19Z</time>
      </trkpt>
      <trkpt lat="59.326132831038" lon="17.876708867975">
        <ele>0</ele>
        <time>2013-08-20T19:17:20Z</time>
      </trkpt>
      <trkpt lat="59.326090334805" lon="17.876546091477">
        <ele>0</ele>
        <time>2013-08-20T19:17:22Z</time>
      </trkpt>
      <trkpt lat="59.326047838572" lon="17.876274601736">
        <ele>0</ele>
        <time>2013-08-20T19:17:25Z</time>
      </trkpt>
      <trkpt lat="59.325951949636" lon="17.875665656701">
        <ele>0</ele>
        <time>2013-08-20T19:17:32Z</time>
      </trkpt>
      <trkpt lat="59.325938622415" lon="17.875572282335">
        <ele>0</ele>
        <time>2013-08-20T19:17:33Z</time>
      </trkpt>
      <trkpt lat="59.325923870271" lon="17.875482847462">
        <ele>0</ele>
        <time>2013-08-20T19:17:34Z</time>
      </trkpt>
      <trkpt lat="59.325908950489" lon="17.875395508064">
        <ele>0</ele>
        <time>2013-08-20T19:17:35Z</time>
      </trkpt>
      <trkpt lat="59.32589294106" lon="17.875307414295">
        <ele>0</ele>
        <time>2013-08-20T19:17:36Z</time>
      </trkpt>
      <trkpt lat="59.325878105097" lon="17.875214123748">
        <ele>0</ele>
        <time>2013-08-20T19:17:37Z</time>
      </trkpt>
      <trkpt lat="59.325850528646" lon="17.875013963976">
        <ele>0</ele>
        <time>2013-08-20T19:17:39Z</time>
      </trkpt>
      <trkpt lat="59.325716334427" lon="17.874182563315">
        <ele>0</ele>
        <time>2013-08-20T19:17:47Z</time>
      </trkpt>
      <trkpt lat="59.325620361672" lon="17.873517124274">
        <ele>0</ele>
        <time>2013-08-20T19:17:53Z</time>
      </trkpt>
      <trkpt lat="59.325518437768" lon="17.872891583077">
        <ele>0</ele>
        <time>2013-08-20T19:17:59Z</time>
      </trkpt>
      <trkpt lat="59.325405533575" lon="17.872110389997">
        <ele>0</ele>
        <time>2013-08-20T19:18:07Z</time>
      </trkpt>
      <trkpt lat="59.325317188349" lon="17.871570930913">
        <ele>0</ele>
        <time>2013-08-20T19:18:13Z</time>
      </trkpt>
      <trkpt lat="59.325201937224" lon="17.871009175975">
        <ele>0</ele>
        <time>2013-08-20T19:18:20Z</time>
      </trkpt>
      <trkpt lat="59.32505056011" lon="17.870412719971">
        <ele>0</ele>
        <time>2013-08-20T19:18:26Z</time>
      </trkpt>
      <trkpt lat="59.324808658476" lon="17.869830597016">
        <ele>0</ele>
        <time>2013-08-20T19:18:32Z</time>
      </trkpt>
      <trkpt lat="59.324585532298" lon="17.869408987446">
        <ele>0</ele>
        <time>2013-08-20T19:18:37Z</time>
      </trkpt>
      <trkpt lat="59.324483440756" lon="17.86927454177">
        <ele>0</ele>
        <time>2013-08-20T19:18:39Z</time>
      </trkpt>
      <trkpt lat="59.324272300695" lon="17.869028449186">
        <ele>0</ele>
        <time>2013-08-20T19:18:44Z</time>
      </trkpt>
      <trkpt lat="59.324228714815" lon="17.868991065912">
        <ele>0.2</ele>
        <time>2013-08-20T19:18:45Z</time>
      </trkpt>
      <trkpt lat="59.324183536374" lon="17.868956700122">
        <ele>0.6</ele>
        <time>2013-08-20T19:18:46Z</time>
      </trkpt>
      <trkpt lat="59.32413609482" lon="17.868924010712">
        <ele>1</ele>
        <time>2013-08-20T19:18:47Z</time>
      </trkpt>
      <trkpt lat="59.324087731257" lon="17.868892410949">
        <ele>1.4</ele>
        <time>2013-08-20T19:18:48Z</time>
      </trkpt>
      <trkpt lat="59.323900898706" lon="17.868799204221">
        <ele>1.4</ele>
        <time>2013-08-20T19:18:52Z</time>
      </trkpt>
      <trkpt lat="59.323459591671" lon="17.868686383847">
        <ele>1.4</ele>
        <time>2013-08-20T19:19:01Z</time>
      </trkpt>
      <trkpt lat="59.323155747796" lon="17.86863248823">
        <ele>1.4</ele>
        <time>2013-08-20T19:19:07Z</time>
      </trkpt>
      <trkpt lat="59.322788117662" lon="17.868537269846">
        <ele>1.4</ele>
        <time>2013-08-20T19:19:14Z</time>
      </trkpt>
      <trkpt lat="59.322582761112" lon="17.868493600147">
        <ele>1.8</ele>
        <time>2013-08-20T19:19:18Z</time>
      </trkpt>
      <trkpt lat="59.322530038961" lon="17.868483206591">
        <ele>2.4</ele>
        <time>2013-08-20T19:19:19Z</time>
      </trkpt>
      <trkpt lat="59.322473712593" lon="17.868467867714">
        <ele>2.8</ele>
        <time>2013-08-20T19:19:20Z</time>
      </trkpt>
      <trkpt lat="59.322418559691" lon="17.868454708131">
        <ele>3.2</ele>
        <time>2013-08-20T19:19:21Z</time>
      </trkpt>
      <trkpt lat="59.322365166988" lon="17.86844473367">
        <ele>3.6</ele>
        <time>2013-08-20T19:19:22Z</time>
      </trkpt>
      <trkpt lat="59.322260057962" lon="17.868416905762">
        <ele>3.6</ele>
        <time>2013-08-20T19:19:24Z</time>
      </trkpt>
      <trkpt lat="59.321839202763" lon="17.868326967975">
        <ele>3.6</ele>
        <time>2013-08-20T19:19:31Z</time>
      </trkpt>
      <trkpt lat="59.32134073117" lon="17.868194031041">
        <ele>3.6</ele>
        <time>2013-08-20T19:19:39Z</time>
      </trkpt>
      <trkpt lat="59.320932113545" lon="17.867936036159">
        <ele>3.6</ele>
        <time>2013-08-20T19:19:46Z</time>
      </trkpt>
      <trkpt lat="59.320817616791" lon="17.867828161106">
        <ele>3.2</ele>
        <time>2013-08-20T19:19:48Z</time>
      </trkpt>
      <trkpt lat="59.320761122785" lon="17.867759764802">
        <ele>2.6</ele>
        <time>2013-08-20T19:19:49Z</time>
      </trkpt>
      <trkpt lat="59.320707730082" lon="17.867684914435">
        <ele>1.8</ele>
        <time>2013-08-20T19:19:50Z</time>
      </trkpt>
      <trkpt lat="59.320658695967" lon="17.867600592521">
        <ele>1.2</ele>
        <time>2013-08-20T19:19:51Z</time>
      </trkpt>
      <trkpt lat="59.320568422904" lon="17.867412837961">
        <ele>1.2</ele>
        <time>2013-08-20T19:19:53Z</time>
      </trkpt>
      <trkpt lat="59.32048745375" lon="17.86723690188">
        <ele>1.2</ele>
        <time>2013-08-20T19:19:55Z</time>
      </trkpt>
      <trkpt lat="59.320441772395" lon="17.867168421757">
        <ele>1.2</ele>
        <time>2013-08-20T19:19:56Z</time>
      </trkpt>
      <trkpt lat="59.320271787463" lon="17.86703741266">
        <ele>1.2</ele>
        <time>2013-08-20T19:19:59Z</time>
      </trkpt>
      <trkpt lat="59.320213114163" lon="17.866999442653">
        <ele>1.2</ele>
        <time>2013-08-20T19:20:00Z</time>
      </trkpt>
      <trkpt lat="59.320021671567" lon="17.866779585416">
        <ele>1.2</ele>
        <time>2013-08-20T19:20:04Z</time>
      </trkpt>
      <trkpt lat="59.319970793434" lon="17.866656958219">
        <ele>1.2</ele>
        <time>2013-08-20T19:20:06Z</time>
      </trkpt>
      <trkpt lat="59.319976912221" lon="17.866579677101">
        <ele>1.2</ele>
        <time>2013-08-20T19:20:07Z</time>
      </trkpt>
      <trkpt lat="59.320034495874" lon="17.866074667626">
        <ele>1.2</ele>
        <time>2013-08-20T19:20:13Z</time>
      </trkpt>
      <trkpt lat="59.320052516959" lon="17.865814577269">
        <ele>1.8</ele>
        <time>2013-08-20T19:20:16Z</time>
      </trkpt>
      <trkpt lat="59.320057965194" lon="17.865727992242">
        <ele>2.2</ele>
        <time>2013-08-20T19:20:17Z</time>
      </trkpt>
      <trkpt lat="59.320062910515" lon="17.865638976464">
        <ele>2.6</ele>
        <time>2013-08-20T19:20:18Z</time>
      </trkpt>
      <trkpt lat="59.320068610207" lon="17.865546188831">
        <ele>3</ele>
        <time>2013-08-20T19:20:19Z</time>
      </trkpt>
      <trkpt lat="59.320073974623" lon="17.865451305723">
        <ele>3.6</ele>
        <time>2013-08-20T19:20:20Z</time>
      </trkpt>
      <trkpt lat="59.320097863038" lon="17.864850407312">
        <ele>3.6</ele>
        <time>2013-08-20T19:20:26Z</time>
      </trkpt>
      <trkpt lat="59.32013792852" lon="17.864024873981">
        <ele>3.6</ele>
        <time>2013-08-20T19:20:34Z</time>
      </trkpt>
      <trkpt lat="59.320146897153" lon="17.863814823567">
        <ele>3.6</ele>
        <time>2013-08-20T19:20:36Z</time>
      </trkpt>
      <trkpt lat="59.320168187179" lon="17.863392375807">
        <ele>3.6</ele>
        <time>2013-08-20T19:20:40Z</time>
      </trkpt>
      <trkpt lat="59.320178664554" lon="17.863186516343">
        <ele>4</ele>
        <time>2013-08-20T19:20:42Z</time>
      </trkpt>
      <trkpt lat="59.320182268771" lon="17.863078725109">
        <ele>4.4</ele>
        <time>2013-08-20T19:20:43Z</time>
      </trkpt>
      <trkpt lat="59.320185537712" lon="17.862971520608">
        <ele>4.8</ele>
        <time>2013-08-20T19:20:44Z</time>
      </trkpt>
      <trkpt lat="59.320189728662" lon="17.862859957519">
        <ele>5.4</ele>
        <time>2013-08-20T19:20:45Z</time>
      </trkpt>
      <trkpt lat="59.320193584336" lon="17.862751998647">
        <ele>5.8</ele>
        <time>2013-08-20T19:20:46Z</time>
      </trkpt>
      <trkpt lat="59.320234152732" lon="17.861983546055">
        <ele>5.8</ele>
        <time>2013-08-20T19:20:53Z</time>
      </trkpt>
      <trkpt lat="59.320275726956" lon="17.861041252857">
        <ele>5.8</ele>
        <time>2013-08-20T19:21:01Z</time>
      </trkpt>
      <trkpt lat="59.320320570121" lon="17.859970213675">
        <ele>5.8</ele>
        <time>2013-08-20T19:21:10Z</time>
      </trkpt>
      <trkpt lat="59.320327275641" lon="17.859857560939">
        <ele>5.8</ele>
        <time>2013-08-20T19:21:11Z</time>
      </trkpt>
      <trkpt lat="59.320357450481" lon="17.859278874563">
        <ele>6.2</ele>
        <time>2013-08-20T19:21:16Z</time>
      </trkpt>
      <trkpt lat="59.320362647259" lon="17.859167479112">
        <ele>6.6</ele>
        <time>2013-08-20T19:21:17Z</time>
      </trkpt>
      <trkpt lat="59.320367676399" lon="17.859059436421">
        <ele>7</ele>
        <time>2013-08-20T19:21:18Z</time>
      </trkpt>
      <trkpt lat="59.32037262172" lon="17.858951058454">
        <ele>7.4</ele>
        <time>2013-08-20T19:21:19Z</time>
      </trkpt>
      <trkpt lat="59.320376561213" lon="17.858838824813">
        <ele>7.8</ele>
        <time>2013-08-20T19:21:20Z</time>
      </trkpt>
      <trkpt lat="59.320412771021" lon="17.858301209747">
        <ele>7.8</ele>
        <time>2013-08-20T19:21:25Z</time>
      </trkpt>
      <trkpt lat="59.320436240341" lon="17.857753284944">
        <ele>8.2</ele>
        <time>2013-08-20T19:21:30Z</time>
      </trkpt>
      <trkpt lat="59.320442778223" lon="17.857639794018">
        <ele>8.6</ele>
        <time>2013-08-20T19:21:31Z</time>
      </trkpt>
      <trkpt lat="59.320449148467" lon="17.857522950332">
        <ele>9</ele>
        <time>2013-08-20T19:21:32Z</time>
      </trkpt>
      <trkpt lat="59.32045308796" lon="17.857410632872">
        <ele>9.4</ele>
        <time>2013-08-20T19:21:33Z</time>
      </trkpt>
      <trkpt lat="59.320457195091" lon="17.857303763647">
        <ele>9.8</ele>
        <time>2013-08-20T19:21:34Z</time>
      </trkpt>
      <trkpt lat="59.320491393243" lon="17.856699596295">
        <ele>9.8</ele>
        <time>2013-08-20T19:21:40Z</time>
      </trkpt>
      <trkpt lat="59.320527770689" lon="17.855927539486">
        <ele>9.8</ele>
        <time>2013-08-20T19:21:48Z</time>
      </trkpt>
      <trkpt lat="59.320542522833" lon="17.855613469693">
        <ele>10.4</ele>
        <time>2013-08-20T19:21:51Z</time>
      </trkpt>
      <trkpt lat="59.320545624136" lon="17.85549972731">
        <ele>10.8</ele>
        <time>2013-08-20T19:21:52Z</time>
      </trkpt>
      <trkpt lat="59.320550820914" lon="17.855385649651">
        <ele>11.8</ele>
        <time>2013-08-20T19:21:53Z</time>
      </trkpt>
      <trkpt lat="59.320556269149" lon="17.855273164553">
        <ele>12.2</ele>
        <time>2013-08-20T19:21:54Z</time>
      </trkpt>
      <trkpt lat="59.320560124823" lon="17.855154812125">
        <ele>12.2</ele>
        <time>2013-08-20T19:21:55Z</time>
      </trkpt>
      <trkpt lat="59.32058636017" lon="17.854389712293">
        <ele>12.2</ele>
        <time>2013-08-20T19:22:02Z</time>
      </trkpt>
      <trkpt lat="59.320614607173" lon="17.853682615209">
        <ele>11.8</ele>
        <time>2013-08-20T19:22:08Z</time>
      </trkpt>
      <trkpt lat="59.320621480331" lon="17.853558395451">
        <ele>11.4</ele>
        <time>2013-08-20T19:22:09Z</time>
      </trkpt>
      <trkpt lat="59.320627682937" lon="17.853428643639">
        <ele>11</ele>
        <time>2013-08-20T19:22:10Z</time>
      </trkpt>
      <trkpt lat="59.320632712077" lon="17.853288330633">
        <ele>10.6</ele>
        <time>2013-08-20T19:22:11Z</time>
      </trkpt>
      <trkpt lat="59.320642351262" lon="17.853128236343">
        <ele>10.2</ele>
        <time>2013-08-20T19:22:12Z</time>
      </trkpt>
      <trkpt lat="59.320651403714" lon="17.852956155936">
        <ele>9.8</ele>
        <time>2013-08-20T19:22:13Z</time>
      </trkpt>
      <trkpt lat="59.320663641288" lon="17.852772340869">
        <ele>9.2</ele>
        <time>2013-08-20T19:22:14Z</time>
      </trkpt>
      <trkpt lat="59.320678058156" lon="17.852582239377">
        <ele>8.8</ele>
        <time>2013-08-20T19:22:15Z</time>
      </trkpt>
      <trkpt lat="59.320685769504" lon="17.852378978302">
        <ele>8.4</ele>
        <time>2013-08-20T19:22:16Z</time>
      </trkpt>
      <trkpt lat="59.320694989594" lon="17.852158366694">
        <ele>7.8</ele>
        <time>2013-08-20T19:22:17Z</time>
      </trkpt>
      <trkpt lat="59.320704461141" lon="17.851924260227">
        <ele>7</ele>
        <time>2013-08-20T19:22:18Z</time>
      </trkpt>
      <trkpt lat="59.320713848869" lon="17.851690321398">
        <ele>6.6</ele>
        <time>2013-08-20T19:22:19Z</time>
      </trkpt>
      <trkpt lat="59.320725415891" lon="17.851453365085">
        <ele>6</ele>
        <time>2013-08-20T19:22:20Z</time>
      </trkpt>
      <trkpt lat="59.320738659293" lon="17.85121406184">
        <ele>5.4</ele>
        <time>2013-08-20T19:22:21Z</time>
      </trkpt>
      <trkpt lat="59.320749052849" lon="17.850966628152">
        <ele>4.6</ele>
        <time>2013-08-20T19:22:22Z</time>
      </trkpt>
      <trkpt lat="59.320756596559" lon="17.850711734573">
        <ele>4</ele>
        <time>2013-08-20T19:22:23Z</time>
      </trkpt>
      <trkpt lat="59.320764727002" lon="17.850454996976">
        <ele>3.2</ele>
        <time>2013-08-20T19:22:24Z</time>
      </trkpt>
      <trkpt lat="59.320775874929" lon="17.85019147004">
        <ele>2.4</ele>
        <time>2013-08-20T19:22:25Z</time>
      </trkpt>
      <trkpt lat="59.320787944865" lon="17.849916795177">
        <ele>1.6</ele>
        <time>2013-08-20T19:22:26Z</time>
      </trkpt>
      <trkpt lat="59.320797081136" lon="17.849653184422">
        <ele>1</ele>
        <time>2013-08-20T19:22:27Z</time>
      </trkpt>
      <trkpt lat="59.320806636502" lon="17.849398709938">
        <ele>0.2</ele>
        <time>2013-08-20T19:22:28Z</time>
      </trkpt>
      <trkpt lat="59.32081602423" lon="17.849186731687">
        <ele>0</ele>
        <time>2013-08-20T19:22:29Z</time>
      </trkpt>
      <trkpt lat="59.32082440613" lon="17.849026218302">
        <ele>0</ele>
        <time>2013-08-20T19:22:30Z</time>
      </trkpt>
      <trkpt lat="59.320835386419" lon="17.848765038298">
        <ele>0</ele>
        <time>2013-08-20T19:22:32Z</time>
      </trkpt>
      <trkpt lat="59.320842343396" lon="17.84863243664">
        <ele>0</ele>
        <time>2013-08-20T19:22:33Z</time>
      </trkpt>
      <trkpt lat="59.320849635649" lon="17.848508133063">
        <ele>0</ele>
        <time>2013-08-20T19:22:34Z</time>
      </trkpt>
      <trkpt lat="59.320858436644" lon="17.84839187611">
        <ele>0.6</ele>
        <time>2013-08-20T19:22:35Z</time>
      </trkpt>
      <trkpt lat="59.320867908191" lon="17.848272517854">
        <ele>1</ele>
        <time>2013-08-20T19:22:36Z</time>
      </trkpt>
      <trkpt lat="59.320900262325" lon="17.847584531502">
        <ele>1</ele>
        <time>2013-08-20T19:22:42Z</time>
      </trkpt>
      <trkpt lat="59.320941501273" lon="17.846696050102">
        <ele>1</ele>
        <time>2013-08-20T19:22:50Z</time>
      </trkpt>
      <trkpt lat="59.320988439913" lon="17.845746297013">
        <ele>1</ele>
        <time>2013-08-20T19:22:58Z</time>
      </trkpt>
      <trkpt lat="59.321027331929" lon="17.844804842005">
        <ele>1</ele>
        <time>2013-08-20T19:23:06Z</time>
      </trkpt>
      <trkpt lat="59.321039737141" lon="17.844579033619">
        <ele>1</ele>
        <time>2013-08-20T19:23:08Z</time>
      </trkpt>
      <trkpt lat="59.321067145954" lon="17.844023062192">
        <ele>1</ele>
        <time>2013-08-20T19:23:13Z</time>
      </trkpt>
      <trkpt lat="59.32110687616" lon="17.843111446748">
        <ele>1</ele>
        <time>2013-08-20T19:23:21Z</time>
      </trkpt>
      <trkpt lat="59.32115465299" lon="17.842079970134">
        <ele>1.4</ele>
        <time>2013-08-20T19:23:30Z</time>
      </trkpt>
      <trkpt lat="59.321158424845" lon="17.841965305742">
        <ele>2</ele>
        <time>2013-08-20T19:23:31Z</time>
      </trkpt>
      <trkpt lat="59.321161945243" lon="17.841853072101">
        <ele>2.8</ele>
        <time>2013-08-20T19:23:32Z</time>
      </trkpt>
      <trkpt lat="59.321167309659" lon="17.841738240071">
        <ele>3.2</ele>
        <time>2013-08-20T19:23:33Z</time>
      </trkpt>
      <trkpt lat="59.321188432047" lon="17.841499355921">
        <ele>3.2</ele>
        <time>2013-08-20T19:23:35Z</time>
      </trkpt>
      <trkpt lat="59.321211901367" lon="17.841387792832">
        <ele>3.2</ele>
        <time>2013-08-20T19:23:36Z</time>
      </trkpt>
      <trkpt lat="59.321332265451" lon="17.841133402167">
        <ele>3.2</ele>
        <time>2013-08-20T19:23:39Z</time>
      </trkpt>
      <trkpt lat="59.321379623186" lon="17.841070621736">
        <ele>3.2</ele>
        <time>2013-08-20T19:23:40Z</time>
      </trkpt>
      <trkpt lat="59.321664607786" lon="17.840748505319">
        <ele>3.6</ele>
        <time>2013-08-20T19:23:46Z</time>
      </trkpt>
      <trkpt lat="59.321715066824" lon="17.840718581936">
        <ele>4</ele>
        <time>2013-08-20T19:23:47Z</time>
      </trkpt>
      <trkpt lat="59.321765358224" lon="17.840696369901">
        <ele>4.4</ele>
        <time>2013-08-20T19:23:48Z</time>
      </trkpt>
      <trkpt lat="59.321816906909" lon="17.840684299965">
        <ele>4.8</ele>
        <time>2013-08-20T19:23:49Z</time>
      </trkpt>
      <trkpt lat="59.32187046725" lon="17.840677091531">
        <ele>5.2</ele>
        <time>2013-08-20T19:23:50Z</time>
      </trkpt>
      <trkpt lat="59.321920423374" lon="17.840676923893">
        <ele>5.2</ele>
        <time>2013-08-20T19:23:51Z</time>
      </trkpt>
      <trkpt lat="59.322389642136" lon="17.840754959382">
        <ele>5.2</ele>
        <time>2013-08-20T19:24:00Z</time>
      </trkpt>
      <trkpt lat="59.322919210578" lon="17.840843053151">
        <ele>5.2</ele>
        <time>2013-08-20T19:24:10Z</time>
      </trkpt>
      <trkpt lat="59.323379125431" lon="17.840918909346">
        <ele>5.2</ele>
        <time>2013-08-20T19:24:19Z</time>
      </trkpt>
      <trkpt lat="59.323619937418" lon="17.840954029507">
        <ele>5.8</ele>
        <time>2013-08-20T19:24:24Z</time>
      </trkpt>
      <trkpt lat="59.323665451135" lon="17.840961154122">
        <ele>6.2</ele>
        <time>2013-08-20T19:24:25Z</time>
      </trkpt>
      <trkpt lat="59.323710210481" lon="17.840968530194">
        <ele>6.6</ele>
        <time>2013-08-20T19:24:26Z</time>
      </trkpt>
      <trkpt lat="59.323756059474" lon="17.840973391696">
        <ele>7</ele>
        <time>2013-08-20T19:24:27Z</time>
      </trkpt>
      <trkpt lat="59.323804339218" lon="17.840984288166">
        <ele>7.4</ele>
        <time>2013-08-20T19:24:28Z</time>
      </trkpt>
      <trkpt lat="59.324022017161" lon="17.84102586239">
        <ele>7.4</ele>
        <time>2013-08-20T19:24:32Z</time>
      </trkpt>
      <trkpt lat="59.32438000811" lon="17.84108453569">
        <ele>7.4</ele>
        <time>2013-08-20T19:24:38Z</time>
      </trkpt>
      <trkpt lat="59.324513447958" lon="17.841103981698">
        <ele>7.4</ele>
        <time>2013-08-20T19:24:40Z</time>
      </trkpt>
      <trkpt lat="59.324594752388" lon="17.841105406621">
        <ele>7.4</ele>
        <time>2013-08-20T19:24:41Z</time>
      </trkpt>
      <trkpt lat="59.324681253596" lon="17.841122170421">
        <ele>7.4</ele>
        <time>2013-08-20T19:24:42Z</time>
      </trkpt>
      <trkpt lat="59.324945031989" lon="17.841166594491">
        <ele>7.4</ele>
        <time>2013-08-20T19:24:45Z</time>
      </trkpt>
      <trkpt lat="59.325338394556" lon="17.841228201456">
        <ele>7.4</ele>
        <time>2013-08-20T19:24:49Z</time>
      </trkpt>
      <trkpt lat="59.325889169205" lon="17.841321827279">
        <ele>7.4</ele>
        <time>2013-08-20T19:24:54Z</time>
      </trkpt>
      <trkpt lat="59.326158479652" lon="17.841385864995">
        <ele>7.4</ele>
        <time>2013-08-20T19:24:57Z</time>
      </trkpt>
      <trkpt lat="59.326227965603" lon="17.841396090913">
        <ele>7.8</ele>
        <time>2013-08-20T19:24:58Z</time>
      </trkpt>
      <trkpt lat="59.326293260604" lon="17.841403718442">
        <ele>8.4</ele>
        <time>2013-08-20T19:24:59Z</time>
      </trkpt>
      <trkpt lat="59.326349670791" lon="17.841411597428">
        <ele>8.8</ele>
        <time>2013-08-20T19:25:00Z</time>
      </trkpt>
      <trkpt lat="59.326401890028" lon="17.841419644052">
        <ele>9.2</ele>
        <time>2013-08-20T19:25:01Z</time>
      </trkpt>
      <trkpt lat="59.326452265247" lon="17.841428612685">
        <ele>9.6</ele>
        <time>2013-08-20T19:25:02Z</time>
      </trkpt>
      <trkpt lat="59.326501634638" lon="17.841434815291">
        <ele>10.2</ele>
        <time>2013-08-20T19:25:03Z</time>
      </trkpt>
      <trkpt lat="59.326548489459" lon="17.841445711761">
        <ele>10.8</ele>
        <time>2013-08-20T19:25:04Z</time>
      </trkpt>
      <trkpt lat="59.326592913529" lon="17.841463146113">
        <ele>11.2</ele>
        <time>2013-08-20T19:25:05Z</time>
      </trkpt>
      <trkpt lat="59.326637505237" lon="17.841470019271">
        <ele>11.8</ele>
        <time>2013-08-20T19:25:06Z</time>
      </trkpt>
      <trkpt lat="59.326682348402" lon="17.841473958764">
        <ele>11.8</ele>
        <time>2013-08-20T19:25:07Z</time>
      </trkpt>
      <trkpt lat="59.32672526373" lon="17.841477060067">
        <ele>11.8</ele>
        <time>2013-08-20T19:25:08Z</time>
      </trkpt>
      <trkpt lat="59.326764239565" lon="17.841477311524">
        <ele>12.2</ele>
        <time>2013-08-20T19:25:09Z</time>
      </trkpt>
      <trkpt lat="59.326801287563" lon="17.841478736447">
        <ele>12.6</ele>
        <time>2013-08-20T19:25:10Z</time>
      </trkpt>
      <trkpt lat="59.326841269226" lon="17.841486196338">
        <ele>13.4</ele>
        <time>2013-08-20T19:25:11Z</time>
      </trkpt>
      <trkpt lat="59.326885609477" lon="17.841493823867">
        <ele>13.8</ele>
        <time>2013-08-20T19:25:12Z</time>
      </trkpt>
      <trkpt lat="59.326932212841" lon="17.841499020645">
        <ele>13.8</ele>
        <time>2013-08-20T19:25:13Z</time>
      </trkpt>
      <trkpt lat="59.327241924046" lon="17.841534392263">
        <ele>13.8</ele>
        <time>2013-08-20T19:25:19Z</time>
      </trkpt>
      <trkpt lat="59.32754249898" lon="17.841600776911">
        <ele>13.8</ele>
        <time>2013-08-20T19:25:25Z</time>
      </trkpt>
      <trkpt lat="59.327590778724" lon="17.841635980891">
        <ele>13.8</ele>
        <time>2013-08-20T19:25:26Z</time>
      </trkpt>
      <trkpt lat="59.327796554369" lon="17.841905458976">
        <ele>13.8</ele>
        <time>2013-08-20T19:25:31Z</time>
      </trkpt>
      <trkpt lat="59.327831758349" lon="17.841974944927">
        <ele>14.4</ele>
        <time>2013-08-20T19:25:32Z</time>
      </trkpt>
      <trkpt lat="59.327866627053" lon="17.842044598516">
        <ele>14.8</ele>
        <time>2013-08-20T19:25:33Z</time>
      </trkpt>
      <trkpt lat="59.32789789154" lon="17.84211718577">
        <ele>15.2</ele>
        <time>2013-08-20T19:25:34Z</time>
      </trkpt>
      <trkpt lat="59.327927898742" lon="17.842190192119">
        <ele>15.6</ele>
        <time>2013-08-20T19:25:35Z</time>
      </trkpt>
      <trkpt lat="59.327958408858" lon="17.842261605907">
        <ele>16</ele>
        <time>2013-08-20T19:25:36Z</time>
      </trkpt>
      <trkpt lat="59.328057818192" lon="17.842470818131">
        <ele>16</ele>
        <time>2013-08-20T19:25:39Z</time>
      </trkpt>
      <trkpt lat="59.328173488412" lon="17.842646251298">
        <ele>16</ele>
        <time>2013-08-20T19:25:42Z</time>
      </trkpt>
      <trkpt lat="59.328258899973" lon="17.842728645375">
        <ele>16</ele>
        <time>2013-08-20T19:25:44Z</time>
      </trkpt>
      <trkpt lat="59.328441122479" lon="17.842786145209">
        <ele>16.4</ele>
        <time>2013-08-20T19:25:48Z</time>
      </trkpt>
      <trkpt lat="59.328490156594" lon="17.842783882096">
        <ele>16.8</ele>
        <time>2013-08-20T19:25:49Z</time>
      </trkpt>
      <trkpt lat="59.328541202365" lon="17.842779188232">
        <ele>17.2</ele>
        <time>2013-08-20T19:25:50Z</time>
      </trkpt>
      <trkpt lat="59.32859191286" lon="17.84277767949">
        <ele>17.6</ele>
        <time>2013-08-20T19:25:51Z</time>
      </trkpt>
      <trkpt lat="59.328643713002" lon="17.842777511852">
        <ele>18</ele>
        <time>2013-08-20T19:25:52Z</time>
      </trkpt>
      <trkpt lat="59.328828198621" lon="17.842774745825">
        <ele>18</ele>
        <time>2013-08-20T19:25:56Z</time>
      </trkpt>
      <trkpt lat="59.328873460881" lon="17.842767202115">
        <ele>18</ele>
        <time>2013-08-20T19:25:57Z</time>
      </trkpt>
      <trkpt lat="59.329016204638" lon="17.842772398893">
        <ele>18</ele>
        <time>2013-08-20T19:26:00Z</time>
      </trkpt>
      <trkpt lat="59.329063310916" lon="17.842772147436">
        <ele>19</ele>
        <time>2013-08-20T19:26:01Z</time>
      </trkpt>
      <trkpt lat="59.329111087746" lon="17.842768710857">
        <ele>19.4</ele>
        <time>2013-08-20T19:26:02Z</time>
      </trkpt>
      <trkpt lat="59.329160540956" lon="17.842764184631">
        <ele>20</ele>
        <time>2013-08-20T19:26:03Z</time>
      </trkpt>
      <trkpt lat="59.32921217346" lon="17.842760831871">
        <ele>20.4</ele>
        <time>2013-08-20T19:26:04Z</time>
      </trkpt>
      <trkpt lat="59.329369669361" lon="17.842746331184">
        <ele>20.4</ele>
        <time>2013-08-20T19:26:07Z</time>
      </trkpt>
      <trkpt lat="59.32970419099" lon="17.842759909862">
        <ele>20.4</ele>
        <time>2013-08-20T19:26:13Z</time>
      </trkpt>
      <trkpt lat="59.329853221172" lon="17.842856385531">
        <ele>20.4</ele>
        <time>2013-08-20T19:26:16Z</time>
      </trkpt>
      <trkpt lat="59.329927233349" lon="17.842926625853">
        <ele>20.4</ele>
        <time>2013-08-20T19:26:18Z</time>
      </trkpt>
      <trkpt lat="59.330105600181" lon="17.843056461484">
        <ele>20.4</ele>
        <time>2013-08-20T19:26:24Z</time>
      </trkpt>
      <trkpt lat="59.330172906838" lon="17.843087223057">
        <ele>20.4</ele>
        <time>2013-08-20T19:26:26Z</time>
      </trkpt>
      <trkpt lat="59.330231663957" lon="17.843173640446">
        <ele>20.4</ele>
        <time>2013-08-20T19:26:28Z</time>
      </trkpt>
      <trkpt lat="59.330258318399" lon="17.843238013438">
        <ele>20.8</ele>
        <time>2013-08-20T19:26:29Z</time>
      </trkpt>
      <trkpt lat="59.330286984497" lon="17.843296267643">
        <ele>21.2</ele>
        <time>2013-08-20T19:26:30Z</time>
      </trkpt>
      <trkpt lat="59.330323781038" lon="17.843349073613">
        <ele>21.6</ele>
        <time>2013-08-20T19:26:31Z</time>
      </trkpt>
      <trkpt lat="59.33036384652" lon="17.843398023909">
        <ele>22</ele>
        <time>2013-08-20T19:26:32Z</time>
      </trkpt>
      <trkpt lat="59.330407600038" lon="17.843447980033">
        <ele>22.4</ele>
        <time>2013-08-20T19:26:33Z</time>
      </trkpt>
      <trkpt lat="59.330441211457" lon="17.843514364681">
        <ele>22.4</ele>
        <time>2013-08-20T19:26:34Z</time>
      </trkpt>
      <trkpt lat="59.330492843961" lon="17.843642104837">
        <ele>22.4</ele>
        <time>2013-08-20T19:26:36Z</time>
      </trkpt>
      <trkpt lat="59.330525868647" lon="17.843705220544">
        <ele>22.4</ele>
        <time>2013-08-20T19:26:37Z</time>
      </trkpt>
      <trkpt lat="59.330635000985" lon="17.843896830778">
        <ele>22.4</ele>
        <time>2013-08-20T19:26:40Z</time>
      </trkpt>
      <trkpt lat="59.330891235668" lon="17.844464872141">
        <ele>22.4</ele>
        <time>2013-08-20T19:26:47Z</time>
      </trkpt>
      <trkpt lat="59.330919734128" lon="17.844557492136">
        <ele>22.4</ele>
        <time>2013-08-20T19:26:48Z</time>
      </trkpt>
      <trkpt lat="59.331006989707" lon="17.844868795902">
        <ele>22</ele>
        <time>2013-08-20T19:26:51Z</time>
      </trkpt>
      <trkpt lat="59.331034901434" lon="17.844983460294">
        <ele>21.6</ele>
        <time>2013-08-20T19:26:52Z</time>
      </trkpt>
      <trkpt lat="59.331060969143" lon="17.845098459962">
        <ele>21.2</ele>
        <time>2013-08-20T19:26:53Z</time>
      </trkpt>
      <trkpt lat="59.3310863663" lon="17.845224859014">
        <ele>20.8</ele>
        <time>2013-08-20T19:26:54Z</time>
      </trkpt>
      <trkpt lat="59.331109751801" lon="17.845351341885">
        <ele>20.4</ele>
        <time>2013-08-20T19:26:55Z</time>
      </trkpt>
      <trkpt lat="59.331185021263" lon="17.845760294786">
        <ele>20.4</ele>
        <time>2013-08-20T19:26:58Z</time>
      </trkpt>
      <trkpt lat="59.331222069261" lon="17.845922484551">
        <ele>20.4</ele>
        <time>2013-08-20T19:26:59Z</time>
      </trkpt>
      <trkpt lat="59.331308319012" lon="17.84629640111">
        <ele>20</ele>
        <time>2013-08-20T19:27:01Z</time>
      </trkpt>
      <trkpt lat="59.331345283191" lon="17.846501422384">
        <ele>19.6</ele>
        <time>2013-08-20T19:27:02Z</time>
      </trkpt>
      <trkpt lat="59.331365148294" lon="17.846706359839">
        <ele>19.2</ele>
        <time>2013-08-20T19:27:03Z</time>
      </trkpt>
      <trkpt lat="59.33135877805" lon="17.846910459104">
        <ele>18.8</ele>
        <time>2013-08-20T19:27:04Z</time>
      </trkpt>
      <trkpt lat="59.331326004821" lon="17.847100560596">
        <ele>18.2</ele>
        <time>2013-08-20T19:27:05Z</time>
      </trkpt>
      <trkpt lat="59.33122969679" lon="17.847452600396">
        <ele>18.2</ele>
        <time>2013-08-20T19:27:07Z</time>
      </trkpt>
      <trkpt lat="59.331176723182" lon="17.847625435174">
        <ele>18.2</ele>
        <time>2013-08-20T19:27:08Z</time>
      </trkpt>
      <trkpt lat="59.331130119818" lon="17.847825930222">
        <ele>18.2</ele>
        <time>2013-08-20T19:27:09Z</time>
      </trkpt>
      <trkpt lat="59.331079409323" lon="17.848293388785">
        <ele>18.2</ele>
        <time>2013-08-20T19:27:11Z</time>
      </trkpt>
      <trkpt lat="59.331116876416" lon="17.849083885774">
        <ele>18.2</ele>
        <time>2013-08-20T19:27:15Z</time>
      </trkpt>
      <trkpt lat="59.331175465897" lon="17.849586464498">
        <ele>17.6</ele>
        <time>2013-08-20T19:27:17Z</time>
      </trkpt>
      <trkpt lat="59.331207820031" lon="17.849850242891">
        <ele>17</ele>
        <time>2013-08-20T19:27:18Z</time>
      </trkpt>
      <trkpt lat="59.331256686508" lon="17.850090971059">
        <ele>16.4</ele>
        <time>2013-08-20T19:27:19Z</time>
      </trkpt>
      <trkpt lat="59.331283257131" lon="17.85035156433">
        <ele>15.8</ele>
        <time>2013-08-20T19:27:20Z</time>
      </trkpt>
      <trkpt lat="59.33128669371" lon="17.850600339122">
        <ele>15.2</ele>
        <time>2013-08-20T19:27:21Z</time>
      </trkpt>
      <trkpt lat="59.331308402831" lon="17.850783902732">
        <ele>15.2</ele>
        <time>2013-08-20T19:27:22Z</time>
      </trkpt>
      <trkpt lat="59.331344696458" lon="17.851204506474">
        <ele>15.2</ele>
        <time>2013-08-20T19:27:25Z</time>
      </trkpt>
      <trkpt lat="59.331400016998" lon="17.851564089984">
        <ele>15.6</ele>
        <time>2013-08-20T19:27:29Z</time>
      </trkpt>
      <trkpt lat="59.331409740002" lon="17.851637180152">
        <ele>16</ele>
        <time>2013-08-20T19:27:30Z</time>
      </trkpt>
      <trkpt lat="59.331419211549" lon="17.851721250609">
        <ele>16.4</ele>
        <time>2013-08-20T19:27:31Z</time>
      </trkpt>
      <trkpt lat="59.331431868218" lon="17.85181672045">
        <ele>16.8</ele>
        <time>2013-08-20T19:27:32Z</time>
      </trkpt>
      <trkpt lat="59.331444860163" lon="17.851914118128">
        <ele>17.4</ele>
        <time>2013-08-20T19:27:33Z</time>
      </trkpt>
      <trkpt lat="59.331477717211" lon="17.852121905429">
        <ele>17.4</ele>
        <time>2013-08-20T19:27:35Z</time>
      </trkpt>
      <trkpt lat="59.331582658599" lon="17.852946684389">
        <ele>16.8</ele>
        <time>2013-08-20T19:27:42Z</time>
      </trkpt>
      <trkpt lat="59.331589867033" lon="17.853062354609">
        <ele>16.4</ele>
        <time>2013-08-20T19:27:43Z</time>
      </trkpt>
      <trkpt lat="59.331601601693" lon="17.85318380834">
        <ele>16</ele>
        <time>2013-08-20T19:27:44Z</time>
      </trkpt>
      <trkpt lat="59.331614845095" lon="17.853302915139">
        <ele>15.4</ele>
        <time>2013-08-20T19:27:45Z</time>
      </trkpt>
      <trkpt lat="59.331626663574" lon="17.853423446861">
        <ele>15</ele>
        <time>2013-08-20T19:27:46Z</time>
      </trkpt>
      <trkpt lat="59.331651138722" lon="17.853643639374">
        <ele>15</ele>
        <time>2013-08-20T19:27:48Z</time>
      </trkpt>
      <trkpt lat="59.331740322138" lon="17.854409493577">
        <ele>15</ele>
        <time>2013-08-20T19:27:55Z</time>
      </trkpt>
      <trkpt lat="59.331730599134" lon="17.855083817432">
        <ele>15</ele>
        <time>2013-08-20T19:28:01Z</time>
      </trkpt>
      <trkpt lat="59.331627669402" lon="17.856008341002">
        <ele>15</ele>
        <time>2013-08-20T19:28:09Z</time>
      </trkpt>
      <trkpt lat="59.331545610601" lon="17.856724155262">
        <ele>15</ele>
        <time>2013-08-20T19:28:15Z</time>
      </trkpt>
      <trkpt lat="59.331456091909" lon="17.857525464902">
        <ele>14.6</ele>
        <time>2013-08-20T19:28:22Z</time>
      </trkpt>
      <trkpt lat="59.331443016145" lon="17.857624622779">
        <ele>14.2</ele>
        <time>2013-08-20T19:28:23Z</time>
      </trkpt>
      <trkpt lat="59.331431532942" lon="17.857726295226">
        <ele>13.8</ele>
        <time>2013-08-20T19:28:24Z</time>
      </trkpt>
      <trkpt lat="59.331419630644" lon="17.85782570456">
        <ele>13.4</ele>
        <time>2013-08-20T19:28:25Z</time>
      </trkpt>
      <trkpt lat="59.331406387242" lon="17.857936261821">
        <ele>12.8</ele>
        <time>2013-08-20T19:28:26Z</time>
      </trkpt>
      <trkpt lat="59.331354419462" lon="17.858389135878">
        <ele>12.4</ele>
        <time>2013-08-20T19:28:30Z</time>
      </trkpt>
      <trkpt lat="59.33134033787" lon="17.858507823582">
        <ele>12</ele>
        <time>2013-08-20T19:28:31Z</time>
      </trkpt>
      <trkpt lat="59.331325334269" lon="17.858626762743">
        <ele>11.6</ele>
        <time>2013-08-20T19:28:32Z</time>
      </trkpt>
      <trkpt lat="59.331310917401" lon="17.858752407424">
        <ele>11.2</ele>
        <time>2013-08-20T19:28:33Z</time>
      </trkpt>
      <trkpt lat="59.331295159429" lon="17.858869670205">
        <ele>10.8</ele>
        <time>2013-08-20T19:28:34Z</time>
      </trkpt>
      <trkpt lat="59.331222404537" lon="17.85949537904">
        <ele>10.8</ele>
        <time>2013-08-20T19:28:39Z</time>
      </trkpt>
      <trkpt lat="59.331099274426" lon="17.86045175383">
        <ele>10.8</ele>
        <time>2013-08-20T19:28:47Z</time>
      </trkpt>
      <trkpt lat="59.331016461254" lon="17.861204364631">
        <ele>10.4</ele>
        <time>2013-08-20T19:28:53Z</time>
      </trkpt>
      <trkpt lat="59.331003217852" lon="17.861329087303">
        <ele>10</ele>
        <time>2013-08-20T19:28:54Z</time>
      </trkpt>
      <trkpt lat="59.330989471536" lon="17.861456995097">
        <ele>9.4</ele>
        <time>2013-08-20T19:28:55Z</time>
      </trkpt>
      <trkpt lat="59.330973462107" lon="17.861593787705">
        <ele>9</ele>
        <time>2013-08-20T19:28:56Z</time>
      </trkpt>
      <trkpt lat="59.33095560866" lon="17.861723036603">
        <ele>8.6</ele>
        <time>2013-08-20T19:28:57Z</time>
      </trkpt>
      <trkpt lat="59.330887296175" lon="17.862325276118">
        <ele>8.6</ele>
        <time>2013-08-20T19:29:02Z</time>
      </trkpt>
      <trkpt lat="59.330772631783" lon="17.863292128283">
        <ele>8.6</ele>
        <time>2013-08-20T19:29:10Z</time>
      </trkpt>
      <trkpt lat="59.330655620459" lon="17.864115985234">
        <ele>8.6</ele>
        <time>2013-08-20T19:29:17Z</time>
      </trkpt>
      <trkpt lat="59.33058596687" lon="17.864756865308">
        <ele>8.6</ele>
        <time>2013-08-20T19:29:23Z</time>
      </trkpt>
      <trkpt lat="59.330487814821" lon="17.865633528229">
        <ele>8.6</ele>
        <time>2013-08-20T19:29:31Z</time>
      </trkpt>
      <trkpt lat="59.330447749339" lon="17.866150775278">
        <ele>8.2</ele>
        <time>2013-08-20T19:29:34Z</time>
      </trkpt>
      <trkpt lat="59.330427884236" lon="17.866363843176">
        <ele>7.8</ele>
        <time>2013-08-20T19:29:35Z</time>
      </trkpt>
      <trkpt lat="59.330403744364" lon="17.866584538603">
        <ele>7.2</ele>
        <time>2013-08-20T19:29:36Z</time>
      </trkpt>
      <trkpt lat="59.330384382175" lon="17.866812693921">
        <ele>6.6</ele>
        <time>2013-08-20T19:29:37Z</time>
      </trkpt>
      <trkpt lat="59.33036300833" lon="17.86705166189">
        <ele>6</ele>
        <time>2013-08-20T19:29:38Z</time>
      </trkpt>
      <trkpt lat="59.330341885942" lon="17.86729557518">
        <ele>5.4</ele>
        <time>2013-08-20T19:29:39Z</time>
      </trkpt>
      <trkpt lat="59.330320595916" lon="17.867528172905">
        <ele>4.8</ele>
        <time>2013-08-20T19:29:40Z</time>
      </trkpt>
      <trkpt lat="59.330295366397" lon="17.867776277145">
        <ele>4</ele>
        <time>2013-08-20T19:29:41Z</time>
      </trkpt>
      <trkpt lat="59.330257061114" lon="17.868243065156">
        <ele>4</ele>
        <time>2013-08-20T19:29:43Z</time>
      </trkpt>
      <trkpt lat="59.330135775021" lon="17.869361629711">
        <ele>4</ele>
        <time>2013-08-20T19:29:48Z</time>
      </trkpt>
      <trkpt lat="59.330086908544" lon="17.86955282085">
        <ele>4</ele>
        <time>2013-08-20T19:29:49Z</time>
      </trkpt>
      <trkpt lat="59.329880713804" lon="17.870065122578">
        <ele>4</ele>
        <time>2013-08-20T19:29:52Z</time>
      </trkpt>
      <trkpt lat="59.329713997813" lon="17.870343485477">
        <ele>4</ele>
        <time>2013-08-20T19:29:54Z</time>
      </trkpt>
      <trkpt lat="59.329631519917" lon="17.870482625017">
        <ele>4</ele>
        <time>2013-08-20T19:29:55Z</time>
      </trkpt>
      <trkpt lat="59.329205300302" lon="17.871244455908">
        <ele>4</ele>
        <time>2013-08-20T19:30:00Z</time>
      </trkpt>
      <trkpt lat="59.328803220559" lon="17.872087004496">
        <ele>4</ele>
        <time>2013-08-20T19:30:05Z</time>
      </trkpt>
      <trkpt lat="59.328755946643" lon="17.872296635815">
        <ele>4</ele>
        <time>2013-08-20T19:30:06Z</time>
      </trkpt>
      <trkpt lat="59.328476913192" lon="17.873232894045">
        <ele>4</ele>
        <time>2013-08-20T19:30:10Z</time>
      </trkpt>
      <trkpt lat="59.328476913192" lon="17.873232894045">
        <ele>4</ele>
        <time>2013-08-20T19:30:11Z</time>
      </trkpt>
      <trkpt lat="59.328425196869" lon="17.873418050216">
        <ele>4</ele>
        <time>2013-08-20T19:30:13Z</time>
      </trkpt>
      <trkpt lat="59.328224618002" lon="17.874104444007">
        <ele>4</ele>
        <time>2013-08-20T19:30:20Z</time>
      </trkpt>
      <trkpt lat="59.328022278936" lon="17.874818917163">
        <ele>3.6</ele>
        <time>2013-08-20T19:30:26Z</time>
      </trkpt>
      <trkpt lat="59.327981794359" lon="17.874947914604">
        <ele>3.2</ele>
        <time>2013-08-20T19:30:27Z</time>
      </trkpt>
      <trkpt lat="59.327949188768" lon="17.875069116878">
        <ele>2.8</ele>
        <time>2013-08-20T19:30:28Z</time>
      </trkpt>
      <trkpt lat="59.327912056951" lon="17.875185122374">
        <ele>2.4</ele>
        <time>2013-08-20T19:30:29Z</time>
      </trkpt>
      <trkpt lat="59.327882217387" lon="17.875297607472">
        <ele>2</ele>
        <time>2013-08-20T19:30:30Z</time>
      </trkpt>
      <trkpt lat="59.327817173843" lon="17.875535150518">
        <ele>2</ele>
        <time>2013-08-20T19:30:32Z</time>
      </trkpt>
      <trkpt lat="59.327740479458" lon="17.875763389655">
        <ele>2</ele>
        <time>2013-08-20T19:30:34Z</time>
      </trkpt>
      <trkpt lat="59.327637465907" lon="17.876138395861">
        <ele>2</ele>
        <time>2013-08-20T19:30:37Z</time>
      </trkpt>
      <trkpt lat="59.327417021937" lon="17.876872147387">
        <ele>1.4</ele>
        <time>2013-08-20T19:30:43Z</time>
      </trkpt>
      <trkpt lat="59.327382320871" lon="17.876974490386">
        <ele>1</ele>
        <time>2013-08-20T19:30:44Z</time>
      </trkpt>
      <trkpt lat="59.327346027244" lon="17.877082030163">
        <ele>0.6</ele>
        <time>2013-08-20T19:30:45Z</time>
      </trkpt>
      <trkpt lat="59.327306213219" lon="17.877189653759">
        <ele>0</ele>
        <time>2013-08-20T19:30:46Z</time>
      </trkpt>
      <trkpt lat="59.327261621511" lon="17.877288643998">
        <ele>0</ele>
        <time>2013-08-20T19:30:47Z</time>
      </trkpt>
      <trkpt lat="59.327110579673" lon="17.877562229214">
        <ele>0</ele>
        <time>2013-08-20T19:30:50Z</time>
      </trkpt>
      <trkpt lat="59.327053666572" lon="17.877645796757">
        <ele>0</ele>
        <time>2013-08-20T19:30:51Z</time>
      </trkpt>
      <trkpt lat="59.326933051031" lon="17.877780242433">
        <ele>0</ele>
        <time>2013-08-20T19:30:53Z</time>
      </trkpt>
      <trkpt lat="59.326745212652" lon="17.877912760272">
        <ele>0</ele>
        <time>2013-08-20T19:30:56Z</time>
      </trkpt>
      <trkpt lat="59.326682851316" lon="17.877943018931">
        <ele>0</ele>
        <time>2013-08-20T19:30:57Z</time>
      </trkpt>
      <trkpt lat="59.326615041745" lon="17.877975289246">
        <ele>0</ele>
        <time>2013-08-20T19:30:58Z</time>
      </trkpt>
      <trkpt lat="59.326552345133" lon="17.878007391923">
        <ele>0</ele>
        <time>2013-08-20T19:30:59Z</time>
      </trkpt>
      <trkpt lat="59.326495012937" lon="17.878035974202">
        <ele>0</ele>
        <time>2013-08-20T19:31:00Z</time>
      </trkpt>
      <trkpt lat="59.326405661883" lon="17.87806380211">
        <ele>0</ele>
        <time>2013-08-20T19:31:02Z</time>
      </trkpt>
      <trkpt lat="59.326329554231" lon="17.877916951222">
        <ele>0</ele>
        <time>2013-08-20T19:31:05Z</time>
      </trkpt>
      <trkpt lat="59.326316478467" lon="17.877847129995">
        <ele>0</ele>
        <time>2013-08-20T19:31:06Z</time>
      </trkpt>
      <trkpt lat="59.326280855392" lon="17.877599109574">
        <ele>0</ele>
        <time>2013-08-20T19:31:09Z</time>
      </trkpt>
      <trkpt lat="59.326263504859" lon="17.877423089674">
        <ele>0</ele>
        <time>2013-08-20T19:31:11Z</time>
      </trkpt>
      <trkpt lat="59.326246489602" lon="17.877248578516">
        <ele>0</ele>
        <time>2013-08-20T19:31:13Z</time>
      </trkpt>
      <trkpt lat="59.326207094672" lon="17.876991086548">
        <ele>0</ele>
        <time>2013-08-20T19:31:16Z</time>
      </trkpt>
      <trkpt lat="59.326187564845" lon="17.876911123222">
        <ele>0</ele>
        <time>2013-08-20T19:31:17Z</time>
      </trkpt>
      <trkpt lat="59.326124030043" lon="17.876665868828">
        <ele>0</ele>
        <time>2013-08-20T19:31:20Z</time>
      </trkpt>
      <trkpt lat="59.326079354516" lon="17.876497811733">
        <ele>0</ele>
        <time>2013-08-20T19:31:22Z</time>
      </trkpt>
      <trkpt lat="59.326048341486" lon="17.876325815145">
        <ele>0</ele>
        <time>2013-08-20T19:31:24Z</time>
      </trkpt>
      <trkpt lat="59.326041384509" lon="17.876242582878">
        <ele>0</ele>
        <time>2013-08-20T19:31:25Z</time>
      </trkpt>
      <trkpt lat="59.325988075625" lon="17.87590127191">
        <ele>0</ele>
        <time>2013-08-20T19:31:29Z</time>
      </trkpt>
      <trkpt lat="59.325889085386" lon="17.875245052959">
        <ele>0</ele>
        <time>2013-08-20T19:31:36Z</time>
      </trkpt>
      <trkpt lat="59.325788502586" lon="17.874564023584">
        <ele>0</ele>
        <time>2013-08-20T19:31:43Z</time>
      </trkpt>
      <trkpt lat="59.325770900596" lon="17.874469056657">
        <ele>0</ele>
        <time>2013-08-20T19:31:44Z</time>
      </trkpt>
      <trkpt lat="59.325687500691" lon="17.873927250641">
        <ele>0</ele>
        <time>2013-08-20T19:31:50Z</time>
      </trkpt>
      <trkpt lat="59.325659756602" lon="17.873759947917">
        <ele>0</ele>
        <time>2013-08-20T19:31:52Z</time>
      </trkpt>
      <trkpt lat="59.325615164894" lon="17.873425342469">
        <ele>0</ele>
        <time>2013-08-20T19:31:56Z</time>
      </trkpt>
      <trkpt lat="59.325571327557" lon="17.873182015912">
        <ele>0</ele>
        <time>2013-08-20T19:31:59Z</time>
      </trkpt>
      <trkpt lat="59.325513157171" lon="17.87283182013">
        <ele>0</ele>
        <time>2013-08-20T19:32:03Z</time>
      </trkpt>
      <trkpt lat="59.325467643454" lon="17.872503417288">
        <ele>0</ele>
        <time>2013-08-20T19:32:07Z</time>
      </trkpt>
      <trkpt lat="59.325445096143" lon="17.87234986088">
        <ele>0</ele>
        <time>2013-08-20T19:32:09Z</time>
      </trkpt>
      <trkpt lat="59.325433780578" lon="17.872271406296">
        <ele>0</ele>
        <time>2013-08-20T19:32:10Z</time>
      </trkpt>
      <trkpt lat="59.325421207728" lon="17.87219479573">
        <ele>0</ele>
        <time>2013-08-20T19:32:11Z</time>
      </trkpt>
      <trkpt lat="59.325410395077" lon="17.872115083861">
        <ele>0</ele>
        <time>2013-08-20T19:32:12Z</time>
      </trkpt>
      <trkpt lat="59.325392206354" lon="17.872040987865">
        <ele>0</ele>
        <time>2013-08-20T19:32:13Z</time>
      </trkpt>
      <trkpt lat="59.32535985222" lon="17.871818029325">
        <ele>0</ele>
        <time>2013-08-20T19:32:16Z</time>
      </trkpt>
      <trkpt lat="59.325349710121" lon="17.871740999664">
        <ele>0</ele>
        <time>2013-08-20T19:32:17Z</time>
      </trkpt>
      <trkpt lat="59.325254324099" lon="17.871252334894">
        <ele>0</ele>
        <time>2013-08-20T19:32:24Z</time>
      </trkpt>
      <trkpt lat="59.325140330259" lon="17.870732489456">
        <ele>0</ele>
        <time>2013-08-20T19:32:31Z</time>
      </trkpt>
      <trkpt lat="59.325073275059" lon="17.870500143188">
        <ele>0</ele>
        <time>2013-08-20T19:32:34Z</time>
      </trkpt>
      <trkpt lat="59.324974620096" lon="17.870200406444">
        <ele>0</ele>
        <time>2013-08-20T19:32:38Z</time>
      </trkpt>
      <trkpt lat="59.3247245042" lon="17.869652733098">
        <ele>0</ele>
        <time>2013-08-20T19:32:46Z</time>
      </trkpt>
      <trkpt lat="59.324542533151" lon="17.869348721585">
        <ele>0</ele>
        <time>2013-08-20T19:32:51Z</time>
      </trkpt>
      <trkpt lat="59.324461731635" lon="17.869248474061">
        <ele>0</ele>
        <time>2013-08-20T19:32:53Z</time>
      </trkpt>
      <trkpt lat="59.324128718748" lon="17.868934739544">
        <ele>0</ele>
        <time>2013-08-20T19:33:01Z</time>
      </trkpt>
      <trkpt lat="59.323836693352" lon="17.868787888656">
        <ele>0</ele>
        <time>2013-08-20T19:33:08Z</time>
      </trkpt>
      <trkpt lat="59.323790341445" lon="17.868769699933">
        <ele>0.4</ele>
        <time>2013-08-20T19:33:09Z</time>
      </trkpt>
      <trkpt lat="59.323742732253" lon="17.868756624169">
        <ele>0.8</ele>
        <time>2013-08-20T19:33:10Z</time>
      </trkpt>
      <trkpt lat="59.323695290699" lon="17.868748661364">
        <ele>1.6</ele>
        <time>2013-08-20T19:33:11Z</time>
      </trkpt>
      <trkpt lat="59.323511391813" lon="17.868720162904">
        <ele>1.6</ele>
        <time>2013-08-20T19:33:15Z</time>
      </trkpt>
      <trkpt lat="59.323363786554" lon="17.868693005548">
        <ele>1.6</ele>
        <time>2013-08-20T19:33:18Z</time>
      </trkpt>
      <trkpt lat="59.323266640333" lon="17.86867775049">
        <ele>1.6</ele>
        <time>2013-08-20T19:33:20Z</time>
      </trkpt>
      <trkpt lat="59.323080394515" lon="17.868639696664">
        <ele>1.6</ele>
        <time>2013-08-20T19:33:24Z</time>
      </trkpt>
      <trkpt lat="59.322889371014" lon="17.868565013935">
        <ele>1.6</ele>
        <time>2013-08-20T19:33:28Z</time>
      </trkpt>
      <trkpt lat="59.322625005888" lon="17.868505586264">
        <ele>2</ele>
        <time>2013-08-20T19:33:34Z</time>
      </trkpt>
      <trkpt lat="59.322582258198" lon="17.868497791097">
        <ele>2.4</ele>
        <time>2013-08-20T19:33:35Z</time>
      </trkpt>
      <trkpt lat="59.322536073929" lon="17.868486559351">
        <ele>3.4</ele>
        <time>2013-08-20T19:33:36Z</time>
      </trkpt>
      <trkpt lat="59.322490560212" lon="17.868471471931">
        <ele>3.8</ele>
        <time>2013-08-20T19:33:37Z</time>
      </trkpt>
      <trkpt lat="59.322151763814" lon="17.868396034831">
        <ele>3.8</ele>
        <time>2013-08-20T19:33:44Z</time>
      </trkpt>
      <trkpt lat="59.321729902787" lon="17.868296206402">
        <ele>3.8</ele>
        <time>2013-08-20T19:33:52Z</time>
      </trkpt>
      <trkpt lat="59.321676426265" lon="17.868289500882">
        <ele>3.8</ele>
        <time>2013-08-20T19:33:53Z</time>
      </trkpt>
      <trkpt lat="59.321563102977" lon="17.86825194997">
        <ele>3.8</ele>
        <time>2013-08-20T19:33:55Z</time>
      </trkpt>
      <trkpt lat="59.321451539888" lon="17.868244322441">
        <ele>3.8</ele>
        <time>2013-08-20T19:33:57Z</time>
      </trkpt>
      <trkpt lat="59.321106792341" lon="17.868064698324">
        <ele>3.8</ele>
        <time>2013-08-20T19:34:03Z</time>
      </trkpt>
      <trkpt lat="59.320871177132" lon="17.867897563238">
        <ele>3.4</ele>
        <time>2013-08-20T19:34:07Z</time>
      </trkpt>
      <trkpt lat="59.320811917099" lon="17.867848696761">
        <ele>3</ele>
        <time>2013-08-20T19:34:08Z</time>
      </trkpt>
      <trkpt lat="59.320755171636" lon="17.867783737036">
        <ele>2.4</ele>
        <time>2013-08-20T19:34:09Z</time>
      </trkpt>
      <trkpt lat="59.320704042046" lon="17.867697654923">
        <ele>2</ele>
        <time>2013-08-20T19:34:10Z</time>
      </trkpt>
      <trkpt lat="59.320654924112" lon="17.867607298041">
        <ele>1.6</ele>
        <time>2013-08-20T19:34:11Z</time>
      </trkpt>
      <trkpt lat="59.320564734868" lon="17.867409066106">
        <ele>1.6</ele>
        <time>2013-08-20T19:34:13Z</time>
      </trkpt>
      <trkpt lat="59.320375220109" lon="17.867110251371">
        <ele>1.6</ele>
        <time>2013-08-20T19:34:17Z</time>
      </trkpt>
      <trkpt lat="59.32015888327" lon="17.866948061606">
        <ele>1.6</ele>
        <time>2013-08-20T19:34:21Z</time>
      </trkpt>
      <trkpt lat="59.320116470856" lon="17.86688486208">
        <ele>1.6</ele>
        <time>2013-08-20T19:34:22Z</time>
      </trkpt>
      <trkpt lat="59.319967524493" lon="17.866685205222">
        <ele>1.6</ele>
        <time>2013-08-20T19:34:26Z</time>
      </trkpt>
      <trkpt lat="59.319987473415" lon="17.866513292453">
        <ele>1.6</ele>
        <time>2013-08-20T19:34:28Z</time>
      </trkpt>
      <trkpt lat="59.320037848634" lon="17.866181453032">
        <ele>1.6</ele>
        <time>2013-08-20T19:34:32Z</time>
      </trkpt>
      <trkpt lat="59.320043715964" lon="17.866097969308">
        <ele>1.6</ele>
        <time>2013-08-20T19:34:33Z</time>
      </trkpt>
      <trkpt lat="59.320042710136" lon="17.866020604371">
        <ele>1.6</ele>
        <time>2013-08-20T19:34:34Z</time>
      </trkpt>
      <trkpt lat="59.320047906914" lon="17.865849278335">
        <ele>2</ele>
        <time>2013-08-20T19:34:36Z</time>
      </trkpt>
      <trkpt lat="59.32005494771" lon="17.86575498196">
        <ele>2.4</ele>
        <time>2013-08-20T19:34:37Z</time>
      </trkpt>
      <trkpt lat="59.320060647402" lon="17.865674431901">
        <ele>2.8</ele>
        <time>2013-08-20T19:34:38Z</time>
      </trkpt>
      <trkpt lat="59.320065173628" lon="17.865592624557">
        <ele>3.2</ele>
        <time>2013-08-20T19:34:39Z</time>
      </trkpt>
      <trkpt lat="59.320067939655" lon="17.865508637919">
        <ele>3.6</ele>
        <time>2013-08-20T19:34:40Z</time>
      </trkpt>
      <trkpt lat="59.320095683744" lon="17.864933220484">
        <ele>3.6</ele>
        <time>2013-08-20T19:34:46Z</time>
      </trkpt>
      <trkpt lat="59.320132731742" lon="17.864252274928">
        <ele>3.6</ele>
        <time>2013-08-20T19:34:53Z</time>
      </trkpt>
      <trkpt lat="59.32013457576" lon="17.864157810915">
        <ele>4</ele>
        <time>2013-08-20T19:34:54Z</time>
      </trkpt>
      <trkpt lat="59.320139269624" lon="17.864061670522">
        <ele>4.4</ele>
        <time>2013-08-20T19:34:55Z</time>
      </trkpt>
      <trkpt lat="59.320142706203" lon="17.863977683884">
        <ele>4.8</ele>
        <time>2013-08-20T19:34:56Z</time>
      </trkpt>
      <trkpt lat="59.320146226601" lon="17.863878945102">
        <ele>5.4</ele>
        <time>2013-08-20T19:34:57Z</time>
      </trkpt>
      <trkpt lat="59.320153267397" lon="17.863786492745">
        <ele>5.8</ele>
        <time>2013-08-20T19:34:58Z</time>
      </trkpt>
      <trkpt lat="59.320156117243" lon="17.863692280189">
        <ele>5.8</ele>
        <time>2013-08-20T19:34:59Z</time>
      </trkpt>
      <trkpt lat="59.320186375902" lon="17.862822574245">
        <ele>5.8</ele>
        <time>2013-08-20T19:35:08Z</time>
      </trkpt>
      <trkpt lat="59.320202133874" lon="17.862514874696">
        <ele>6.2</ele>
        <time>2013-08-20T19:35:11Z</time>
      </trkpt>
      <trkpt lat="59.32020749829" lon="17.862415800638">
        <ele>6.6</ele>
        <time>2013-08-20T19:35:12Z</time>
      </trkpt>
      <trkpt lat="59.320213700896" lon="17.862311110707">
        <ele>7</ele>
        <time>2013-08-20T19:35:13Z</time>
      </trkpt>
      <trkpt lat="59.320220574054" lon="17.862205498767">
        <ele>7.4</ele>
        <time>2013-08-20T19:35:14Z</time>
      </trkpt>
      <trkpt lat="59.320225687013" lon="17.862105083605">
        <ele>8</ele>
        <time>2013-08-20T19:35:15Z</time>
      </trkpt>
      <trkpt lat="59.32023348218" lon="17.862003746434">
        <ele>8</ele>
        <time>2013-08-20T19:35:16Z</time>
      </trkpt>
      <trkpt lat="59.320266506866" lon="17.861203023527">
        <ele>8</ele>
        <time>2013-08-20T19:35:23Z</time>
      </trkpt>
      <trkpt lat="59.320304057778" lon="17.860290486074">
        <ele>8</ele>
        <time>2013-08-20T19:35:31Z</time>
      </trkpt>
      <trkpt lat="59.320346721649" lon="17.859517842532">
        <ele>8</ele>
        <time>2013-08-20T19:35:38Z</time>
      </trkpt>
      <trkpt lat="59.320357869576" lon="17.859211064992">
        <ele>8</ele>
        <time>2013-08-20T19:35:41Z</time>
      </trkpt>
      <trkpt lat="59.320365832381" lon="17.858939994346">
        <ele>8</ele>
        <time>2013-08-20T19:35:44Z</time>
      </trkpt>
      <trkpt lat="59.320392151547" lon="17.858438672907">
        <ele>8.4</ele>
        <time>2013-08-20T19:35:49Z</time>
      </trkpt>
      <trkpt lat="59.320402293646" lon="17.858343203066">
        <ele>8.8</ele>
        <time>2013-08-20T19:35:50Z</time>
      </trkpt>
      <trkpt lat="59.320407322786" lon="17.858255276935">
        <ele>9.2</ele>
        <time>2013-08-20T19:35:51Z</time>
      </trkpt>
      <trkpt lat="59.320409334442" lon="17.858150838461">
        <ele>9.6</ele>
        <time>2013-08-20T19:35:52Z</time>
      </trkpt>
      <trkpt lat="59.320412519564" lon="17.858047657272">
        <ele>10</ele>
        <time>2013-08-20T19:35:53Z</time>
      </trkpt>
      <trkpt lat="59.32043129502" lon="17.857609283902">
        <ele>10</ele>
        <time>2013-08-20T19:35:57Z</time>
      </trkpt>
      <trkpt lat="59.320465576991" lon="17.856892547633">
        <ele>10</ele>
        <time>2013-08-20T19:36:04Z</time>
      </trkpt>
      <trkpt lat="59.320502289713" lon="17.85632450627">
        <ele>10</ele>
        <time>2013-08-20T19:36:10Z</time>
      </trkpt>
      <trkpt lat="59.32052014316" lon="17.856068439225">
        <ele>10</ele>
        <time>2013-08-20T19:36:13Z</time>
      </trkpt>
      <trkpt lat="59.320523747377" lon="17.855950924987">
        <ele>10.4</ele>
        <time>2013-08-20T19:36:14Z</time>
      </trkpt>
      <trkpt lat="59.32052852506" lon="17.855860232829">
        <ele>10.8</ele>
        <time>2013-08-20T19:36:15Z</time>
      </trkpt>
      <trkpt lat="59.320535398218" lon="17.855761326409">
        <ele>11.2</ele>
        <time>2013-08-20T19:36:16Z</time>
      </trkpt>
      <trkpt lat="59.32053774515" lon="17.85563383771">
        <ele>11.6</ele>
        <time>2013-08-20T19:36:17Z</time>
      </trkpt>
      <trkpt lat="59.320539253892" lon="17.855517999852">
        <ele>12</ele>
        <time>2013-08-20T19:36:18Z</time>
      </trkpt>
      <trkpt lat="59.320557694072" lon="17.855346925273">
        <ele>12</ele>
        <time>2013-08-20T19:36:19Z</time>
      </trkpt>
      <trkpt lat="59.3205754637" lon="17.855172246477">
        <ele>11.6</ele>
        <time>2013-08-20T19:36:20Z</time>
      </trkpt>
      <trkpt lat="59.320592898052" lon="17.854947946833">
        <ele>11</ele>
        <time>2013-08-20T19:36:21Z</time>
      </trkpt>
      <trkpt lat="59.320606728187" lon="17.854742590283">
        <ele>10.4</ele>
        <time>2013-08-20T19:36:22Z</time>
      </trkpt>
      <trkpt lat="59.320618295209" lon="17.854536647">
        <ele>10</ele>
        <time>2013-08-20T19:36:23Z</time>
      </trkpt>
      <trkpt lat="59.32062659329" lon="17.854329446432">
        <ele>9.4</ele>
        <time>2013-08-20T19:36:24Z</time>
      </trkpt>
      <trkpt lat="59.320647380402" lon="17.853644980478">
        <ele>9</ele>
        <time>2013-08-20T19:36:27Z</time>
      </trkpt>
      <trkpt lat="59.320657103406" lon="17.853411460744">
        <ele>8.6</ele>
        <time>2013-08-20T19:36:28Z</time>
      </trkpt>
      <trkpt lat="59.320670765903" lon="17.853157237717">
        <ele>6.8</ele>
        <time>2013-08-20T19:36:29Z</time>
      </trkpt>
      <trkpt lat="59.320683674029" lon="17.85292983677">
        <ele>6</ele>
        <time>2013-08-20T19:36:30Z</time>
      </trkpt>
      <trkpt lat="59.320695995422" lon="17.852700256529">
        <ele>5.2</ele>
        <time>2013-08-20T19:36:31Z</time>
      </trkpt>
      <trkpt lat="59.320706808073" lon="17.852475202514">
        <ele>4.4</ele>
        <time>2013-08-20T19:36:32Z</time>
      </trkpt>
      <trkpt lat="59.320729439203" lon="17.851540201569">
        <ele>4.4</ele>
        <time>2013-08-20T19:36:36Z</time>
      </trkpt>
      <trkpt lat="59.32075483636" lon="17.850843414222">
        <ele>4</ele>
        <time>2013-08-20T19:36:39Z</time>
      </trkpt>
      <trkpt lat="59.320763721174" lon="17.850635375464">
        <ele>3.4</ele>
        <time>2013-08-20T19:36:40Z</time>
      </trkpt>
      <trkpt lat="59.320778892413" lon="17.850466815455">
        <ele>3</ele>
        <time>2013-08-20T19:36:41Z</time>
      </trkpt>
      <trkpt lat="59.320786268485" lon="17.850333375607">
        <ele>2.4</ele>
        <time>2013-08-20T19:36:42Z</time>
      </trkpt>
      <trkpt lat="59.320789956521" lon="17.850215106998">
        <ele>2</ele>
        <time>2013-08-20T19:36:43Z</time>
      </trkpt>
      <trkpt lat="59.320796410584" lon="17.850114608017">
        <ele>2</ele>
        <time>2013-08-20T19:36:44Z</time>
      </trkpt>
      <trkpt lat="59.32083194984" lon="17.849185809678">
        <ele>2</ele>
        <time>2013-08-20T19:36:53Z</time>
      </trkpt>
      <trkpt lat="59.320866399449" lon="17.848374190301">
        <ele>2</ele>
        <time>2013-08-20T19:37:00Z</time>
      </trkpt>
      <trkpt lat="59.320908895682" lon="17.84734916775">
        <ele>2</ele>
        <time>2013-08-20T19:37:09Z</time>
      </trkpt>
      <trkpt lat="59.320961114919" lon="17.846270249582">
        <ele>2</ele>
        <time>2013-08-20T19:37:18Z</time>
      </trkpt>
      <trkpt lat="59.32100545517" lon="17.845328962212">
        <ele>2</ele>
        <time>2013-08-20T19:37:26Z</time>
      </trkpt>
      <trkpt lat="59.32105155562" lon="17.844207715449">
        <ele>2</ele>
        <time>2013-08-20T19:37:36Z</time>
      </trkpt>
      <trkpt lat="59.321099667726" lon="17.843281850775">
        <ele>2</ele>
        <time>2013-08-20T19:37:44Z</time>
      </trkpt>
      <trkpt lat="59.321126405987" lon="17.84259411588">
        <ele>2</ele>
        <time>2013-08-20T19:37:50Z</time>
      </trkpt>
      <trkpt lat="59.32114962385" lon="17.842041916308">
        <ele>2.4</ele>
        <time>2013-08-20T19:37:55Z</time>
      </trkpt>
      <trkpt lat="59.321155658818" lon="17.841931442866">
        <ele>3</ele>
        <time>2013-08-20T19:37:56Z</time>
      </trkpt>
      <trkpt lat="59.321161190872" lon="17.841819209225">
        <ele>3.4</ele>
        <time>2013-08-20T19:37:57Z</time>
      </trkpt>
      <trkpt lat="59.321166890564" lon="17.841708232869">
        <ele>3.8</ele>
        <time>2013-08-20T19:37:58Z</time>
      </trkpt>
      <trkpt lat="59.321174182817" lon="17.841595663952">
        <ele>4.2</ele>
        <time>2013-08-20T19:37:59Z</time>
      </trkpt>
      <trkpt lat="59.321212823376" lon="17.841371951041">
        <ele>4.2</ele>
        <time>2013-08-20T19:38:01Z</time>
      </trkpt>
      <trkpt lat="59.321248446451" lon="17.841277487028">
        <ele>4.2</ele>
        <time>2013-08-20T19:38:02Z</time>
      </trkpt>
      <trkpt lat="59.321385406697" lon="17.841062156017">
        <ele>4.2</ele>
        <time>2013-08-20T19:38:05Z</time>
      </trkpt>
      <trkpt lat="59.32142874112" lon="17.841004991459">
        <ele>4.2</ele>
        <time>2013-08-20T19:38:06Z</time>
      </trkpt>
      <trkpt lat="59.321772650477" lon="17.840687652725">
        <ele>4.2</ele>
        <time>2013-08-20T19:38:13Z</time>
      </trkpt>
      <trkpt lat="59.321990663696" lon="17.84068388087">
        <ele>4.2</ele>
        <time>2013-08-20T19:38:17Z</time>
      </trkpt>
      <trkpt lat="59.322047576797" lon="17.840693184779">
        <ele>4.2</ele>
        <time>2013-08-20T19:38:18Z</time>
      </trkpt>
      <trkpt lat="59.322212197313" lon="17.840724197809">
        <ele>4.6</ele>
        <time>2013-08-20T19:38:21Z</time>
      </trkpt>
      <trkpt lat="59.322265590016" lon="17.840734088451">
        <ele>5.2</ele>
        <time>2013-08-20T19:38:22Z</time>
      </trkpt>
      <trkpt lat="59.322320156185" lon="17.840745236378">
        <ele>5.6</ele>
        <time>2013-08-20T19:38:23Z</time>
      </trkpt>
      <trkpt lat="59.322373800345" lon="17.84075596521">
        <ele>6</ele>
        <time>2013-08-20T19:38:24Z</time>
      </trkpt>
      <trkpt lat="59.322426354858" lon="17.840765017662">
        <ele>6.4</ele>
        <time>2013-08-20T19:38:25Z</time>
      </trkpt>
      <trkpt lat="59.322479999018" lon="17.840771555544">
        <ele>6.4</ele>
        <time>2013-08-20T19:38:26Z</time>
      </trkpt>
      <trkpt lat="59.322840420718" lon="17.840838443106">
        <ele>6.4</ele>
        <time>2013-08-20T19:38:33Z</time>
      </trkpt>
      <trkpt lat="59.322890293023" lon="17.840846573549">
        <ele>6.4</ele>
        <time>2013-08-20T19:38:34Z</time>
      </trkpt>
      <trkpt lat="59.323176534908" lon="17.840885633203">
        <ele>6.4</ele>
        <time>2013-08-20T19:38:40Z</time>
      </trkpt>
      <trkpt lat="59.323439307473" lon="17.840910946541">
        <ele>6.4</ele>
        <time>2013-08-20T19:38:44Z</time>
      </trkpt>
      <trkpt lat="59.323925457673" lon="17.840985293994">
        <ele>6.4</ele>
        <time>2013-08-20T19:38:49Z</time>
      </trkpt>
      <trkpt lat="59.324576479846" lon="17.841094510151">
        <ele>6.4</ele>
        <time>2013-08-20T19:38:55Z</time>
      </trkpt>
      <trkpt lat="59.324686366555" lon="17.841115464901">
        <ele>6.4</ele>
        <time>2013-08-20T19:38:56Z</time>
      </trkpt>
      <trkpt lat="59.325318026539" lon="17.841209928914">
        <ele>6.4</ele>
        <time>2013-08-20T19:39:02Z</time>
      </trkpt>
      <trkpt lat="59.325859832555" lon="17.841322749288">
        <ele>6.8</ele>
        <time>2013-08-20T19:39:08Z</time>
      </trkpt>
      <trkpt lat="59.32592730685" lon="17.841333645758">
        <ele>7.2</ele>
        <time>2013-08-20T19:39:09Z</time>
      </trkpt>
      <trkpt lat="59.32598765653" lon="17.841345631875">
        <ele>7.6</ele>
        <time>2013-08-20T19:39:10Z</time>
      </trkpt>
      <trkpt lat="59.326046581287" lon="17.841357617992">
        <ele>8</ele>
        <time>2013-08-20T19:39:11Z</time>
      </trkpt>
      <trkpt lat="59.326102572379" lon="17.841365916073">
        <ele>8.6</ele>
        <time>2013-08-20T19:39:12Z</time>
      </trkpt>
      <trkpt lat="59.326156551815" lon="17.841373040688">
        <ele>9</ele>
        <time>2013-08-20T19:39:13Z</time>
      </trkpt>
      <trkpt lat="59.326209106328" lon="17.841381674045">
        <ele>9.6</ele>
        <time>2013-08-20T19:39:14Z</time>
      </trkpt>
      <trkpt lat="59.32626090647" lon="17.841390977954">
        <ele>10.2</ele>
        <time>2013-08-20T19:39:15Z</time>
      </trkpt>
      <trkpt lat="59.326313963897" lon="17.841401790605">
        <ele>10.6</ele>
        <time>2013-08-20T19:39:16Z</time>
      </trkpt>
      <trkpt lat="59.326460647147" lon="17.841424254097">
        <ele>10.6</ele>
        <time>2013-08-20T19:39:19Z</time>
      </trkpt>
      <trkpt lat="59.326589644588" lon="17.841446047037">
        <ele>10.6</ele>
        <time>2013-08-20T19:39:22Z</time>
      </trkpt>
      <trkpt lat="59.326632559916" lon="17.84146255938">
        <ele>11</ele>
        <time>2013-08-20T19:39:23Z</time>
      </trkpt>
      <trkpt lat="59.326678157452" lon="17.841476473334">
        <ele>11.4</ele>
        <time>2013-08-20T19:39:24Z</time>
      </trkpt>
      <trkpt lat="59.326716714192" lon="17.84148183775">
        <ele>12</ele>
        <time>2013-08-20T19:39:25Z</time>
      </trkpt>
      <trkpt lat="59.326752504905" lon="17.841487202166">
        <ele>12.4</ele>
        <time>2013-08-20T19:39:26Z</time>
      </trkpt>
      <trkpt lat="59.326787541247" lon="17.841497595722">
        <ele>12.8</ele>
        <time>2013-08-20T19:39:27Z</time>
      </trkpt>
      <trkpt lat="59.326867839849" lon="17.841500110292">
        <ele>12.8</ele>
        <time>2013-08-20T19:39:29Z</time>
      </trkpt>
      <trkpt lat="59.327124493627" lon="17.841542103611">
        <ele>12.8</ele>
        <time>2013-08-20T19:39:34Z</time>
      </trkpt>
      <trkpt lat="59.32750897138" lon="17.841607147155">
        <ele>12.8</ele>
        <time>2013-08-20T19:39:41Z</time>
      </trkpt>
      <trkpt lat="59.327606033782" lon="17.841665904274">
        <ele>12.8</ele>
        <time>2013-08-20T19:39:43Z</time>
      </trkpt>
      <trkpt lat="59.327731510825" lon="17.841818035759">
        <ele>13.2</ele>
        <time>2013-08-20T19:39:46Z</time>
      </trkpt>
      <trkpt lat="59.327769480832" lon="17.841884252769">
        <ele>13.6</ele>
        <time>2013-08-20T19:39:47Z</time>
      </trkpt>
      <trkpt lat="59.327804433355" lon="17.841947703752">
        <ele>14.6</ele>
        <time>2013-08-20T19:39:48Z</time>
      </trkpt>
      <trkpt lat="59.327836619851" lon="17.842008472527">
        <ele>15</ele>
        <time>2013-08-20T19:39:49Z</time>
      </trkpt>
      <trkpt lat="59.327955475193" lon="17.842280716639">
        <ele>15.4</ele>
        <time>2013-08-20T19:39:53Z</time>
      </trkpt>
      <trkpt lat="59.327987745508" lon="17.842354644997">
        <ele>15.8</ele>
        <time>2013-08-20T19:39:54Z</time>
      </trkpt>
      <trkpt lat="59.328019512909" lon="17.8424248015">
        <ele>16.2</ele>
        <time>2013-08-20T19:39:55Z</time>
      </trkpt>
      <trkpt lat="59.328054884527" lon="17.842494455089">
        <ele>16.6</ele>
        <time>2013-08-20T19:39:56Z</time>
      </trkpt>
      <trkpt lat="59.328094028" lon="17.842561510289">
        <ele>17.2</ele>
        <time>2013-08-20T19:39:57Z</time>
      </trkpt>
      <trkpt lat="59.328136356595" lon="17.842626218557">
        <ele>17.2</ele>
        <time>2013-08-20T19:39:58Z</time>
      </trkpt>
      <trkpt lat="59.328231910255" lon="17.842724622063">
        <ele>17.2</ele>
        <time>2013-08-20T19:40:00Z</time>
      </trkpt>
      <trkpt lat="59.328496862114" lon="17.842797879869">
        <ele>17.2</ele>
        <time>2013-08-20T19:40:05Z</time>
      </trkpt>
      <trkpt lat="59.328877987107" lon="17.842780613155">
        <ele>17.6</ele>
        <time>2013-08-20T19:40:13Z</time>
      </trkpt>
      <trkpt lat="59.328918639322" lon="17.842778266223">
        <ele>18</ele>
        <time>2013-08-20T19:40:14Z</time>
      </trkpt>
      <trkpt lat="59.328958453347" lon="17.84277600311">
        <ele>18.6</ele>
        <time>2013-08-20T19:40:15Z</time>
      </trkpt>
      <trkpt lat="59.328998015915" lon="17.84277348854">
        <ele>19</ele>
        <time>2013-08-20T19:40:16Z</time>
      </trkpt>
      <trkpt lat="59.329039422501" lon="17.842774494368">
        <ele>19.4</ele>
        <time>2013-08-20T19:40:17Z</time>
      </trkpt>
      <trkpt lat="59.329236564789" lon="17.842746331184">
        <ele>19.4</ele>
        <time>2013-08-20T19:40:21Z</time>
      </trkpt>
      <trkpt lat="59.329288364931" lon="17.84274163732">
        <ele>19.4</ele>
        <time>2013-08-20T19:40:22Z</time>
      </trkpt>
      <trkpt lat="59.329394228328" lon="17.842736524361">
        <ele>19.4</ele>
        <time>2013-08-20T19:40:24Z</time>
      </trkpt>
      <trkpt lat="59.329553568247" lon="17.84272822628">
        <ele>19.4</ele>
        <time>2013-08-20T19:40:27Z</time>
      </trkpt>
      <trkpt lat="59.329715674193" lon="17.842767118296">
        <ele>19.4</ele>
        <time>2013-08-20T19:40:30Z</time>
      </trkpt>
      <trkpt lat="59.329817430459" lon="17.842822690293">
        <ele>19.4</ele>
        <time>2013-08-20T19:40:32Z</time>
      </trkpt>
      <trkpt lat="59.330094536073" lon="17.843070459257">
        <ele>19.4</ele>
        <time>2013-08-20T19:40:38Z</time>
      </trkpt>
      <trkpt lat="59.330168212974" lon="17.843158972121">
        <ele>19.8</ele>
        <time>2013-08-20T19:40:40Z</time>
      </trkpt>
      <trkpt lat="59.330201908212" lon="17.843200294888">
        <ele>20.2</ele>
        <time>2013-08-20T19:40:41Z</time>
      </trkpt>
      <trkpt lat="59.33023476526" lon="17.843241952931">
        <ele>20.8</ele>
        <time>2013-08-20T19:40:42Z</time>
      </trkpt>
      <trkpt lat="59.330268795774" lon="17.843284449164">
        <ele>21.2</ele>
        <time>2013-08-20T19:40:43Z</time>
      </trkpt>
      <trkpt lat="59.330306095229" lon="17.843327280673">
        <ele>21.6</ele>
        <time>2013-08-20T19:40:44Z</time>
      </trkpt>
      <trkpt lat="59.330426794589" lon="17.843465498204">
        <ele>21.6</ele>
        <time>2013-08-20T19:40:47Z</time>
      </trkpt>
      <trkpt lat="59.330533412357" lon="17.843630621634">
        <ele>21.6</ele>
        <time>2013-08-20T19:40:50Z</time>
      </trkpt>
      <trkpt lat="59.330568532518" lon="17.843695329902">
        <ele>21.6</ele>
        <time>2013-08-20T19:40:51Z</time>
      </trkpt>
      <trkpt lat="59.330674395915" lon="17.843889706163">
        <ele>21.6</ele>
        <time>2013-08-20T19:40:54Z</time>
      </trkpt>
      <trkpt lat="59.33070750442" lon="17.843964891806">
        <ele>21.6</ele>
        <time>2013-08-20T19:40:55Z</time>
      </trkpt>
      <trkpt lat="59.33088855346" lon="17.844387758661">
        <ele>21.6</ele>
        <time>2013-08-20T19:41:00Z</time>
      </trkpt>
      <trkpt lat="59.33107127888" lon="17.845078930135">
        <ele>21.6</ele>
        <time>2013-08-20T19:41:06Z</time>
      </trkpt>
      <trkpt lat="59.331117966063" lon="17.84542887446">
        <ele>21.6</ele>
        <time>2013-08-20T19:41:09Z</time>
      </trkpt>
      <trkpt lat="59.331127018515" lon="17.845533145296">
        <ele>21.6</ele>
        <time>2013-08-20T19:41:10Z</time>
      </trkpt>
      <trkpt lat="59.331217710673" lon="17.846076040959">
        <ele>21.6</ele>
        <time>2013-08-20T19:41:16Z</time>
      </trkpt>
      <trkpt lat="59.331316449455" lon="17.84642380599">
        <ele>21.6</ele>
        <time>2013-08-20T19:41:19Z</time>
      </trkpt>
      <trkpt lat="59.331342349526" lon="17.846587336859">
        <ele>21</ele>
        <time>2013-08-20T19:41:20Z</time>
      </trkpt>
      <trkpt lat="59.331355509109" lon="17.846758662895">
        <ele>20.6</ele>
        <time>2013-08-20T19:41:21Z</time>
      </trkpt>
      <trkpt lat="59.33134704339" lon="17.846943148514">
        <ele>20</ele>
        <time>2013-08-20T19:41:22Z</time>
      </trkpt>
      <trkpt lat="59.331313012876" lon="17.847127131219">
        <ele>19.6</ele>
        <time>2013-08-20T19:41:23Z</time>
      </trkpt>
      <trkpt lat="59.331263894942" lon="17.847306084784">
        <ele>19</ele>
        <time>2013-08-20T19:41:24Z</time>
      </trkpt>
      <trkpt lat="59.33120538928" lon="17.847491827688">
        <ele>19</ele>
        <time>2013-08-20T19:41:25Z</time>
      </trkpt>
      <trkpt lat="59.33110480648" lon="17.847878820011">
        <ele>19</ele>
        <time>2013-08-20T19:41:27Z</time>
      </trkpt>
      <trkpt lat="59.331078906409" lon="17.848095324488">
        <ele>18.6</ele>
        <time>2013-08-20T19:41:28Z</time>
      </trkpt>
      <trkpt lat="59.331066668835" lon="17.848322222521">
        <ele>18.2</ele>
        <time>2013-08-20T19:41:29Z</time>
      </trkpt>
      <trkpt lat="59.331065663007" lon="17.848545181061">
        <ele>17.8</ele>
        <time>2013-08-20T19:41:30Z</time>
      </trkpt>
      <trkpt lat="59.331073877269" lon="17.848756069665">
        <ele>17.4</ele>
        <time>2013-08-20T19:41:31Z</time>
      </trkpt>
      <trkpt lat="59.331094245286" lon="17.848969472839">
        <ele>17</ele>
        <time>2013-08-20T19:41:32Z</time>
      </trkpt>
      <trkpt lat="59.331124168669" lon="17.849219756373">
        <ele>17</ele>
        <time>2013-08-20T19:41:33Z</time>
      </trkpt>
      <trkpt lat="59.331154092052" lon="17.849472805934">
        <ele>17</ele>
        <time>2013-08-20T19:41:34Z</time>
      </trkpt>
      <trkpt lat="59.331217459216" lon="17.849983515101">
        <ele>16.2</ele>
        <time>2013-08-20T19:41:36Z</time>
      </trkpt>
      <trkpt lat="59.331249645712" lon="17.850241426164">
        <ele>15.6</ele>
        <time>2013-08-20T19:41:37Z</time>
      </trkpt>
      <trkpt lat="59.331277305982" lon="17.850500091598">
        <ele>14.8</ele>
        <time>2013-08-20T19:41:38Z</time>
      </trkpt>
      <trkpt lat="59.331304630976" lon="17.850760349593">
        <ele>13.8</ele>
        <time>2013-08-20T19:41:39Z</time>
      </trkpt>
      <trkpt lat="59.331332123608" lon="17.85100870529">
        <ele>12.8</ele>
        <time>2013-08-20T19:41:40Z</time>
      </trkpt>
      <trkpt lat="59.331362801362" lon="17.851251361295">
        <ele>12</ele>
        <time>2013-08-20T19:41:41Z</time>
      </trkpt>
      <trkpt lat="59.331397753885" lon="17.851486389771">
        <ele>11</ele>
        <time>2013-08-20T19:41:42Z</time>
      </trkpt>
      <trkpt lat="59.331483500722" lon="17.852170604268">
        <ele>11</ele>
        <time>2013-08-20T19:41:45Z</time>
      </trkpt>
      <trkpt lat="59.331518201788" lon="17.8524914634">
        <ele>11.6</ele>
        <time>2013-08-20T19:41:47Z</time>
      </trkpt>
      <trkpt lat="59.331537396339" lon="17.852623310687">
        <ele>12</ele>
        <time>2013-08-20T19:41:48Z</time>
      </trkpt>
      <trkpt lat="59.331556423252" lon="17.852747362807">
        <ele>12.6</ele>
        <time>2013-08-20T19:41:49Z</time>
      </trkpt>
      <trkpt lat="59.331575282527" lon="17.852870912013">
        <ele>13</ele>
        <time>2013-08-20T19:41:50Z</time>
      </trkpt>
      <trkpt lat="59.331589531757" lon="17.852993455391">
        <ele>13.4</ele>
        <time>2013-08-20T19:41:51Z</time>
      </trkpt>
      <trkpt lat="59.331602942797" lon="17.853117423692">
        <ele>13.4</ele>
        <time>2013-08-20T19:41:52Z</time>
      </trkpt>
      <trkpt lat="59.331714086791" lon="17.854009006395">
        <ele>13.4</ele>
        <time>2013-08-20T19:41:59Z</time>
      </trkpt>
      <trkpt lat="59.331752392074" lon="17.854801431221">
        <ele>13.4</ele>
        <time>2013-08-20T19:42:05Z</time>
      </trkpt>
      <trkpt lat="59.331676368241" lon="17.855559574076">
        <ele>13.4</ele>
        <time>2013-08-20T19:42:11Z</time>
      </trkpt>
      <trkpt lat="59.33155910546" lon="17.856559283289">
        <ele>13.4</ele>
        <time>2013-08-20T19:42:18Z</time>
      </trkpt>
      <trkpt lat="59.331476543745" lon="17.857301165258">
        <ele>13.4</ele>
        <time>2013-08-20T19:42:26Z</time>
      </trkpt>
      <trkpt lat="59.331404710862" lon="17.857932825242">
        <ele>13</ele>
        <time>2013-08-20T19:42:31Z</time>
      </trkpt>
      <trkpt lat="59.331388449976" lon="17.858064421072">
        <ele>12.6</ele>
        <time>2013-08-20T19:42:32Z</time>
      </trkpt>
      <trkpt lat="59.331370177434" lon="17.858202470965">
        <ele>12.2</ele>
        <time>2013-08-20T19:42:33Z</time>
      </trkpt>
      <trkpt lat="59.331354922376" lon="17.858333815338">
        <ele>11.8</ele>
        <time>2013-08-20T19:42:34Z</time>
      </trkpt>
      <trkpt lat="59.331339751137" lon="17.858464572978">
        <ele>11.4</ele>
        <time>2013-08-20T19:42:35Z</time>
      </trkpt>
      <trkpt lat="59.331271187195" lon="17.858970001548">
        <ele>11.4</ele>
        <time>2013-08-20T19:42:39Z</time>
      </trkpt>
      <trkpt lat="59.331163060685" lon="17.859810706118">
        <ele>11.4</ele>
        <time>2013-08-20T19:42:46Z</time>
      </trkpt>
      <trkpt lat="59.331061472057" lon="17.860705306305">
        <ele>11.4</ele>
        <time>2013-08-20T19:42:53Z</time>
      </trkpt>
      <trkpt lat="59.331008498449" lon="17.861272928573">
        <ele>10.8</ele>
        <time>2013-08-20T19:42:57Z</time>
      </trkpt>
      <trkpt lat="59.330992069925" lon="17.861437632908">
        <ele>10.4</ele>
        <time>2013-08-20T19:42:58Z</time>
      </trkpt>
      <trkpt lat="59.33097237246" lon="17.861626560934">
        <ele>10</ele>
        <time>2013-08-20T19:42:59Z</time>
      </trkpt>
      <trkpt lat="59.330950411882" lon="17.86182554724">
        <ele>9.6</ele>
        <time>2013-08-20T19:43:00Z</time>
      </trkpt>
      <trkpt lat="59.330925601458" lon="17.862044733925">
        <ele>9</ele>
        <time>2013-08-20T19:43:01Z</time>
      </trkpt>
      <trkpt lat="59.330901713043" lon="17.862278588935">
        <ele>8.4</ele>
        <time>2013-08-20T19:43:02Z</time>
      </trkpt>
      <trkpt lat="59.330877405533" lon="17.862522502225">
        <ele>7.8</ele>
        <time>2013-08-20T19:43:03Z</time>
      </trkpt>
      <trkpt lat="59.330846308684" lon="17.862791896491">
        <ele>7.2</ele>
        <time>2013-08-20T19:43:04Z</time>
      </trkpt>
      <trkpt lat="59.330815463292" lon="17.863043185853">
        <ele>6</ele>
        <time>2013-08-20T19:43:05Z</time>
      </trkpt>
      <trkpt lat="59.330783360615" lon="17.863298330889">
        <ele>5.4</ele>
        <time>2013-08-20T19:43:06Z</time>
      </trkpt>
      <trkpt lat="59.330751006481" lon="17.863548279147">
        <ele>5</ele>
        <time>2013-08-20T19:43:07Z</time>
      </trkpt>
      <trkpt lat="59.330720244908" lon="17.863801244889">
        <ele>4.4</ele>
        <time>2013-08-20T19:43:08Z</time>
      </trkpt>
      <trkpt lat="59.330689399516" lon="17.864057228115">
        <ele>4.4</ele>
        <time>2013-08-20T19:43:09Z</time>
      </trkpt>
      <trkpt lat="59.330545649931" lon="17.865327253603">
        <ele>4.4</ele>
        <time>2013-08-20T19:43:14Z</time>
      </trkpt>
      <trkpt lat="59.330519917498" lon="17.865580722259">
        <ele>4.8</ele>
        <time>2013-08-20T19:43:15Z</time>
      </trkpt>
      <trkpt lat="59.330498292196" lon="17.865838884779">
        <ele>5.2</ele>
        <time>2013-08-20T19:43:16Z</time>
      </trkpt>
      <trkpt lat="59.330476750713" lon="17.866091179969">
        <ele>5.6</ele>
        <time>2013-08-20T19:43:17Z</time>
      </trkpt>
      <trkpt lat="59.330453197574" lon="17.866339870942">
        <ele>6</ele>
        <time>2013-08-20T19:43:18Z</time>
      </trkpt>
      <trkpt lat="59.330428554788" lon="17.866593004322">
        <ele>5.8</ele>
        <time>2013-08-20T19:43:19Z</time>
      </trkpt>
      <trkpt lat="59.330402151803" lon="17.866861728036">
        <ele>5.4</ele>
        <time>2013-08-20T19:43:20Z</time>
      </trkpt>
      <trkpt lat="59.330377928112" lon="17.867120225832">
        <ele>5</ele>
        <time>2013-08-20T19:43:21Z</time>
      </trkpt>
      <trkpt lat="59.330354123516" lon="17.867380986741">
        <ele>4.6</ele>
        <time>2013-08-20T19:43:22Z</time>
      </trkpt>
      <trkpt lat="59.330329732187" lon="17.867639903632">
        <ele>4.2</ele>
        <time>2013-08-20T19:43:23Z</time>
      </trkpt>
      <trkpt lat="59.330214732519" lon="17.868897020994">
        <ele>4.2</ele>
        <time>2013-08-20T19:43:28Z</time>
      </trkpt>
      <trkpt lat="59.330185898783" lon="17.869142275388">
        <ele>4.2</ele>
        <time>2013-08-20T19:43:29Z</time>
      </trkpt>
      <trkpt lat="59.330029911624" lon="17.869803942574">
        <ele>4.2</ele>
        <time>2013-08-20T19:43:32Z</time>
      </trkpt>
      <trkpt lat="59.32977627533" lon="17.870286656195">
        <ele>4.2</ele>
        <time>2013-08-20T19:43:35Z</time>
      </trkpt>
      <trkpt lat="59.329452063438" lon="17.870833742808">
        <ele>4.2</ele>
        <time>2013-08-20T19:43:39Z</time>
      </trkpt>
      <trkpt lat="59.329084098028" lon="17.871471186303">
        <ele>4.6</ele>
        <time>2013-08-20T19:43:44Z</time>
      </trkpt>
      <trkpt lat="59.329016288457" lon="17.871593729681">
        <ele>5</ele>
        <time>2013-08-20T19:43:45Z</time>
      </trkpt>
      <trkpt lat="59.328952418379" lon="17.871721134561">
        <ele>5.6</ele>
        <time>2013-08-20T19:43:46Z</time>
      </trkpt>
      <trkpt lat="59.328895589097" lon="17.871855580237">
        <ele>6</ele>
        <time>2013-08-20T19:43:47Z</time>
      </trkpt>
      <trkpt lat="59.328847476991" lon="17.871998826908">
        <ele>6.4</ele>
        <time>2013-08-20T19:43:48Z</time>
      </trkpt>
      <trkpt lat="59.328800119256" lon="17.872143330864">
        <ele>6.4</ele>
        <time>2013-08-20T19:43:49Z</time>
      </trkpt>
      <trkpt lat="59.328590823213" lon="17.872856714373">
        <ele>6.4</ele>
        <time>2013-08-20T19:43:54Z</time>
      </trkpt>
      <trkpt lat="59.328430561285" lon="17.873420816243">
        <ele>6</ele>
        <time>2013-08-20T19:43:58Z</time>
      </trkpt>
      <trkpt lat="59.328390244346" lon="17.873561799801">
        <ele>5.6</ele>
        <time>2013-08-20T19:43:59Z</time>
      </trkpt>
      <trkpt lat="59.328350765597" lon="17.873702950997">
        <ele>5.2</ele>
        <time>2013-08-20T19:44:00Z</time>
      </trkpt>
      <trkpt lat="59.32830609007" lon="17.873844186012">
        <ele>4.8</ele>
        <time>2013-08-20T19:44:01Z</time>
      </trkpt>
      <trkpt lat="59.328264851122" lon="17.873987181226">
        <ele>4.4</ele>
        <time>2013-08-20T19:44:02Z</time>
      </trkpt>
      <trkpt lat="59.32818371433" lon="17.874270321808">
        <ele>4.4</ele>
        <time>2013-08-20T19:44:04Z</time>
      </trkpt>
      <trkpt lat="59.328142307744" lon="17.874413317022">
        <ele>4.4</ele>
        <time>2013-08-20T19:44:05Z</time>
      </trkpt>
      <trkpt lat="59.32810408628" lon="17.874560922281">
        <ele>4</ele>
        <time>2013-08-20T19:44:06Z</time>
      </trkpt>
      <trkpt lat="59.328066032454" lon="17.874708359902">
        <ele>3.6</ele>
        <time>2013-08-20T19:44:07Z</time>
      </trkpt>
      <trkpt lat="59.328024625868" lon="17.874852360944">
        <ele>3</ele>
        <time>2013-08-20T19:44:08Z</time>
      </trkpt>
      <trkpt lat="59.327981794359" lon="17.874991332846">
        <ele>2.6</ele>
        <time>2013-08-20T19:44:09Z</time>
      </trkpt>
      <trkpt lat="59.327937454108" lon="17.875127287264">
        <ele>2.2</ele>
        <time>2013-08-20T19:44:10Z</time>
      </trkpt>
      <trkpt lat="59.327851455814" lon="17.875409170561">
        <ele>2.2</ele>
        <time>2013-08-20T19:44:12Z</time>
      </trkpt>
      <trkpt lat="59.327590611086" lon="17.876306452956">
        <ele>2.2</ele>
        <time>2013-08-20T19:44:19Z</time>
      </trkpt>
      <trkpt lat="59.327452142098" lon="17.876768714741">
        <ele>1.8</ele>
        <time>2013-08-20T19:44:23Z</time>
      </trkpt>
      <trkpt lat="59.327419033593" lon="17.876875081052">
        <ele>1.4</ele>
        <time>2013-08-20T19:44:24Z</time>
      </trkpt>
      <trkpt lat="59.327382739966" lon="17.876982872286">
        <ele>1</ele>
        <time>2013-08-20T19:44:25Z</time>
      </trkpt>
      <trkpt lat="59.327347535986" lon="17.877087059303">
        <ele>0.6</ele>
        <time>2013-08-20T19:44:26Z</time>
      </trkpt>
      <trkpt lat="59.327309398341" lon="17.877187306827">
        <ele>0.2</ele>
        <time>2013-08-20T19:44:27Z</time>
      </trkpt>
      <trkpt lat="59.327146370386" lon="17.877541442102">
        <ele>0.2</ele>
        <time>2013-08-20T19:44:31Z</time>
      </trkpt>
      <trkpt lat="59.327095827529" lon="17.877616543926">
        <ele>0.2</ele>
        <time>2013-08-20T19:44:32Z</time>
      </trkpt>
      <trkpt lat="59.326921148733" lon="17.877799939898">
        <ele>0.2</ele>
        <time>2013-08-20T19:44:35Z</time>
      </trkpt>
      <trkpt lat="59.326796593699" lon="17.877884010355">
        <ele>0</ele>
        <time>2013-08-20T19:44:37Z</time>
      </trkpt>
      <trkpt lat="59.326738926227" lon="17.877918962878">
        <ele>0</ele>
        <time>2013-08-20T19:44:38Z</time>
      </trkpt>
      <trkpt lat="59.326682599859" lon="17.87795316103">
        <ele>0</ele>
        <time>2013-08-20T19:44:39Z</time>
      </trkpt>
      <trkpt lat="59.326626273491" lon="17.877986185716">
        <ele>0</ele>
        <time>2013-08-20T19:44:40Z</time>
      </trkpt>
      <trkpt lat="59.326570114761" lon="17.878020300049">
        <ele>0</ele>
        <time>2013-08-20T19:44:41Z</time>
      </trkpt>
      <trkpt lat="59.326465173373" lon="17.878066232861">
        <ele>0</ele>
        <time>2013-08-20T19:44:43Z</time>
      </trkpt>
      <trkpt lat="59.326376911966" lon="17.878064556481">
        <ele>0</ele>
        <time>2013-08-20T19:44:45Z</time>
      </trkpt>
      <trkpt lat="59.326331146792" lon="17.877934301755">
        <ele>0</ele>
        <time>2013-08-20T19:44:47Z</time>
      </trkpt>
      <trkpt lat="59.326287812369" lon="17.877622578894">
        <ele>0</ele>
        <time>2013-08-20T19:44:51Z</time>
      </trkpt>
      <trkpt lat="59.326278759917" lon="17.877555356056">
        <ele>0</ele>
        <time>2013-08-20T19:44:52Z</time>
      </trkpt>
      <trkpt lat="59.326245148498" lon="17.877300043382">
        <ele>0</ele>
        <time>2013-08-20T19:44:56Z</time>
      </trkpt>
      <trkpt lat="59.326174321443" lon="17.876828477688">
        <ele>0</ele>
        <time>2013-08-20T19:45:03Z</time>
      </trkpt>
      <trkpt lat="59.326090502443" lon="17.876548689866">
        <ele>0</ele>
        <time>2013-08-20T19:45:09Z</time>
      </trkpt>
      <trkpt lat="59.326042222699" lon="17.876215341703">
        <ele>0</ele>
        <time>2013-08-20T19:45:15Z</time>
      </trkpt>
      <trkpt lat="59.325972317653" lon="17.875716199558">
        <ele>0</ele>
        <time>2013-08-20T19:45:23Z</time>
      </trkpt>
      <trkpt lat="59.325900317132" lon="17.875214961938">
        <ele>0</ele>
        <time>2013-08-20T19:45:30Z</time>
      </trkpt>
      <trkpt lat="59.325815073209" lon="17.874658822873">
        <ele>0</ele>
        <time>2013-08-20T19:45:37Z</time>
      </trkpt>
      <trkpt lat="59.325758243927" lon="17.874329498022">
        <ele>0</ele>
        <time>2013-08-20T19:45:41Z</time>
      </trkpt>
      <trkpt lat="59.325710048002" lon="17.874017691342">
        <ele>0</ele>
        <time>2013-08-20T19:45:45Z</time>
      </trkpt>
      <trkpt lat="59.325622792423" lon="17.873432299446">
        <ele>0</ele>
        <time>2013-08-20T19:45:53Z</time>
      </trkpt>
      <trkpt lat="59.32551575556" lon="17.872748168768">
        <ele>0</ele>
        <time>2013-08-20T19:46:02Z</time>
      </trkpt>
      <trkpt lat="59.325490023127" lon="17.872591678695">
        <ele>0</ele>
        <time>2013-08-20T19:46:04Z</time>
      </trkpt>
      <trkpt lat="59.325436630424" lon="17.872275597246">
        <ele>0</ele>
        <time>2013-08-20T19:46:08Z</time>
      </trkpt>
      <trkpt lat="59.325340825307" lon="17.871628598385">
        <ele>0</ele>
        <time>2013-08-20T19:46:16Z</time>
      </trkpt>
      <trkpt lat="59.325272429003" lon="17.871228614117">
        <ele>0</ele>
        <time>2013-08-20T19:46:21Z</time>
      </trkpt>
      <trkpt lat="59.325221467051" lon="17.870980677515">
        <ele>0</ele>
        <time>2013-08-20T19:46:24Z</time>
      </trkpt>
      <trkpt lat="59.325015775225" lon="17.870272993698">
        <ele>0</ele>
        <time>2013-08-20T19:46:33Z</time>
      </trkpt>
      <trkpt lat="59.32478066293" lon="17.869722219049">
        <ele>0</ele>
        <time>2013-08-20T19:46:41Z</time>
      </trkpt>
      <trkpt lat="59.324612857292" lon="17.869423571952">
        <ele>0</ele>
        <time>2013-08-20T19:46:46Z</time>
      </trkpt>
      <trkpt lat="59.324576731303" lon="17.869373280552">
        <ele>0</ele>
        <time>2013-08-20T19:46:47Z</time>
      </trkpt>
      <trkpt lat="59.324538593658" lon="17.869324497894">
        <ele>0</ele>
        <time>2013-08-20T19:46:48Z</time>
      </trkpt>
      <trkpt lat="59.324499198728" lon="17.869276972521">
        <ele>0</ele>
        <time>2013-08-20T19:46:49Z</time>
      </trkpt>
      <trkpt lat="59.324460390531" lon="17.869235230659">
        <ele>0.2</ele>
        <time>2013-08-20T19:46:50Z</time>
      </trkpt>
      <trkpt lat="59.324296356748" lon="17.869062647338">
        <ele>0.2</ele>
        <time>2013-08-20T19:46:54Z</time>
      </trkpt>
      <trkpt lat="59.324173058999" lon="17.868959801425">
        <ele>0.2</ele>
        <time>2013-08-20T19:46:57Z</time>
      </trkpt>
      <trkpt lat="59.323817079706" lon="17.868771795408">
        <ele>0.2</ele>
        <time>2013-08-20T19:47:05Z</time>
      </trkpt>
      <trkpt lat="59.323481719887" lon="17.868695855394">
        <ele>0.2</ele>
        <time>2013-08-20T19:47:12Z</time>
      </trkpt>
      <trkpt lat="59.323433859238" lon="17.868682947268">
        <ele>0.2</ele>
        <time>2013-08-20T19:47:13Z</time>
      </trkpt>
      <trkpt lat="59.323337048293" lon="17.868666183468">
        <ele>0.2</ele>
        <time>2013-08-20T19:47:15Z</time>
      </trkpt>
      <trkpt lat="59.323178211288" lon="17.868640451035">
        <ele>0.6</ele>
        <time>2013-08-20T19:47:18Z</time>
      </trkpt>
      <trkpt lat="59.323125405318" lon="17.868628884013">
        <ele>1</ele>
        <time>2013-08-20T19:47:19Z</time>
      </trkpt>
      <trkpt lat="59.323073856633" lon="17.868617149353">
        <ele>1.4</ele>
        <time>2013-08-20T19:47:20Z</time>
      </trkpt>
      <trkpt lat="59.323024319604" lon="17.868602397209">
        <ele>1.8</ele>
        <time>2013-08-20T19:47:21Z</time>
      </trkpt>
      <trkpt lat="59.322974279661" lon="17.868591165463">
        <ele>2.2</ele>
        <time>2013-08-20T19:47:22Z</time>
      </trkpt>
      <trkpt lat="59.322817119036" lon="17.868556380578">
        <ele>2.2</ele>
        <time>2013-08-20T19:47:25Z</time>
      </trkpt>
      <trkpt lat="59.3224194817" lon="17.868462168022">
        <ele>2.2</ele>
        <time>2013-08-20T19:47:33Z</time>
      </trkpt>
      <trkpt lat="59.321904581583" lon="17.868335852789">
        <ele>2.2</ele>
        <time>2013-08-20T19:47:43Z</time>
      </trkpt>
      <trkpt lat="59.321802741498" lon="17.868312048193">
        <ele>2.2</ele>
        <time>2013-08-20T19:47:45Z</time>
      </trkpt>
      <trkpt lat="59.321602078812" lon="17.868257314386">
        <ele>2.2</ele>
        <time>2013-08-20T19:47:49Z</time>
      </trkpt>
      <trkpt lat="59.321234448678" lon="17.86814298527">
        <ele>2.2</ele>
        <time>2013-08-20T19:47:56Z</time>
      </trkpt>
      <trkpt lat="59.320841253749" lon="17.867857749213">
        <ele>2.2</ele>
        <time>2013-08-20T19:48:03Z</time>
      </trkpt>
      <trkpt lat="59.320737485827" lon="17.867730679609">
        <ele>2.2</ele>
        <time>2013-08-20T19:48:05Z</time>
      </trkpt>
      <trkpt lat="59.320600106486" lon="17.867464805741">
        <ele>2.2</ele>
        <time>2013-08-20T19:48:08Z</time>
      </trkpt>
      <trkpt lat="59.320559873366" lon="17.867369838814">
        <ele>2.2</ele>
        <time>2013-08-20T19:48:09Z</time>
      </trkpt>
      <trkpt lat="59.320482676067" lon="17.867208319601">
        <ele>2.2</ele>
        <time>2013-08-20T19:48:11Z</time>
      </trkpt>
      <trkpt lat="59.320396593954" lon="17.867108826448">
        <ele>2.2</ele>
        <time>2013-08-20T19:48:13Z</time>
      </trkpt>
      <trkpt lat="59.320293999498" lon="17.867042190343">
        <ele>2.2</ele>
        <time>2013-08-20T19:48:15Z</time>
      </trkpt>
      <trkpt lat="59.320197775286" lon="17.866968764899">
        <ele>2.2</ele>
        <time>2013-08-20T19:48:17Z</time>
      </trkpt>
      <trkpt lat="59.320105825843" lon="17.866861308941">
        <ele>2.2</ele>
        <time>2013-08-20T19:48:19Z</time>
      </trkpt>
      <trkpt lat="59.319986299949" lon="17.866700544099">
        <ele>2.2</ele>
        <time>2013-08-20T19:48:22Z</time>
      </trkpt>
      <trkpt lat="59.319983198646" lon="17.866623765895">
        <ele>2.2</ele>
        <time>2013-08-20T19:48:23Z</time>
      </trkpt>
      <trkpt lat="59.320022174481" lon="17.86639032998">
        <ele>2.2</ele>
        <time>2013-08-20T19:48:26Z</time>
      </trkpt>
      <trkpt lat="59.320028460906" lon="17.866303242039">
        <ele>2.2</ele>
        <time>2013-08-20T19:48:27Z</time>
      </trkpt>
      <trkpt lat="59.320057294642" lon="17.865947514203">
        <ele>2.2</ele>
        <time>2013-08-20T19:48:31Z</time>
      </trkpt>
      <trkpt lat="59.320081518333" lon="17.865300934437">
        <ele>2.6</ele>
        <time>2013-08-20T19:48:38Z</time>
      </trkpt>
      <trkpt lat="59.320085793102" lon="17.865207895347">
        <ele>3</ele>
        <time>2013-08-20T19:48:39Z</time>
      </trkpt>
      <trkpt lat="59.320091157518" lon="17.865111587316">
        <ele>3.4</ele>
        <time>2013-08-20T19:48:40Z</time>
      </trkpt>
      <trkpt lat="59.320096186658" lon="17.865015530742">
        <ele>3.8</ele>
        <time>2013-08-20T19:48:41Z</time>
      </trkpt>
      <trkpt lat="59.320101634893" lon="17.864920228539">
        <ele>4.2</ele>
        <time>2013-08-20T19:48:42Z</time>
      </trkpt>
      <trkpt lat="59.320117309046" lon="17.864550754387">
        <ele>4.2</ele>
        <time>2013-08-20T19:48:46Z</time>
      </trkpt>
      <trkpt lat="59.320151423379" lon="17.863781295967">
        <ele>4.2</ele>
        <time>2013-08-20T19:48:54Z</time>
      </trkpt>
      <trkpt lat="59.320157123071" lon="17.863679036787">
        <ele>4.6</ele>
        <time>2013-08-20T19:48:55Z</time>
      </trkpt>
      <trkpt lat="59.320160894926" lon="17.863575268865">
        <ele>5.2</ele>
        <time>2013-08-20T19:48:56Z</time>
      </trkpt>
      <trkpt lat="59.320166343161" lon="17.863472003857">
        <ele>5.6</ele>
        <time>2013-08-20T19:48:57Z</time>
      </trkpt>
      <trkpt lat="59.320173048681" lon="17.863368738849">
        <ele>6</ele>
        <time>2013-08-20T19:48:58Z</time>
      </trkpt>
      <trkpt lat="59.320177994002" lon="17.863264384194">
        <ele>6.4</ele>
        <time>2013-08-20T19:48:59Z</time>
      </trkpt>
      <trkpt lat="59.320192327051" lon="17.862949308573">
        <ele>6.4</ele>
        <time>2013-08-20T19:49:02Z</time>
      </trkpt>
      <trkpt lat="59.320230380877" lon="17.862114136057">
        <ele>6.4</ele>
        <time>2013-08-20T19:49:10Z</time>
      </trkpt>
      <trkpt lat="59.320268602341" lon="17.861350964062">
        <ele>6.4</ele>
        <time>2013-08-20T19:49:17Z</time>
      </trkpt>
      <trkpt lat="59.320299866828" lon="17.860663145348">
        <ele>6.4</ele>
        <time>2013-08-20T19:49:23Z</time>
      </trkpt>
      <trkpt lat="59.320344709993" lon="17.85960182917">
        <ele>6.4</ele>
        <time>2013-08-20T19:49:32Z</time>
      </trkpt>
      <trkpt lat="59.32036675439" lon="17.859159683945">
        <ele>6.8</ele>
        <time>2013-08-20T19:49:36Z</time>
      </trkpt>
      <trkpt lat="59.320371196797" lon="17.859056921851">
        <ele>7.2</ele>
        <time>2013-08-20T19:49:37Z</time>
      </trkpt>
      <trkpt lat="59.32037681267" lon="17.858958518345">
        <ele>7.6</ele>
        <time>2013-08-20T19:49:38Z</time>
      </trkpt>
      <trkpt lat="59.320379075783" lon="17.858853493138">
        <ele>8.4</ele>
        <time>2013-08-20T19:49:39Z</time>
      </trkpt>
      <trkpt lat="59.320384943113" lon="17.858749054664">
        <ele>8.4</ele>
        <time>2013-08-20T19:49:40Z</time>
      </trkpt>
      <trkpt lat="59.320413944487" lon="17.858243290818">
        <ele>8.4</ele>
        <time>2013-08-20T19:49:45Z</time>
      </trkpt>
      <trkpt lat="59.320457949462" lon="17.857413482718">
        <ele>8.4</ele>
        <time>2013-08-20T19:49:53Z</time>
      </trkpt>
      <trkpt lat="59.320467085733" lon="17.857203348485">
        <ele>8.8</ele>
        <time>2013-08-20T19:49:55Z</time>
      </trkpt>
      <trkpt lat="59.320471276683" lon="17.857101089305">
        <ele>9.2</ele>
        <time>2013-08-20T19:49:56Z</time>
      </trkpt>
      <trkpt lat="59.320474713262" lon="17.85699170551">
        <ele>9.6</ele>
        <time>2013-08-20T19:49:57Z</time>
      </trkpt>
      <trkpt lat="59.320479742402" lon="17.856885674475">
        <ele>10</ele>
        <time>2013-08-20T19:49:58Z</time>
      </trkpt>
      <trkpt lat="59.320484352447" lon="17.856782325648">
        <ele>10.4</ele>
        <time>2013-08-20T19:49:59Z</time>
      </trkpt>
      <trkpt lat="59.320498853134" lon="17.856595157821">
        <ele>10.4</ele>
        <time>2013-08-20T19:50:01Z</time>
      </trkpt>
      <trkpt lat="59.320536823141" lon="17.856079000419">
        <ele>10.4</ele>
        <time>2013-08-20T19:50:06Z</time>
      </trkpt>
      <trkpt lat="59.320563226126" lon="17.8553496913">
        <ele>10.4</ele>
        <time>2013-08-20T19:50:12Z</time>
      </trkpt>
      <trkpt lat="59.320602956332" lon="17.854380156927">
        <ele>10.4</ele>
        <time>2013-08-20T19:50:20Z</time>
      </trkpt>
      <trkpt lat="59.320625922738" lon="17.853936251503">
        <ele>10.4</ele>
        <time>2013-08-20T19:50:23Z</time>
      </trkpt>
      <trkpt lat="59.320646626031" lon="17.853537021606">
        <ele>10.4</ele>
        <time>2013-08-20T19:50:25Z</time>
      </trkpt>
      <trkpt lat="59.320653499189" lon="17.853335688368">
        <ele>9.8</ele>
        <time>2013-08-20T19:50:26Z</time>
      </trkpt>
      <trkpt lat="59.320662216365" lon="17.853134103673">
        <ele>9.4</ele>
        <time>2013-08-20T19:50:27Z</time>
      </trkpt>
      <trkpt lat="59.320671687912" lon="17.852930842598">
        <ele>8.4</ele>
        <time>2013-08-20T19:50:28Z</time>
      </trkpt>
      <trkpt lat="59.320683171115" lon="17.852730096093">
        <ele>7.8</ele>
        <time>2013-08-20T19:50:29Z</time>
      </trkpt>
      <trkpt lat="59.320696414517" lon="17.852529517226">
        <ele>7.4</ele>
        <time>2013-08-20T19:50:30Z</time>
      </trkpt>
      <trkpt lat="59.320704880236" lon="17.85231963445">
        <ele>6.8</ele>
        <time>2013-08-20T19:50:31Z</time>
      </trkpt>
      <trkpt lat="59.32071460324" lon="17.852098100833">
        <ele>6.4</ele>
        <time>2013-08-20T19:50:32Z</time>
      </trkpt>
      <trkpt lat="59.320726170262" lon="17.851880003795">
        <ele>5.8</ele>
        <time>2013-08-20T19:50:33Z</time>
      </trkpt>
      <trkpt lat="59.320744023709" lon="17.851423022607">
        <ele>5.4</ele>
        <time>2013-08-20T19:50:35Z</time>
      </trkpt>
      <trkpt lat="59.320753495256" lon="17.851185395742">
        <ele>4.8</ele>
        <time>2013-08-20T19:50:36Z</time>
      </trkpt>
      <trkpt lat="59.320761793337" lon="17.850947182144">
        <ele>4.4</ele>
        <time>2013-08-20T19:50:37Z</time>
      </trkpt>
      <trkpt lat="59.32076657102" lon="17.850705699605">
        <ele>3.8</ele>
        <time>2013-08-20T19:50:38Z</time>
      </trkpt>
      <trkpt lat="59.320776545481" lon="17.850460361392">
        <ele>3.2</ele>
        <time>2013-08-20T19:50:39Z</time>
      </trkpt>
      <trkpt lat="59.32078920215" lon="17.850200019578">
        <ele>2.6</ele>
        <time>2013-08-20T19:50:40Z</time>
      </trkpt>
      <trkpt lat="59.320795320937" lon="17.849944790723">
        <ele>1.8</ele>
        <time>2013-08-20T19:50:41Z</time>
      </trkpt>
      <trkpt lat="59.32080261319" lon="17.84969861432">
        <ele>1</ele>
        <time>2013-08-20T19:50:42Z</time>
      </trkpt>
      <trkpt lat="59.320811581823" lon="17.849455958315">
        <ele>0.2</ele>
        <time>2013-08-20T19:50:43Z</time>
      </trkpt>
      <trkpt lat="59.320821137189" lon="17.849217660898">
        <ele>0</ele>
        <time>2013-08-20T19:50:44Z</time>
      </trkpt>
      <trkpt lat="59.320829686727" lon="17.848981375137">
        <ele>0</ele>
        <time>2013-08-20T19:50:45Z</time>
      </trkpt>
      <trkpt lat="59.320877044462" lon="17.847795839201">
        <ele>0</ele>
        <time>2013-08-20T19:50:50Z</time>
      </trkpt>
      <trkpt lat="59.320895065547" lon="17.847495348086">
        <ele>0</ele>
        <time>2013-08-20T19:50:52Z</time>
      </trkpt>
      <trkpt lat="59.320902525438" lon="17.847367356473">
        <ele>0</ele>
        <time>2013-08-20T19:50:53Z</time>
      </trkpt>
      <trkpt lat="59.320907722216" lon="17.847243891086">
        <ele>0</ele>
        <time>2013-08-20T19:50:54Z</time>
      </trkpt>
      <trkpt lat="59.320912583718" lon="17.847127298857">
        <ele>0.4</ele>
        <time>2013-08-20T19:50:55Z</time>
      </trkpt>
      <trkpt lat="59.320918199591" lon="17.847014227026">
        <ele>1</ele>
        <time>2013-08-20T19:50:56Z</time>
      </trkpt>
      <trkpt lat="59.320922725817" lon="17.846909872371">
        <ele>1.6</ele>
        <time>2013-08-20T19:50:57Z</time>
      </trkpt>
      <trkpt lat="59.320938567608" lon="17.84669705593">
        <ele>1.6</ele>
        <time>2013-08-20T19:50:59Z</time>
      </trkpt>
      <trkpt lat="59.320981650574" lon="17.845798683888">
        <ele>1.6</ele>
        <time>2013-08-20T19:51:07Z</time>
      </trkpt>
      <trkpt lat="59.321037138752" lon="17.844744240868">
        <ele>1.6</ele>
        <time>2013-08-20T19:51:16Z</time>
      </trkpt>
      <trkpt lat="59.321040491512" lon="17.844633599788">
        <ele>1.6</ele>
        <time>2013-08-20T19:51:17Z</time>
      </trkpt>
      <trkpt lat="59.32107753951" lon="17.843727097303">
        <ele>1.6</ele>
        <time>2013-08-20T19:51:25Z</time>
      </trkpt>
      <trkpt lat="59.321126657444" lon="17.842708444996">
        <ele>1.6</ele>
        <time>2013-08-20T19:51:34Z</time>
      </trkpt>
      <trkpt lat="59.321152473696" lon="17.842065637085">
        <ele>1.6</ele>
        <time>2013-08-20T19:51:40Z</time>
      </trkpt>
      <trkpt lat="59.321165968555" lon="17.841741006098">
        <ele>1.6</ele>
        <time>2013-08-20T19:51:43Z</time>
      </trkpt>
      <trkpt lat="59.321171752066" lon="17.841631370846">
        <ele>2.2</ele>
        <time>2013-08-20T19:51:44Z</time>
      </trkpt>
      <trkpt lat="59.321183570545" lon="17.841520645947">
        <ele>2.6</ele>
        <time>2013-08-20T19:51:45Z</time>
      </trkpt>
      <trkpt lat="59.321203435648" lon="17.841413776722">
        <ele>3</ele>
        <time>2013-08-20T19:51:46Z</time>
      </trkpt>
      <trkpt lat="59.321234197221" lon="17.841314535026">
        <ele>3.4</ele>
        <time>2013-08-20T19:51:47Z</time>
      </trkpt>
      <trkpt lat="59.321271077581" lon="17.841224681058">
        <ele>4</ele>
        <time>2013-08-20T19:51:48Z</time>
      </trkpt>
      <trkpt lat="59.321360260997" lon="17.841077662532">
        <ele>4</ele>
        <time>2013-08-20T19:51:50Z</time>
      </trkpt>
      <trkpt lat="59.32154860229" lon="17.840844897169">
        <ele>4</ele>
        <time>2013-08-20T19:51:54Z</time>
      </trkpt>
      <trkpt lat="59.32165505242" lon="17.840749762604">
        <ele>4</ele>
        <time>2013-08-20T19:51:56Z</time>
      </trkpt>
      <trkpt lat="59.321759742351" lon="17.840683377956">
        <ele>4</ele>
        <time>2013-08-20T19:51:58Z</time>
      </trkpt>
      <trkpt lat="59.321865941024" lon="17.840661333559">
        <ele>4</ele>
        <time>2013-08-20T19:52:00Z</time>
      </trkpt>
      <trkpt lat="59.321923440858" lon="17.840664770138">
        <ele>4</ele>
        <time>2013-08-20T19:52:01Z</time>
      </trkpt>
      <trkpt lat="59.322278581961" lon="17.840737776487">
        <ele>4</ele>
        <time>2013-08-20T19:52:07Z</time>
      </trkpt>
      <trkpt lat="59.322339434555" lon="17.840746577482">
        <ele>4</ele>
        <time>2013-08-20T19:52:08Z</time>
      </trkpt>
      <trkpt lat="59.322902362959" lon="17.840845986816">
        <ele>4</ele>
        <time>2013-08-20T19:52:17Z</time>
      </trkpt>
      <trkpt lat="59.323265885962" lon="17.840905414487">
        <ele>4.4</ele>
        <time>2013-08-20T19:52:23Z</time>
      </trkpt>
      <trkpt lat="59.323326487099" lon="17.840913712568">
        <ele>4.8</ele>
        <time>2013-08-20T19:52:24Z</time>
      </trkpt>
      <trkpt lat="59.323386082408" lon="17.84092611778">
        <ele>5.2</ele>
        <time>2013-08-20T19:52:25Z</time>
      </trkpt>
      <trkpt lat="59.323445677717" lon="17.840935840784">
        <ele>5.6</ele>
        <time>2013-08-20T19:52:26Z</time>
      </trkpt>
      <trkpt lat="59.323503093732" lon="17.840945899064">
        <ele>6</ele>
        <time>2013-08-20T19:52:27Z</time>
      </trkpt>
      <trkpt lat="59.323842476863" lon="17.841001303423">
        <ele>6</ele>
        <time>2013-08-20T19:52:33Z</time>
      </trkpt>
      <trkpt lat="59.323904586742" lon="17.841013373359">
        <ele>6.4</ele>
        <time>2013-08-20T19:52:34Z</time>
      </trkpt>
      <trkpt lat="59.323967786268" lon="17.841024018372">
        <ele>6.8</ele>
        <time>2013-08-20T19:52:35Z</time>
      </trkpt>
      <trkpt lat="59.324033584183" lon="17.841037177955">
        <ele>7.2</ele>
        <time>2013-08-20T19:52:36Z</time>
      </trkpt>
      <trkpt lat="59.324097873356" lon="17.841046146588">
        <ele>7.6</ele>
        <time>2013-08-20T19:52:37Z</time>
      </trkpt>
      <trkpt lat="59.324162665443" lon="17.841056623963">
        <ele>8</ele>
        <time>2013-08-20T19:52:38Z</time>
      </trkpt>
      <trkpt lat="59.324225697331" lon="17.841066263148">
        <ele>8</ele>
        <time>2013-08-20T19:52:39Z</time>
      </trkpt>
      <trkpt lat="59.32470941678" lon="17.841151255614">
        <ele>8</ele>
        <time>2013-08-20T19:52:47Z</time>
      </trkpt>
      <trkpt lat="59.324826176647" lon="17.841165169568">
        <ele>8</ele>
        <time>2013-08-20T19:52:49Z</time>
      </trkpt>
      <trkpt lat="59.324964477997" lon="17.841183609748">
        <ele>8</ele>
        <time>2013-08-20T19:52:51Z</time>
      </trkpt>
      <trkpt lat="59.325207636916" lon="17.841225519248">
        <ele>8</ele>
        <time>2013-08-20T19:52:54Z</time>
      </trkpt>
      <trkpt lat="59.325386590481" lon="17.841248150378">
        <ele>8</ele>
        <time>2013-08-20T19:52:56Z</time>
      </trkpt>
      <trkpt lat="59.325563951485" lon="17.841283689634">
        <ele>8</ele>
        <time>2013-08-20T19:52:58Z</time>
      </trkpt>
      <trkpt lat="59.32610165037" lon="17.841363066227">
        <ele>8</ele>
        <time>2013-08-20T19:53:04Z</time>
      </trkpt>
      <trkpt lat="59.32628856674" lon="17.841391816144">
        <ele>8</ele>
        <time>2013-08-20T19:53:06Z</time>
      </trkpt>
      <trkpt lat="59.326633146649" lon="17.841439760612">
        <ele>8.4</ele>
        <time>2013-08-20T19:53:10Z</time>
      </trkpt>
      <trkpt lat="59.326711265957" lon="17.84145501567">
        <ele>9</ele>
        <time>2013-08-20T19:53:11Z</time>
      </trkpt>
      <trkpt lat="59.326785697229" lon="17.841468678167">
        <ele>9.4</ele>
        <time>2013-08-20T19:53:12Z</time>
      </trkpt>
      <trkpt lat="59.326865325279" lon="17.841483095035">
        <ele>9.8</ele>
        <time>2013-08-20T19:53:13Z</time>
      </trkpt>
      <trkpt lat="59.326946629709" lon="17.841501451396">
        <ele>10.4</ele>
        <time>2013-08-20T19:53:14Z</time>
      </trkpt>
      <trkpt lat="59.327041009903" lon="17.841515113893">
        <ele>11</ele>
        <time>2013-08-20T19:53:15Z</time>
      </trkpt>
      <trkpt lat="59.327132540251" lon="17.841526010363">
        <ele>11.6</ele>
        <time>2013-08-20T19:53:16Z</time>
      </trkpt>
      <trkpt lat="59.327226249893" lon="17.841536655376">
        <ele>12.2</ele>
        <time>2013-08-20T19:53:17Z</time>
      </trkpt>
      <trkpt lat="59.32759781952" lon="17.841616283426">
        <ele>12.2</ele>
        <time>2013-08-20T19:53:21Z</time>
      </trkpt>
      <trkpt lat="59.32768080033" lon="17.841687781033">
        <ele>12.2</ele>
        <time>2013-08-20T19:53:22Z</time>
      </trkpt>
      <trkpt lat="59.327860843542" lon="17.842007885794">
        <ele>12.6</ele>
        <time>2013-08-20T19:53:25Z</time>
      </trkpt>
      <trkpt lat="59.32790627344" lon="17.842108133318">
        <ele>13</ele>
        <time>2013-08-20T19:53:26Z</time>
      </trkpt>
      <trkpt lat="59.327943405257" lon="17.842202262055">
        <ele>13.6</ele>
        <time>2013-08-20T19:53:27Z</time>
      </trkpt>
      <trkpt lat="59.327979950341" lon="17.842287589797">
        <ele>14</ele>
        <time>2013-08-20T19:53:28Z</time>
      </trkpt>
      <trkpt lat="59.328011550104" lon="17.842363278354">
        <ele>14.6</ele>
        <time>2013-08-20T19:53:29Z</time>
      </trkpt>
      <trkpt lat="59.328047173179" lon="17.84243402159">
        <ele>15.2</ele>
        <time>2013-08-20T19:53:30Z</time>
      </trkpt>
      <trkpt lat="59.328086065195" lon="17.842505686835">
        <ele>15.8</ele>
        <time>2013-08-20T19:53:31Z</time>
      </trkpt>
      <trkpt lat="59.328125963039" lon="17.842574250777">
        <ele>16.4</ele>
        <time>2013-08-20T19:53:32Z</time>
      </trkpt>
      <trkpt lat="59.328164016865" lon="17.84262764348">
        <ele>17</ele>
        <time>2013-08-20T19:53:33Z</time>
      </trkpt>
      <trkpt lat="59.328203244157" lon="17.842675923224">
        <ele>17</ele>
        <time>2013-08-20T19:53:34Z</time>
      </trkpt>
      <trkpt lat="59.328320423119" lon="17.842764771364">
        <ele>17</ele>
        <time>2013-08-20T19:53:37Z</time>
      </trkpt>
      <trkpt lat="59.328401895187" lon="17.842791509625">
        <ele>17</ele>
        <time>2013-08-20T19:53:39Z</time>
      </trkpt>
      <trkpt lat="59.328778996868" lon="17.842780696974">
        <ele>17</ele>
        <time>2013-08-20T19:53:47Z</time>
      </trkpt>
      <trkpt lat="59.328905815015" lon="17.842773823816">
        <ele>17.4</ele>
        <time>2013-08-20T19:53:50Z</time>
      </trkpt>
      <trkpt lat="59.328947556877" lon="17.842770722513">
        <ele>17.8</ele>
        <time>2013-08-20T19:53:51Z</time>
      </trkpt>
      <trkpt lat="59.328986951807" lon="17.842772985626">
        <ele>18.4</ele>
        <time>2013-08-20T19:53:52Z</time>
      </trkpt>
      <trkpt lat="59.329026430556" lon="17.842773237083">
        <ele>18.8</ele>
        <time>2013-08-20T19:53:53Z</time>
      </trkpt>
      <trkpt lat="59.329069848798" lon="17.842769968142">
        <ele>19.2</ele>
        <time>2013-08-20T19:53:54Z</time>
      </trkpt>
      <trkpt lat="59.329168839037" lon="17.842766615382">
        <ele>19.2</ele>
        <time>2013-08-20T19:53:56Z</time>
      </trkpt>
      <trkpt lat="59.32927922866" lon="17.842752114695">
        <ele>19.2</ele>
        <time>2013-08-20T19:53:58Z</time>
      </trkpt>
      <trkpt lat="59.329631687555" lon="17.84272990266">
        <ele>19.2</ele>
        <time>2013-08-20T19:54:04Z</time>
      </trkpt>
      <trkpt lat="59.329863111814" lon="17.842870299485">
        <ele>19.2</ele>
        <time>2013-08-20T19:54:08Z</time>
      </trkpt>
      <trkpt lat="59.329916504517" lon="17.842912125166">
        <ele>19.2</ele>
        <time>2013-08-20T19:54:09Z</time>
      </trkpt>
      <trkpt lat="59.33012580056" lon="17.843102142839">
        <ele>19.2</ele>
        <time>2013-08-20T19:54:13Z</time>
      </trkpt>
      <trkpt lat="59.330259324227" lon="17.843265254613">
        <ele>19.8</ele>
        <time>2013-08-20T19:54:16Z</time>
      </trkpt>
      <trkpt lat="59.330303077745" lon="17.843317641488">
        <ele>20.2</ele>
        <time>2013-08-20T19:54:17Z</time>
      </trkpt>
      <trkpt lat="59.330348591462" lon="17.84336189792">
        <ele>20.6</ele>
        <time>2013-08-20T19:54:18Z</time>
      </trkpt>
      <trkpt lat="59.330392680256" lon="17.843412692234">
        <ele>21</ele>
        <time>2013-08-20T19:54:19Z</time>
      </trkpt>
      <trkpt lat="59.330437271964" lon="17.84346164253">
        <ele>21.6</ele>
        <time>2013-08-20T19:54:20Z</time>
      </trkpt>
      <trkpt lat="59.330479935835" lon="17.843522495124">
        <ele>21.6</ele>
        <time>2013-08-20T19:54:21Z</time>
      </trkpt>
      <trkpt lat="59.33056920307" lon="17.843628609978">
        <ele>21.6</ele>
        <time>2013-08-20T19:54:23Z</time>
      </trkpt>
      <trkpt lat="59.330646232731" lon="17.843751823908">
        <ele>21.6</ele>
        <time>2013-08-20T19:54:25Z</time>
      </trkpt>
      <trkpt lat="59.330777409466" lon="17.844060277828">
        <ele>21.6</ele>
        <time>2013-08-20T19:54:29Z</time>
      </trkpt>
      <trkpt lat="59.330984274758" lon="17.844668217035">
        <ele>21.6</ele>
        <time>2013-08-20T19:54:35Z</time>
      </trkpt>
      <trkpt lat="59.331039846755" lon="17.844930319048">
        <ele>21.6</ele>
        <time>2013-08-20T19:54:37Z</time>
      </trkpt>
      <trkpt lat="59.331062980799" lon="17.845047330372">
        <ele>21.2</ele>
        <time>2013-08-20T19:54:38Z</time>
      </trkpt>
      <trkpt lat="59.331083181178" lon="17.845156127434">
        <ele>20.8</ele>
        <time>2013-08-20T19:54:39Z</time>
      </trkpt>
      <trkpt lat="59.331099861159" lon="17.845262158469">
        <ele>20.4</ele>
        <time>2013-08-20T19:54:40Z</time>
      </trkpt>
      <trkpt lat="59.331116122045" lon="17.845368105685">
        <ele>20</ele>
        <time>2013-08-20T19:54:41Z</time>
      </trkpt>
      <trkpt lat="59.331124252488" lon="17.845472125064">
        <ele>19.4</ele>
        <time>2013-08-20T19:54:42Z</time>
      </trkpt>
      <trkpt lat="59.331166245807" lon="17.845789631436">
        <ele>19.4</ele>
        <time>2013-08-20T19:54:45Z</time>
      </trkpt>
      <trkpt lat="59.331236234672" lon="17.846212246834">
        <ele>19.4</ele>
        <time>2013-08-20T19:54:49Z</time>
      </trkpt>
      <trkpt lat="59.33130513389" lon="17.846515587795">
        <ele>19.4</ele>
        <time>2013-08-20T19:54:52Z</time>
      </trkpt>
      <trkpt lat="59.331340170232" lon="17.846828400303">
        <ele>19.4</ele>
        <time>2013-08-20T19:54:55Z</time>
      </trkpt>
      <trkpt lat="59.331334302902" lon="17.846947758559">
        <ele>19.4</ele>
        <time>2013-08-20T19:54:56Z</time>
      </trkpt>
      <trkpt lat="59.331258362888" lon="17.847360315677">
        <ele>19.4</ele>
        <time>2013-08-20T19:55:00Z</time>
      </trkpt>
      <trkpt lat="59.331114361846" lon="17.847886112264">
        <ele>19.4</ele>
        <time>2013-08-20T19:55:05Z</time>
      </trkpt>
      <trkpt lat="59.331067507025" lon="17.848365640763">
        <ele>19.4</ele>
        <time>2013-08-20T19:55:09Z</time>
      </trkpt>
      <trkpt lat="59.331064908636" lon="17.848489441426">
        <ele>19.4</ele>
        <time>2013-08-20T19:55:10Z</time>
      </trkpt>
      <trkpt lat="59.331075302192" lon="17.848809965282">
        <ele>19.4</ele>
        <time>2013-08-20T19:55:13Z</time>
      </trkpt>
      <trkpt lat="59.33108385173" lon="17.848938543628">
        <ele>19.4</ele>
        <time>2013-08-20T19:55:14Z</time>
      </trkpt>
      <trkpt lat="59.331146045428" lon="17.849314639481">
        <ele>19.4</ele>
        <time>2013-08-20T19:55:17Z</time>
      </trkpt>
      <trkpt lat="59.331170939671" lon="17.849475236685">
        <ele>19.4</ele>
        <time>2013-08-20T19:55:18Z</time>
      </trkpt>
      <trkpt lat="59.331195498638" lon="17.849668271842">
        <ele>19</ele>
        <time>2013-08-20T19:55:19Z</time>
      </trkpt>
      <trkpt lat="59.331220811976" lon="17.849883938129">
        <ele>18.6</ele>
        <time>2013-08-20T19:55:20Z</time>
      </trkpt>
      <trkpt lat="59.331246628228" lon="17.850126845591">
        <ele>18</ele>
        <time>2013-08-20T19:55:21Z</time>
      </trkpt>
      <trkpt lat="59.331270516643" lon="17.850361790248">
        <ele>17.2</ele>
        <time>2013-08-20T19:55:22Z</time>
      </trkpt>
      <trkpt lat="59.331297003447" lon="17.850596734905">
        <ele>16.2</ele>
        <time>2013-08-20T19:55:23Z</time>
      </trkpt>
      <trkpt lat="59.331322819699" lon="17.850830087001">
        <ele>14.4</ele>
        <time>2013-08-20T19:55:24Z</time>
      </trkpt>
      <trkpt lat="59.331350144693" lon="17.851061008346">
        <ele>13.4</ele>
        <time>2013-08-20T19:55:25Z</time>
      </trkpt>
      <trkpt lat="59.331380235714" lon="17.851286816732">
        <ele>12.6</ele>
        <time>2013-08-20T19:55:26Z</time>
      </trkpt>
      <trkpt lat="59.331438909014" lon="17.851746480128">
        <ele>12.6</ele>
        <time>2013-08-20T19:55:28Z</time>
      </trkpt>
      <trkpt lat="59.33159933858" lon="17.852984151482">
        <ele>12.6</ele>
        <time>2013-08-20T19:55:33Z</time>
      </trkpt>
      <trkpt lat="59.331664885038" lon="17.853482371618">
        <ele>12.2</ele>
        <time>2013-08-20T19:55:35Z</time>
      </trkpt>
      <trkpt lat="59.331694976059" lon="17.853732403695">
        <ele>11.6</ele>
        <time>2013-08-20T19:55:36Z</time>
      </trkpt>
      <trkpt lat="59.331722636329" lon="17.85399349988">
        <ele>11.2</ele>
        <time>2013-08-20T19:55:37Z</time>
      </trkpt>
      <trkpt lat="59.331746189468" lon="17.854248812554">
        <ele>10.8</ele>
        <time>2013-08-20T19:55:38Z</time>
      </trkpt>
      <trkpt lat="59.331761863621" lon="17.854503454676">
        <ele>10.4</ele>
        <time>2013-08-20T19:55:39Z</time>
      </trkpt>
      <trkpt lat="59.331761025431" lon="17.854759018807">
        <ele>10.4</ele>
        <time>2013-08-20T19:55:40Z</time>
      </trkpt>
      <trkpt lat="59.331693383498" lon="17.855496793645">
        <ele>10.4</ele>
        <time>2013-08-20T19:55:43Z</time>
      </trkpt>
      <trkpt lat="59.331660023536" lon="17.855687314232">
        <ele>10.4</ele>
        <time>2013-08-20T19:55:44Z</time>
      </trkpt>
      <trkpt lat="59.331633536732" lon="17.855849336359">
        <ele>10.8</ele>
        <time>2013-08-20T19:55:45Z</time>
      </trkpt>
      <trkpt lat="59.331615096552" lon="17.856006916079">
        <ele>11.2</ele>
        <time>2013-08-20T19:55:46Z</time>
      </trkpt>
      <trkpt lat="59.331595818182" lon="17.856167345645">
        <ele>11.8</ele>
        <time>2013-08-20T19:55:47Z</time>
      </trkpt>
      <trkpt lat="59.331577210364" lon="17.856324338632">
        <ele>12.2</ele>
        <time>2013-08-20T19:55:48Z</time>
      </trkpt>
      <trkpt lat="59.331559273098" lon="17.856482169809">
        <ele>12.6</ele>
        <time>2013-08-20T19:55:49Z</time>
      </trkpt>
      <trkpt lat="59.331525074946" lon="17.856790623729">
        <ele>12.6</ele>
        <time>2013-08-20T19:55:51Z</time>
      </trkpt>
      <trkpt lat="59.33143086239" lon="17.857633256136">
        <ele>12.6</ele>
        <time>2013-08-20T19:55:57Z</time>
      </trkpt>
      <trkpt lat="59.331340170232" lon="17.858492400886">
        <ele>12.6</ele>
        <time>2013-08-20T19:56:04Z</time>
      </trkpt>
      <trkpt lat="59.331267834435" lon="17.858970420643">
        <ele>12.2</ele>
        <time>2013-08-20T19:56:08Z</time>
      </trkpt>
      <trkpt lat="59.331252495558" lon="17.859085336492">
        <ele>11.8</ele>
        <time>2013-08-20T19:56:09Z</time>
      </trkpt>
      <trkpt lat="59.331239168337" lon="17.859200419979">
        <ele>11.4</ele>
        <time>2013-08-20T19:56:10Z</time>
      </trkpt>
      <trkpt lat="59.331229110057" lon="17.859321538434">
        <ele>11</ele>
        <time>2013-08-20T19:56:11Z</time>
      </trkpt>
      <trkpt lat="59.33121796213" lon="17.859438717396">
        <ele>10.4</ele>
        <time>2013-08-20T19:56:12Z</time>
      </trkpt>
      <trkpt lat="59.331156690441" lon="17.859882790458">
        <ele>10.4</ele>
        <time>2013-08-20T19:56:16Z</time>
      </trkpt>
      <trkpt lat="59.331145793971" lon="17.859995275556">
        <ele>10.4</ele>
        <time>2013-08-20T19:56:17Z</time>
      </trkpt>
      <trkpt lat="59.331081253341" lon="17.860585780411">
        <ele>10.4</ele>
        <time>2013-08-20T19:56:22Z</time>
      </trkpt>
      <trkpt lat="59.330994333038" lon="17.861363033998">
        <ele>10</ele>
        <time>2013-08-20T19:56:28Z</time>
      </trkpt>
      <trkpt lat="59.330978155971" lon="17.861529079437">
        <ele>9.6</ele>
        <time>2013-08-20T19:56:29Z</time>
      </trkpt>
      <trkpt lat="59.330960051067" lon="17.861690095736">
        <ele>9.2</ele>
        <time>2013-08-20T19:56:30Z</time>
      </trkpt>
      <trkpt lat="59.330942868172" lon="17.861881538332">
        <ele>8.8</ele>
        <time>2013-08-20T19:56:31Z</time>
      </trkpt>
      <trkpt lat="59.330924930906" lon="17.862074154394">
        <ele>8.4</ele>
        <time>2013-08-20T19:56:32Z</time>
      </trkpt>
      <trkpt lat="59.330905233441" lon="17.862290994147">
        <ele>8.4</ele>
        <time>2013-08-20T19:56:33Z</time>
      </trkpt>
      <trkpt lat="59.330791491058" lon="17.863277208501">
        <ele>7.8</ele>
        <time>2013-08-20T19:56:37Z</time>
      </trkpt>
      <trkpt lat="59.330758801648" lon="17.863533191727">
        <ele>6.6</ele>
        <time>2013-08-20T19:56:38Z</time>
      </trkpt>
      <trkpt lat="59.330728878265" lon="17.863784816365">
        <ele>6</ele>
        <time>2013-08-20T19:56:39Z</time>
      </trkpt>
      <trkpt lat="59.330692417" lon="17.86403585427">
        <ele>5.4</ele>
        <time>2013-08-20T19:56:40Z</time>
      </trkpt>
      <trkpt lat="59.330630642397" lon="17.864537175709">
        <ele>5.4</ele>
        <time>2013-08-20T19:56:42Z</time>
      </trkpt>
      <trkpt lat="59.330501896413" lon="17.865774344149">
        <ele>5.4</ele>
        <time>2013-08-20T19:56:47Z</time>
      </trkpt>
      <trkpt lat="59.330460070732" lon="17.866268038059">
        <ele>5.4</ele>
        <time>2013-08-20T19:56:49Z</time>
      </trkpt>
      <trkpt lat="59.330349513471" lon="17.867524065774">
        <ele>5.4</ele>
        <time>2013-08-20T19:56:54Z</time>
      </trkpt>
      <trkpt lat="59.330305676134" lon="17.868000828246">
        <ele>5.4</ele>
        <time>2013-08-20T19:56:56Z</time>
      </trkpt>
      <trkpt lat="59.33017693015" lon="17.869149064727">
        <ele>5.4</ele>
        <time>2013-08-20T19:57:01Z</time>
      </trkpt>
      <trkpt lat="59.330141474713" lon="17.869365401566">
        <ele>5.4</ele>
        <time>2013-08-20T19:57:02Z</time>
      </trkpt>
      <trkpt lat="59.330090093666" lon="17.869566315709">
        <ele>5.4</ele>
        <time>2013-08-20T19:57:03Z</time>
      </trkpt>
      <trkpt lat="59.32996067713" lon="17.869933023834">
        <ele>5.4</ele>
        <time>2013-08-20T19:57:05Z</time>
      </trkpt>
      <trkpt lat="59.329714500727" lon="17.870389418289">
        <ele>5.4</ele>
        <time>2013-08-20T19:57:08Z</time>
      </trkpt>
      <trkpt lat="59.329305547826" lon="17.871093833165">
        <ele>5.4</ele>
        <time>2013-08-20T19:57:13Z</time>
      </trkpt>
      <trkpt lat="59.328864492248" lon="17.871976614873">
        <ele>5.4</ele>
        <time>2013-08-20T19:57:19Z</time>
      </trkpt>
      <trkpt lat="59.328556205966" lon="17.872979593027">
        <ele>5.4</ele>
        <time>2013-08-20T19:57:25Z</time>
      </trkpt>
      <trkpt lat="59.328273316841" lon="17.873975027471">
        <ele>5.4</ele>
        <time>2013-08-20T19:57:31Z</time>
      </trkpt>
      <trkpt lat="59.32822310926" lon="17.874143503661">
        <ele>5</ele>
        <time>2013-08-20T19:57:32Z</time>
      </trkpt>
      <trkpt lat="59.328173823688" lon="17.874318098638">
        <ele>4.6</ele>
        <time>2013-08-20T19:57:33Z</time>
      </trkpt>
      <trkpt lat="59.328123448469" lon="17.874496549289">
        <ele>4.2</ele>
        <time>2013-08-20T19:57:34Z</time>
      </trkpt>
      <trkpt lat="59.328073324707" lon="17.874674413207">
        <ele>3.6</ele>
        <time>2013-08-20T19:57:35Z</time>
      </trkpt>
      <trkpt lat="59.328023871497" lon="17.874848924365">
        <ele>3.2</ele>
        <time>2013-08-20T19:57:36Z</time>
      </trkpt>
      <trkpt lat="59.327923456335" lon="17.875201047984">
        <ele>2.8</ele>
        <time>2013-08-20T19:57:38Z</time>
      </trkpt>
      <trkpt lat="59.327874925134" lon="17.875366087595">
        <ele>2.4</ele>
        <time>2013-08-20T19:57:39Z</time>
      </trkpt>
      <trkpt lat="59.327826058657" lon="17.875524589324">
        <ele>2</ele>
        <time>2013-08-20T19:57:40Z</time>
      </trkpt>
      <trkpt lat="59.327778952379" lon="17.875681749949">
        <ele>1.4</ele>
        <time>2013-08-20T19:57:41Z</time>
      </trkpt>
      <trkpt lat="59.327732935748" lon="17.875834971081">
        <ele>1</ele>
        <time>2013-08-20T19:57:42Z</time>
      </trkpt>
      <trkpt lat="59.327601256099" lon="17.876314834856">
        <ele>1</ele>
        <time>2013-08-20T19:57:45Z</time>
      </trkpt>
      <trkpt lat="59.327339321724" lon="17.877203483894">
        <ele>1</ele>
        <time>2013-08-20T19:57:51Z</time>
      </trkpt>
      <trkpt lat="59.327152656811" lon="17.87758603381">
        <ele>1</ele>
        <time>2013-08-20T19:57:55Z</time>
      </trkpt>
      <trkpt lat="59.326953083772" lon="17.877807148332">
        <ele>1</ele>
        <time>2013-08-20T19:57:59Z</time>
      </trkpt>
      <trkpt lat="59.326905893675" lon="17.877843944873">
        <ele>1</ele>
        <time>2013-08-20T19:58:00Z</time>
      </trkpt>
      <trkpt lat="59.326813776594" lon="17.877909072236">
        <ele>1</ele>
        <time>2013-08-20T19:58:02Z</time>
      </trkpt>
      <trkpt lat="59.326773124379" lon="17.877930948995">
        <ele>0.6</ele>
        <time>2013-08-20T19:58:03Z</time>
      </trkpt>
      <trkpt lat="59.326733897087" lon="17.877951736107">
        <ele>0.2</ele>
        <time>2013-08-20T19:58:04Z</time>
      </trkpt>
      <trkpt lat="59.326695005071" lon="17.877968751364">
        <ele>0</ele>
        <time>2013-08-20T19:58:05Z</time>
      </trkpt>
      <trkpt lat="59.326662734756" lon="17.877983671146">
        <ele>0</ele>
        <time>2013-08-20T19:58:06Z</time>
      </trkpt>
      <trkpt lat="59.326637002323" lon="17.877989957571">
        <ele>0</ele>
        <time>2013-08-20T19:58:07Z</time>
      </trkpt>
      <trkpt lat="59.32658612419" lon="17.878018707488">
        <ele>0</ele>
        <time>2013-08-20T19:58:09Z</time>
      </trkpt>
      <trkpt lat="59.326514458945" lon="17.878043014998">
        <ele>0</ele>
        <time>2013-08-20T19:58:14Z</time>
      </trkpt>
      <trkpt lat="59.326487301589" lon="17.878037734401">
        <ele>0</ele>
        <time>2013-08-20T19:58:18Z</time>
      </trkpt>
      <trkpt lat="59.326487804503" lon="17.878038237315">
        <ele>0</ele>
        <time>2013-08-20T19:58:20Z</time>
      </trkpt>
      <trkpt lat="59.326399459277" lon="17.878263458968">
        <ele>0</ele>
        <time>2013-08-20T20:05:46Z</time>
      </trkpt>
      <trkpt lat="59.326409685195" lon="17.878395641531">
        <ele>0</ele>
        <time>2013-08-20T20:05:48Z</time>
      </trkpt>
      <trkpt lat="59.326413708507" lon="17.878456997039">
        <ele>0</ele>
        <time>2013-08-20T20:05:49Z</time>
      </trkpt>
      <trkpt lat="59.326418150914" lon="17.878789507012">
        <ele>0</ele>
        <time>2013-08-20T20:05:53Z</time>
      </trkpt>
      <trkpt lat="59.326427371004" lon="17.878899812816">
        <ele>0</ele>
        <time>2013-08-20T20:05:54Z</time>
      </trkpt>
      <trkpt lat="59.3264595575" lon="17.879210697487">
        <ele>0</ele>
        <time>2013-08-20T20:05:57Z</time>
      </trkpt>
      <trkpt lat="59.326463999907" lon="17.879323182585">
        <ele>0</ele>
        <time>2013-08-20T20:05:58Z</time>
      </trkpt>
      <trkpt lat="59.326474728739" lon="17.879442540841">
        <ele>0</ele>
        <time>2013-08-20T20:05:59Z</time>
      </trkpt>
      <trkpt lat="59.326476572757" lon="17.879564497486">
        <ele>0</ele>
        <time>2013-08-20T20:06:00Z</time>
      </trkpt>
      <trkpt lat="59.326475315472" lon="17.879688381968">
        <ele>0</ele>
        <time>2013-08-20T20:06:01Z</time>
      </trkpt>
      <trkpt lat="59.326476991852" lon="17.879805141835">
        <ele>0</ele>
        <time>2013-08-20T20:06:02Z</time>
      </trkpt>
      <trkpt lat="59.326442709881" lon="17.880493128187">
        <ele>0</ele>
        <time>2013-08-20T20:06:08Z</time>
      </trkpt>
      <trkpt lat="59.326356795406" lon="17.881059576989">
        <ele>0</ele>
        <time>2013-08-20T20:06:13Z</time>
      </trkpt>
      <trkpt lat="59.326191504338" lon="17.881752424843">
        <ele>0</ele>
        <time>2013-08-20T20:06:19Z</time>
      </trkpt>
      <trkpt lat="59.325978352621" lon="17.882502772531">
        <ele>0</ele>
        <time>2013-08-20T20:06:26Z</time>
      </trkpt>
      <trkpt lat="59.32572697944" lon="17.883381698565">
        <ele>0</ele>
        <time>2013-08-20T20:06:33Z</time>
      </trkpt>
      <trkpt lat="59.3256968046" lon="17.883482449003">
        <ele>0</ele>
        <time>2013-08-20T20:06:36Z</time>
      </trkpt>
      <trkpt lat="59.325666797398" lon="17.883589234409">
        <ele>0</ele>
        <time>2013-08-20T20:06:37Z</time>
      </trkpt>
      <trkpt lat="59.325637796024" lon="17.883691325951">
        <ele>0</ele>
        <time>2013-08-20T20:06:38Z</time>
      </trkpt>
      <trkpt lat="59.325621702776" lon="17.883796602615">
        <ele>0</ele>
        <time>2013-08-20T20:06:39Z</time>
      </trkpt>
      <trkpt lat="59.325565460227" lon="17.883983854261">
        <ele>0</ele>
        <time>2013-08-20T20:06:41Z</time>
      </trkpt>
      <trkpt lat="59.325405868851" lon="17.88445080991">
        <ele>0</ele>
        <time>2013-08-20T20:06:46Z</time>
      </trkpt>
      <trkpt lat="59.325313667951" lon="17.884738728175">
        <ele>0</ele>
        <time>2013-08-20T20:06:49Z</time>
      </trkpt>
      <trkpt lat="59.325277625781" lon="17.884816596026">
        <ele>0</ele>
        <time>2013-08-20T20:06:50Z</time>
      </trkpt>
      <trkpt lat="59.325241583611" lon="17.884896978447">
        <ele>0.4</ele>
        <time>2013-08-20T20:06:51Z</time>
      </trkpt>
      <trkpt lat="59.325203362147" lon="17.884983144379">
        <ele>0.8</ele>
        <time>2013-08-20T20:06:52Z</time>
      </trkpt>
      <trkpt lat="59.324907481077" lon="17.885530314811">
        <ele>0.8</ele>
        <time>2013-08-20T20:06:59Z</time>
      </trkpt>
      <trkpt lat="59.32479239759" lon="17.885746819288">
        <ele>0.8</ele>
        <time>2013-08-20T20:07:02Z</time>
      </trkpt>
      <trkpt lat="59.324701621613" lon="17.885995342623">
        <ele>0.8</ele>
        <time>2013-08-20T20:07:05Z</time>
      </trkpt>
      <trkpt lat="59.324585448479" lon="17.886345454586">
        <ele>0.8</ele>
        <time>2013-08-20T20:07:09Z</time>
      </trkpt>
      <trkpt lat="59.324460641988" lon="17.886878794883">
        <ele>0.8</ele>
        <time>2013-08-20T20:07:14Z</time>
      </trkpt>
      <trkpt lat="59.324417391384" lon="17.887099993224">
        <ele>0.8</ele>
        <time>2013-08-20T20:07:16Z</time>
      </trkpt>
      <trkpt lat="59.32427439617" lon="17.8877960262">
        <ele>0.8</ele>
        <time>2013-08-20T20:07:22Z</time>
      </trkpt>
      <trkpt lat="59.324132071508" lon="17.888522653111">
        <ele>0.8</ele>
        <time>2013-08-20T20:07:28Z</time>
      </trkpt>
      <trkpt lat="59.324032075441" lon="17.889033529916">
        <ele>0.4</ele>
        <time>2013-08-20T20:07:32Z</time>
      </trkpt>
      <trkpt lat="59.324016736564" lon="17.889134028897">
        <ele>0</ele>
        <time>2013-08-20T20:07:33Z</time>
      </trkpt>
      <trkpt lat="59.324000475678" lon="17.889217931716">
        <ele>0</ele>
        <time>2013-08-20T20:07:34Z</time>
      </trkpt>
      <trkpt lat="59.323984130973" lon="17.889312144272">
        <ele>0</ele>
        <time>2013-08-20T20:07:35Z</time>
      </trkpt>
      <trkpt lat="59.323968373001" lon="17.889408955217">
        <ele>0</ele>
        <time>2013-08-20T20:07:36Z</time>
      </trkpt>
      <trkpt lat="59.323954878142" lon="17.88949671371">
        <ele>0</ele>
        <time>2013-08-20T20:07:37Z</time>
      </trkpt>
      <trkpt lat="59.323874495721" lon="17.88994011622">
        <ele>0</ele>
        <time>2013-08-20T20:07:41Z</time>
      </trkpt>
      <trkpt lat="59.323849685297" lon="17.890045476703">
        <ele>0</ele>
        <time>2013-08-20T20:07:42Z</time>
      </trkpt>
      <trkpt lat="59.323773242369" lon="17.890367341663">
        <ele>0</ele>
        <time>2013-08-20T20:07:45Z</time>
      </trkpt>
      <trkpt lat="59.323746587927" lon="17.890491561421">
        <ele>0</ele>
        <time>2013-08-20T20:07:46Z</time>
      </trkpt>
      <trkpt lat="59.323723537702" lon="17.890614691532">
        <ele>0</ele>
        <time>2013-08-20T20:07:47Z</time>
      </trkpt>
      <trkpt lat="59.323700822753" lon="17.890753747253">
        <ele>0</ele>
        <time>2013-08-20T20:07:48Z</time>
      </trkpt>
      <trkpt lat="59.323682214935" lon="17.890887606196">
        <ele>0</ele>
        <time>2013-08-20T20:07:49Z</time>
      </trkpt>
      <trkpt lat="59.323640808349" lon="17.891430082764">
        <ele>0</ele>
        <time>2013-08-20T20:07:53Z</time>
      </trkpt>
      <trkpt lat="59.3236767667" lon="17.892198870632">
        <ele>0</ele>
        <time>2013-08-20T20:07:59Z</time>
      </trkpt>
      <trkpt lat="59.323765279564" lon="17.893049130568">
        <ele>0</ele>
        <time>2013-08-20T20:08:06Z</time>
      </trkpt>
      <trkpt lat="59.323867622563" lon="17.893921099625">
        <ele>0</ele>
        <time>2013-08-20T20:08:13Z</time>
      </trkpt>
      <trkpt lat="59.323990165941" lon="17.894912929852">
        <ele>0</ele>
        <time>2013-08-20T20:08:21Z</time>
      </trkpt>
      <trkpt lat="59.324117067907" lon="17.895994530228">
        <ele>0</ele>
        <time>2013-08-20T20:08:30Z</time>
      </trkpt>
      <trkpt lat="59.324274312351" lon="17.896824254509">
        <ele>0</ele>
        <time>2013-08-20T20:08:37Z</time>
      </trkpt>
      <trkpt lat="59.324457373047" lon="17.897534201439">
        <ele>0</ele>
        <time>2013-08-20T20:08:44Z</time>
      </trkpt>
      <trkpt lat="59.324622664115" lon="17.898127807597">
        <ele>0</ele>
        <time>2013-08-20T20:08:50Z</time>
      </trkpt>
      <trkpt lat="59.324844868284" lon="17.898940097526">
        <ele>0</ele>
        <time>2013-08-20T20:08:58Z</time>
      </trkpt>
      <trkpt lat="59.325076627819" lon="17.899804522873">
        <ele>0</ele>
        <time>2013-08-20T20:09:07Z</time>
      </trkpt>
      <trkpt lat="59.325186514528" lon="17.900152287904">
        <ele>0</ele>
        <time>2013-08-20T20:09:11Z</time>
      </trkpt>
      <trkpt lat="59.325268154234" lon="17.900294780204">
        <ele>0</ele>
        <time>2013-08-20T20:09:13Z</time>
      </trkpt>
      <trkpt lat="59.325341998773" lon="17.900475996882">
        <ele>0</ele>
        <time>2013-08-20T20:09:15Z</time>
      </trkpt>
      <trkpt lat="59.325393296001" lon="17.900685125287">
        <ele>0</ele>
        <time>2013-08-20T20:09:17Z</time>
      </trkpt>
      <trkpt lat="59.325416094769" lon="17.900788306476">
        <ele>0</ele>
        <time>2013-08-20T20:09:18Z</time>
      </trkpt>
      <trkpt lat="59.325448867998" lon="17.90110815978">
        <ele>0</ele>
        <time>2013-08-20T20:09:21Z</time>
      </trkpt>
      <trkpt lat="59.325482563236" lon="17.901299099462">
        <ele>0</ele>
        <time>2013-08-20T20:09:23Z</time>
      </trkpt>
      <trkpt lat="59.325543667287" lon="17.90150378546">
        <ele>0</ele>
        <time>2013-08-20T20:09:25Z</time>
      </trkpt>
      <trkpt lat="59.325780036867" lon="17.902384555512">
        <ele>0</ele>
        <time>2013-08-20T20:09:33Z</time>
      </trkpt>
      <trkpt lat="59.325985477236" lon="17.903093328976">
        <ele>0</ele>
        <time>2013-08-20T20:09:40Z</time>
      </trkpt>
      <trkpt lat="59.326089328977" lon="17.903369680219">
        <ele>0</ele>
        <time>2013-08-20T20:09:43Z</time>
      </trkpt>
      <trkpt lat="59.326112798297" lon="17.903477890548">
        <ele>0</ele>
        <time>2013-08-20T20:09:44Z</time>
      </trkpt>
      <trkpt lat="59.326264510687" lon="17.904204014545">
        <ele>0</ele>
        <time>2013-08-20T20:09:51Z</time>
      </trkpt>
      <trkpt lat="59.326289237292" lon="17.904293365599">
        <ele>0</ele>
        <time>2013-08-20T20:09:52Z</time>
      </trkpt>
      <trkpt lat="59.326313209526" lon="17.904383387205">
        <ele>0</ele>
        <time>2013-08-20T20:09:53Z</time>
      </trkpt>
      <trkpt lat="59.326332404077" lon="17.904467876757">
        <ele>0</ele>
        <time>2013-08-20T20:09:54Z</time>
      </trkpt>
      <trkpt lat="59.326358220329" lon="17.904560245295">
        <ele>0</ele>
        <time>2013-08-20T20:09:55Z</time>
      </trkpt>
      <trkpt lat="59.326432567782" lon="17.90482050329">
        <ele>0</ele>
        <time>2013-08-20T20:09:58Z</time>
      </trkpt>
      <trkpt lat="59.326559972662" lon="17.905279160858">
        <ele>0</ele>
        <time>2013-08-20T20:10:03Z</time>
      </trkpt>
      <trkpt lat="59.326635409762" lon="17.905569090779">
        <ele>0</ele>
        <time>2013-08-20T20:10:06Z</time>
      </trkpt>
      <trkpt lat="59.326663740584" lon="17.905665147353">
        <ele>0</ele>
        <time>2013-08-20T20:10:07Z</time>
      </trkpt>
      <trkpt lat="59.326689556836" lon="17.905758102624">
        <ele>0</ele>
        <time>2013-08-20T20:10:08Z</time>
      </trkpt>
      <trkpt lat="59.326716798011" lon="17.905836808665">
        <ele>0.4</ele>
        <time>2013-08-20T20:10:09Z</time>
      </trkpt>
      <trkpt lat="59.32674621848" lon="17.905937223827">
        <ele>0.8</ele>
        <time>2013-08-20T20:10:10Z</time>
      </trkpt>
      <trkpt lat="59.326877143758" lon="17.906424128398">
        <ele>0.8</ele>
        <time>2013-08-20T20:10:15Z</time>
      </trkpt>
      <trkpt lat="59.326959873111" lon="17.906728056092">
        <ele>1.4</ele>
        <time>2013-08-20T20:10:18Z</time>
      </trkpt>
      <trkpt lat="59.326986192277" lon="17.906829728539">
        <ele>1.8</ele>
        <time>2013-08-20T20:10:19Z</time>
      </trkpt>
      <trkpt lat="59.327012930538" lon="17.906930562796">
        <ele>2.2</ele>
        <time>2013-08-20T20:10:20Z</time>
      </trkpt>
      <trkpt lat="59.327039249704" lon="17.907032821976">
        <ele>2.6</ele>
        <time>2013-08-20T20:10:21Z</time>
      </trkpt>
      <trkpt lat="59.327065233594" lon="17.907134578242">
        <ele>3</ele>
        <time>2013-08-20T20:10:22Z</time>
      </trkpt>
      <trkpt lat="59.327120637953" lon="17.907336330575">
        <ele>3</ele>
        <time>2013-08-20T20:10:24Z</time>
      </trkpt>
      <trkpt lat="59.327148130585" lon="17.90743565609">
        <ele>3.4</ele>
        <time>2013-08-20T20:10:25Z</time>
      </trkpt>
      <trkpt lat="59.32717620995" lon="17.907535903614">
        <ele>3.8</ele>
        <time>2013-08-20T20:10:26Z</time>
      </trkpt>
      <trkpt lat="59.327203115849" lon="17.907634810034">
        <ele>4.2</ele>
        <time>2013-08-20T20:10:27Z</time>
      </trkpt>
      <trkpt lat="59.32722985411" lon="17.907733800273">
        <ele>4.6</ele>
        <time>2013-08-20T20:10:28Z</time>
      </trkpt>
      <trkpt lat="59.327254748353" lon="17.907835807996">
        <ele>5</ele>
        <time>2013-08-20T20:10:29Z</time>
      </trkpt>
      <trkpt lat="59.32741425591" lon="17.908425642299">
        <ele>5</ele>
        <time>2013-08-20T20:10:35Z</time>
      </trkpt>
      <trkpt lat="59.327441161809" lon="17.908525638366">
        <ele>5.4</ele>
        <time>2013-08-20T20:10:36Z</time>
      </trkpt>
      <trkpt lat="59.327467983889" lon="17.908622952225">
        <ele>6</ele>
        <time>2013-08-20T20:10:37Z</time>
      </trkpt>
      <trkpt lat="59.327493632503" lon="17.90871976317">
        <ele>6.4</ele>
        <time>2013-08-20T20:10:38Z</time>
      </trkpt>
      <trkpt lat="59.327520789859" lon="17.908814394821">
        <ele>6.8</ele>
        <time>2013-08-20T20:10:39Z</time>
      </trkpt>
      <trkpt lat="59.327548031034" lon="17.908908104463">
        <ele>7.2</ele>
        <time>2013-08-20T20:10:40Z</time>
      </trkpt>
      <trkpt lat="59.327651798956" lon="17.909292666035">
        <ele>7.2</ele>
        <time>2013-08-20T20:10:44Z</time>
      </trkpt>
      <trkpt lat="59.327703263822" lon="17.909485785011">
        <ele>7.6</ele>
        <time>2013-08-20T20:10:46Z</time>
      </trkpt>
      <trkpt lat="59.327729834445" lon="17.909583350327">
        <ele>8</ele>
        <time>2013-08-20T20:10:47Z</time>
      </trkpt>
      <trkpt lat="59.32775707562" lon="17.909679323082">
        <ele>8.4</ele>
        <time>2013-08-20T20:10:48Z</time>
      </trkpt>
      <trkpt lat="59.327783562424" lon="17.909774960561">
        <ele>8.8</ele>
        <time>2013-08-20T20:10:49Z</time>
      </trkpt>
      <trkpt lat="59.327812312341" lon="17.909873196429">
        <ele>9.2</ele>
        <time>2013-08-20T20:10:50Z</time>
      </trkpt>
      <trkpt lat="59.327865285949" lon="17.910067824147">
        <ele>9.2</ele>
        <time>2013-08-20T20:10:52Z</time>
      </trkpt>
      <trkpt lat="59.328076761286" lon="17.910870977805">
        <ele>9.2</ele>
        <time>2013-08-20T20:11:00Z</time>
      </trkpt>
      <trkpt lat="59.328132836197" lon="17.911078932744">
        <ele>9.6</ele>
        <time>2013-08-20T20:11:02Z</time>
      </trkpt>
      <trkpt lat="59.328159490639" lon="17.911180437553">
        <ele>10.2</ele>
        <time>2013-08-20T20:11:03Z</time>
      </trkpt>
      <trkpt lat="59.328186396538" lon="17.911284205475">
        <ele>10.6</ele>
        <time>2013-08-20T20:11:04Z</time>
      </trkpt>
      <trkpt lat="59.328215649369" lon="17.91139275108">
        <ele>11</ele>
        <time>2013-08-20T20:11:05Z</time>
      </trkpt>
      <trkpt lat="59.328241717078" lon="17.911493501518">
        <ele>11.4</ele>
        <time>2013-08-20T20:11:06Z</time>
      </trkpt>
      <trkpt lat="59.328324781707" lon="17.911803883275">
        <ele>11.4</ele>
        <time>2013-08-20T20:11:09Z</time>
      </trkpt>
      <trkpt lat="59.328493676992" lon="17.912412073939">
        <ele>11.4</ele>
        <time>2013-08-20T20:11:15Z</time>
      </trkpt>
      <trkpt lat="59.328682856475" lon="17.913085224328">
        <ele>11.4</ele>
        <time>2013-08-20T20:11:22Z</time>
      </trkpt>
      <trkpt lat="59.328845632973" lon="17.913674388079">
        <ele>11.4</ele>
        <time>2013-08-20T20:11:28Z</time>
      </trkpt>
      <trkpt lat="59.328928697602" lon="17.91399114008">
        <ele>11.8</ele>
        <time>2013-08-20T20:11:31Z</time>
      </trkpt>
      <trkpt lat="59.328957028424" lon="17.914097925486">
        <ele>12.2</ele>
        <time>2013-08-20T20:11:32Z</time>
      </trkpt>
      <trkpt lat="59.329001452494" lon="17.914258438871">
        <ele>13</ele>
        <time>2013-08-20T20:11:33Z</time>
      </trkpt>
      <trkpt lat="59.329030034773" lon="17.914363966992">
        <ele>13.4</ele>
        <time>2013-08-20T20:11:34Z</time>
      </trkpt>
      <trkpt lat="59.32912164894" lon="17.914693459481">
        <ele>13.4</ele>
        <time>2013-08-20T20:11:37Z</time>
      </trkpt>
      <trkpt lat="59.329374195587" lon="17.915564674167">
        <ele>13.4</ele>
        <time>2013-08-20T20:11:45Z</time>
      </trkpt>
      <trkpt lat="59.329532110583" lon="17.9159508283">
        <ele>13.4</ele>
        <time>2013-08-20T20:11:49Z</time>
      </trkpt>
      <trkpt lat="59.329582904897" lon="17.916020565708">
        <ele>13.4</ele>
        <time>2013-08-20T20:11:50Z</time>
      </trkpt>
      <trkpt lat="59.329715590374" lon="17.916301946091">
        <ele>13.4</ele>
        <time>2013-08-20T20:11:53Z</time>
      </trkpt>
      <trkpt lat="59.329758840978" lon="17.916413592999">
        <ele>13.4</ele>
        <time>2013-08-20T20:11:54Z</time>
      </trkpt>
      <trkpt lat="59.329995964929" lon="17.917002253836">
        <ele>13.4</ele>
        <time>2013-08-20T20:11:59Z</time>
      </trkpt>
      <trkpt lat="59.330290840171" lon="17.917692168025">
        <ele>13.4</ele>
        <time>2013-08-20T20:12:06Z</time>
      </trkpt>
      <trkpt lat="59.330626116171" lon="17.918241853027">
        <ele>13.4</ele>
        <time>2013-08-20T20:12:13Z</time>
      </trkpt>
      <trkpt lat="59.330793418895" lon="17.918440084962">
        <ele>13</ele>
        <time>2013-08-20T20:12:16Z</time>
      </trkpt>
      <trkpt lat="59.330838513517" lon="17.918493645303">
        <ele>12.4</ele>
        <time>2013-08-20T20:12:17Z</time>
      </trkpt>
      <trkpt lat="59.330880842112" lon="17.918536560631">
        <ele>12</ele>
        <time>2013-08-20T20:12:18Z</time>
      </trkpt>
      <trkpt lat="59.330923170707" lon="17.918574698276">
        <ele>11.6</ele>
        <time>2013-08-20T20:12:19Z</time>
      </trkpt>
      <trkpt lat="59.330967762415" lon="17.918609902256">
        <ele>11.2</ele>
        <time>2013-08-20T20:12:20Z</time>
      </trkpt>
      <trkpt lat="59.331073541993" lon="17.918627504246">
        <ele>11.2</ele>
        <time>2013-08-20T20:12:22Z</time>
      </trkpt>
      <trkpt lat="59.331112266371" lon="17.918573776267">
        <ele>11.2</ele>
        <time>2013-08-20T20:12:23Z</time>
      </trkpt>
      <trkpt lat="59.331186027091" lon="17.918307734761">
        <ele>11.2</ele>
        <time>2013-08-20T20:12:26Z</time>
      </trkpt>
      <trkpt lat="59.331206395108" lon="17.918209582712">
        <ele>11.2</ele>
        <time>2013-08-20T20:12:27Z</time>
      </trkpt>
      <trkpt lat="59.331326843011" lon="17.917718319553">
        <ele>11.2</ele>
        <time>2013-08-20T20:12:32Z</time>
      </trkpt>
      <trkpt lat="59.331374033108" lon="17.917553782856">
        <ele>11.2</ele>
        <time>2013-08-20T20:12:34Z</time>
      </trkpt>
      <trkpt lat="59.331441423584" lon="17.917277515432">
        <ele>11.6</ele>
        <time>2013-08-20T20:12:37Z</time>
      </trkpt>
      <trkpt lat="59.331468497121" lon="17.917187410007">
        <ele>12</ele>
        <time>2013-08-20T20:12:38Z</time>
      </trkpt>
      <trkpt lat="59.33149372664" lon="17.917091940166">
        <ele>12.4</ele>
        <time>2013-08-20T20:12:39Z</time>
      </trkpt>
      <trkpt lat="59.33151971053" lon="17.916999152533">
        <ele>12.8</ele>
        <time>2013-08-20T20:12:40Z</time>
      </trkpt>
      <trkpt lat="59.331543934221" lon="17.916902257769">
        <ele>13.2</ele>
        <time>2013-08-20T20:12:41Z</time>
      </trkpt>
      <trkpt lat="59.33157670745" lon="17.916711653363">
        <ele>13.2</ele>
        <time>2013-08-20T20:12:43Z</time>
      </trkpt>
      <trkpt lat="59.331591040499" lon="17.916614423323">
        <ele>13.6</ele>
        <time>2013-08-20T20:12:44Z</time>
      </trkpt>
      <trkpt lat="59.33159933858" lon="17.9165124156">
        <ele>14</ele>
        <time>2013-08-20T20:12:45Z</time>
      </trkpt>
      <trkpt lat="59.331608055756" lon="17.916410575515">
        <ele>14.6</ele>
        <time>2013-08-20T20:12:46Z</time>
      </trkpt>
      <trkpt lat="59.331617694941" lon="17.91631041181">
        <ele>15.4</ele>
        <time>2013-08-20T20:12:47Z</time>
      </trkpt>
      <trkpt lat="59.331632195628" lon="17.916214187598">
        <ele>15.4</ele>
        <time>2013-08-20T20:12:48Z</time>
      </trkpt>
      <trkpt lat="59.331644684659" lon="17.916120897051">
        <ele>15.4</ele>
        <time>2013-08-20T20:12:49Z</time>
      </trkpt>
      <trkpt lat="59.331665974685" lon="17.915920150546">
        <ele>15.8</ele>
        <time>2013-08-20T20:12:51Z</time>
      </trkpt>
      <trkpt lat="59.331678798992" lon="17.915825351257">
        <ele>16.2</ele>
        <time>2013-08-20T20:12:52Z</time>
      </trkpt>
      <trkpt lat="59.331688941091" lon="17.91572535519">
        <ele>16.6</ele>
        <time>2013-08-20T20:12:53Z</time>
      </trkpt>
      <trkpt lat="59.331695143697" lon="17.915627119322">
        <ele>17</ele>
        <time>2013-08-20T20:12:54Z</time>
      </trkpt>
      <trkpt lat="59.331703106502" lon="17.915530727472">
        <ele>17.4</ele>
        <time>2013-08-20T20:12:55Z</time>
      </trkpt>
      <trkpt lat="59.331719367388" lon="17.915350181346">
        <ele>18</ele>
        <time>2013-08-20T20:12:57Z</time>
      </trkpt>
      <trkpt lat="59.33173009622" lon="17.915262758129">
        <ele>18.4</ele>
        <time>2013-08-20T20:12:58Z</time>
      </trkpt>
      <trkpt lat="59.331738059025" lon="17.915180699328">
        <ele>18.8</ele>
        <time>2013-08-20T20:12:59Z</time>
      </trkpt>
      <trkpt lat="59.331738729577" lon="17.915088749885">
        <ele>19.4</ele>
        <time>2013-08-20T20:13:00Z</time>
      </trkpt>
      <trkpt lat="59.331747949667" lon="17.915000488478">
        <ele>19.8</ele>
        <time>2013-08-20T20:13:01Z</time>
      </trkpt>
      <trkpt lat="59.331760354879" lon="17.914650963248">
        <ele>19.8</ele>
        <time>2013-08-20T20:13:05Z</time>
      </trkpt>
      <trkpt lat="59.331798743981" lon="17.914294732498">
        <ele>19.8</ele>
        <time>2013-08-20T20:13:09Z</time>
      </trkpt>
      <trkpt lat="59.331815759238" lon="17.914196580449">
        <ele>19.8</ele>
        <time>2013-08-20T20:13:10Z</time>
      </trkpt>
      <trkpt lat="59.331846101716" lon="17.913980578886">
        <ele>19.8</ele>
        <time>2013-08-20T20:13:12Z</time>
      </trkpt>
      <trkpt lat="59.331877869117" lon="17.913741946193">
        <ele>19.4</ele>
        <time>2013-08-20T20:13:14Z</time>
      </trkpt>
      <trkpt lat="59.33189605784" lon="17.913616133874">
        <ele>18.8</ele>
        <time>2013-08-20T20:13:15Z</time>
      </trkpt>
      <trkpt lat="59.331908127776" lon="17.913479676542">
        <ele>18.4</ele>
        <time>2013-08-20T20:13:16Z</time>
      </trkpt>
      <trkpt lat="59.331926567956" lon="17.913347745436">
        <ele>17.8</ele>
        <time>2013-08-20T20:13:17Z</time>
      </trkpt>
      <trkpt lat="59.331948779991" lon="17.91322168166">
        <ele>17.4</ele>
        <time>2013-08-20T20:13:18Z</time>
      </trkpt>
      <trkpt lat="59.331973506596" lon="17.913096036979">
        <ele>17.4</ele>
        <time>2013-08-20T20:13:19Z</time>
      </trkpt>
      <trkpt lat="59.332001334504" lon="17.912968380642">
        <ele>16.8</ele>
        <time>2013-08-20T20:13:20Z</time>
      </trkpt>
      <trkpt lat="59.332034610647" lon="17.912839550839">
        <ele>16.4</ele>
        <time>2013-08-20T20:13:21Z</time>
      </trkpt>
      <trkpt lat="59.332066629505" lon="17.91271457671">
        <ele>15.8</ele>
        <time>2013-08-20T20:13:22Z</time>
      </trkpt>
      <trkpt lat="59.332094205956" lon="17.912596140463">
        <ele>15.2</ele>
        <time>2013-08-20T20:13:23Z</time>
      </trkpt>
      <trkpt lat="59.332121866226" lon="17.91248491265">
        <ele>14.8</ele>
        <time>2013-08-20T20:13:24Z</time>
      </trkpt>
      <trkpt lat="59.332153717446" lon="17.912375445036">
        <ele>14.8</ele>
        <time>2013-08-20T20:13:25Z</time>
      </trkpt>
      <trkpt lat="59.332185484847" lon="17.912264384861">
        <ele>14.4</ele>
        <time>2013-08-20T20:13:26Z</time>
      </trkpt>
      <trkpt lat="59.332217755162" lon="17.91214460751">
        <ele>14</ele>
        <time>2013-08-20T20:13:27Z</time>
      </trkpt>
      <trkpt lat="59.332247510907" lon="17.912025333073">
        <ele>13.4</ele>
        <time>2013-08-20T20:13:28Z</time>
      </trkpt>
      <trkpt lat="59.332278356299" lon="17.911896335632">
        <ele>13</ele>
        <time>2013-08-20T20:13:29Z</time>
      </trkpt>
      <trkpt lat="59.332312135356" lon="17.911766080906">
        <ele>12.6</ele>
        <time>2013-08-20T20:13:30Z</time>
      </trkpt>
      <trkpt lat="59.332347255517" lon="17.911633730705">
        <ele>12.2</ele>
        <time>2013-08-20T20:13:31Z</time>
      </trkpt>
      <trkpt lat="59.332385476981" lon="17.911502805427">
        <ele>11.8</ele>
        <time>2013-08-20T20:13:32Z</time>
      </trkpt>
      <trkpt lat="59.332423363169" lon="17.91136844357">
        <ele>11.4</ele>
        <time>2013-08-20T20:13:33Z</time>
      </trkpt>
      <trkpt lat="59.332462506642" lon="17.911226621822">
        <ele>11</ele>
        <time>2013-08-20T20:13:34Z</time>
      </trkpt>
      <trkpt lat="59.332502991219" lon="17.911086392635">
        <ele>10.6</ele>
        <time>2013-08-20T20:13:35Z</time>
      </trkpt>
      <trkpt lat="59.33254649328" lon="17.910934931702">
        <ele>10</ele>
        <time>2013-08-20T20:13:36Z</time>
      </trkpt>
      <trkpt lat="59.332589408608" lon="17.910787410262">
        <ele>9.2</ele>
        <time>2013-08-20T20:13:37Z</time>
      </trkpt>
      <trkpt lat="59.33263785599" lon="17.910644498867">
        <ele>8.6</ele>
        <time>2013-08-20T20:13:38Z</time>
      </trkpt>
      <trkpt lat="59.332691248693" lon="17.910515333788">
        <ele>8.6</ele>
        <time>2013-08-20T20:13:39Z</time>
      </trkpt>
      <trkpt lat="59.333037169706" lon="17.909803794297">
        <ele>8.6</ele>
        <time>2013-08-20T20:13:45Z</time>
      </trkpt>
      <trkpt lat="59.333345036893" lon="17.909262323557">
        <ele>8.2</ele>
        <time>2013-08-20T20:13:50Z</time>
      </trkpt>
      <trkpt lat="59.333417959423" lon="17.909155789608">
        <ele>7.8</ele>
        <time>2013-08-20T20:13:51Z</time>
      </trkpt>
      <trkpt lat="59.333492474514" lon="17.909055542084">
        <ele>7.4</ele>
        <time>2013-08-20T20:13:52Z</time>
      </trkpt>
      <trkpt lat="59.333570677641" lon="17.908956803302">
        <ele>7</ele>
        <time>2013-08-20T20:13:53Z</time>
      </trkpt>
      <trkpt lat="59.333648796949" lon="17.908858735072">
        <ele>6.6</ele>
        <time>2013-08-20T20:13:54Z</time>
      </trkpt>
      <trkpt lat="59.333729514646" lon="17.908769132561">
        <ele>6</ele>
        <time>2013-08-20T20:13:55Z</time>
      </trkpt>
      <trkpt lat="59.333808220687" lon="17.908665951372">
        <ele>5.6</ele>
        <time>2013-08-20T20:13:56Z</time>
      </trkpt>
      <trkpt lat="59.333891201497" lon="17.908567715504">
        <ele>5.2</ele>
        <time>2013-08-20T20:13:57Z</time>
      </trkpt>
      <trkpt lat="59.333975188135" lon="17.908456487691">
        <ele>4.8</ele>
        <time>2013-08-20T20:13:58Z</time>
      </trkpt>
      <trkpt lat="59.334057330755" lon="17.908362526592">
        <ele>4.2</ele>
        <time>2013-08-20T20:13:59Z</time>
      </trkpt>
      <trkpt lat="59.334138551366" lon="17.9082813898">
        <ele>3.4</ele>
        <time>2013-08-20T20:14:00Z</time>
      </trkpt>
      <trkpt lat="59.334218430873" lon="17.908196900248">
        <ele>2.2</ele>
        <time>2013-08-20T20:14:01Z</time>
      </trkpt>
      <trkpt lat="59.334291269584" lon="17.908113919438">
        <ele>1.6</ele>
        <time>2013-08-20T20:14:02Z</time>
      </trkpt>
      <trkpt lat="59.334611541983" lon="17.907762298733">
        <ele>1.6</ele>
        <time>2013-08-20T20:14:07Z</time>
      </trkpt>
      <trkpt lat="59.334713801163" lon="17.90764017445">
        <ele>2</ele>
        <time>2013-08-20T20:14:09Z</time>
      </trkpt>
      <trkpt lat="59.334768954065" lon="17.907586111195">
        <ele>2.6</ele>
        <time>2013-08-20T20:14:10Z</time>
      </trkpt>
      <trkpt lat="59.334816730895" lon="17.907511428466">
        <ele>3</ele>
        <time>2013-08-20T20:14:11Z</time>
      </trkpt>
      <trkpt lat="59.334866770838" lon="17.907450575872">
        <ele>3.6</ele>
        <time>2013-08-20T20:14:12Z</time>
      </trkpt>
      <trkpt lat="59.334919325351" lon="17.907391818753">
        <ele>4</ele>
        <time>2013-08-20T20:14:13Z</time>
      </trkpt>
      <trkpt lat="59.334969281475" lon="17.907332055806">
        <ele>4.4</ele>
        <time>2013-08-20T20:14:14Z</time>
      </trkpt>
      <trkpt lat="59.335021584531" lon="17.907276735266">
        <ele>5</ele>
        <time>2013-08-20T20:14:15Z</time>
      </trkpt>
      <trkpt lat="59.33507279794" lon="17.907225102762">
        <ele>5.4</ele>
        <time>2013-08-20T20:14:16Z</time>
      </trkpt>
      <trkpt lat="59.335121496779" lon="17.907178834674">
        <ele>5.8</ele>
        <time>2013-08-20T20:14:17Z</time>
      </trkpt>
      <trkpt lat="59.335175811491" lon="17.90711965846">
        <ele>6.2</ele>
        <time>2013-08-20T20:14:18Z</time>
      </trkpt>
      <trkpt lat="59.335397009832" lon="17.906862920863">
        <ele>6.2</ele>
        <time>2013-08-20T20:14:22Z</time>
      </trkpt>
      <trkpt lat="59.33545249801" lon="17.906796368577">
        <ele>6.2</ele>
        <time>2013-08-20T20:14:23Z</time>
      </trkpt>
      <trkpt lat="59.335779895024" lon="17.906390014065">
        <ele>6.2</ele>
        <time>2013-08-20T20:14:28Z</time>
      </trkpt>
      <trkpt lat="59.336051384765" lon="17.906010146357">
        <ele>5.8</ele>
        <time>2013-08-20T20:14:32Z</time>
      </trkpt>
      <trkpt lat="59.336115841576" lon="17.905909563557">
        <ele>5.4</ele>
        <time>2013-08-20T20:14:33Z</time>
      </trkpt>
      <trkpt lat="59.336179795473" lon="17.905814931906">
        <ele>4.8</ele>
        <time>2013-08-20T20:14:34Z</time>
      </trkpt>
      <trkpt lat="59.336246347759" lon="17.90573077763">
        <ele>4.4</ele>
        <time>2013-08-20T20:14:35Z</time>
      </trkpt>
      <trkpt lat="59.336313067683" lon="17.905650227571">
        <ele>4</ele>
        <time>2013-08-20T20:14:36Z</time>
      </trkpt>
      <trkpt lat="59.336640380878" lon="17.90520607069">
        <ele>4</ele>
        <time>2013-08-20T20:14:41Z</time>
      </trkpt>
      <trkpt lat="59.336890077679" lon="17.904918990615">
        <ele>3.6</ele>
        <time>2013-08-20T20:14:44Z</time>
      </trkpt>
      <trkpt lat="59.336978758181" lon="17.904818575453">
        <ele>3.2</ele>
        <time>2013-08-20T20:14:45Z</time>
      </trkpt>
      <trkpt lat="59.337067187226" lon="17.90471321497">
        <ele>2.4</ele>
        <time>2013-08-20T20:14:46Z</time>
      </trkpt>
      <trkpt lat="59.337157711746" lon="17.904597963845">
        <ele>1.6</ele>
        <time>2013-08-20T20:14:47Z</time>
      </trkpt>
      <trkpt lat="59.337251672845" lon="17.90448522729">
        <ele>0.8</ele>
        <time>2013-08-20T20:14:48Z</time>
      </trkpt>
      <trkpt lat="59.337346136858" lon="17.904362180998">
        <ele>0</ele>
        <time>2013-08-20T20:14:49Z</time>
      </trkpt>
      <trkpt lat="59.33744319926" lon="17.904233602652">
        <ele>0</ele>
        <time>2013-08-20T20:14:50Z</time>
      </trkpt>
      <trkpt lat="59.337529616649" lon="17.904070407059">
        <ele>0</ele>
        <time>2013-08-20T20:14:51Z</time>
      </trkpt>
      <trkpt lat="59.337611340174" lon="17.903898326652">
        <ele>0</ele>
        <time>2013-08-20T20:14:52Z</time>
      </trkpt>
      <trkpt lat="59.3376829216" lon="17.903733873774">
        <ele>0</ele>
        <time>2013-08-20T20:14:53Z</time>
      </trkpt>
      <trkpt lat="59.337748216601" lon="17.903573528027">
        <ele>0</ele>
        <time>2013-08-20T20:14:54Z</time>
      </trkpt>
      <trkpt lat="59.337800771114" lon="17.903402453448">
        <ele>0</ele>
        <time>2013-08-20T20:14:55Z</time>
      </trkpt>
      <trkpt lat="59.337878722784" lon="17.903074050606">
        <ele>0</ele>
        <time>2013-08-20T20:14:57Z</time>
      </trkpt>
      <trkpt lat="59.337945610346" lon="17.902435098369">
        <ele>0</ele>
        <time>2013-08-20T20:15:01Z</time>
      </trkpt>
      <trkpt lat="59.337946867631" lon="17.902279781762">
        <ele>0</ele>
        <time>2013-08-20T20:15:02Z</time>
      </trkpt>
      <trkpt lat="59.337942592862" lon="17.902140977498">
        <ele>0</ele>
        <time>2013-08-20T20:15:03Z</time>
      </trkpt>
      <trkpt lat="59.337926499614" lon="17.901989600384">
        <ele>0</ele>
        <time>2013-08-20T20:15:04Z</time>
      </trkpt>
      <trkpt lat="59.337902946475" lon="17.901834702872">
        <ele>0</ele>
        <time>2013-08-20T20:15:05Z</time>
      </trkpt>
      <trkpt lat="59.337880399164" lon="17.901674189487">
        <ele>0</ele>
        <time>2013-08-20T20:15:06Z</time>
      </trkpt>
      <trkpt lat="59.337765818591" lon="17.900822504628">
        <ele>0</ele>
        <time>2013-08-20T20:15:11Z</time>
      </trkpt>
      <trkpt lat="59.337649394" lon="17.899873170634">
        <ele>0</ele>
        <time>2013-08-20T20:15:17Z</time>
      </trkpt>
      <trkpt lat="59.337540596938" lon="17.898955436403">
        <ele>0</ele>
        <time>2013-08-20T20:15:23Z</time>
      </trkpt>
      <trkpt lat="59.337438086301" lon="17.898038121267">
        <ele>0</ele>
        <time>2013-08-20T20:15:29Z</time>
      </trkpt>
      <trkpt lat="59.337311100516" lon="17.89729858623">
        <ele>0</ele>
        <time>2013-08-20T20:15:34Z</time>
      </trkpt>
      <trkpt lat="59.337287547377" lon="17.897144862184">
        <ele>0</ele>
        <time>2013-08-20T20:15:35Z</time>
      </trkpt>
      <trkpt lat="59.337274052518" lon="17.896982504781">
        <ele>0</ele>
        <time>2013-08-20T20:15:36Z</time>
      </trkpt>
      <trkpt lat="59.33725628289" lon="17.896822578129">
        <ele>0</ele>
        <time>2013-08-20T20:15:37Z</time>
      </trkpt>
      <trkpt lat="59.337237591253" lon="17.896649994808">
        <ele>0.2</ele>
        <time>2013-08-20T20:15:38Z</time>
      </trkpt>
      <trkpt lat="59.337184533826" lon="17.896159318382">
        <ele>0</ele>
        <time>2013-08-20T20:15:41Z</time>
      </trkpt>
      <trkpt lat="59.337169278768" lon="17.895998050626">
        <ele>0</ele>
        <time>2013-08-20T20:15:42Z</time>
      </trkpt>
      <trkpt lat="59.337156119185" lon="17.89584516477">
        <ele>0</ele>
        <time>2013-08-20T20:15:43Z</time>
      </trkpt>
      <trkpt lat="59.337145474172" lon="17.89568926143">
        <ele>0</ele>
        <time>2013-08-20T20:15:44Z</time>
      </trkpt>
      <trkpt lat="59.337129548562" lon="17.895526736389">
        <ele>0</ele>
        <time>2013-08-20T20:15:45Z</time>
      </trkpt>
      <trkpt lat="59.337105324871" lon="17.895049135727">
        <ele>0</ele>
        <time>2013-08-20T20:15:48Z</time>
      </trkpt>
      <trkpt lat="59.33712217249" lon="17.894061999364">
        <ele>0</ele>
        <time>2013-08-20T20:15:54Z</time>
      </trkpt>
      <trkpt lat="59.337132063132" lon="17.893909448784">
        <ele>0</ele>
        <time>2013-08-20T20:15:55Z</time>
      </trkpt>
      <trkpt lat="59.337138684833" lon="17.893761675887">
        <ele>0</ele>
        <time>2013-08-20T20:15:56Z</time>
      </trkpt>
      <trkpt lat="59.337153017882" lon="17.893624548003">
        <ele>0</ele>
        <time>2013-08-20T20:15:57Z</time>
      </trkpt>
      <trkpt lat="59.337169027311" lon="17.893478367667">
        <ele>0</ele>
        <time>2013-08-20T20:15:58Z</time>
      </trkpt>
      <trkpt lat="59.337187886586" lon="17.893337970842">
        <ele>0</ele>
        <time>2013-08-20T20:15:59Z</time>
      </trkpt>
      <trkpt lat="59.337264078057" lon="17.892897501997">
        <ele>0</ele>
        <time>2013-08-20T20:16:02Z</time>
      </trkpt>
      <trkpt lat="59.337303892082" lon="17.892755177335">
        <ele>0</ele>
        <time>2013-08-20T20:16:03Z</time>
      </trkpt>
      <trkpt lat="59.337607065405" lon="17.891720767056">
        <ele>0</ele>
        <time>2013-08-20T20:16:10Z</time>
      </trkpt>
      <trkpt lat="59.337784845504" lon="17.890762212972">
        <ele>0</ele>
        <time>2013-08-20T20:16:16Z</time>
      </trkpt>
      <trkpt lat="59.337805464978" lon="17.890595329343">
        <ele>0</ele>
        <time>2013-08-20T20:16:17Z</time>
      </trkpt>
      <trkpt lat="59.337827760832" lon="17.890436911433">
        <ele>0</ele>
        <time>2013-08-20T20:16:18Z</time>
      </trkpt>
      <trkpt lat="59.337848967039" lon="17.890279415532">
        <ele>0</ele>
        <time>2013-08-20T20:16:19Z</time>
      </trkpt>
      <trkpt lat="59.337875872938" lon="17.890128876608">
        <ele>0</ele>
        <time>2013-08-20T20:16:20Z</time>
      </trkpt>
      <trkpt lat="59.337907724158" lon="17.889981438987">
        <ele>0</ele>
        <time>2013-08-20T20:16:21Z</time>
      </trkpt>
      <trkpt lat="59.337983915629" lon="17.889703998097">
        <ele>0</ele>
        <time>2013-08-20T20:16:23Z</time>
      </trkpt>
      <trkpt lat="59.338228834747" lon="17.889107961188">
        <ele>0</ele>
        <time>2013-08-20T20:16:28Z</time>
      </trkpt>
      <trkpt lat="59.338339392008" lon="17.888915428945">
        <ele>0</ele>
        <time>2013-08-20T20:16:30Z</time>
      </trkpt>
      <trkpt lat="59.338392365616" lon="17.888837225818">
        <ele>0</ele>
        <time>2013-08-20T20:16:31Z</time>
      </trkpt>
      <trkpt lat="59.338446009776" lon="17.888753071542">
        <ele>0</ele>
        <time>2013-08-20T20:16:32Z</time>
      </trkpt>
      <trkpt lat="59.338498145194" lon="17.888675790424">
        <ele>0</ele>
        <time>2013-08-20T20:16:33Z</time>
      </trkpt>
      <trkpt lat="59.33855212463" lon="17.88860404136">
        <ele>0</ele>
        <time>2013-08-20T20:16:34Z</time>
      </trkpt>
      <trkpt lat="59.338647929747" lon="17.888469847141">
        <ele>0</ele>
        <time>2013-08-20T20:16:36Z</time>
      </trkpt>
      <trkpt lat="59.338697215319" lon="17.888406982891">
        <ele>0</ele>
        <time>2013-08-20T20:16:37Z</time>
      </trkpt>
      <trkpt lat="59.338747590538" lon="17.888349147781">
        <ele>0</ele>
        <time>2013-08-20T20:16:38Z</time>
      </trkpt>
      <trkpt lat="59.338799474499" lon="17.888286451169">
        <ele>0</ele>
        <time>2013-08-20T20:16:39Z</time>
      </trkpt>
      <trkpt lat="59.338848760071" lon="17.888234734846">
        <ele>0</ele>
        <time>2013-08-20T20:16:40Z</time>
      </trkpt>
      <trkpt lat="59.3389402066" lon="17.88812794944">
        <ele>0</ele>
        <time>2013-08-20T20:16:42Z</time>
      </trkpt>
      <trkpt lat="59.338987899611" lon="17.888070701063">
        <ele>0</ele>
        <time>2013-08-20T20:16:43Z</time>
      </trkpt>
      <trkpt lat="59.339035592622" lon="17.888016721627">
        <ele>0</ele>
        <time>2013-08-20T20:16:44Z</time>
      </trkpt>
      <trkpt lat="59.339086806031" lon="17.887965089123">
        <ele>0.4</ele>
        <time>2013-08-20T20:16:45Z</time>
      </trkpt>
      <trkpt lat="59.339132487386" lon="17.887909349488">
        <ele>0.8</ele>
        <time>2013-08-20T20:16:46Z</time>
      </trkpt>
      <trkpt lat="59.339230304159" lon="17.887798121675">
        <ele>1.2</ele>
        <time>2013-08-20T20:16:48Z</time>
      </trkpt>
      <trkpt lat="59.339281936663" lon="17.887747243542">
        <ele>1.8</ele>
        <time>2013-08-20T20:16:49Z</time>
      </trkpt>
      <trkpt lat="59.33933164133" lon="17.887701478368">
        <ele>2.2</ele>
        <time>2013-08-20T20:16:50Z</time>
      </trkpt>
      <trkpt lat="59.339380172531" lon="17.887648923855">
        <ele>2.8</ele>
        <time>2013-08-20T20:16:51Z</time>
      </trkpt>
      <trkpt lat="59.339432391768" lon="17.887603913052">
        <ele>3.2</ele>
        <time>2013-08-20T20:16:52Z</time>
      </trkpt>
      <trkpt lat="59.339533309844" lon="17.887520513147">
        <ele>3.6</ele>
        <time>2013-08-20T20:16:54Z</time>
      </trkpt>
      <trkpt lat="59.33958477471" lon="17.887475753801">
        <ele>4.2</ele>
        <time>2013-08-20T20:16:55Z</time>
      </trkpt>
      <trkpt lat="59.339632886816" lon="17.887428647523">
        <ele>4.6</ele>
        <time>2013-08-20T20:16:56Z</time>
      </trkpt>
      <trkpt lat="59.339683513492" lon="17.887386738023">
        <ele>5</ele>
        <time>2013-08-20T20:16:57Z</time>
      </trkpt>
      <trkpt lat="59.339735313634" lon="17.887348768016">
        <ele>5.4</ele>
        <time>2013-08-20T20:16:58Z</time>
      </trkpt>
      <trkpt lat="59.339840087384" lon="17.887290178535">
        <ele>5.4</ele>
        <time>2013-08-20T20:17:00Z</time>
      </trkpt>
      <trkpt lat="59.339983669331" lon="17.887199570196">
        <ele>5.4</ele>
        <time>2013-08-20T20:17:03Z</time>
      </trkpt>
      <trkpt lat="59.340084168312" lon="17.887135783937">
        <ele>5.8</ele>
        <time>2013-08-20T20:17:05Z</time>
      </trkpt>
      <trkpt lat="59.340138902119" lon="17.887105441459">
        <ele>6.4</ele>
        <time>2013-08-20T20:17:06Z</time>
      </trkpt>
      <trkpt lat="59.340192378641" lon="17.887075015162">
        <ele>6.8</ele>
        <time>2013-08-20T20:17:07Z</time>
      </trkpt>
      <trkpt lat="59.340244765516" lon="17.887049115091">
        <ele>7.2</ele>
        <time>2013-08-20T20:17:08Z</time>
      </trkpt>
      <trkpt lat="59.340296649477" lon="17.887032099834">
        <ele>7.6</ele>
        <time>2013-08-20T20:17:09Z</time>
      </trkpt>
      <trkpt lat="59.340574174186" lon="17.886983065719">
        <ele>7.6</ele>
        <time>2013-08-20T20:17:14Z</time>
      </trkpt>
      <trkpt lat="59.340691353148" lon="17.887011731817">
        <ele>8.2</ele>
        <time>2013-08-20T20:17:16Z</time>
      </trkpt>
      <trkpt lat="59.340749691172" lon="17.887032267472">
        <ele>8.6</ele>
        <time>2013-08-20T20:17:17Z</time>
      </trkpt>
      <trkpt lat="59.340811549594" lon="17.887065292158">
        <ele>9.4</ele>
        <time>2013-08-20T20:17:18Z</time>
      </trkpt>
      <trkpt lat="59.340869887618" lon="17.887096305188">
        <ele>10</ele>
        <time>2013-08-20T20:17:19Z</time>
      </trkpt>
      <trkpt lat="59.341046829527" lon="17.887193786685">
        <ele>10.4</ele>
        <time>2013-08-20T20:17:22Z</time>
      </trkpt>
      <trkpt lat="59.3411027368" lon="17.88723862985">
        <ele>10.8</ele>
        <time>2013-08-20T20:17:23Z</time>
      </trkpt>
      <trkpt lat="59.341160655729" lon="17.887294453304">
        <ele>11.2</ele>
        <time>2013-08-20T20:17:24Z</time>
      </trkpt>
      <trkpt lat="59.341225699273" lon="17.887351366405">
        <ele>11.6</ele>
        <time>2013-08-20T20:17:25Z</time>
      </trkpt>
      <trkpt lat="59.341284791668" lon="17.887424037478">
        <ele>12</ele>
        <time>2013-08-20T20:17:26Z</time>
      </trkpt>
      <trkpt lat="59.341415800765" lon="17.887591675478">
        <ele>12</ele>
        <time>2013-08-20T20:17:28Z</time>
      </trkpt>
      <trkpt lat="59.34164923668" lon="17.887902224873">
        <ele>12.4</ele>
        <time>2013-08-20T20:17:32Z</time>
      </trkpt>
      <trkpt lat="59.341710508369" lon="17.887978583982">
        <ele>12.8</ele>
        <time>2013-08-20T20:17:33Z</time>
      </trkpt>
      <trkpt lat="59.341766667099" lon="17.888044214259">
        <ele>13.4</ele>
        <time>2013-08-20T20:17:34Z</time>
      </trkpt>
      <trkpt lat="59.341820981811" lon="17.888104815396">
        <ele>13.8</ele>
        <time>2013-08-20T20:17:35Z</time>
      </trkpt>
      <trkpt lat="59.341868674822" lon="17.888173630795">
        <ele>14.2</ele>
        <time>2013-08-20T20:17:36Z</time>
      </trkpt>
      <trkpt lat="59.3419660725" lon="17.88829391106">
        <ele>14.2</ele>
        <time>2013-08-20T20:17:38Z</time>
      </trkpt>
      <trkpt lat="59.342171848145" lon="17.888520389998">
        <ele>14.2</ele>
        <time>2013-08-20T20:17:42Z</time>
      </trkpt>
      <trkpt lat="59.342231108178" lon="17.888587612836">
        <ele>14.2</ele>
        <time>2013-08-20T20:17:43Z</time>
      </trkpt>
      <trkpt lat="59.342519948452" lon="17.888965720345">
        <ele>14.2</ele>
        <time>2013-08-20T20:17:48Z</time>
      </trkpt>
      <trkpt lat="59.342908449517" lon="17.889471148915">
        <ele>14.2</ele>
        <time>2013-08-20T20:17:54Z</time>
      </trkpt>
      <trkpt lat="59.343224530966" lon="17.889836599755">
        <ele>14.2</ele>
        <time>2013-08-20T20:17:58Z</time>
      </trkpt>
      <trkpt lat="59.34347649088" lon="17.89010021051">
        <ele>13.8</ele>
        <time>2013-08-20T20:18:01Z</time>
      </trkpt>
      <trkpt lat="59.343558801138" lon="17.890181263483">
        <ele>13.2</ele>
        <time>2013-08-20T20:18:02Z</time>
      </trkpt>
      <trkpt lat="59.343644380337" lon="17.89024689376">
        <ele>12.8</ele>
        <time>2013-08-20T20:18:03Z</time>
      </trkpt>
      <trkpt lat="59.343733479934" lon="17.890327108543">
        <ele>12.4</ele>
        <time>2013-08-20T20:18:04Z</time>
      </trkpt>
      <trkpt lat="59.34381428145" lon="17.890417130149">
        <ele>11.8</ele>
        <time>2013-08-20T20:18:05Z</time>
      </trkpt>
      <trkpt lat="59.344293390854" lon="17.890945441306">
        <ele>11.8</ele>
        <time>2013-08-20T20:18:11Z</time>
      </trkpt>
      <trkpt lat="59.34469941009" lon="17.891408792738">
        <ele>11.8</ele>
        <time>2013-08-20T20:18:16Z</time>
      </trkpt>
      <trkpt lat="59.345019850127" lon="17.891752031543">
        <ele>11.4</ele>
        <time>2013-08-20T20:18:20Z</time>
      </trkpt>
      <trkpt lat="59.345096209236" lon="17.891827468643">
        <ele>11</ele>
        <time>2013-08-20T20:18:21Z</time>
      </trkpt>
      <trkpt lat="59.345174244725" lon="17.891907096693">
        <ele>10.6</ele>
        <time>2013-08-20T20:18:22Z</time>
      </trkpt>
      <trkpt lat="59.345254124232" lon="17.891985383639">
        <ele>10.2</ele>
        <time>2013-08-20T20:18:23Z</time>
      </trkpt>
      <trkpt lat="59.345332411178" lon="17.892068029173">
        <ele>9.8</ele>
        <time>2013-08-20T20:18:24Z</time>
      </trkpt>
      <trkpt lat="59.345813951333" lon="17.892565746395">
        <ele>9.8</ele>
        <time>2013-08-20T20:18:30Z</time>
      </trkpt>
      <trkpt lat="59.346254336359" lon="17.893047538007">
        <ele>9.4</ele>
        <time>2013-08-20T20:18:36Z</time>
      </trkpt>
      <trkpt lat="59.346334970237" lon="17.893090201878">
        <ele>9</ele>
        <time>2013-08-20T20:18:37Z</time>
      </trkpt>
      <trkpt lat="59.346414514468" lon="17.893112162456">
        <ele>8.6</ele>
        <time>2013-08-20T20:18:38Z</time>
      </trkpt>
      <trkpt lat="59.346488694283" lon="17.893125573496">
        <ele>8.2</ele>
        <time>2013-08-20T20:18:39Z</time>
      </trkpt>
      <trkpt lat="59.346556671492" lon="17.893151557386">
        <ele>7.8</ele>
        <time>2013-08-20T20:18:40Z</time>
      </trkpt>
      <trkpt lat="59.346741492387" lon="17.893383065464">
        <ele>7.8</ele>
        <time>2013-08-20T20:18:43Z</time>
      </trkpt>
      <trkpt lat="59.346800836239" lon="17.893453054329">
        <ele>7.8</ele>
        <time>2013-08-20T20:18:44Z</time>
      </trkpt>
      <trkpt lat="59.346856492055" lon="17.893485911377">
        <ele>7.8</ele>
        <time>2013-08-20T20:18:45Z</time>
      </trkpt>
      <trkpt lat="59.34691223169" lon="17.89345883784">
        <ele>7.8</ele>
        <time>2013-08-20T20:18:46Z</time>
      </trkpt>
      <trkpt lat="59.347062686795" lon="17.893192544877">
        <ele>7.8</ele>
        <time>2013-08-20T20:18:49Z</time>
      </trkpt>
      <trkpt lat="59.347128819986" lon="17.893068744214">
        <ele>7.4</ele>
        <time>2013-08-20T20:18:50Z</time>
      </trkpt>
      <trkpt lat="59.347197719204" lon="17.892946284655">
        <ele>6.8</ele>
        <time>2013-08-20T20:18:51Z</time>
      </trkpt>
      <trkpt lat="59.347257482151" lon="17.892828602779">
        <ele>6.4</ele>
        <time>2013-08-20T20:18:52Z</time>
      </trkpt>
      <trkpt lat="59.347319759668" lon="17.892709663618">
        <ele>6</ele>
        <time>2013-08-20T20:18:53Z</time>
      </trkpt>
      <trkpt lat="59.34738329447" lon="17.892597010882">
        <ele>5.4</ele>
        <time>2013-08-20T20:18:54Z</time>
      </trkpt>
      <trkpt lat="59.347778668693" lon="17.891869461962">
        <ele>5.4</ele>
        <time>2013-08-20T20:19:00Z</time>
      </trkpt>
      <trkpt lat="59.348217125882" lon="17.891086592502">
        <ele>5.4</ele>
        <time>2013-08-20T20:19:07Z</time>
      </trkpt>
      <trkpt lat="59.348639070728" lon="17.890325851258">
        <ele>5.4</ele>
        <time>2013-08-20T20:19:14Z</time>
      </trkpt>
      <trkpt lat="59.348693888354" lon="17.89021755711">
        <ele>5.4</ele>
        <time>2013-08-20T20:19:15Z</time>
      </trkpt>
      <trkpt lat="59.348907794442" lon="17.889828301674">
        <ele>5.4</ele>
        <time>2013-08-20T20:19:19Z</time>
      </trkpt>
      <trkpt lat="59.349309874185" lon="17.889128329205">
        <ele>5.4</ele>
        <time>2013-08-20T20:19:26Z</time>
      </trkpt>
      <trkpt lat="59.34967490593" lon="17.888407150529">
        <ele>5.4</ele>
        <time>2013-08-20T20:19:32Z</time>
      </trkpt>
      <trkpt lat="59.349991574112" lon="17.887771383414">
        <ele>5.4</ele>
        <time>2013-08-20T20:19:37Z</time>
      </trkpt>
      <trkpt lat="59.35040245485" lon="17.887053808955">
        <ele>5</ele>
        <time>2013-08-20T20:19:43Z</time>
      </trkpt>
      <trkpt lat="59.350470767335" lon="17.886932606681">
        <ele>4.6</ele>
        <time>2013-08-20T20:19:44Z</time>
      </trkpt>
      <trkpt lat="59.350534972689" lon="17.886823809619">
        <ele>4.2</ele>
        <time>2013-08-20T20:19:45Z</time>
      </trkpt>
      <trkpt lat="59.350590963781" lon="17.886717359489">
        <ele>3.4</ele>
        <time>2013-08-20T20:19:46Z</time>
      </trkpt>
      <trkpt lat="59.35075449465" lon="17.886365654965">
        <ele>3.4</ele>
        <time>2013-08-20T20:19:49Z</time>
      </trkpt>
      <trkpt lat="59.351155065651" lon="17.88558152822">
        <ele>3.4</ele>
        <time>2013-08-20T20:19:56Z</time>
      </trkpt>
      <trkpt lat="59.351248942931" lon="17.88536443701">
        <ele>3.4</ele>
        <time>2013-08-20T20:19:58Z</time>
      </trkpt>
      <trkpt lat="59.351320691995" lon="17.885143741583">
        <ele>3.4</ele>
        <time>2013-08-20T20:20:00Z</time>
      </trkpt>
      <trkpt lat="59.351378359467" lon="17.884916592093">
        <ele>3.4</ele>
        <time>2013-08-20T20:20:02Z</time>
      </trkpt>
      <trkpt lat="59.351383556245" lon="17.884810980153">
        <ele>3.8</ele>
        <time>2013-08-20T20:20:03Z</time>
      </trkpt>
      <trkpt lat="59.351396045276" lon="17.884715510312">
        <ele>4.2</ele>
        <time>2013-08-20T20:20:04Z</time>
      </trkpt>
      <trkpt lat="59.351426974487" lon="17.884623644688">
        <ele>4.6</ele>
        <time>2013-08-20T20:20:05Z</time>
      </trkpt>
      <trkpt lat="59.351456562594" lon="17.884535970014">
        <ele>5</ele>
        <time>2013-08-20T20:20:06Z</time>
      </trkpt>
      <trkpt lat="59.351492604764" lon="17.884449720263">
        <ele>5.4</ele>
        <time>2013-08-20T20:20:07Z</time>
      </trkpt>
      <trkpt lat="59.35156502438" lon="17.884288871602">
        <ele>5.4</ele>
        <time>2013-08-20T20:20:09Z</time>
      </trkpt>
      <trkpt lat="59.351696704029" lon="17.88425383526">
        <ele>5.4</ele>
        <time>2013-08-20T20:20:11Z</time>
      </trkpt>
      <trkpt lat="59.351847829686" lon="17.884161718179">
        <ele>5.4</ele>
        <time>2013-08-20T20:20:13Z</time>
      </trkpt>
      <trkpt lat="59.35191874056" lon="17.884076893351">
        <ele>5.4</ele>
        <time>2013-08-20T20:20:14Z</time>
      </trkpt>
      <trkpt lat="59.352176483985" lon="17.883705323724">
        <ele>5.4</ele>
        <time>2013-08-20T20:20:18Z</time>
      </trkpt>
      <trkpt lat="59.352590382207" lon="17.882949108706">
        <ele>5.4</ele>
        <time>2013-08-20T20:20:25Z</time>
      </trkpt>
      <trkpt lat="59.352649809878" lon="17.882847268621">
        <ele>5.4</ele>
        <time>2013-08-20T20:20:26Z</time>
      </trkpt>
      <trkpt lat="59.352958347617" lon="17.882344606078">
        <ele>5.4</ele>
        <time>2013-08-20T20:20:31Z</time>
      </trkpt>
      <trkpt lat="59.353095307863" lon="17.882174369689">
        <ele>5.4</ele>
        <time>2013-08-20T20:20:33Z</time>
      </trkpt>
      <trkpt lat="59.35334785451" lon="17.881803638252">
        <ele>5.4</ele>
        <time>2013-08-20T20:20:37Z</time>
      </trkpt>
      <trkpt lat="59.353403594145" lon="17.881700205606">
        <ele>5.4</ele>
        <time>2013-08-20T20:20:38Z</time>
      </trkpt>
      <trkpt lat="59.353689249297" lon="17.881113640244">
        <ele>5.4</ele>
        <time>2013-08-20T20:20:43Z</time>
      </trkpt>
      <trkpt lat="59.354045731504" lon="17.880356167941">
        <ele>5.4</ele>
        <time>2013-08-20T20:20:49Z</time>
      </trkpt>
      <trkpt lat="59.354499024656" lon="17.879569778083">
        <ele>5.4</ele>
        <time>2013-08-20T20:20:56Z</time>
      </trkpt>
      <trkpt lat="59.354722067015" lon="17.879322092938">
        <ele>5.4</ele>
        <time>2013-08-20T20:20:59Z</time>
      </trkpt>
      <trkpt lat="59.354946366659" lon="17.878842732077">
        <ele>5.4</ele>
        <time>2013-08-20T20:21:03Z</time>
      </trkpt>
      <trkpt lat="59.355081985801" lon="17.878428750036">
        <ele>5.4</ele>
        <time>2013-08-20T20:21:06Z</time>
      </trkpt>
      <trkpt lat="59.355148202811" lon="17.878333447833">
        <ele>5.4</ele>
        <time>2013-08-20T20:21:07Z</time>
      </trkpt>
      <trkpt lat="59.355362947089" lon="17.878094060769">
        <ele>5.8</ele>
        <time>2013-08-20T20:21:10Z</time>
      </trkpt>
      <trkpt lat="59.355428577366" lon="17.877996579272">
        <ele>6.4</ele>
        <time>2013-08-20T20:21:11Z</time>
      </trkpt>
      <trkpt lat="59.355492028349" lon="17.877897253757">
        <ele>6.8</ele>
        <time>2013-08-20T20:21:12Z</time>
      </trkpt>
      <trkpt lat="59.355555227875" lon="17.877780996804">
        <ele>7.2</ele>
        <time>2013-08-20T20:21:13Z</time>
      </trkpt>
      <trkpt lat="59.355615409917" lon="17.877657950512">
        <ele>7.6</ele>
        <time>2013-08-20T20:21:14Z</time>
      </trkpt>
      <trkpt lat="59.355676513968" lon="17.877524426845">
        <ele>7.6</ele>
        <time>2013-08-20T20:21:15Z</time>
      </trkpt>
      <trkpt lat="59.355752789258" lon="17.877421161837">
        <ele>7.6</ele>
        <time>2013-08-20T20:21:16Z</time>
      </trkpt>
      <trkpt lat="59.356080018634" lon="17.87684758842">
        <ele>7.2</ele>
        <time>2013-08-20T20:21:21Z</time>
      </trkpt>
      <trkpt lat="59.356142044694" lon="17.876739629548">
        <ele>6.8</ele>
        <time>2013-08-20T20:21:22Z</time>
      </trkpt>
      <trkpt lat="59.356204238392" lon="17.87662882083">
        <ele>6.4</ele>
        <time>2013-08-20T20:21:23Z</time>
      </trkpt>
      <trkpt lat="59.356269281936" lon="17.876518515026">
        <ele>6</ele>
        <time>2013-08-20T20:21:24Z</time>
      </trkpt>
      <trkpt lat="59.356332816738" lon="17.876406951937">
        <ele>5.4</ele>
        <time>2013-08-20T20:21:25Z</time>
      </trkpt>
      <trkpt lat="59.356659878476" lon="17.875821308584">
        <ele>5.4</ele>
        <time>2013-08-20T20:21:30Z</time>
      </trkpt>
      <trkpt lat="59.357107052841" lon="17.874966773879">
        <ele>5.4</ele>
        <time>2013-08-20T20:21:37Z</time>
      </trkpt>
      <trkpt lat="59.357328502639" lon="17.874398816335">
        <ele>5.4</ele>
        <time>2013-08-20T20:21:41Z</time>
      </trkpt>
      <trkpt lat="59.357392875631" lon="17.874271662912">
        <ele>5.4</ele>
        <time>2013-08-20T20:21:42Z</time>
      </trkpt>
      <trkpt lat="59.35778355599" lon="17.873547299114">
        <ele>5.4</ele>
        <time>2013-08-20T20:21:48Z</time>
      </trkpt>
      <trkpt lat="59.358141966034" lon="17.872927122333">
        <ele>5.4</ele>
        <time>2013-08-20T20:21:54Z</time>
      </trkpt>
      <trkpt lat="59.35834849605" lon="17.872525461685">
        <ele>5.4</ele>
        <time>2013-08-20T20:21:58Z</time>
      </trkpt>
      <trkpt lat="59.358391830473" lon="17.872300742946">
        <ele>5.4</ele>
        <time>2013-08-20T20:22:00Z</time>
      </trkpt>
      <trkpt lat="59.358470704152" lon="17.871976279597">
        <ele>5.4</ele>
        <time>2013-08-20T20:22:03Z</time>
      </trkpt>
      <trkpt lat="59.358560809577" lon="17.871808725416">
        <ele>5.4</ele>
        <time>2013-08-20T20:22:05Z</time>
      </trkpt>
      <trkpt lat="59.358747139214" lon="17.871493985071">
        <ele>6</ele>
        <time>2013-08-20T20:22:09Z</time>
      </trkpt>
      <trkpt lat="59.358815451699" lon="17.87143874835">
        <ele>6.4</ele>
        <time>2013-08-20T20:22:10Z</time>
      </trkpt>
      <trkpt lat="59.358881417252" lon="17.871385858561">
        <ele>6.8</ele>
        <time>2013-08-20T20:22:11Z</time>
      </trkpt>
      <trkpt lat="59.358947634262" lon="17.871355432264">
        <ele>7.4</ele>
        <time>2013-08-20T20:22:12Z</time>
      </trkpt>
      <trkpt lat="59.359011755797" lon="17.871283264105">
        <ele>7.8</ele>
        <time>2013-08-20T20:22:13Z</time>
      </trkpt>
      <trkpt lat="59.359073949495" lon="17.871219477846">
        <ele>7.8</ele>
        <time>2013-08-20T20:22:14Z</time>
      </trkpt>
      <trkpt lat="59.359129018578" lon="17.871130964982">
        <ele>7.8</ele>
        <time>2013-08-20T20:22:15Z</time>
      </trkpt>
      <trkpt lat="59.359249885576" lon="17.870931475762">
        <ele>7.8</ele>
        <time>2013-08-20T20:22:17Z</time>
      </trkpt>
      <trkpt lat="59.359302523908" lon="17.870819996492">
        <ele>7.8</ele>
        <time>2013-08-20T20:22:18Z</time>
      </trkpt>
      <trkpt lat="59.359469575175" lon="17.870506848708">
        <ele>8.2</ele>
        <time>2013-08-20T20:22:21Z</time>
      </trkpt>
      <trkpt lat="59.35953034395" lon="17.870411462686">
        <ele>8.6</ele>
        <time>2013-08-20T20:22:22Z</time>
      </trkpt>
      <trkpt lat="59.35958398811" lon="17.870303168538">
        <ele>9</ele>
        <time>2013-08-20T20:22:23Z</time>
      </trkpt>
      <trkpt lat="59.359640817392" lon="17.870199149159">
        <ele>9.4</ele>
        <time>2013-08-20T20:22:24Z</time>
      </trkpt>
      <trkpt lat="59.359695635018" lon="17.870092196115">
        <ele>9.8</ele>
        <time>2013-08-20T20:22:25Z</time>
      </trkpt>
      <trkpt lat="59.360041556031" lon="17.869490208057">
        <ele>9.8</ele>
        <time>2013-08-20T20:22:31Z</time>
      </trkpt>
      <trkpt lat="59.360443300498" lon="17.868770035209">
        <ele>9.8</ele>
        <time>2013-08-20T20:22:38Z</time>
      </trkpt>
      <trkpt lat="59.360613955982" lon="17.868465017868">
        <ele>9.8</ele>
        <time>2013-08-20T20:22:41Z</time>
      </trkpt>
      <trkpt lat="59.360782096896" lon="17.868141560347">
        <ele>10.2</ele>
        <time>2013-08-20T20:22:44Z</time>
      </trkpt>
      <trkpt lat="59.360838590902" lon="17.868025471032">
        <ele>10.8</ele>
        <time>2013-08-20T20:22:45Z</time>
      </trkpt>
      <trkpt lat="59.360889720492" lon="17.867918769445">
        <ele>11.2</ele>
        <time>2013-08-20T20:22:46Z</time>
      </trkpt>
      <trkpt lat="59.360940766263" lon="17.867806368166">
        <ele>11.6</ele>
        <time>2013-08-20T20:22:47Z</time>
      </trkpt>
      <trkpt lat="59.360990806206" lon="17.86769036267">
        <ele>12</ele>
        <time>2013-08-20T20:22:48Z</time>
      </trkpt>
      <trkpt lat="59.361042690167" lon="17.867588271128">
        <ele>12</ele>
        <time>2013-08-20T20:22:49Z</time>
      </trkpt>
      <trkpt lat="59.361272018951" lon="17.867215025121">
        <ele>12</ele>
        <time>2013-08-20T20:22:53Z</time>
      </trkpt>
      <trkpt lat="59.361334547925" lon="17.867123410954">
        <ele>12</ele>
        <time>2013-08-20T20:22:54Z</time>
      </trkpt>
      <trkpt lat="59.361622885285" lon="17.866588729553">
        <ele>12</ele>
        <time>2013-08-20T20:22:59Z</time>
      </trkpt>
      <trkpt lat="59.361665884432" lon="17.866460151207">
        <ele>12</ele>
        <time>2013-08-20T20:23:00Z</time>
      </trkpt>
      <trkpt lat="59.36178172229" lon="17.866050192478">
        <ele>12</ele>
        <time>2013-08-20T20:23:03Z</time>
      </trkpt>
      <trkpt lat="59.362043991941" lon="17.865430015697">
        <ele>12</ele>
        <time>2013-08-20T20:23:08Z</time>
      </trkpt>
      <trkpt lat="59.362449005349" lon="17.864564416884">
        <ele>11.6</ele>
        <time>2013-08-20T20:23:15Z</time>
      </trkpt>
      <trkpt lat="59.362510193219" lon="17.864442795515">
        <ele>11.2</ele>
        <time>2013-08-20T20:23:16Z</time>
      </trkpt>
      <trkpt lat="59.362567022501" lon="17.864315474454">
        <ele>10.8</ele>
        <time>2013-08-20T20:23:17Z</time>
      </trkpt>
      <trkpt lat="59.36262661781" lon="17.864189075402">
        <ele>10.4</ele>
        <time>2013-08-20T20:23:18Z</time>
      </trkpt>
      <trkpt lat="59.362686883671" lon="17.864058569219">
        <ele>10</ele>
        <time>2013-08-20T20:23:19Z</time>
      </trkpt>
      <trkpt lat="59.362881511389" lon="17.863659423141">
        <ele>10</ele>
        <time>2013-08-20T20:23:22Z</time>
      </trkpt>
      <trkpt lat="59.362947393123" lon="17.863532437356">
        <ele>9.6</ele>
        <time>2013-08-20T20:23:23Z</time>
      </trkpt>
      <trkpt lat="59.363012269029" lon="17.863405032476">
        <ele>9.2</ele>
        <time>2013-08-20T20:23:24Z</time>
      </trkpt>
      <trkpt lat="59.36307924041" lon="17.863267988411">
        <ele>8.8</ele>
        <time>2013-08-20T20:23:25Z</time>
      </trkpt>
      <trkpt lat="59.363148642542" lon="17.863143433377">
        <ele>8.4</ele>
        <time>2013-08-20T20:23:26Z</time>
      </trkpt>
      <trkpt lat="59.363220810701" lon="17.863017369601">
        <ele>8</ele>
        <time>2013-08-20T20:23:27Z</time>
      </trkpt>
      <trkpt lat="59.363366571942" lon="17.862763314212">
        <ele>8</ele>
        <time>2013-08-20T20:23:29Z</time>
      </trkpt>
      <trkpt lat="59.363519206341" lon="17.862514287963">
        <ele>7.4</ele>
        <time>2013-08-20T20:23:31Z</time>
      </trkpt>
      <trkpt lat="59.363597158011" lon="17.862398450105">
        <ele>7</ele>
        <time>2013-08-20T20:23:32Z</time>
      </trkpt>
      <trkpt lat="59.363671756921" lon="17.862282612247">
        <ele>6.4</ele>
        <time>2013-08-20T20:23:33Z</time>
      </trkpt>
      <trkpt lat="59.363753480446" lon="17.862160655602">
        <ele>6</ele>
        <time>2013-08-20T20:23:34Z</time>
      </trkpt>
      <trkpt lat="59.36383277322" lon="17.862047416133">
        <ele>5.6</ele>
        <time>2013-08-20T20:23:35Z</time>
      </trkpt>
      <trkpt lat="59.364324120198" lon="17.861366135301">
        <ele>5.6</ele>
        <time>2013-08-20T20:23:41Z</time>
      </trkpt>
      <trkpt lat="59.364823765257" lon="17.860731541652">
        <ele>5.6</ele>
        <time>2013-08-20T20:23:47Z</time>
      </trkpt>
      <trkpt lat="59.364990648886" lon="17.860545379653">
        <ele>5.6</ele>
        <time>2013-08-20T20:23:49Z</time>
      </trkpt>
      <trkpt lat="59.365422735831" lon="17.859994688823">
        <ele>5.6</ele>
        <time>2013-08-20T20:23:55Z</time>
      </trkpt>
      <trkpt lat="59.365522899536" lon="17.859796875983">
        <ele>6</ele>
        <time>2013-08-20T20:23:57Z</time>
      </trkpt>
      <trkpt lat="59.365564054665" lon="17.859706016187">
        <ele>6.6</ele>
        <time>2013-08-20T20:23:58Z</time>
      </trkpt>
      <trkpt lat="59.365618788472" lon="17.859612641821">
        <ele>7</ele>
        <time>2013-08-20T20:23:59Z</time>
      </trkpt>
      <trkpt lat="59.365655668832" lon="17.859513735401">
        <ele>7.6</ele>
        <time>2013-08-20T20:24:00Z</time>
      </trkpt>
      <trkpt lat="59.365697578332" lon="17.859433604437">
        <ele>8</ele>
        <time>2013-08-20T20:24:01Z</time>
      </trkpt>
      <trkpt lat="59.365775613821" lon="17.859277868735">
        <ele>8</ele>
        <time>2013-08-20T20:24:04Z</time>
      </trkpt>
      <trkpt lat="59.365811404534" lon="17.859218860159">
        <ele>8</ele>
        <time>2013-08-20T20:24:05Z</time>
      </trkpt>
      <trkpt lat="59.365983904036" lon="17.858996153076">
        <ele>8</ele>
        <time>2013-08-20T20:24:09Z</time>
      </trkpt>
      <trkpt lat="59.36617551427" lon="17.858815355493">
        <ele>8</ele>
        <time>2013-08-20T20:24:13Z</time>
      </trkpt>
      <trkpt lat="59.366279617468" lon="17.858758442392">
        <ele>8</ele>
        <time>2013-08-20T20:24:15Z</time>
      </trkpt>
      <trkpt lat="59.366305768996" lon="17.858822061013">
        <ele>8</ele>
        <time>2013-08-20T20:24:16Z</time>
      </trkpt>
      <trkpt lat="59.366327645755" lon="17.858866317445">
        <ele>8.4</ele>
        <time>2013-08-20T20:24:17Z</time>
      </trkpt>
      <trkpt lat="59.366343822822" lon="17.85890194052">
        <ele>9</ele>
        <time>2013-08-20T20:24:18Z</time>
      </trkpt>
      <trkpt lat="59.366367878875" lon="17.858954327395">
        <ele>9.4</ele>
        <time>2013-08-20T20:24:19Z</time>
      </trkpt>
      <trkpt lat="59.366396461154" lon="17.859008725926">
        <ele>10.2</ele>
        <time>2013-08-20T20:24:20Z</time>
      </trkpt>
      <trkpt lat="59.36660718212" lon="17.859314162362">
        <ele>10.2</ele>
        <time>2013-08-20T20:24:26Z</time>
      </trkpt>
      <trkpt lat="59.366701646133" lon="17.859560506403">
        <ele>10.2</ele>
        <time>2013-08-20T20:24:30Z</time>
      </trkpt>
      <trkpt lat="59.366691084939" lon="17.859702244332">
        <ele>10.2</ele>
        <time>2013-08-20T20:24:33Z</time>
      </trkpt>
      <trkpt lat="59.366689073283" lon="17.859804922607">
        <ele>10.2</ele>
        <time>2013-08-20T20:24:36Z</time>
      </trkpt>
      <trkpt lat="59.36669183931" lon="17.859971638598">
        <ele>10.2</ele>
        <time>2013-08-20T20:24:38Z</time>
      </trkpt>
      <trkpt lat="59.366684630876" lon="17.860186718152">
        <ele>10.2</ele>
        <time>2013-08-20T20:24:40Z</time>
      </trkpt>
      <trkpt lat="59.366680272288" lon="17.860526101283">
        <ele>10.2</ele>
        <time>2013-08-20T20:24:43Z</time>
      </trkpt>
      <trkpt lat="59.366707848739" lon="17.860630036843">
        <ele>10.2</ele>
        <time>2013-08-20T20:24:44Z</time>
      </trkpt>
      <trkpt lat="59.36690054862" lon="17.860898760557">
        <ele>10.2</ele>
        <time>2013-08-20T20:24:48Z</time>
      </trkpt>
      <trkpt lat="59.366966514173" lon="17.860928432483">
        <ele>10.2</ele>
        <time>2013-08-20T20:24:49Z</time>
      </trkpt>
      <trkpt lat="59.367031725355" lon="17.860967911232">
        <ele>10.2</ele>
        <time>2013-08-20T20:24:50Z</time>
      </trkpt>
      <trkpt lat="59.36720816435" lon="17.861153235041">
        <ele>10.2</ele>
        <time>2013-08-20T20:24:53Z</time>
      </trkpt>
      <trkpt lat="59.367496585529" lon="17.861440063659">
        <ele>10.2</ele>
        <time>2013-08-20T20:24:58Z</time>
      </trkpt>
      <trkpt lat="59.367563221634" lon="17.861466550463">
        <ele>10.2</ele>
        <time>2013-08-20T20:24:59Z</time>
      </trkpt>
      <trkpt lat="59.367633545775" lon="17.861476776381">
        <ele>10.2</ele>
        <time>2013-08-20T20:25:00Z</time>
      </trkpt>
      <trkpt lat="59.367814846272" lon="17.861545424142">
        <ele>10.2</ele>
        <time>2013-08-20T20:25:03Z</time>
      </trkpt>
      <trkpt lat="59.368151463376" lon="17.861633098816">
        <ele>10.2</ele>
        <time>2013-08-20T20:25:08Z</time>
      </trkpt>
      <trkpt lat="59.368572905308" lon="17.861698896731">
        <ele>10.2</ele>
        <time>2013-08-20T20:25:14Z</time>
      </trkpt>
      <trkpt lat="59.368909270955" lon="17.861728987752">
        <ele>10.2</ele>
        <time>2013-08-20T20:25:19Z</time>
      </trkpt>
      <trkpt lat="59.369113873134" lon="17.861717756006">
        <ele>10.2</ele>
        <time>2013-08-20T20:25:22Z</time>
      </trkpt>
      <trkpt lat="59.369292575242" lon="17.861659166525">
        <ele>10.2</ele>
        <time>2013-08-20T20:25:24Z</time>
      </trkpt>
      <trkpt lat="59.369380082278" lon="17.861626309477">
        <ele>9.8</ele>
        <time>2013-08-20T20:25:25Z</time>
      </trkpt>
      <trkpt lat="59.369465493839" lon="17.861608958944">
        <ele>9.4</ele>
        <time>2013-08-20T20:25:26Z</time>
      </trkpt>
      <trkpt lat="59.369549731934" lon="17.861592949515">
        <ele>9</ele>
        <time>2013-08-20T20:25:27Z</time>
      </trkpt>
      <trkpt lat="59.369637574246" lon="17.861601331415">
        <ele>8.6</ele>
        <time>2013-08-20T20:25:28Z</time>
      </trkpt>
      <trkpt lat="59.369723153445" lon="17.861656400498">
        <ele>8.2</ele>
        <time>2013-08-20T20:25:29Z</time>
      </trkpt>
      <trkpt lat="59.370297565052" lon="17.86194373203">
        <ele>8.2</ele>
        <time>2013-08-20T20:25:36Z</time>
      </trkpt>
      <trkpt lat="59.370750187652" lon="17.862161326154">
        <ele>8.2</ele>
        <time>2013-08-20T20:25:42Z</time>
      </trkpt>
      <trkpt lat="59.370821098526" lon="17.862197619781">
        <ele>8.6</ele>
        <time>2013-08-20T20:25:43Z</time>
      </trkpt>
      <trkpt lat="59.370888740459" lon="17.862236847073">
        <ele>9</ele>
        <time>2013-08-20T20:25:44Z</time>
      </trkpt>
      <trkpt lat="59.370958645505" lon="17.862269452664">
        <ele>9.4</ele>
        <time>2013-08-20T20:25:45Z</time>
      </trkpt>
      <trkpt lat="59.371026035981" lon="17.862305746291">
        <ele>9.8</ele>
        <time>2013-08-20T20:25:46Z</time>
      </trkpt>
      <trkpt lat="59.371093342638" lon="17.862329886163">
        <ele>10.2</ele>
        <time>2013-08-20T20:25:47Z</time>
      </trkpt>
      <trkpt lat="59.371227117762" lon="17.862372550034">
        <ele>10.2</ele>
        <time>2013-08-20T20:25:49Z</time>
      </trkpt>
      <trkpt lat="59.371555688242" lon="17.862445891659">
        <ele>10.2</ele>
        <time>2013-08-20T20:25:54Z</time>
      </trkpt>
      <trkpt lat="59.371609583859" lon="17.86242150033">
        <ele>10.6</ele>
        <time>2013-08-20T20:25:55Z</time>
      </trkpt>
      <trkpt lat="59.371667251331" lon="17.862434408456">
        <ele>11</ele>
        <time>2013-08-20T20:25:56Z</time>
      </trkpt>
      <trkpt lat="59.371716620722" lon="17.862472043187">
        <ele>11.4</ele>
        <time>2013-08-20T20:25:57Z</time>
      </trkpt>
      <trkpt lat="59.371770851615" lon="17.862499703457">
        <ele>11.8</ele>
        <time>2013-08-20T20:25:58Z</time>
      </trkpt>
      <trkpt lat="59.371818041712" lon="17.862541612957">
        <ele>12.2</ele>
        <time>2013-08-20T20:25:59Z</time>
      </trkpt>
      <trkpt lat="59.371862884877" lon="17.862720650341">
        <ele>12.2</ele>
        <time>2013-08-20T20:26:01Z</time>
      </trkpt>
      <trkpt lat="59.371836481892" lon="17.863078054557">
        <ele>12.2</ele>
        <time>2013-08-20T20:26:04Z</time>
      </trkpt>
      <trkpt lat="59.371949637542" lon="17.863231527146">
        <ele>12.2</ele>
        <time>2013-08-20T20:26:06Z</time>
      </trkpt>
      <trkpt lat="59.372099925009" lon="17.863304365857">
        <ele>12.2</ele>
        <time>2013-08-20T20:26:08Z</time>
      </trkpt>
      <trkpt lat="59.372157927757" lon="17.8633041144">
        <ele>12.2</ele>
        <time>2013-08-20T20:26:09Z</time>
      </trkpt>
      <trkpt lat="59.372493203757" lon="17.863412073272">
        <ele>12.2</ele>
        <time>2013-08-20T20:26:14Z</time>
      </trkpt>
      <trkpt lat="59.372565371916" lon="17.863418694973">
        <ele>12.6</ele>
        <time>2013-08-20T20:26:15Z</time>
      </trkpt>
      <trkpt lat="59.372635779876" lon="17.86345666498">
        <ele>13</ele>
        <time>2013-08-20T20:26:16Z</time>
      </trkpt>
      <trkpt lat="59.37270836713" lon="17.863489522028">
        <ele>13.4</ele>
        <time>2013-08-20T20:26:17Z</time>
      </trkpt>
      <trkpt lat="59.372773326855" lon="17.863554146477">
        <ele>13.8</ele>
        <time>2013-08-20T20:26:18Z</time>
      </trkpt>
      <trkpt lat="59.372837364571" lon="17.863603767325">
        <ele>14.2</ele>
        <time>2013-08-20T20:26:19Z</time>
      </trkpt>
      <trkpt lat="59.372900228821" lon="17.863653723449">
        <ele>14.8</ele>
        <time>2013-08-20T20:26:20Z</time>
      </trkpt>
      <trkpt lat="59.372970133867" lon="17.863702003193">
        <ele>15.4</ele>
        <time>2013-08-20T20:26:21Z</time>
      </trkpt>
      <trkpt lat="59.373034339221" lon="17.863762185235">
        <ele>15.8</ele>
        <time>2013-08-20T20:26:22Z</time>
      </trkpt>
      <trkpt lat="59.37310231643" lon="17.863815745576">
        <ele>16.4</ele>
        <time>2013-08-20T20:26:23Z</time>
      </trkpt>
      <trkpt lat="59.373176412426" lon="17.863877603998">
        <ele>17.4</ele>
        <time>2013-08-20T20:26:24Z</time>
      </trkpt>
      <trkpt lat="59.373242964712" lon="17.863935187651">
        <ele>18</ele>
        <time>2013-08-20T20:26:25Z</time>
      </trkpt>
      <trkpt lat="59.373313707948" lon="17.863989670001">
        <ele>18.6</ele>
        <time>2013-08-20T20:26:26Z</time>
      </trkpt>
      <trkpt lat="59.373382774804" lon="17.864047672749">
        <ele>19</ele>
        <time>2013-08-20T20:26:27Z</time>
      </trkpt>
      <trkpt lat="59.373678404417" lon="17.864297537188">
        <ele>19</ele>
        <time>2013-08-20T20:26:31Z</time>
      </trkpt>
      <trkpt lat="59.374125662601" lon="17.864662568933">
        <ele>18.6</ele>
        <time>2013-08-20T20:26:37Z</time>
      </trkpt>
      <trkpt lat="59.374203362814" lon="17.864734401816">
        <ele>18.2</ele>
        <time>2013-08-20T20:26:38Z</time>
      </trkpt>
      <trkpt lat="59.374290115479" lon="17.864804139224">
        <ele>17.8</ele>
        <time>2013-08-20T20:26:39Z</time>
      </trkpt>
      <trkpt lat="59.37436546876" lon="17.864900363436">
        <ele>17.4</ele>
        <time>2013-08-20T20:26:40Z</time>
      </trkpt>
      <trkpt lat="59.374436211996" lon="17.865000694779">
        <ele>17</ele>
        <time>2013-08-20T20:26:41Z</time>
      </trkpt>
      <trkpt lat="59.374506787594" lon="17.865105049434">
        <ele>17</ele>
        <time>2013-08-20T20:26:42Z</time>
      </trkpt>
      <trkpt lat="59.374663948219" lon="17.865315016029">
        <ele>16.4</ele>
        <time>2013-08-20T20:26:44Z</time>
      </trkpt>
      <trkpt lat="59.37474349245" lon="17.865405037635">
        <ele>16</ele>
        <time>2013-08-20T20:26:45Z</time>
      </trkpt>
      <trkpt lat="59.374833262599" lon="17.86548089383">
        <ele>15.6</ele>
        <time>2013-08-20T20:26:46Z</time>
      </trkpt>
      <trkpt lat="59.374923284205" lon="17.865493550499">
        <ele>15.2</ele>
        <time>2013-08-20T20:26:47Z</time>
      </trkpt>
      <trkpt lat="59.375008779585" lon="17.865453317379">
        <ele>14.6</ele>
        <time>2013-08-20T20:26:48Z</time>
      </trkpt>
      <trkpt lat="59.375178848336" lon="17.865491371205">
        <ele>14.6</ele>
        <time>2013-08-20T20:26:50Z</time>
      </trkpt>
      <trkpt lat="59.375315892401" lon="17.865677700842">
        <ele>14.6</ele>
        <time>2013-08-20T20:26:52Z</time>
      </trkpt>
      <trkpt lat="59.375444386928" lon="17.865812984708">
        <ele>15.2</ele>
        <time>2013-08-20T20:26:54Z</time>
      </trkpt>
      <trkpt lat="59.37549870164" lon="17.865886074876">
        <ele>15.6</ele>
        <time>2013-08-20T20:26:55Z</time>
      </trkpt>
      <trkpt lat="59.37554983123" lon="17.86595363299">
        <ele>16</ele>
        <time>2013-08-20T20:26:56Z</time>
      </trkpt>
      <trkpt lat="59.37559593168" lon="17.866004008209">
        <ele>16.4</ele>
        <time>2013-08-20T20:26:57Z</time>
      </trkpt>
      <trkpt lat="59.375651838953" lon="17.866063687337">
        <ele>17</ele>
        <time>2013-08-20T20:26:58Z</time>
      </trkpt>
      <trkpt lat="59.375701878896" lon="17.866137615695">
        <ele>17.6</ele>
        <time>2013-08-20T20:26:59Z</time>
      </trkpt>
      <trkpt lat="59.375759965463" lon="17.866197630099">
        <ele>18.2</ele>
        <time>2013-08-20T20:27:00Z</time>
      </trkpt>
      <trkpt lat="59.375825511921" lon="17.86622772112">
        <ele>18.8</ele>
        <time>2013-08-20T20:27:01Z</time>
      </trkpt>
      <trkpt lat="59.375896087519" lon="17.866252699182">
        <ele>19.4</ele>
        <time>2013-08-20T20:27:02Z</time>
      </trkpt>
      <trkpt lat="59.375969177687" lon="17.86626711605">
        <ele>19.4</ele>
        <time>2013-08-20T20:27:03Z</time>
      </trkpt>
      <trkpt lat="59.376052493773" lon="17.866280275633">
        <ele>19.4</ele>
        <time>2013-08-20T20:27:04Z</time>
      </trkpt>
      <trkpt lat="59.376323899695" lon="17.866366106289">
        <ele>19.4</ele>
        <time>2013-08-20T20:27:07Z</time>
      </trkpt>
      <trkpt lat="59.376417860794" lon="17.866406004133">
        <ele>18.8</ele>
        <time>2013-08-20T20:27:08Z</time>
      </trkpt>
      <trkpt lat="59.376516767214" lon="17.866442633036">
        <ele>18.4</ele>
        <time>2013-08-20T20:27:09Z</time>
      </trkpt>
      <trkpt lat="59.376610393037" lon="17.866483955803">
        <ele>17.8</ele>
        <time>2013-08-20T20:27:10Z</time>
      </trkpt>
      <trkpt lat="59.376703599765" lon="17.866520500887">
        <ele>17.2</ele>
        <time>2013-08-20T20:27:11Z</time>
      </trkpt>
      <trkpt lat="59.376797979959" lon="17.866540282171">
        <ele>16.6</ele>
        <time>2013-08-20T20:27:12Z</time>
      </trkpt>
      <trkpt lat="59.376884900262" lon="17.866559392903">
        <ele>16</ele>
        <time>2013-08-20T20:27:13Z</time>
      </trkpt>
      <trkpt lat="59.376974502773" lon="17.866585125336">
        <ele>14.8</ele>
        <time>2013-08-20T20:27:14Z</time>
      </trkpt>
      <trkpt lat="59.377526367069" lon="17.866700963194">
        <ele>14.8</ele>
        <time>2013-08-20T20:27:20Z</time>
      </trkpt>
      <trkpt lat="59.377950658847" lon="17.866807329505">
        <ele>14.8</ele>
        <time>2013-08-20T20:27:25Z</time>
      </trkpt>
      <trkpt lat="59.378378806299" lon="17.866921574802">
        <ele>14.8</ele>
        <time>2013-08-20T20:27:30Z</time>
      </trkpt>
      <trkpt lat="59.378656498646" lon="17.866787212945">
        <ele>14.8</ele>
        <time>2013-08-20T20:27:33Z</time>
      </trkpt>
      <trkpt lat="59.378945171282" lon="17.866852424127">
        <ele>14.8</ele>
        <time>2013-08-20T20:27:36Z</time>
      </trkpt>
      <trkpt lat="59.379534670309" lon="17.866956359687">
        <ele>14.8</ele>
        <time>2013-08-20T20:27:42Z</time>
      </trkpt>
      <trkpt lat="59.379622847897" lon="17.86697119565">
        <ele>14.8</ele>
        <time>2013-08-20T20:27:43Z</time>
      </trkpt>
      <trkpt lat="59.380178232591" lon="17.867024085439">
        <ele>14.8</ele>
        <time>2013-08-20T20:27:49Z</time>
      </trkpt>
      <trkpt lat="59.380435976016" lon="17.867096840331">
        <ele>15.2</ele>
        <time>2013-08-20T20:27:52Z</time>
      </trkpt>
      <trkpt lat="59.380527338726" lon="17.867103713489">
        <ele>15.6</ele>
        <time>2013-08-20T20:27:53Z</time>
      </trkpt>
      <trkpt lat="59.380616019228" lon="17.867113939407">
        <ele>16</ele>
        <time>2013-08-20T20:27:54Z</time>
      </trkpt>
      <trkpt lat="59.380704112997" lon="17.867143611333">
        <ele>16.4</ele>
        <time>2013-08-20T20:27:55Z</time>
      </trkpt>
      <trkpt lat="59.380796732992" lon="17.867158866391">
        <ele>16.8</ele>
        <time>2013-08-20T20:27:56Z</time>
      </trkpt>
      <trkpt lat="59.38106931238" lon="17.867186023747">
        <ele>16.8</ele>
        <time>2013-08-20T20:27:59Z</time>
      </trkpt>
      <trkpt lat="59.381676329578" lon="17.867278057009">
        <ele>16.8</ele>
        <time>2013-08-20T20:28:06Z</time>
      </trkpt>
      <trkpt lat="59.382072541991" lon="17.867399007826">
        <ele>16.8</ele>
        <time>2013-08-20T20:28:11Z</time>
      </trkpt>
      <trkpt lat="59.382430281483" lon="17.867432786883">
        <ele>16.8</ele>
        <time>2013-08-20T20:28:16Z</time>
      </trkpt>
      <trkpt lat="59.382570175394" lon="17.867455585651">
        <ele>16.8</ele>
        <time>2013-08-20T20:28:18Z</time>
      </trkpt>
      <trkpt lat="59.38271384116" lon="17.867503865395">
        <ele>16.8</ele>
        <time>2013-08-20T20:28:20Z</time>
      </trkpt>
      <trkpt lat="59.382850130854" lon="17.86749171164">
        <ele>16.4</ele>
        <time>2013-08-20T20:28:22Z</time>
      </trkpt>
      <trkpt lat="59.38290997762" lon="17.867499506807">
        <ele>16</ele>
        <time>2013-08-20T20:28:23Z</time>
      </trkpt>
      <trkpt lat="59.382963957056" lon="17.867493974753">
        <ele>15.6</ele>
        <time>2013-08-20T20:28:24Z</time>
      </trkpt>
      <trkpt lat="59.383003268167" lon="17.867482072455">
        <ele>15.2</ele>
        <time>2013-08-20T20:28:25Z</time>
      </trkpt>
      <trkpt lat="59.383036460491" lon="17.867493220382">
        <ele>14.8</ele>
        <time>2013-08-20T20:28:26Z</time>
      </trkpt>
      <trkpt lat="59.383059426897" lon="17.867496489323">
        <ele>14.8</ele>
        <time>2013-08-20T20:28:27Z</time>
      </trkpt>
      <trkpt lat="59.383073340851" lon="17.867487269233">
        <ele>14.8</ele>
        <time>2013-08-20T20:28:30Z</time>
      </trkpt>
      <trkpt lat="59.383126146821" lon="17.867493220382">
        <ele>14.8</ele>
        <time>2013-08-20T20:28:33Z</time>
      </trkpt>
      <trkpt lat="59.383313063191" lon="17.867547283637">
        <ele>14.8</ele>
        <time>2013-08-20T20:28:37Z</time>
      </trkpt>
      <trkpt lat="59.383371317396" lon="17.86759732358">
        <ele>14.8</ele>
        <time>2013-08-20T20:28:38Z</time>
      </trkpt>
      <trkpt lat="59.383724614481" lon="17.867771080367">
        <ele>14.4</ele>
        <time>2013-08-20T20:28:43Z</time>
      </trkpt>
      <trkpt lat="59.383804242531" lon="17.867776780059">
        <ele>14</ele>
        <time>2013-08-20T20:28:44Z</time>
      </trkpt>
      <trkpt lat="59.383875069586" lon="17.867778959353">
        <ele>13.6</ele>
        <time>2013-08-20T20:28:45Z</time>
      </trkpt>
      <trkpt lat="59.383960062052" lon="17.867766135046">
        <ele>13.2</ele>
        <time>2013-08-20T20:28:46Z</time>
      </trkpt>
      <trkpt lat="59.384039271007" lon="17.867779713724">
        <ele>12.8</ele>
        <time>2013-08-20T20:28:47Z</time>
      </trkpt>
      <trkpt lat="59.384409834806" lon="17.86776747615">
        <ele>12.8</ele>
        <time>2013-08-20T20:28:51Z</time>
      </trkpt>
      <trkpt lat="59.384944180931" lon="17.867792873307">
        <ele>12.8</ele>
        <time>2013-08-20T20:28:57Z</time>
      </trkpt>
      <trkpt lat="59.385102766479" lon="17.867814079514">
        <ele>13.2</ele>
        <time>2013-08-20T20:28:59Z</time>
      </trkpt>
      <trkpt lat="59.385192871904" lon="17.867848361485">
        <ele>13.6</ele>
        <time>2013-08-20T20:29:00Z</time>
      </trkpt>
      <trkpt lat="59.38527451161" lon="17.86788649913">
        <ele>14</ele>
        <time>2013-08-20T20:29:01Z</time>
      </trkpt>
      <trkpt lat="59.385365790501" lon="17.86794181967">
        <ele>14.4</ele>
        <time>2013-08-20T20:29:02Z</time>
      </trkpt>
      <trkpt lat="59.385449190406" lon="17.86801977134">
        <ele>14.8</ele>
        <time>2013-08-20T20:29:03Z</time>
      </trkpt>
      <trkpt lat="59.385606937764" lon="17.868081881219">
        <ele>14.8</ele>
        <time>2013-08-20T20:29:05Z</time>
      </trkpt>
      <trkpt lat="59.38568187195" lon="17.868034523484">
        <ele>15.2</ele>
        <time>2013-08-20T20:29:06Z</time>
      </trkpt>
      <trkpt lat="59.385748256598" lon="17.867986998111">
        <ele>15.8</ele>
        <time>2013-08-20T20:29:07Z</time>
      </trkpt>
      <trkpt lat="59.385816233807" lon="17.867956404176">
        <ele>16.2</ele>
        <time>2013-08-20T20:29:08Z</time>
      </trkpt>
      <trkpt lat="59.385883372826" lon="17.86792673225">
        <ele>16.8</ele>
        <time>2013-08-20T20:29:09Z</time>
      </trkpt>
      <trkpt lat="59.385951350035" lon="17.867902089464">
        <ele>17.2</ele>
        <time>2013-08-20T20:29:10Z</time>
      </trkpt>
      <trkpt lat="59.386031229542" lon="17.867895803039">
        <ele>17.8</ele>
        <time>2013-08-20T20:29:11Z</time>
      </trkpt>
      <trkpt lat="59.386124184813" lon="17.867939221281">
        <ele>18.4</ele>
        <time>2013-08-20T20:29:12Z</time>
      </trkpt>
      <trkpt lat="59.386227785097" lon="17.867968725569">
        <ele>18.8</ele>
        <time>2013-08-20T20:29:13Z</time>
      </trkpt>
      <trkpt lat="59.38633230739" lon="17.867993955088">
        <ele>18.2</ele>
        <time>2013-08-20T20:29:14Z</time>
      </trkpt>
      <trkpt lat="59.386438170787" lon="17.868026895955">
        <ele>17.6</ele>
        <time>2013-08-20T20:29:15Z</time>
      </trkpt>
      <trkpt lat="59.38654520765" lon="17.868093364422">
        <ele>15.6</ele>
        <time>2013-08-20T20:29:16Z</time>
      </trkpt>
      <trkpt lat="59.38665584873" lon="17.868167125142">
        <ele>14.6</ele>
        <time>2013-08-20T20:29:17Z</time>
      </trkpt>
      <trkpt lat="59.386778392108" lon="17.868193360489">
        <ele>13.4</ele>
        <time>2013-08-20T20:29:18Z</time>
      </trkpt>
      <trkpt lat="59.38689808564" lon="17.868194031041">
        <ele>12.4</ele>
        <time>2013-08-20T20:29:19Z</time>
      </trkpt>
      <trkpt lat="59.387010319281" lon="17.868172824834">
        <ele>11.2</ele>
        <time>2013-08-20T20:29:20Z</time>
      </trkpt>
      <trkpt lat="59.387120457447" lon="17.868167208961">
        <ele>10</ele>
        <time>2013-08-20T20:29:21Z</time>
      </trkpt>
      <trkpt lat="59.387220621152" lon="17.868179697992">
        <ele>9</ele>
        <time>2013-08-20T20:29:22Z</time>
      </trkpt>
      <trkpt lat="59.387300835935" lon="17.868190678281">
        <ele>7.8</ele>
        <time>2013-08-20T20:29:23Z</time>
      </trkpt>
      <trkpt lat="59.387373171732" lon="17.868184643313">
        <ele>7.8</ele>
        <time>2013-08-20T20:29:24Z</time>
      </trkpt>
      <trkpt lat="59.387485573011" lon="17.868162598916">
        <ele>8.4</ele>
        <time>2013-08-20T20:29:26Z</time>
      </trkpt>
      <trkpt lat="59.387515161118" lon="17.868169052979">
        <ele>8.8</ele>
        <time>2013-08-20T20:29:27Z</time>
      </trkpt>
      <trkpt lat="59.387547096157" lon="17.868101494865">
        <ele>9.2</ele>
        <time>2013-08-20T20:29:28Z</time>
      </trkpt>
      <trkpt lat="59.387549778365" lon="17.868065368876">
        <ele>9.6</ele>
        <time>2013-08-20T20:29:29Z</time>
      </trkpt>
      <trkpt lat="59.387554891324" lon="17.867728667953">
        <ele>10.2</ele>
        <time>2013-08-20T20:29:53Z</time>
      </trkpt>
      <trkpt lat="59.387562518853" lon="17.867539991384">
        <ele>10.2</ele>
        <time>2013-08-20T20:29:55Z</time>
      </trkpt>
      <trkpt lat="59.387600991774" lon="17.867344693114">
        <ele>10.2</ele>
        <time>2013-08-20T20:29:57Z</time>
      </trkpt>
      <trkpt lat="59.387624125818" lon="17.867298844121">
        <ele>10.2</ele>
        <time>2013-08-20T20:29:58Z</time>
      </trkpt>
      <trkpt lat="59.387642146903" lon="17.867177558028">
        <ele>10.2</ele>
        <time>2013-08-20T20:29:59Z</time>
      </trkpt>
      <trkpt lat="59.387763013901" lon="17.866778160493">
        <ele>10.2</ele>
        <time>2013-08-20T20:30:03Z</time>
      </trkpt>
      <trkpt lat="59.38780333084" lon="17.866672716191">
        <ele>10.2</ele>
        <time>2013-08-20T20:30:04Z</time>
      </trkpt>
      <trkpt lat="59.387997539463" lon="17.866118504963">
        <ele>10.2</ele>
        <time>2013-08-20T20:30:09Z</time>
      </trkpt>
      <trkpt lat="59.388206667868" lon="17.865715419392">
        <ele>10.2</ele>
        <time>2013-08-20T20:30:13Z</time>
      </trkpt>
      <trkpt lat="59.388258216553" lon="17.865622464121">
        <ele>9.8</ele>
        <time>2013-08-20T20:30:14Z</time>
      </trkpt>
      <trkpt lat="59.38831127398" lon="17.865533029248">
        <ele>9.2</ele>
        <time>2013-08-20T20:30:15Z</time>
      </trkpt>
      <trkpt lat="59.388367097434" lon="17.865444516384">
        <ele>8.8</ele>
        <time>2013-08-20T20:30:16Z</time>
      </trkpt>
      <trkpt lat="59.388426860381" lon="17.865360529746">
        <ele>8.4</ele>
        <time>2013-08-20T20:30:17Z</time>
      </trkpt>
      <trkpt lat="59.388490311364" lon="17.865290708519">
        <ele>7.8</ele>
        <time>2013-08-20T20:30:18Z</time>
      </trkpt>
      <trkpt lat="59.388618554434" lon="17.8651565143">
        <ele>7.8</ele>
        <time>2013-08-20T20:30:20Z</time>
      </trkpt>
      <trkpt lat="59.389004205653" lon="17.864913690657">
        <ele>7.8</ele>
        <time>2013-08-20T20:30:26Z</time>
      </trkpt>
      <trkpt lat="59.389392119985" lon="17.86470892084">
        <ele>7.8</ele>
        <time>2013-08-20T20:30:32Z</time>
      </trkpt>
      <trkpt lat="59.389768467295" lon="17.864554190966">
        <ele>7.8</ele>
        <time>2013-08-20T20:30:38Z</time>
      </trkpt>
      <trkpt lat="59.389828481699" lon="17.864511862371">
        <ele>8.4</ele>
        <time>2013-08-20T20:30:39Z</time>
      </trkpt>
      <trkpt lat="59.389885813895" lon="17.864457547659">
        <ele>8.8</ele>
        <time>2013-08-20T20:30:40Z</time>
      </trkpt>
      <trkpt lat="59.389949264878" lon="17.864404071137">
        <ele>9.4</ele>
        <time>2013-08-20T20:30:41Z</time>
      </trkpt>
      <trkpt lat="59.390004753056" lon="17.864356294307">
        <ele>9.8</ele>
        <time>2013-08-20T20:30:42Z</time>
      </trkpt>
      <trkpt lat="59.390056050284" lon="17.864305080898">
        <ele>10.2</ele>
        <time>2013-08-20T20:30:43Z</time>
      </trkpt>
      <trkpt lat="59.390450418679" lon="17.86391515491">
        <ele>10.2</ele>
        <time>2013-08-20T20:30:50Z</time>
      </trkpt>
      <trkpt lat="59.390819054641" lon="17.863412324729">
        <ele>10.2</ele>
        <time>2013-08-20T20:30:57Z</time>
      </trkpt>
      <trkpt lat="59.390924163667" lon="17.863257091941">
        <ele>10.2</ele>
        <time>2013-08-20T20:30:59Z</time>
      </trkpt>
      <trkpt lat="59.39106556632" lon="17.863033546668">
        <ele>10.2</ele>
        <time>2013-08-20T20:31:02Z</time>
      </trkpt>
      <trkpt lat="59.391108146372" lon="17.862938579741">
        <ele>10.2</ele>
        <time>2013-08-20T20:31:03Z</time>
      </trkpt>
      <trkpt lat="59.391217865443" lon="17.862660049204">
        <ele>10.2</ele>
        <time>2013-08-20T20:31:06Z</time>
      </trkpt>
      <trkpt lat="59.391257595649" lon="17.862570614331">
        <ele>10.2</ele>
        <time>2013-08-20T20:31:07Z</time>
      </trkpt>
      <trkpt lat="59.391549453407" lon="17.861863349609">
        <ele>10.2</ele>
        <time>2013-08-20T20:31:15Z</time>
      </trkpt>
      <trkpt lat="59.391585327939" lon="17.861777686591">
        <ele>10.6</ele>
        <time>2013-08-20T20:31:16Z</time>
      </trkpt>
      <trkpt lat="59.391620112824" lon="17.861697723265">
        <ele>11</ele>
        <time>2013-08-20T20:31:17Z</time>
      </trkpt>
      <trkpt lat="59.391657160822" lon="17.861623627269">
        <ele>11.4</ele>
        <time>2013-08-20T20:31:18Z</time>
      </trkpt>
      <trkpt lat="59.391691358974" lon="17.861556236793">
        <ele>11.8</ele>
        <time>2013-08-20T20:31:19Z</time>
      </trkpt>
      <trkpt lat="59.39172270728" lon="17.861489097774">
        <ele>12.4</ele>
        <time>2013-08-20T20:31:20Z</time>
      </trkpt>
      <trkpt lat="59.391783224598" lon="17.861347443664">
        <ele>12.4</ele>
        <time>2013-08-20T20:31:22Z</time>
      </trkpt>
      <trkpt lat="59.391811220144" lon="17.861268318528">
        <ele>12.8</ele>
        <time>2013-08-20T20:31:23Z</time>
      </trkpt>
      <trkpt lat="59.391839718604" lon="17.861188774297">
        <ele>13.2</ele>
        <time>2013-08-20T20:31:24Z</time>
      </trkpt>
      <trkpt lat="59.391868133245" lon="17.861116187043">
        <ele>13.8</ele>
        <time>2013-08-20T20:31:25Z</time>
      </trkpt>
      <trkpt lat="59.391896715524" lon="17.861041671952">
        <ele>14.2</ele>
        <time>2013-08-20T20:31:26Z</time>
      </trkpt>
      <trkpt lat="59.391928231468" lon="17.860979394435">
        <ele>14.6</ele>
        <time>2013-08-20T20:31:27Z</time>
      </trkpt>
      <trkpt lat="59.391970140968" lon="17.860867244613">
        <ele>14.6</ele>
        <time>2013-08-20T20:31:29Z</time>
      </trkpt>
      <trkpt lat="59.39199176627" lon="17.860814271005">
        <ele>15</ele>
        <time>2013-08-20T20:31:30Z</time>
      </trkpt>
      <trkpt lat="59.392016492875" lon="17.860760878302">
        <ele>15.6</ele>
        <time>2013-08-20T20:31:31Z</time>
      </trkpt>
      <trkpt lat="59.392045242792" lon="17.8607141073">
        <ele>16</ele>
        <time>2013-08-20T20:31:32Z</time>
      </trkpt>
      <trkpt lat="59.392073573614" lon="17.860660546959">
        <ele>16.4</ele>
        <time>2013-08-20T20:31:33Z</time>
      </trkpt>
      <trkpt lat="59.392102658807" lon="17.860609668826">
        <ele>16.8</ele>
        <time>2013-08-20T20:31:34Z</time>
      </trkpt>
      <trkpt lat="59.392128558878" lon="17.860543451816">
        <ele>16.8</ele>
        <time>2013-08-20T20:31:35Z</time>
      </trkpt>
      <trkpt lat="59.392295861602" lon="17.860275985387">
        <ele>16.8</ele>
        <time>2013-08-20T20:31:40Z</time>
      </trkpt>
      <trkpt lat="59.392572967216" lon="17.859858985862">
        <ele>16.8</ele>
        <time>2013-08-20T20:31:47Z</time>
      </trkpt>
      <trkpt lat="59.392885695905" lon="17.859354395482">
        <ele>16.8</ele>
        <time>2013-08-20T20:31:54Z</time>
      </trkpt>
      <trkpt lat="59.392935735848" lon="17.859283819884">
        <ele>16.4</ele>
        <time>2013-08-20T20:31:55Z</time>
      </trkpt>
      <trkpt lat="59.392985356696" lon="17.859219782168">
        <ele>16</ele>
        <time>2013-08-20T20:31:56Z</time>
      </trkpt>
      <trkpt lat="59.393032882069" lon="17.859157923746">
        <ele>15.6</ele>
        <time>2013-08-20T20:31:57Z</time>
      </trkpt>
      <trkpt lat="59.393077809053" lon="17.859095059496">
        <ele>15.2</ele>
        <time>2013-08-20T20:31:58Z</time>
      </trkpt>
      <trkpt lat="59.393131201756" lon="17.859027166106">
        <ele>14.8</ele>
        <time>2013-08-20T20:31:59Z</time>
      </trkpt>
      <trkpt lat="59.39318283426" lon="17.858954997947">
        <ele>14.8</ele>
        <time>2013-08-20T20:32:00Z</time>
      </trkpt>
      <trkpt lat="59.393235807868" lon="17.858875034621">
        <ele>14.4</ele>
        <time>2013-08-20T20:32:01Z</time>
      </trkpt>
      <trkpt lat="59.393290374037" lon="17.858791886173">
        <ele>13.8</ele>
        <time>2013-08-20T20:32:02Z</time>
      </trkpt>
      <trkpt lat="59.393350220803" lon="17.858710330286">
        <ele>13.4</ele>
        <time>2013-08-20T20:32:03Z</time>
      </trkpt>
      <trkpt lat="59.393410235207" lon="17.8586270142">
        <ele>13</ele>
        <time>2013-08-20T20:32:04Z</time>
      </trkpt>
      <trkpt lat="59.393469411421" lon="17.858544620123">
        <ele>12.6</ele>
        <time>2013-08-20T20:32:05Z</time>
      </trkpt>
      <trkpt lat="59.393525821608" lon="17.858461387856">
        <ele>12</ele>
        <time>2013-08-20T20:32:06Z</time>
      </trkpt>
      <trkpt lat="59.393578292302" lon="17.858372623535">
        <ele>11.6</ele>
        <time>2013-08-20T20:32:07Z</time>
      </trkpt>
      <trkpt lat="59.393630260082" lon="17.858292911666">
        <ele>11.2</ele>
        <time>2013-08-20T20:32:08Z</time>
      </trkpt>
      <trkpt lat="59.393682563138" lon="17.85822216843">
        <ele>10.8</ele>
        <time>2013-08-20T20:32:09Z</time>
      </trkpt>
      <trkpt lat="59.393730423787" lon="17.858156202877">
        <ele>9.8</ele>
        <time>2013-08-20T20:32:10Z</time>
      </trkpt>
      <trkpt lat="59.393776524237" lon="17.858090069686">
        <ele>9.4</ele>
        <time>2013-08-20T20:32:11Z</time>
      </trkpt>
      <trkpt lat="59.393821115945" lon="17.858013962034">
        <ele>9</ele>
        <time>2013-08-20T20:32:12Z</time>
      </trkpt>
      <trkpt lat="59.393866713481" lon="17.857938776391">
        <ele>8.6</ele>
        <time>2013-08-20T20:32:13Z</time>
      </trkpt>
      <trkpt lat="59.393915999053" lon="17.857868368431">
        <ele>8.2</ele>
        <time>2013-08-20T20:32:14Z</time>
      </trkpt>
      <trkpt lat="59.39396654191" lon="17.857799804489">
        <ele>8.2</ele>
        <time>2013-08-20T20:32:15Z</time>
      </trkpt>
      <trkpt lat="59.394203833499" lon="17.857486572886">
        <ele>8.2</ele>
        <time>2013-08-20T20:32:20Z</time>
      </trkpt>
      <trkpt lat="59.394254711632" lon="17.857459834625">
        <ele>8.2</ele>
        <time>2013-08-20T20:32:21Z</time>
      </trkpt>
      <trkpt lat="59.394401646339" lon="17.857317929058">
        <ele>8.2</ele>
        <time>2013-08-20T20:32:25Z</time>
      </trkpt>
      <trkpt lat="59.394516143093" lon="17.856983742705">
        <ele>8.2</ele>
        <time>2013-08-20T20:32:29Z</time>
      </trkpt>
      <trkpt lat="59.394553358729" lon="17.856909646709">
        <ele>8.2</ele>
        <time>2013-08-20T20:32:30Z</time>
      </trkpt>
      <trkpt lat="59.394591915469" lon="17.856845608993">
        <ele>7.8</ele>
        <time>2013-08-20T20:32:31Z</time>
      </trkpt>
      <trkpt lat="59.394631980951" lon="17.856790959005">
        <ele>7.4</ele>
        <time>2013-08-20T20:32:32Z</time>
      </trkpt>
      <trkpt lat="59.394676405021" lon="17.856729435859">
        <ele>6.8</ele>
        <time>2013-08-20T20:32:33Z</time>
      </trkpt>
      <trkpt lat="59.394731725561" lon="17.856655842777">
        <ele>6</ele>
        <time>2013-08-20T20:32:34Z</time>
      </trkpt>
      <trkpt lat="59.394973627195" lon="17.85637731224">
        <ele>6</ele>
        <time>2013-08-20T20:32:39Z</time>
      </trkpt>
      <trkpt lat="59.395265233496" lon="17.855963497837">
        <ele>6</ele>
        <time>2013-08-20T20:32:45Z</time>
      </trkpt>
      <trkpt lat="59.395475367729" lon="17.855660324514">
        <ele>5.6</ele>
        <time>2013-08-20T20:32:49Z</time>
      </trkpt>
      <trkpt lat="59.395530017717" lon="17.855583630129">
        <ele>5.2</ele>
        <time>2013-08-20T20:32:50Z</time>
      </trkpt>
      <trkpt lat="59.395584080972" lon="17.855507187201">
        <ele>4.8</ele>
        <time>2013-08-20T20:32:51Z</time>
      </trkpt>
      <trkpt lat="59.395640910254" lon="17.855429151712">
        <ele>4.4</ele>
        <time>2013-08-20T20:32:52Z</time>
      </trkpt>
      <trkpt lat="59.39570159521" lon="17.855349607481">
        <ele>3.8</ele>
        <time>2013-08-20T20:32:53Z</time>
      </trkpt>
      <trkpt lat="59.39602681293" lon="17.854869073154">
        <ele>3.8</ele>
        <time>2013-08-20T20:32:59Z</time>
      </trkpt>
      <trkpt lat="59.396458816056" lon="17.85425501516">
        <ele>3.8</ele>
        <time>2013-08-20T20:33:07Z</time>
      </trkpt>
      <trkpt lat="59.396856956306" lon="17.853682196114">
        <ele>3.8</ele>
        <time>2013-08-20T20:33:15Z</time>
      </trkpt>
      <trkpt lat="59.39706700672" lon="17.853401151007">
        <ele>3.8</ele>
        <time>2013-08-20T20:33:19Z</time>
      </trkpt>
      <trkpt lat="59.397115118826" lon="17.853316158541">
        <ele>3.8</ele>
        <time>2013-08-20T20:33:20Z</time>
      </trkpt>
      <trkpt lat="59.397361798143" lon="17.852918605024">
        <ele>3.8</ele>
        <time>2013-08-20T20:33:25Z</time>
      </trkpt>
      <trkpt lat="59.397713167391" lon="17.852449972995">
        <ele>3.8</ele>
        <time>2013-08-20T20:33:32Z</time>
      </trkpt>
      <trkpt lat="59.39809211309" lon="17.851947142814">
        <ele>3.8</ele>
        <time>2013-08-20T20:33:39Z</time>
      </trkpt>
      <trkpt lat="59.398419426285" lon="17.851475828577">
        <ele>3.8</ele>
        <time>2013-08-20T20:33:45Z</time>
      </trkpt>
      <trkpt lat="59.398691167483" lon="17.851104342769">
        <ele>3.8</ele>
        <time>2013-08-20T20:33:50Z</time>
      </trkpt>
      <trkpt lat="59.399058127065" lon="17.850564883685">
        <ele>3.8</ele>
        <time>2013-08-20T20:33:57Z</time>
      </trkpt>
      <trkpt lat="59.399391894323" lon="17.849970858432">
        <ele>3.8</ele>
        <time>2013-08-20T20:34:04Z</time>
      </trkpt>
      <trkpt lat="59.399710825618" lon="17.849283542632">
        <ele>3.8</ele>
        <time>2013-08-20T20:34:11Z</time>
      </trkpt>
      <trkpt lat="59.399999665892" lon="17.848456165283">
        <ele>3.8</ele>
        <time>2013-08-20T20:34:19Z</time>
      </trkpt>
      <trkpt lat="59.400297223342" lon="17.847662231715">
        <ele>3.8</ele>
        <time>2013-08-20T20:34:27Z</time>
      </trkpt>
      <trkpt lat="59.40064021069" lon="17.846732092272">
        <ele>3.8</ele>
        <time>2013-08-20T20:34:36Z</time>
      </trkpt>
      <trkpt lat="59.400965176953" lon="17.845882670526">
        <ele>3.8</ele>
        <time>2013-08-20T20:34:44Z</time>
      </trkpt>
      <trkpt lat="59.401007421729" lon="17.845778064414">
        <ele>3.8</ele>
        <time>2013-08-20T20:34:45Z</time>
      </trkpt>
      <trkpt lat="59.401403382685" lon="17.844898886923">
        <ele>3.8</ele>
        <time>2013-08-20T20:34:54Z</time>
      </trkpt>
      <trkpt lat="59.401798002537" lon="17.844075532886">
        <ele>3.8</ele>
        <time>2013-08-20T20:35:03Z</time>
      </trkpt>
      <trkpt lat="59.401956839542" lon="17.843859112228">
        <ele>3.8</ele>
        <time>2013-08-20T20:35:06Z</time>
      </trkpt>
      <trkpt lat="59.402046861148" lon="17.843685858355">
        <ele>3.8</ele>
        <time>2013-08-20T20:35:08Z</time>
      </trkpt>
      <trkpt lat="59.402083657689" lon="17.843589634143">
        <ele>4.2</ele>
        <time>2013-08-20T20:35:09Z</time>
      </trkpt>
      <trkpt lat="59.402113329615" lon="17.843497600881">
        <ele>4.8</ele>
        <time>2013-08-20T20:35:10Z</time>
      </trkpt>
      <trkpt lat="59.402140822247" lon="17.8434054838">
        <ele>5.2</ele>
        <time>2013-08-20T20:35:11Z</time>
      </trkpt>
      <trkpt lat="59.402163118101" lon="17.843313785814">
        <ele>5.6</ele>
        <time>2013-08-20T20:35:12Z</time>
      </trkpt>
      <trkpt lat="59.402182396471" lon="17.843219824715">
        <ele>6</ele>
        <time>2013-08-20T20:35:13Z</time>
      </trkpt>
      <trkpt lat="59.402203770316" lon="17.843133155869">
        <ele>6</ele>
        <time>2013-08-20T20:35:14Z</time>
      </trkpt>
      <trkpt lat="59.402252133879" lon="17.842962416566">
        <ele>6</ele>
        <time>2013-08-20T20:35:16Z</time>
      </trkpt>
      <trkpt lat="59.402282811633" lon="17.842886811828">
        <ele>6.4</ele>
        <time>2013-08-20T20:35:17Z</time>
      </trkpt>
      <trkpt lat="59.402320194907" lon="17.84282797089">
        <ele>6.8</ele>
        <time>2013-08-20T20:35:18Z</time>
      </trkpt>
      <trkpt lat="59.402358584009" lon="17.842782876268">
        <ele>7.2</ele>
        <time>2013-08-20T20:35:19Z</time>
      </trkpt>
      <trkpt lat="59.402401918432" lon="17.84275085741">
        <ele>7.6</ele>
        <time>2013-08-20T20:35:20Z</time>
      </trkpt>
      <trkpt lat="59.402447683606" lon="17.84271900619">
        <ele>8</ele>
        <time>2013-08-20T20:35:21Z</time>
      </trkpt>
      <trkpt lat="59.402493029685" lon="17.842696123603">
        <ele>8</ele>
        <time>2013-08-20T20:35:22Z</time>
      </trkpt>
      <trkpt lat="59.402636863089" lon="17.842643485271">
        <ele>8</ele>
        <time>2013-08-20T20:35:25Z</time>
      </trkpt>
      <trkpt lat="59.402802573252" lon="17.842647340945">
        <ele>8</ele>
        <time>2013-08-20T20:35:28Z</time>
      </trkpt>
      <trkpt lat="59.402960823524" lon="17.842636360656">
        <ele>8</ele>
        <time>2013-08-20T20:35:31Z</time>
      </trkpt>
      <trkpt lat="59.403011031105" lon="17.842630409507">
        <ele>8.4</ele>
        <time>2013-08-20T20:35:32Z</time>
      </trkpt>
      <trkpt lat="59.403061909238" lon="17.842613142793">
        <ele>8.8</ele>
        <time>2013-08-20T20:35:33Z</time>
      </trkpt>
      <trkpt lat="59.403114379932" lon="17.842588500007">
        <ele>9.2</ele>
        <time>2013-08-20T20:35:34Z</time>
      </trkpt>
      <trkpt lat="59.403166934445" lon="17.842562935212">
        <ele>9.6</ele>
        <time>2013-08-20T20:35:35Z</time>
      </trkpt>
      <trkpt lat="59.403222254985" lon="17.842540052625">
        <ele>10.2</ele>
        <time>2013-08-20T20:35:36Z</time>
      </trkpt>
      <trkpt lat="59.40327883281" lon="17.842520606617">
        <ele>10.2</ele>
        <time>2013-08-20T20:35:37Z</time>
      </trkpt>
      <trkpt lat="59.403625256737" lon="17.842317932275">
        <ele>10.2</ele>
        <time>2013-08-20T20:35:43Z</time>
      </trkpt>
      <trkpt lat="59.403863218878" lon="17.842116934313">
        <ele>10.2</ele>
        <time>2013-08-20T20:35:48Z</time>
      </trkpt>
      <trkpt lat="59.403905044559" lon="17.84207359989">
        <ele>10.2</ele>
        <time>2013-08-20T20:35:49Z</time>
      </trkpt>
      <trkpt lat="59.404164715821" lon="17.841810072954">
        <ele>10.2</ele>
        <time>2013-08-20T20:35:55Z</time>
      </trkpt>
      <trkpt lat="59.404307794854" lon="17.841648553741">
        <ele>10.6</ele>
        <time>2013-08-20T20:35:58Z</time>
      </trkpt>
      <trkpt lat="59.404356074598" lon="17.841595161038">
        <ele>11</ele>
        <time>2013-08-20T20:35:59Z</time>
      </trkpt>
      <trkpt lat="59.404404270523" lon="17.841543947629">
        <ele>11.4</ele>
        <time>2013-08-20T20:36:00Z</time>
      </trkpt>
      <trkpt lat="59.404452131172" lon="17.841492901858">
        <ele>11.8</ele>
        <time>2013-08-20T20:36:01Z</time>
      </trkpt>
      <trkpt lat="59.404499321269" lon="17.841438670965">
        <ele>12.2</ele>
        <time>2013-08-20T20:36:02Z</time>
      </trkpt>
      <trkpt lat="59.404786317525" lon="17.841121080774">
        <ele>12.2</ele>
        <time>2013-08-20T20:36:08Z</time>
      </trkpt>
      <trkpt lat="59.405175489142" lon="17.840748253862">
        <ele>12.2</ele>
        <time>2013-08-20T20:36:15Z</time>
      </trkpt>
      <trkpt lat="59.405231061139" lon="17.840694442064">
        <ele>12.6</ele>
        <time>2013-08-20T20:36:16Z</time>
      </trkpt>
      <trkpt lat="59.405285878765" lon="17.840639289162">
        <ele>13.4</ele>
        <time>2013-08-20T20:36:17Z</time>
      </trkpt>
      <trkpt lat="59.405338517097" lon="17.840589668314">
        <ele>13.8</ele>
        <time>2013-08-20T20:36:18Z</time>
      </trkpt>
      <trkpt lat="59.405392328895" lon="17.840539628371">
        <ele>14.2</ele>
        <time>2013-08-20T20:36:19Z</time>
      </trkpt>
      <trkpt lat="59.405554434841" lon="17.840394872958">
        <ele>14.2</ele>
        <time>2013-08-20T20:36:22Z</time>
      </trkpt>
      <trkpt lat="59.405855596508" lon="17.840092454006">
        <ele>14.2</ele>
        <time>2013-08-20T20:36:28Z</time>
      </trkpt>
      <trkpt lat="59.406236470044" lon="17.839687859693">
        <ele>14.2</ele>
        <time>2013-08-20T20:36:35Z</time>
      </trkpt>
      <trkpt lat="59.406285336521" lon="17.839621810321">
        <ele>14.2</ele>
        <time>2013-08-20T20:36:36Z</time>
      </trkpt>
      <trkpt lat="59.4064228835" lon="17.839387871492">
        <ele>14.2</ele>
        <time>2013-08-20T20:36:39Z</time>
      </trkpt>
      <trkpt lat="59.406732259429" lon="17.838935584168">
        <ele>14.2</ele>
        <time>2013-08-20T20:36:44Z</time>
      </trkpt>
      <trkpt lat="59.406801074828" lon="17.838863835104">
        <ele>14.2</ele>
        <time>2013-08-20T20:36:45Z</time>
      </trkpt>
      <trkpt lat="59.406949183001" lon="17.838838940861">
        <ele>14.2</ele>
        <time>2013-08-20T20:36:47Z</time>
      </trkpt>
      <trkpt lat="59.407030068336" lon="17.838941032403">
        <ele>14.2</ele>
        <time>2013-08-20T20:36:49Z</time>
      </trkpt>
      <trkpt lat="59.407067283972" lon="17.8389798406">
        <ele>14.6</ele>
        <time>2013-08-20T20:36:50Z</time>
      </trkpt>
      <trkpt lat="59.407111372766" lon="17.839000208617">
        <ele>15</ele>
        <time>2013-08-20T20:36:51Z</time>
      </trkpt>
      <trkpt lat="59.407163424365" lon="17.839000376255">
        <ele>15.4</ele>
        <time>2013-08-20T20:36:52Z</time>
      </trkpt>
      <trkpt lat="59.407219750733" lon="17.838988054862">
        <ele>15.8</ele>
        <time>2013-08-20T20:36:53Z</time>
      </trkpt>
      <trkpt lat="59.407274400721" lon="17.838953521434">
        <ele>16.2</ele>
        <time>2013-08-20T20:36:54Z</time>
      </trkpt>
      <trkpt lat="59.407379425928" lon="17.83888009599">
        <ele>16.2</ele>
        <time>2013-08-20T20:36:56Z</time>
      </trkpt>
      <trkpt lat="59.407434746468" lon="17.838839779051">
        <ele>16.2</ele>
        <time>2013-08-20T20:36:57Z</time>
      </trkpt>
      <trkpt lat="59.407810255588" lon="17.838483464482">
        <ele>16.2</ele>
        <time>2013-08-20T20:37:04Z</time>
      </trkpt>
      <trkpt lat="59.40813195291" lon="17.838153469079">
        <ele>16.2</ele>
        <time>2013-08-20T20:37:10Z</time>
      </trkpt>
      <trkpt lat="59.408400676624" lon="17.837946017054">
        <ele>16.2</ele>
        <time>2013-08-20T20:37:15Z</time>
      </trkpt>
      <trkpt lat="59.408715081693" lon="17.837638904238">
        <ele>16.2</ele>
        <time>2013-08-20T20:37:20Z</time>
      </trkpt>
      <trkpt lat="59.40904977096" lon="17.837203380714">
        <ele>16.2</ele>
        <time>2013-08-20T20:37:26Z</time>
      </trkpt>
      <trkpt lat="59.409395608154" lon="17.836705076759">
        <ele>16.2</ele>
        <time>2013-08-20T20:37:32Z</time>
      </trkpt>
      <trkpt lat="59.40967254613" lon="17.836079870838">
        <ele>16.2</ele>
        <time>2013-08-20T20:37:38Z</time>
      </trkpt>
      <trkpt lat="59.40979492187" lon="17.835702852976">
        <ele>15.8</ele>
        <time>2013-08-20T20:37:41Z</time>
      </trkpt>
      <trkpt lat="59.409829539117" lon="17.83557008368">
        <ele>15.4</ele>
        <time>2013-08-20T20:37:42Z</time>
      </trkpt>
      <trkpt lat="59.409861474156" lon="17.835438823126">
        <ele>15</ele>
        <time>2013-08-20T20:37:43Z</time>
      </trkpt>
      <trkpt lat="59.409893157738" lon="17.835309155133">
        <ele>14.6</ele>
        <time>2013-08-20T20:37:44Z</time>
      </trkpt>
      <trkpt lat="59.409921320922" lon="17.835175547647">
        <ele>14.2</ele>
        <time>2013-08-20T20:37:45Z</time>
      </trkpt>
      <trkpt lat="59.410032045821" lon="17.834522681456">
        <ele>14.2</ele>
        <time>2013-08-20T20:37:50Z</time>
      </trkpt>
      <trkpt lat="59.410179231985" lon="17.833763365135">
        <ele>14.2</ele>
        <time>2013-08-20T20:37:56Z</time>
      </trkpt>
      <trkpt lat="59.410292136178" lon="17.833158862507">
        <ele>14.2</ele>
        <time>2013-08-20T20:38:01Z</time>
      </trkpt>
      <trkpt lat="59.410310492539" lon="17.83305216092">
        <ele>14.2</ele>
        <time>2013-08-20T20:38:02Z</time>
      </trkpt>
      <trkpt lat="59.410420714524" lon="17.832475402381">
        <ele>14.2</ele>
        <time>2013-08-20T20:38:07Z</time>
      </trkpt>
      <trkpt lat="59.410471425019" lon="17.83221648549">
        <ele>14.2</ele>
        <time>2013-08-20T20:38:09Z</time>
      </trkpt>
      <trkpt lat="59.410530265957" lon="17.831965196128">
        <ele>14.6</ele>
        <time>2013-08-20T20:38:11Z</time>
      </trkpt>
      <trkpt lat="59.410558596779" lon="17.831849861184">
        <ele>15</ele>
        <time>2013-08-20T20:38:12Z</time>
      </trkpt>
      <trkpt lat="59.410584413031" lon="17.831730754385">
        <ele>15.6</ele>
        <time>2013-08-20T20:38:13Z</time>
      </trkpt>
      <trkpt lat="59.410609726369" lon="17.831602762772">
        <ele>16</ele>
        <time>2013-08-20T20:38:14Z</time>
      </trkpt>
      <trkpt lat="59.410639733571" lon="17.831479548842">
        <ele>16.4</ele>
        <time>2013-08-20T20:38:15Z</time>
      </trkpt>
      <trkpt lat="59.410674266999" lon="17.831357843654">
        <ele>16.4</ele>
        <time>2013-08-20T20:38:16Z</time>
      </trkpt>
      <trkpt lat="59.410904014878" lon="17.830625097956">
        <ele>16.4</ele>
        <time>2013-08-20T20:38:22Z</time>
      </trkpt>
      <trkpt lat="59.411082968443" lon="17.83018136017">
        <ele>15.8</ele>
        <time>2013-08-20T20:38:26Z</time>
      </trkpt>
      <trkpt lat="59.411135355318" lon="17.83007239547">
        <ele>15.4</ele>
        <time>2013-08-20T20:38:27Z</time>
      </trkpt>
      <trkpt lat="59.4111921846" lon="17.829960664743">
        <ele>15</ele>
        <time>2013-08-20T20:38:28Z</time>
      </trkpt>
      <trkpt lat="59.411253204832" lon="17.829849353111">
        <ele>14.6</ele>
        <time>2013-08-20T20:38:29Z</time>
      </trkpt>
      <trkpt lat="59.41131958948" lon="17.829736784194">
        <ele>14</ele>
        <time>2013-08-20T20:38:30Z</time>
      </trkpt>
      <trkpt lat="59.411393182562" lon="17.829621700707">
        <ele>13.6</ele>
        <time>2013-08-20T20:38:31Z</time>
      </trkpt>
      <trkpt lat="59.411467446196" lon="17.829517429871">
        <ele>13.2</ele>
        <time>2013-08-20T20:38:32Z</time>
      </trkpt>
      <trkpt lat="59.411541961287" lon="17.829414500139">
        <ele>12.6</ele>
        <time>2013-08-20T20:38:33Z</time>
      </trkpt>
      <trkpt lat="59.41161211779" lon="17.829309055837">
        <ele>12</ele>
        <time>2013-08-20T20:38:34Z</time>
      </trkpt>
      <trkpt lat="59.411685375596" lon="17.829212999263">
        <ele>11.4</ele>
        <time>2013-08-20T20:38:35Z</time>
      </trkpt>
      <trkpt lat="59.411758130488" lon="17.829124318761">
        <ele>10.6</ele>
        <time>2013-08-20T20:38:36Z</time>
      </trkpt>
      <trkpt lat="59.411832310303" lon="17.829042762874">
        <ele>10</ele>
        <time>2013-08-20T20:38:37Z</time>
      </trkpt>
      <trkpt lat="59.411907747403" lon="17.828967409593">
        <ele>9.2</ele>
        <time>2013-08-20T20:38:38Z</time>
      </trkpt>
      <trkpt lat="59.411987962186" lon="17.828889206466">
        <ele>9.2</ele>
        <time>2013-08-20T20:38:39Z</time>
      </trkpt>
      <trkpt lat="59.412218632074" lon="17.828701703363">
        <ele>9.2</ele>
        <time>2013-08-20T20:38:42Z</time>
      </trkpt>
      <trkpt lat="59.412379313097" lon="17.828608664273">
        <ele>9.2</ele>
        <time>2013-08-20T20:38:44Z</time>
      </trkpt>
      <trkpt lat="59.412463802649" lon="17.828572705922">
        <ele>8.4</ele>
        <time>2013-08-20T20:38:45Z</time>
      </trkpt>
      <trkpt lat="59.412554159531" lon="17.828534065363">
        <ele>8</ele>
        <time>2013-08-20T20:38:46Z</time>
      </trkpt>
      <trkpt lat="59.412642923852" lon="17.82849827465">
        <ele>7.4</ele>
        <time>2013-08-20T20:38:47Z</time>
      </trkpt>
      <trkpt lat="59.412732274906" lon="17.828462986851">
        <ele>7</ele>
        <time>2013-08-20T20:38:48Z</time>
      </trkpt>
      <trkpt lat="59.412823637616" lon="17.828430045984">
        <ele>7</ele>
        <time>2013-08-20T20:38:49Z</time>
      </trkpt>
      <trkpt lat="59.41291634143" lon="17.828414120374">
        <ele>6.6</ele>
        <time>2013-08-20T20:38:50Z</time>
      </trkpt>
      <trkpt lat="59.413007117407" lon="17.828386627742">
        <ele>6</ele>
        <time>2013-08-20T20:38:51Z</time>
      </trkpt>
      <trkpt lat="59.413099821221" lon="17.828371121227">
        <ele>5.6</ele>
        <time>2013-08-20T20:38:52Z</time>
      </trkpt>
      <trkpt lat="59.413191603026" lon="17.828360895309">
        <ele>5</ele>
        <time>2013-08-20T20:38:53Z</time>
      </trkpt>
      <trkpt lat="59.413285061211" lon="17.828338431817">
        <ele>4.6</ele>
        <time>2013-08-20T20:38:54Z</time>
      </trkpt>
      <trkpt lat="59.413383883812" lon="17.82832141656">
        <ele>4.2</ele>
        <time>2013-08-20T20:38:55Z</time>
      </trkpt>
      <trkpt lat="59.41347792873" lon="17.828300126534">
        <ele>3.8</ele>
        <time>2013-08-20T20:38:56Z</time>
      </trkpt>
      <trkpt lat="59.413570632544" lon="17.828286380218">
        <ele>3.4</ele>
        <time>2013-08-20T20:38:57Z</time>
      </trkpt>
      <trkpt lat="59.41366233053" lon="17.828267185667">
        <ele>2.8</ele>
        <time>2013-08-20T20:38:58Z</time>
      </trkpt>
      <trkpt lat="59.41375201686" lon="17.82824514127">
        <ele>2.4</ele>
        <time>2013-08-20T20:38:59Z</time>
      </trkpt>
      <trkpt lat="59.413841787009" lon="17.828225779081">
        <ele>2.4</ele>
        <time>2013-08-20T20:39:00Z</time>
      </trkpt>
      <trkpt lat="59.41434461719" lon="17.828133159086">
        <ele>2.4</ele>
        <time>2013-08-20T20:39:06Z</time>
      </trkpt>
      <trkpt lat="59.414564474427" lon="17.828122597892">
        <ele>2.4</ele>
        <time>2013-08-20T20:39:09Z</time>
      </trkpt>
      <trkpt lat="59.414632032541" lon="17.828131566525">
        <ele>2.4</ele>
        <time>2013-08-20T20:39:10Z</time>
      </trkpt>
      <trkpt lat="59.414721048319" lon="17.828149336153">
        <ele>2.4</ele>
        <time>2013-08-20T20:39:13Z</time>
      </trkpt>
      <trkpt lat="59.414744936734" lon="17.828156125492">
        <ele>2.4</ele>
        <time>2013-08-20T20:39:18Z</time>
      </trkpt>
      <trkpt lat="59.414881142609" lon="17.82816299865">
        <ele>2.4</ele>
        <time>2013-08-20T20:39:22Z</time>
      </trkpt>
      <trkpt lat="59.414982731237" lon="17.82814036752">
        <ele>2.4</ele>
        <time>2013-08-20T20:39:24Z</time>
      </trkpt>
      <trkpt lat="59.415148189943" lon="17.82806744499">
        <ele>2.4</ele>
        <time>2013-08-20T20:39:27Z</time>
      </trkpt>
      <trkpt lat="59.41520460013" lon="17.828050345914">
        <ele>2.4</ele>
        <time>2013-08-20T20:39:28Z</time>
      </trkpt>
      <trkpt lat="59.415377015813" lon="17.82809510526">
        <ele>2.4</ele>
        <time>2013-08-20T20:39:31Z</time>
      </trkpt>
      <trkpt lat="59.415732073097" lon="17.828206919806">
        <ele>2.4</ele>
        <time>2013-08-20T20:39:37Z</time>
      </trkpt>
      <trkpt lat="59.416025607235" lon="17.828296103222">
        <ele>2.4</ele>
        <time>2013-08-20T20:39:42Z</time>
      </trkpt>
      <trkpt lat="59.416083609983" lon="17.828320746008">
        <ele>2.4</ele>
        <time>2013-08-20T20:39:43Z</time>
      </trkpt>
      <trkpt lat="59.416393572645" lon="17.828461645747">
        <ele>2.4</ele>
        <time>2013-08-20T20:39:48Z</time>
      </trkpt>
      <trkpt lat="59.416761538055" lon="17.828660632053">
        <ele>2.4</ele>
        <time>2013-08-20T20:39:54Z</time>
      </trkpt>
      <trkpt lat="59.417078876789" lon="17.828839585618">
        <ele>3.4</ele>
        <time>2013-08-20T20:39:59Z</time>
      </trkpt>
      <trkpt lat="59.417145596713" lon="17.828875041055">
        <ele>3.8</ele>
        <time>2013-08-20T20:40:00Z</time>
      </trkpt>
      <trkpt lat="59.417210304981" lon="17.828911167044">
        <ele>4.2</ele>
        <time>2013-08-20T20:40:01Z</time>
      </trkpt>
      <trkpt lat="59.417276102896" lon="17.828946119567">
        <ele>4.6</ele>
        <time>2013-08-20T20:40:02Z</time>
      </trkpt>
      <trkpt lat="59.41764289484" lon="17.829154661239">
        <ele>4.6</ele>
        <time>2013-08-20T20:40:08Z</time>
      </trkpt>
      <trkpt lat="59.417957970461" lon="17.829328669483">
        <ele>4.6</ele>
        <time>2013-08-20T20:40:13Z</time>
      </trkpt>
      <trkpt lat="59.418015302657" lon="17.829317353918">
        <ele>4.6</ele>
        <time>2013-08-20T20:40:14Z</time>
      </trkpt>
      <trkpt lat="59.418222754682" lon="17.829184165527">
        <ele>5</ele>
        <time>2013-08-20T20:40:18Z</time>
      </trkpt>
      <trkpt lat="59.418281511801" lon="17.829170754487">
        <ele>5.4</ele>
        <time>2013-08-20T20:40:19Z</time>
      </trkpt>
      <trkpt lat="59.41834445987" lon="17.829164887157">
        <ele>5.8</ele>
        <time>2013-08-20T20:40:20Z</time>
      </trkpt>
      <trkpt lat="59.418408749043" lon="17.829165976804">
        <ele>6.4</ele>
        <time>2013-08-20T20:40:21Z</time>
      </trkpt>
      <trkpt lat="59.418469433999" lon="17.829185925726">
        <ele>6.8</ele>
        <time>2013-08-20T20:40:22Z</time>
      </trkpt>
      <trkpt lat="59.418605304598" lon="17.829332022243">
        <ele>6.8</ele>
        <time>2013-08-20T20:40:25Z</time>
      </trkpt>
      <trkpt lat="59.418740756102" lon="17.82959881812">
        <ele>6.8</ele>
        <time>2013-08-20T20:40:29Z</time>
      </trkpt>
      <trkpt lat="59.418931444327" lon="17.829794284028">
        <ele>6.8</ele>
        <time>2013-08-20T20:40:33Z</time>
      </trkpt>
      <trkpt lat="59.418985256125" lon="17.829826302886">
        <ele>6.8</ele>
        <time>2013-08-20T20:40:34Z</time>
      </trkpt>
      <trkpt lat="59.419038648828" lon="17.829866871282">
        <ele>6.8</ele>
        <time>2013-08-20T20:40:35Z</time>
      </trkpt>
      <trkpt lat="59.419254398934" lon="17.830031407979">
        <ele>6.8</ele>
        <time>2013-08-20T20:40:39Z</time>
      </trkpt>
      <trkpt lat="59.41957827555" lon="17.830231400113">
        <ele>7.2</ele>
        <time>2013-08-20T20:40:45Z</time>
      </trkpt>
      <trkpt lat="59.419635188651" lon="17.830255791442">
        <ele>7.6</ele>
        <time>2013-08-20T20:40:46Z</time>
      </trkpt>
      <trkpt lat="59.419689168087" lon="17.830280685685">
        <ele>8</ele>
        <time>2013-08-20T20:40:47Z</time>
      </trkpt>
      <trkpt lat="59.419742979885" lon="17.8303045741">
        <ele>8.8</ele>
        <time>2013-08-20T20:40:48Z</time>
      </trkpt>
      <trkpt lat="59.420120919756" lon="17.830511187935">
        <ele>8.8</ele>
        <time>2013-08-20T20:40:55Z</time>
      </trkpt>
      <trkpt lat="59.420437085024" lon="17.830709922784">
        <ele>8.8</ele>
        <time>2013-08-20T20:41:01Z</time>
      </trkpt>
      <trkpt lat="59.4204877117" lon="17.83075300575">
        <ele>8.8</ele>
        <time>2013-08-20T20:41:02Z</time>
      </trkpt>
      <trkpt lat="59.420810498669" lon="17.831018460523">
        <ele>8.8</ele>
        <time>2013-08-20T20:41:08Z</time>
      </trkpt>
      <trkpt lat="59.420846205563" lon="17.831096076917">
        <ele>8.8</ele>
        <time>2013-08-20T20:41:09Z</time>
      </trkpt>
      <trkpt lat="59.420971431149" lon="17.831350886677">
        <ele>8.8</ele>
        <time>2013-08-20T20:41:12Z</time>
      </trkpt>
      <trkpt lat="59.421076456356" lon="17.831461863033">
        <ele>8.8</ele>
        <time>2013-08-20T20:41:14Z</time>
      </trkpt>
      <trkpt lat="59.421246860383" lon="17.831611060853">
        <ele>8.8</ele>
        <time>2013-08-20T20:41:17Z</time>
      </trkpt>
      <trkpt lat="59.421615999259" lon="17.831818261421">
        <ele>8.8</ele>
        <time>2013-08-20T20:41:23Z</time>
      </trkpt>
      <trkpt lat="59.4219629261" lon="17.831840473456">
        <ele>8.8</ele>
        <time>2013-08-20T20:41:28Z</time>
      </trkpt>
      <trkpt lat="59.422486962488" lon="17.831817842326">
        <ele>8.8</ele>
        <time>2013-08-20T20:41:35Z</time>
      </trkpt>
      <trkpt lat="59.422943692219" lon="17.831811136806">
        <ele>8.8</ele>
        <time>2013-08-20T20:41:41Z</time>
      </trkpt>
      <trkpt lat="59.423462615648" lon="17.831788421857">
        <ele>8.8</ele>
        <time>2013-08-20T20:41:48Z</time>
      </trkpt>
      <trkpt lat="59.424002410008" lon="17.831803174001">
        <ele>8.8</ele>
        <time>2013-08-20T20:41:55Z</time>
      </trkpt>
      <trkpt lat="59.424154457674" lon="17.831823961113">
        <ele>8.8</ele>
        <time>2013-08-20T20:41:57Z</time>
      </trkpt>
      <trkpt lat="59.424547652603" lon="17.8318049342">
        <ele>8.8</ele>
        <time>2013-08-20T20:42:02Z</time>
      </trkpt>
      <trkpt lat="59.425108150256" lon="17.831742656683">
        <ele>8.8</ele>
        <time>2013-08-20T20:42:09Z</time>
      </trkpt>
      <trkpt lat="59.425597820854" lon="17.831687503781">
        <ele>8.8</ele>
        <time>2013-08-20T20:42:15Z</time>
      </trkpt>
      <trkpt lat="59.426138369585" lon="17.831578958176">
        <ele>8.8</ele>
        <time>2013-08-20T20:42:22Z</time>
      </trkpt>
      <trkpt lat="59.426565511209" lon="17.831341163673">
        <ele>8.8</ele>
        <time>2013-08-20T20:42:28Z</time>
      </trkpt>
      <trkpt lat="59.426978571241" lon="17.831047545716">
        <ele>8.8</ele>
        <time>2013-08-20T20:42:34Z</time>
      </trkpt>
      <trkpt lat="59.427505373656" lon="17.830658793194">
        <ele>8.8</ele>
        <time>2013-08-20T20:42:42Z</time>
      </trkpt>
      <trkpt lat="59.427568070268" lon="17.830604310844">
        <ele>8.8</ele>
        <time>2013-08-20T20:42:43Z</time>
      </trkpt>
      <trkpt lat="59.427846684624" lon="17.83022662243">
        <ele>8.8</ele>
        <time>2013-08-20T20:42:48Z</time>
      </trkpt>
      <trkpt lat="59.42820325065" lon="17.829629076779">
        <ele>8.8</ele>
        <time>2013-08-20T20:42:55Z</time>
      </trkpt>
      <trkpt lat="59.428590075335" lon="17.828907227551">
        <ele>8.8</ele>
        <time>2013-08-20T20:43:03Z</time>
      </trkpt>
      <trkpt lat="59.428746984503" lon="17.82857119718">
        <ele>8.8</ele>
        <time>2013-08-20T20:43:07Z</time>
      </trkpt>
      <trkpt lat="59.428816051359" lon="17.828429291613">
        <ele>8.8</ele>
        <time>2013-08-20T20:43:09Z</time>
      </trkpt>
      <trkpt lat="59.42895929803" lon="17.828478828642">
        <ele>8.8</ele>
        <time>2013-08-20T20:43:12Z</time>
      </trkpt>
      <trkpt lat="59.429064323237" lon="17.828758867921">
        <ele>8.8</ele>
        <time>2013-08-20T20:43:15Z</time>
      </trkpt>
      <trkpt lat="59.429312678934" lon="17.829441992771">
        <ele>8.8</ele>
        <time>2013-08-20T20:43:22Z</time>
      </trkpt>
      <trkpt lat="59.429387696939" lon="17.829683056215">
        <ele>8.4</ele>
        <time>2013-08-20T20:43:24Z</time>
      </trkpt>
      <trkpt lat="59.429419045245" lon="17.829804761403">
        <ele>7.8</ele>
        <time>2013-08-20T20:43:25Z</time>
      </trkpt>
      <trkpt lat="59.429452489026" lon="17.829938955622">
        <ele>7.2</ele>
        <time>2013-08-20T20:43:26Z</time>
      </trkpt>
      <trkpt lat="59.429485429893" lon="17.830064767941">
        <ele>6.8</ele>
        <time>2013-08-20T20:43:27Z</time>
      </trkpt>
      <trkpt lat="59.429515437095" lon="17.830172307718">
        <ele>6.2</ele>
        <time>2013-08-20T20:43:28Z</time>
      </trkpt>
      <trkpt lat="59.429540834252" lon="17.830276578554">
        <ele>6.2</ele>
        <time>2013-08-20T20:43:29Z</time>
      </trkpt>
      <trkpt lat="59.4295653094" lon="17.830361990115">
        <ele>6.2</ele>
        <time>2013-08-20T20:43:30Z</time>
      </trkpt>
      <trkpt lat="59.429630017668" lon="17.83049149047">
        <ele>6.6</ele>
        <time>2013-08-20T20:43:32Z</time>
      </trkpt>
      <trkpt lat="59.429669580236" lon="17.830542284784">
        <ele>7</ele>
        <time>2013-08-20T20:43:33Z</time>
      </trkpt>
      <trkpt lat="59.429707550243" lon="17.830594504021">
        <ele>7.4</ele>
        <time>2013-08-20T20:43:34Z</time>
      </trkpt>
      <trkpt lat="59.429740910205" lon="17.830663989972">
        <ele>7.8</ele>
        <time>2013-08-20T20:43:35Z</time>
      </trkpt>
      <trkpt lat="59.429767983742" lon="17.83075635851">
        <ele>8.2</ele>
        <time>2013-08-20T20:43:36Z</time>
      </trkpt>
      <trkpt lat="59.429795979288" lon="17.830848391772">
        <ele>8.2</ele>
        <time>2013-08-20T20:43:37Z</time>
      </trkpt>
      <trkpt lat="59.429953642827" lon="17.831382067345">
        <ele>8.2</ele>
        <time>2013-08-20T20:43:43Z</time>
      </trkpt>
      <trkpt lat="59.430044502623" lon="17.831694376939">
        <ele>8.2</ele>
        <time>2013-08-20T20:43:47Z</time>
      </trkpt>
      <trkpt lat="59.430124968863" lon="17.831781800156">
        <ele>8.2</ele>
        <time>2013-08-20T20:43:49Z</time>
      </trkpt>
      <trkpt lat="59.430277938538" lon="17.831773837351">
        <ele>8.2</ele>
        <time>2013-08-20T20:43:52Z</time>
      </trkpt>
      <trkpt lat="59.430329235766" lon="17.831754056067">
        <ele>8.6</ele>
        <time>2013-08-20T20:43:53Z</time>
      </trkpt>
      <trkpt lat="59.430379443347" lon="17.831727233987">
        <ele>9</ele>
        <time>2013-08-20T20:43:54Z</time>
      </trkpt>
      <trkpt lat="59.430428058367" lon="17.831700747183">
        <ele>9.4</ele>
        <time>2013-08-20T20:43:55Z</time>
      </trkpt>
      <trkpt lat="59.430475667559" lon="17.831671829628">
        <ele>9.8</ele>
        <time>2013-08-20T20:43:56Z</time>
      </trkpt>
      <trkpt lat="59.430524282579" lon="17.831641151874">
        <ele>10.2</ele>
        <time>2013-08-20T20:43:57Z</time>
      </trkpt>
      <trkpt lat="59.430907167771" lon="17.831357759835">
        <ele>10.2</ele>
        <time>2013-08-20T20:44:05Z</time>
      </trkpt>
      <trkpt lat="59.430952178574" lon="17.831307216978">
        <ele>10.2</ele>
        <time>2013-08-20T20:44:06Z</time>
      </trkpt>
      <trkpt lat="59.431135826003" lon="17.831099010582">
        <ele>10.2</ele>
        <time>2013-08-20T20:44:10Z</time>
      </trkpt>
      <trkpt lat="59.431401280776" lon="17.83075971127">
        <ele>10.2</ele>
        <time>2013-08-20T20:44:16Z</time>
      </trkpt>
      <trkpt lat="59.431573445002" lon="17.830491909565">
        <ele>10.2</ele>
        <time>2013-08-20T20:44:20Z</time>
      </trkpt>
      <trkpt lat="59.431615103045" lon="17.830427033659">
        <ele>10.2</ele>
        <time>2013-08-20T20:44:21Z</time>
      </trkpt>
      <trkpt lat="59.43190888864" lon="17.830091338564">
        <ele>10.2</ele>
        <time>2013-08-20T20:44:27Z</time>
      </trkpt>
      <trkpt lat="59.432194124697" lon="17.829720020394">
        <ele>10.2</ele>
        <time>2013-08-20T20:44:33Z</time>
      </trkpt>
      <trkpt lat="59.432243158812" lon="17.829663107293">
        <ele>10.2</ele>
        <time>2013-08-20T20:44:34Z</time>
      </trkpt>
      <trkpt lat="59.432627468927" lon="17.82925851298">
        <ele>10.2</ele>
        <time>2013-08-20T20:44:42Z</time>
      </trkpt>
      <trkpt lat="59.432823689206" lon="17.829078637406">
        <ele>10.2</ele>
        <time>2013-08-20T20:44:46Z</time>
      </trkpt>
      <trkpt lat="59.43291639302" lon="17.828993309664">
        <ele>10.2</ele>
        <time>2013-08-20T20:44:48Z</time>
      </trkpt>
      <trkpt lat="59.433198192498" lon="17.828768339468">
        <ele>10.2</ele>
        <time>2013-08-20T20:44:54Z</time>
      </trkpt>
      <trkpt lat="59.433390724741" lon="17.828652585429">
        <ele>10.6</ele>
        <time>2013-08-20T20:44:58Z</time>
      </trkpt>
      <trkpt lat="59.433437411924" lon="17.828633390878">
        <ele>11.2</ele>
        <time>2013-08-20T20:44:59Z</time>
      </trkpt>
      <trkpt lat="59.433486865134" lon="17.828616710897">
        <ele>11.6</ele>
        <time>2013-08-20T20:45:00Z</time>
      </trkpt>
      <trkpt lat="59.433539084371" lon="17.828609837739">
        <ele>12</ele>
        <time>2013-08-20T20:45:01Z</time>
      </trkpt>
      <trkpt lat="59.433591387427" lon="17.828604557142">
        <ele>12.4</ele>
        <time>2013-08-20T20:45:02Z</time>
      </trkpt>
      <trkpt lat="59.433753493373" lon="17.828599444183">
        <ele>12.4</ele>
        <time>2013-08-20T20:45:05Z</time>
      </trkpt>
      <trkpt lat="59.433910067265" lon="17.82857119718">
        <ele>12.4</ele>
        <time>2013-08-20T20:45:08Z</time>
      </trkpt>
      <trkpt lat="59.434068149899" lon="17.828535322648">
        <ele>12.4</ele>
        <time>2013-08-20T20:45:11Z</time>
      </trkpt>
      <trkpt lat="59.434168984156" lon="17.828517720658">
        <ele>12.8</ele>
        <time>2013-08-20T20:45:13Z</time>
      </trkpt>
      <trkpt lat="59.434215336063" lon="17.828510931319">
        <ele>13.2</ele>
        <time>2013-08-20T20:45:14Z</time>
      </trkpt>
      <trkpt lat="59.434265795101" lon="17.828500453944">
        <ele>13.6</ele>
        <time>2013-08-20T20:45:15Z</time>
      </trkpt>
      <trkpt lat="59.434317762881" lon="17.82848821637">
        <ele>14.2</ele>
        <time>2013-08-20T20:45:16Z</time>
      </trkpt>
      <trkpt lat="59.434366377901" lon="17.828476649348">
        <ele>14.6</ele>
        <time>2013-08-20T20:45:17Z</time>
      </trkpt>
      <trkpt lat="59.434601238739" lon="17.82842451393">
        <ele>14.6</ele>
        <time>2013-08-20T20:45:22Z</time>
      </trkpt>
      <trkpt lat="59.434774157336" lon="17.828423843378">
        <ele>15</ele>
        <time>2013-08-20T20:45:26Z</time>
      </trkpt>
      <trkpt lat="59.43481824613" lon="17.828427782871">
        <ele>15.4</ele>
        <time>2013-08-20T20:45:27Z</time>
      </trkpt>
      <trkpt lat="59.434861161458" lon="17.828426777043">
        <ele>15.8</ele>
        <time>2013-08-20T20:45:28Z</time>
      </trkpt>
      <trkpt lat="59.434900221112" lon="17.828431806183">
        <ele>16.2</ele>
        <time>2013-08-20T20:45:29Z</time>
      </trkpt>
      <trkpt lat="59.434937352929" lon="17.828457454797">
        <ele>16.6</ele>
        <time>2013-08-20T20:45:30Z</time>
      </trkpt>
      <trkpt lat="59.43497498766" lon="17.82850665655">
        <ele>16.6</ele>
        <time>2013-08-20T20:45:31Z</time>
      </trkpt>
      <trkpt lat="59.435043383964" lon="17.828629367566">
        <ele>16.6</ele>
        <time>2013-08-20T20:45:33Z</time>
      </trkpt>
      <trkpt lat="59.435104655653" lon="17.828730118004">
        <ele>16.6</ele>
        <time>2013-08-20T20:45:35Z</time>
      </trkpt>
      <trkpt lat="59.435145726963" lon="17.828767920373">
        <ele>16.6</ele>
        <time>2013-08-20T20:45:36Z</time>
      </trkpt>
      <trkpt lat="59.435244549564" lon="17.828775799359">
        <ele>16.6</ele>
        <time>2013-08-20T20:45:38Z</time>
      </trkpt>
      <trkpt lat="59.435386958045" lon="17.828717628973">
        <ele>17</ele>
        <time>2013-08-20T20:45:41Z</time>
      </trkpt>
      <trkpt lat="59.435438339092" lon="17.828690052522">
        <ele>17.6</ele>
        <time>2013-08-20T20:45:42Z</time>
      </trkpt>
      <trkpt lat="59.435486954112" lon="17.828658201302">
        <ele>18</ele>
        <time>2013-08-20T20:45:43Z</time>
      </trkpt>
      <trkpt lat="59.435535401494" lon="17.828622242951">
        <ele>18.4</ele>
        <time>2013-08-20T20:45:44Z</time>
      </trkpt>
      <trkpt lat="59.435585441437" lon="17.828583267116">
        <ele>18.8</ele>
        <time>2013-08-20T20:45:45Z</time>
      </trkpt>
      <trkpt lat="59.435725838262" lon="17.828456281331">
        <ele>18.8</ele>
        <time>2013-08-20T20:45:48Z</time>
      </trkpt>
      <trkpt lat="59.435813680574" lon="17.828364415707">
        <ele>18.8</ele>
        <time>2013-08-20T20:45:50Z</time>
      </trkpt>
      <trkpt lat="59.436096904975" lon="17.828106672282">
        <ele>19.2</ele>
        <time>2013-08-20T20:45:56Z</time>
      </trkpt>
      <trkpt lat="59.436144597986" lon="17.828061829117">
        <ele>19.6</ele>
        <time>2013-08-20T20:45:57Z</time>
      </trkpt>
      <trkpt lat="59.436191871902" lon="17.828015561029">
        <ele>20</ele>
        <time>2013-08-20T20:45:58Z</time>
      </trkpt>
      <trkpt lat="59.436237637076" lon="17.827969125303">
        <ele>20.4</ele>
        <time>2013-08-20T20:45:59Z</time>
      </trkpt>
      <trkpt lat="59.436282731698" lon="17.827924030681">
        <ele>20.8</ele>
        <time>2013-08-20T20:46:00Z</time>
      </trkpt>
      <trkpt lat="59.436567045746" lon="17.827645919239">
        <ele>20.8</ele>
        <time>2013-08-20T20:46:06Z</time>
      </trkpt>
      <trkpt lat="59.436874577657" lon="17.82748406475">
        <ele>20.8</ele>
        <time>2013-08-20T20:46:12Z</time>
      </trkpt>
      <trkpt lat="59.437190072373" lon="17.827557071099">
        <ele>20.8</ele>
        <time>2013-08-20T20:46:18Z</time>
      </trkpt>
      <trkpt lat="59.437513446075" lon="17.827746837315">
        <ele>20.8</ele>
        <time>2013-08-20T20:46:24Z</time>
      </trkpt>
      <trkpt lat="59.437926589926" lon="17.827994103365">
        <ele>20.8</ele>
        <time>2013-08-20T20:46:31Z</time>
      </trkpt>
      <trkpt lat="59.437984341217" lon="17.828013968468">
        <ele>20.8</ele>
        <time>2013-08-20T20:46:32Z</time>
      </trkpt>
      <trkpt lat="59.438152314493" lon="17.828068031723">
        <ele>20.8</ele>
        <time>2013-08-20T20:46:35Z</time>
      </trkpt>
      <trkpt lat="59.438307798738" lon="17.827880612439">
        <ele>20.8</ele>
        <time>2013-08-20T20:46:38Z</time>
      </trkpt>
      <trkpt lat="59.438413075402" lon="17.827465037837">
        <ele>20.8</ele>
        <time>2013-08-20T20:46:42Z</time>
      </trkpt>
      <trkpt lat="59.438517430057" lon="17.826899594863">
        <ele>20.8</ele>
        <time>2013-08-20T20:46:47Z</time>
      </trkpt>
      <trkpt lat="59.438555483883" lon="17.826796413674">
        <ele>20.8</ele>
        <time>2013-08-20T20:46:48Z</time>
      </trkpt>
      <trkpt lat="59.438743657538" lon="17.826666410405">
        <ele>20.8</ele>
        <time>2013-08-20T20:46:51Z</time>
      </trkpt>
      <trkpt lat="59.438897046308" lon="17.826707984629">
        <ele>20.8</ele>
        <time>2013-08-20T20:46:53Z</time>
      </trkpt>
      <trkpt lat="59.439066360688" lon="17.826747211921">
        <ele>20.8</ele>
        <time>2013-08-20T20:46:55Z</time>
      </trkpt>
      <trkpt lat="59.439548487576" lon="17.826777135304">
        <ele>20.8</ele>
        <time>2013-08-20T20:47:00Z</time>
      </trkpt>
      <trkpt lat="59.439854678383" lon="17.826745954636">
        <ele>20.4</ele>
        <time>2013-08-20T20:47:03Z</time>
      </trkpt>
      <trkpt lat="59.439958362486" lon="17.826719886927">
        <ele>20</ele>
        <time>2013-08-20T20:47:04Z</time>
      </trkpt>
      <trkpt lat="59.44006363915" lon="17.826687448974">
        <ele>19.6</ele>
        <time>2013-08-20T20:47:05Z</time>
      </trkpt>
      <trkpt lat="59.440167155615" lon="17.826655262478">
        <ele>19.2</ele>
        <time>2013-08-20T20:47:06Z</time>
      </trkpt>
      <trkpt lat="59.440269163338" lon="17.826620896688">
        <ele>18.8</ele>
        <time>2013-08-20T20:47:07Z</time>
      </trkpt>
      <trkpt lat="59.440866373713" lon="17.826334570984">
        <ele>18.8</ele>
        <time>2013-08-20T20:47:13Z</time>
      </trkpt>
      <trkpt lat="59.441403150589" lon="17.825969036325">
        <ele>18.8</ele>
        <time>2013-08-20T20:47:19Z</time>
      </trkpt>
      <trkpt lat="59.441484957933" lon="17.825910698301">
        <ele>18.8</ele>
        <time>2013-08-20T20:47:20Z</time>
      </trkpt>
      <trkpt lat="59.441646728603" lon="17.825804499628">
        <ele>19.2</ele>
        <time>2013-08-20T20:47:22Z</time>
      </trkpt>
      <trkpt lat="59.441726524291" lon="17.825751190744">
        <ele>19.8</ele>
        <time>2013-08-20T20:47:23Z</time>
      </trkpt>
      <trkpt lat="59.441809672739" lon="17.82569369091">
        <ele>20.6</ele>
        <time>2013-08-20T20:47:24Z</time>
      </trkpt>
      <trkpt lat="59.441890977169" lon="17.825642728958">
        <ele>21</ele>
        <time>2013-08-20T20:47:25Z</time>
      </trkpt>
      <trkpt lat="59.441973119789" lon="17.825594616852">
        <ele>21</ele>
        <time>2013-08-20T20:47:26Z</time>
      </trkpt>
      <trkpt lat="59.442477542531" lon="17.825379621117">
        <ele>21</ele>
        <time>2013-08-20T20:47:32Z</time>
      </trkpt>
      <trkpt lat="59.442902504861" lon="17.825280547059">
        <ele>21</ele>
        <time>2013-08-20T20:47:37Z</time>
      </trkpt>
      <trkpt lat="59.443483957264" lon="17.825159847699">
        <ele>21</ele>
        <time>2013-08-20T20:47:44Z</time>
      </trkpt>
      <trkpt lat="59.443989804929" lon="17.825199494086">
        <ele>21</ele>
        <time>2013-08-20T20:47:50Z</time>
      </trkpt>
      <trkpt lat="59.444588691684" lon="17.825315248125">
        <ele>21</ele>
        <time>2013-08-20T20:47:57Z</time>
      </trkpt>
      <trkpt lat="59.444674019426" lon="17.825327318061">
        <ele>21</ele>
        <time>2013-08-20T20:47:58Z</time>
      </trkpt>
      <trkpt lat="59.445191937027" lon="17.825460171176">
        <ele>21</ele>
        <time>2013-08-20T20:48:04Z</time>
      </trkpt>
      <trkpt lat="59.445636093908" lon="17.825535692095">
        <ele>21</ele>
        <time>2013-08-20T20:48:09Z</time>
      </trkpt>
      <trkpt lat="59.4461782352" lon="17.825570057885">
        <ele>21</ele>
        <time>2013-08-20T20:48:15Z</time>
      </trkpt>
      <trkpt lat="59.446637395682" lon="17.825490597473">
        <ele>21</ele>
        <time>2013-08-20T20:48:20Z</time>
      </trkpt>
      <trkpt lat="59.447175765119" lon="17.825344333318">
        <ele>21</ele>
        <time>2013-08-20T20:48:26Z</time>
      </trkpt>
      <trkpt lat="59.447381792221" lon="17.825227741089">
        <ele>21</ele>
        <time>2013-08-20T20:48:29Z</time>
      </trkpt>
      <trkpt lat="59.447560745786" lon="17.825074855233">
        <ele>21</ele>
        <time>2013-08-20T20:48:32Z</time>
      </trkpt>
      <trkpt lat="59.44769787367" lon="17.824961783402">
        <ele>21</ele>
        <time>2013-08-20T20:48:34Z</time>
      </trkpt>
      <trkpt lat="59.44822593337" lon="17.824563224057">
        <ele>21</ele>
        <time>2013-08-20T20:48:42Z</time>
      </trkpt>
      <trkpt lat="59.448461548579" lon="17.824416540807">
        <ele>21</ele>
        <time>2013-08-20T20:48:46Z</time>
      </trkpt>
      <trkpt lat="59.448514019273" lon="17.824390473098">
        <ele>21</ele>
        <time>2013-08-20T20:48:47Z</time>
      </trkpt>
      <trkpt lat="59.448588534364" lon="17.824350239978">
        <ele>21.6</ele>
        <time>2013-08-20T20:48:49Z</time>
      </trkpt>
      <trkpt lat="59.448604879069" lon="17.824339511146">
        <ele>22</ele>
        <time>2013-08-20T20:48:50Z</time>
      </trkpt>
      <trkpt lat="59.448618541566" lon="17.824327525029">
        <ele>22.6</ele>
        <time>2013-08-20T20:48:51Z</time>
      </trkpt>
      <trkpt lat="59.448652739718" lon="17.824292153411">
        <ele>23</ele>
        <time>2013-08-20T20:48:52Z</time>
      </trkpt>
      <trkpt lat="59.448679226522" lon="17.824233983025">
        <ele>23.6</ele>
        <time>2013-08-20T20:48:53Z</time>
      </trkpt>
      <trkpt lat="59.448714262864" lon="17.824058130763">
        <ele>23.6</ele>
        <time>2013-08-20T20:48:55Z</time>
      </trkpt>
      <trkpt lat="59.448686518775" lon="17.823558234247">
        <ele>23.6</ele>
        <time>2013-08-20T20:49:00Z</time>
      </trkpt>
      <trkpt lat="59.44863580828" lon="17.822771676751">
        <ele>23.6</ele>
        <time>2013-08-20T20:49:07Z</time>
      </trkpt>
      <trkpt lat="59.448617200462" lon="17.821911945268">
        <ele>23.6</ele>
        <time>2013-08-20T20:49:14Z</time>
      </trkpt>
      <trkpt lat="59.448633628986" lon="17.821066211558">
        <ele>23.6</ele>
        <time>2013-08-20T20:49:21Z</time>
      </trkpt>
      <trkpt lat="59.448675538486" lon="17.820243276616">
        <ele>22.8</ele>
        <time>2013-08-20T20:49:27Z</time>
      </trkpt>
      <trkpt lat="59.448686183499" lon="17.82009961085">
        <ele>22.4</ele>
        <time>2013-08-20T20:49:28Z</time>
      </trkpt>
      <trkpt lat="59.44870034891" lon="17.819955609808">
        <ele>22</ele>
        <time>2013-08-20T20:49:29Z</time>
      </trkpt>
      <trkpt lat="59.448710826285" lon="17.819813285146">
        <ele>21.6</ele>
        <time>2013-08-20T20:49:30Z</time>
      </trkpt>
      <trkpt lat="59.448750975586" lon="17.819378851269">
        <ele>21.6</ele>
        <time>2013-08-20T20:49:33Z</time>
      </trkpt>
      <trkpt lat="59.448803781556" lon="17.818935113483">
        <ele>21.2</ele>
        <time>2013-08-20T20:49:36Z</time>
      </trkpt>
      <trkpt lat="59.448821718822" lon="17.818791028622">
        <ele>20.8</ele>
        <time>2013-08-20T20:49:37Z</time>
      </trkpt>
      <trkpt lat="59.448842254477" lon="17.818647446675">
        <ele>20.4</ele>
        <time>2013-08-20T20:49:38Z</time>
      </trkpt>
      <trkpt lat="59.448861532847" lon="17.818505541108">
        <ele>20</ele>
        <time>2013-08-20T20:49:39Z</time>
      </trkpt>
      <trkpt lat="59.448882571416" lon="17.818360115143">
        <ele>19.6</ele>
        <time>2013-08-20T20:49:40Z</time>
      </trkpt>
      <trkpt lat="59.448949794254" lon="17.817932302967">
        <ele>19.2</ele>
        <time>2013-08-20T20:49:43Z</time>
      </trkpt>
      <trkpt lat="59.448972844479" lon="17.817781428767">
        <ele>18.8</ele>
        <time>2013-08-20T20:49:44Z</time>
      </trkpt>
      <trkpt lat="59.449001342939" lon="17.817618149355">
        <ele>18.2</ele>
        <time>2013-08-20T20:49:45Z</time>
      </trkpt>
      <trkpt lat="59.449034199987" lon="17.817445733672">
        <ele>17.8</ele>
        <time>2013-08-20T20:49:46Z</time>
      </trkpt>
      <trkpt lat="59.449070912709" lon="17.8172623377">
        <ele>17.4</ele>
        <time>2013-08-20T20:49:47Z</time>
      </trkpt>
      <trkpt lat="59.449158168288" lon="17.816884146372">
        <ele>17</ele>
        <time>2013-08-20T20:49:49Z</time>
      </trkpt>
      <trkpt lat="59.449204268738" lon="17.81669320669">
        <ele>16.6</ele>
        <time>2013-08-20T20:49:50Z</time>
      </trkpt>
      <trkpt lat="59.449252380844" lon="17.81649287928">
        <ele>16.2</ele>
        <time>2013-08-20T20:49:51Z</time>
      </trkpt>
      <trkpt lat="59.449304516262" lon="17.816291629861">
        <ele>15.2</ele>
        <time>2013-08-20T20:49:52Z</time>
      </trkpt>
      <trkpt lat="59.449415492618" lon="17.815895585086">
        <ele>14.8</ele>
        <time>2013-08-20T20:49:54Z</time>
      </trkpt>
      <trkpt lat="59.449471902805" lon="17.815691066726">
        <ele>14.2</ele>
        <time>2013-08-20T20:49:55Z</time>
      </trkpt>
      <trkpt lat="59.449532252485" lon="17.815470958032">
        <ele>13.8</ele>
        <time>2013-08-20T20:49:56Z</time>
      </trkpt>
      <trkpt lat="59.44959134488" lon="17.815262164903">
        <ele>13.2</ele>
        <time>2013-08-20T20:49:57Z</time>
      </trkpt>
      <trkpt lat="59.449652951845" lon="17.815054964335">
        <ele>12.8</ele>
        <time>2013-08-20T20:49:58Z</time>
      </trkpt>
      <trkpt lat="59.449718163027" lon="17.814841058247">
        <ele>12.2</ele>
        <time>2013-08-20T20:49:59Z</time>
      </trkpt>
      <trkpt lat="59.449781278734" lon="17.8146220392">
        <ele>11.8</ele>
        <time>2013-08-20T20:50:00Z</time>
      </trkpt>
      <trkpt lat="59.44984866921" lon="17.814408384569">
        <ele>11.4</ele>
        <time>2013-08-20T20:50:01Z</time>
      </trkpt>
      <trkpt lat="59.449919831541" lon="17.814196909232">
        <ele>11</ele>
        <time>2013-08-20T20:50:02Z</time>
      </trkpt>
      <trkpt lat="59.449991412967" lon="17.813986942637">
        <ele>10.4</ele>
        <time>2013-08-20T20:50:03Z</time>
      </trkpt>
      <trkpt lat="59.450147567764" lon="17.813561980307">
        <ele>10.4</ele>
        <time>2013-08-20T20:50:05Z</time>
      </trkpt>
      <trkpt lat="59.450540846512" lon="17.812546848398">
        <ele>10.4</ele>
        <time>2013-08-20T20:50:10Z</time>
      </trkpt>
      <trkpt lat="59.450706472856" lon="17.812141248257">
        <ele>10.4</ele>
        <time>2013-08-20T20:50:12Z</time>
      </trkpt>
      <trkpt lat="59.450786352363" lon="17.81194486034">
        <ele>10</ele>
        <time>2013-08-20T20:50:13Z</time>
      </trkpt>
      <trkpt lat="59.450867237698" lon="17.811747466595">
        <ele>9.6</ele>
        <time>2013-08-20T20:50:14Z</time>
      </trkpt>
      <trkpt lat="59.450950302327" lon="17.81155677837">
        <ele>9.2</ele>
        <time>2013-08-20T20:50:15Z</time>
      </trkpt>
      <trkpt lat="59.451031439119" lon="17.81136734743">
        <ele>8.8</ele>
        <time>2013-08-20T20:50:16Z</time>
      </trkpt>
      <trkpt lat="59.451116347766" lon="17.811185544019">
        <ele>8.4</ele>
        <time>2013-08-20T20:50:17Z</time>
      </trkpt>
      <trkpt lat="59.451287254707" lon="17.810803413198">
        <ele>8.4</ele>
        <time>2013-08-20T20:50:19Z</time>
      </trkpt>
      <trkpt lat="59.451701572024" lon="17.80991727873">
        <ele>8.4</ele>
        <time>2013-08-20T20:50:24Z</time>
      </trkpt>
      <trkpt lat="59.451858900287" lon="17.809578398513">
        <ele>8.4</ele>
        <time>2013-08-20T20:50:26Z</time>
      </trkpt>
      <trkpt lat="59.452270535396" lon="17.808763007281">
        <ele>8.4</ele>
        <time>2013-08-20T20:50:31Z</time>
      </trkpt>
      <trkpt lat="59.452429204763" lon="17.808452793162">
        <ele>8.4</ele>
        <time>2013-08-20T20:50:33Z</time>
      </trkpt>
      <trkpt lat="59.452733635371" lon="17.807899587762">
        <ele>8.4</ele>
        <time>2013-08-20T20:50:37Z</time>
      </trkpt>
      <trkpt lat="59.453059942738" lon="17.807311262201">
        <ele>8.4</ele>
        <time>2013-08-20T20:50:42Z</time>
      </trkpt>
      <trkpt lat="59.453281643993" lon="17.806955534365">
        <ele>8.8</ele>
        <time>2013-08-20T20:50:46Z</time>
      </trkpt>
      <trkpt lat="59.453329839918" lon="17.806876828324">
        <ele>9.2</ele>
        <time>2013-08-20T20:50:47Z</time>
      </trkpt>
      <trkpt lat="59.453375437454" lon="17.806802480871">
        <ele>9.6</ele>
        <time>2013-08-20T20:50:48Z</time>
      </trkpt>
      <trkpt lat="59.453420615895" lon="17.806720673527">
        <ele>10</ele>
        <time>2013-08-20T20:50:49Z</time>
      </trkpt>
      <trkpt lat="59.453463112128" lon="17.806642302762">
        <ele>10.4</ele>
        <time>2013-08-20T20:50:50Z</time>
      </trkpt>
      <trkpt lat="59.453585739325" lon="17.806432419986">
        <ele>10.4</ele>
        <time>2013-08-20T20:50:53Z</time>
      </trkpt>
      <trkpt lat="59.453897462186" lon="17.805889691961">
        <ele>10.4</ele>
        <time>2013-08-20T20:51:01Z</time>
      </trkpt>
      <trkpt lat="59.453938868772" lon="17.805823894046">
        <ele>10.8</ele>
        <time>2013-08-20T20:51:02Z</time>
      </trkpt>
      <trkpt lat="59.454068704403" lon="17.805660446996">
        <ele>12</ele>
        <time>2013-08-20T20:51:03Z</time>
      </trkpt>
      <trkpt lat="59.454068704403" lon="17.805660446996">
        <ele>12</ele>
        <time>2013-08-20T20:51:06Z</time>
      </trkpt>
      <trkpt lat="59.454113044654" lon="17.805598588574">
        <ele>12.4</ele>
        <time>2013-08-20T20:51:07Z</time>
      </trkpt>
      <trkpt lat="59.454158306914" lon="17.805530946641">
        <ele>12.4</ele>
        <time>2013-08-20T20:51:08Z</time>
      </trkpt>
      <trkpt lat="59.454344552732" lon="17.805248895706">
        <ele>12.4</ele>
        <time>2013-08-20T20:51:12Z</time>
      </trkpt>
      <trkpt lat="59.454392581019" lon="17.805181253773">
        <ele>12.4</ele>
        <time>2013-08-20T20:51:13Z</time>
      </trkpt>
      <trkpt lat="59.454624256735" lon="17.80482946543">
        <ele>12.4</ele>
        <time>2013-08-20T20:51:18Z</time>
      </trkpt>
      <trkpt lat="59.454819387367" lon="17.804703234016">
        <ele>12.4</ele>
        <time>2013-08-20T20:51:22Z</time>
      </trkpt>
      <trkpt lat="59.454865655455" lon="17.80468026761">
        <ele>12.4</ele>
        <time>2013-08-20T20:51:23Z</time>
      </trkpt>
      <trkpt lat="59.454930698999" lon="17.804564848847">
        <ele>12.4</ele>
        <time>2013-08-20T20:51:25Z</time>
      </trkpt>
      <trkpt lat="59.454994904353" lon="17.804458901631">
        <ele>12.4</ele>
        <time>2013-08-20T20:51:27Z</time>
      </trkpt>
      <trkpt lat="59.455119878482" lon="17.804388326033">
        <ele>12.4</ele>
        <time>2013-08-20T20:51:30Z</time>
      </trkpt>
      <trkpt lat="59.455208558984" lon="17.804391762612">
        <ele>12.4</ele>
        <time>2013-08-20T20:51:32Z</time>
      </trkpt>
      <trkpt lat="59.455301514255" lon="17.804413890828">
        <ele>12.4</ele>
        <time>2013-08-20T20:51:34Z</time>
      </trkpt>
      <trkpt lat="59.455343339936" lon="17.804429062067">
        <ele>12.4</ele>
        <time>2013-08-20T20:51:35Z</time>
      </trkpt>
      <trkpt lat="59.45546454221" lon="17.804501565502">
        <ele>12.8</ele>
        <time>2013-08-20T20:51:38Z</time>
      </trkpt>
      <trkpt lat="59.455504188597" lon="17.804533081446">
        <ele>13.4</ele>
        <time>2013-08-20T20:51:39Z</time>
      </trkpt>
      <trkpt lat="59.455545930459" lon="17.804564681209">
        <ele>13.8</ele>
        <time>2013-08-20T20:51:40Z</time>
      </trkpt>
      <trkpt lat="59.455582978457" lon="17.804607428899">
        <ele>14.2</ele>
        <time>2013-08-20T20:51:41Z</time>
      </trkpt>
      <trkpt lat="59.455624468862" lon="17.804647829657">
        <ele>14.6</ele>
        <time>2013-08-20T20:51:42Z</time>
      </trkpt>
      <trkpt lat="59.455835776561" lon="17.804830806534">
        <ele>14.6</ele>
        <time>2013-08-20T20:51:47Z</time>
      </trkpt>
      <trkpt lat="59.45597164716" lon="17.80494681203">
        <ele>15</ele>
        <time>2013-08-20T20:51:50Z</time>
      </trkpt>
      <trkpt lat="59.456015316859" lon="17.80498620696">
        <ele>15.4</ele>
        <time>2013-08-20T20:51:51Z</time>
      </trkpt>
      <trkpt lat="59.456059740929" lon="17.805025098976">
        <ele>15.8</ele>
        <time>2013-08-20T20:51:52Z</time>
      </trkpt>
      <trkpt lat="59.456104751732" lon="17.805057117834">
        <ele>16.2</ele>
        <time>2013-08-20T20:51:53Z</time>
      </trkpt>
      <trkpt lat="59.456151103639" lon="17.805092070357">
        <ele>16.6</ele>
        <time>2013-08-20T20:51:54Z</time>
      </trkpt>
      <trkpt lat="59.456473220056" lon="17.805341348063">
        <ele>16.6</ele>
        <time>2013-08-20T20:52:01Z</time>
      </trkpt>
      <trkpt lat="59.456517979402" lon="17.805367415772">
        <ele>16.6</ele>
        <time>2013-08-20T20:52:02Z</time>
      </trkpt>
      <trkpt lat="59.456697100605" lon="17.80549247372">
        <ele>16.6</ele>
        <time>2013-08-20T20:52:06Z</time>
      </trkpt>
      <trkpt lat="59.456962052464" lon="17.805667739249">
        <ele>16.6</ele>
        <time>2013-08-20T20:52:12Z</time>
      </trkpt>
      <trkpt lat="59.457015780443" lon="17.805639743703">
        <ele>16.6</ele>
        <time>2013-08-20T20:52:13Z</time>
      </trkpt>
      <trkpt lat="59.457134132871" lon="17.805458275568">
        <ele>16.6</ele>
        <time>2013-08-20T20:52:16Z</time>
      </trkpt>
      <trkpt lat="59.457285258528" lon="17.805195419184">
        <ele>16.6</ele>
        <time>2013-08-20T20:52:20Z</time>
      </trkpt>
      <trkpt lat="59.45731694211" lon="17.805129034536">
        <ele>16.6</ele>
        <time>2013-08-20T20:52:21Z</time>
      </trkpt>
      <trkpt lat="59.457421212946" lon="17.804947566401">
        <ele>16.6</ele>
        <time>2013-08-20T20:52:24Z</time>
      </trkpt>
      <trkpt lat="59.457540152107" lon="17.804786801559">
        <ele>16.6</ele>
        <time>2013-08-20T20:52:27Z</time>
      </trkpt>
      <trkpt lat="59.457582815978" lon="17.804742209851">
        <ele>16.6</ele>
        <time>2013-08-20T20:52:28Z</time>
      </trkpt>
      <trkpt lat="59.457672586127" lon="17.804653864625">
        <ele>16.6</ele>
        <time>2013-08-20T20:52:30Z</time>
      </trkpt>
      <trkpt lat="59.457767972149" lon="17.804561496087">
        <ele>16.6</ele>
        <time>2013-08-20T20:52:32Z</time>
      </trkpt>
      <trkpt lat="59.45781985611" lon="17.804529309591">
        <ele>16.6</ele>
        <time>2013-08-20T20:52:33Z</time>
      </trkpt>
      <trkpt lat="59.457991768879" lon="17.804451944654">
        <ele>16.6</ele>
        <time>2013-08-20T20:52:36Z</time>
      </trkpt>
      <trkpt lat="59.458050190722" lon="17.804435180854">
        <ele>16.6</ele>
        <time>2013-08-20T20:52:37Z</time>
      </trkpt>
      <trkpt lat="59.458282117895" lon="17.804394612458">
        <ele>16.6</ele>
        <time>2013-08-20T20:52:41Z</time>
      </trkpt>
      <trkpt lat="59.458394602993" lon="17.804428056239">
        <ele>16.6</ele>
        <time>2013-08-20T20:52:43Z</time>
      </trkpt>
      <trkpt lat="59.45869073552" lon="17.804457225251">
        <ele>16.6</ele>
        <time>2013-08-20T20:52:49Z</time>
      </trkpt>
      <trkpt lat="59.458734656676" lon="17.804443311297">
        <ele>16.6</ele>
        <time>2013-08-20T20:52:50Z</time>
      </trkpt>
    </trkseg>
  </trk>
</gpx>